<?xml version="1.0" encoding="utf-8"?>
<gpx xmlns:xsi="http://www.w3.org/2001/XMLSchema-instance" xmlns:xsd="http://www.w3.org/2001/XMLSchema" version="1.1" creator="Shapelink.com" xmlns="http://www.topografix.com/GPX/1/1" xmlns:gpxtpx="http://www.garmin.com/xmlschemas/TrackPointExtension/v1">
  <metadata>
    <name>Cykling 15.71 km, 2013-11-20</name>
    <desc></desc>
    <author><name>Stefan Östlund</name></author> 
    <time>2013-11-20T20:11:25Z</time>
  </metadata>
  <trk>
    <name>Cykling 15.71 km, 2013-11-20</name>
    <trkseg>
      <trkpt lat="59.9847207" lon="15.8277545">
        <ele>105</ele>
        <time>2013-11-20T20:11:25Z</time>
      </trkpt>
      <trkpt lat="59.9847199" lon="15.8277656">
        <ele>105</ele>
        <time>2013-11-20T20:11:26Z</time>
      </trkpt>
      <trkpt lat="59.9847197" lon="15.8277688">
        <ele>104.8</ele>
        <time>2013-11-20T20:11:27Z</time>
        <extensions><gpxtpx:TrackPointExtension><gpxtpx:hr>53</gpxtpx:hr></gpxtpx:TrackPointExtension></extensions>
      </trkpt>
      <trkpt lat="59.9847183" lon="15.8277694">
        <ele>104.8</ele>
        <time>2013-11-20T20:11:28Z</time>
        <extensions><gpxtpx:TrackPointExtension><gpxtpx:hr>53</gpxtpx:hr></gpxtpx:TrackPointExtension></extensions>
      </trkpt>
      <trkpt lat="59.9847161" lon="15.8277642">
        <ele>104.8</ele>
        <time>2013-11-20T20:11:29Z</time>
        <extensions><gpxtpx:TrackPointExtension><gpxtpx:hr>53</gpxtpx:hr></gpxtpx:TrackPointExtension></extensions>
      </trkpt>
      <trkpt lat="59.9847169" lon="15.8277591">
        <ele>105</ele>
        <time>2013-11-20T20:11:31Z</time>
        <extensions><gpxtpx:TrackPointExtension><gpxtpx:hr>53</gpxtpx:hr></gpxtpx:TrackPointExtension></extensions>
      </trkpt>
      <trkpt lat="59.984716" lon="15.8277575">
        <ele>104.8</ele>
        <time>2013-11-20T20:11:32Z</time>
        <extensions><gpxtpx:TrackPointExtension><gpxtpx:hr>48</gpxtpx:hr></gpxtpx:TrackPointExtension></extensions>
      </trkpt>
      <trkpt lat="59.9847144" lon="15.8277545">
        <ele>104.8</ele>
        <time>2013-11-20T20:11:33Z</time>
        <extensions><gpxtpx:TrackPointExtension><gpxtpx:hr>48</gpxtpx:hr></gpxtpx:TrackPointExtension></extensions>
      </trkpt>
      <trkpt lat="59.984742" lon="15.8277164">
        <ele>104.8</ele>
        <time>2013-11-20T20:11:35Z</time>
        <extensions><gpxtpx:TrackPointExtension><gpxtpx:hr>48</gpxtpx:hr></gpxtpx:TrackPointExtension></extensions>
      </trkpt>
      <trkpt lat="59.9847451" lon="15.8277021">
        <ele>104.8</ele>
        <time>2013-11-20T20:11:36Z</time>
        <extensions><gpxtpx:TrackPointExtension><gpxtpx:hr>48</gpxtpx:hr></gpxtpx:TrackPointExtension></extensions>
      </trkpt>
      <trkpt lat="59.9847476" lon="15.8277008">
        <ele>104.8</ele>
        <time>2013-11-20T20:11:42Z</time>
      </trkpt>
      <trkpt lat="59.9847466" lon="15.8277058">
        <ele>105</ele>
        <time>2013-11-20T20:11:43Z</time>
      </trkpt>
      <trkpt lat="59.984744" lon="15.8277629">
        <ele>104.8</ele>
        <time>2013-11-20T20:11:44Z</time>
      </trkpt>
      <trkpt lat="59.9847456" lon="15.8277753">
        <ele>104.8</ele>
        <time>2013-11-20T20:11:45Z</time>
      </trkpt>
      <trkpt lat="59.9847448" lon="15.8277768">
        <ele>104.8</ele>
        <time>2013-11-20T20:11:46Z</time>
      </trkpt>
      <trkpt lat="59.9847421" lon="15.8277759">
        <ele>105</ele>
        <time>2013-11-20T20:11:48Z</time>
      </trkpt>
      <trkpt lat="59.9847423" lon="15.8277716">
        <ele>104.8</ele>
        <time>2013-11-20T20:11:49Z</time>
      </trkpt>
      <trkpt lat="59.984743" lon="15.8277671">
        <ele>105</ele>
        <time>2013-11-20T20:11:50Z</time>
      </trkpt>
      <trkpt lat="59.9847441" lon="15.8277605">
        <ele>104.8</ele>
        <time>2013-11-20T20:11:51Z</time>
      </trkpt>
      <trkpt lat="59.984767" lon="15.8277643">
        <ele>105</ele>
        <time>2013-11-20T20:11:52Z</time>
      </trkpt>
      <trkpt lat="59.9847693" lon="15.8277605">
        <ele>104.8</ele>
        <time>2013-11-20T20:11:53Z</time>
      </trkpt>
      <trkpt lat="59.9847721" lon="15.8277523">
        <ele>104.8</ele>
        <time>2013-11-20T20:11:55Z</time>
      </trkpt>
      <trkpt lat="59.9847718" lon="15.8277497">
        <ele>104.8</ele>
        <time>2013-11-20T20:11:56Z</time>
      </trkpt>
      <trkpt lat="59.9847806" lon="15.8277497">
        <ele>105</ele>
        <time>2013-11-20T20:12:02Z</time>
      </trkpt>
      <trkpt lat="59.9847818" lon="15.8277485">
        <ele>104.8</ele>
        <time>2013-11-20T20:12:03Z</time>
      </trkpt>
      <trkpt lat="59.9847829" lon="15.8277459">
        <ele>105</ele>
        <time>2013-11-20T20:12:04Z</time>
      </trkpt>
      <trkpt lat="59.9847844" lon="15.8277405">
        <ele>105</ele>
        <time>2013-11-20T20:12:05Z</time>
      </trkpt>
      <trkpt lat="59.9847853" lon="15.8277371">
        <ele>104.8</ele>
        <time>2013-11-20T20:12:06Z</time>
      </trkpt>
      <trkpt lat="59.9847902" lon="15.8277302">
        <ele>105</ele>
        <time>2013-11-20T20:12:08Z</time>
      </trkpt>
      <trkpt lat="59.9847929" lon="15.8277325">
        <ele>104.8</ele>
        <time>2013-11-20T20:12:09Z</time>
      </trkpt>
      <trkpt lat="59.9847941" lon="15.8277334">
        <ele>104.8</ele>
        <time>2013-11-20T20:12:11Z</time>
      </trkpt>
      <trkpt lat="59.9848204" lon="15.8277372">
        <ele>104.8</ele>
        <time>2013-11-20T20:12:12Z</time>
      </trkpt>
      <trkpt lat="59.9848243" lon="15.8277274">
        <ele>104.8</ele>
        <time>2013-11-20T20:12:13Z</time>
      </trkpt>
      <trkpt lat="59.9848271" lon="15.8277152">
        <ele>104.8</ele>
        <time>2013-11-20T20:12:14Z</time>
      </trkpt>
      <trkpt lat="59.9848341" lon="15.827696">
        <ele>104.8</ele>
        <time>2013-11-20T20:12:17Z</time>
      </trkpt>
      <trkpt lat="59.9848352" lon="15.8276929">
        <ele>104.8</ele>
        <time>2013-11-20T20:12:18Z</time>
      </trkpt>
      <trkpt lat="59.9848357" lon="15.8276934">
        <ele>104.8</ele>
        <time>2013-11-20T20:12:19Z</time>
      </trkpt>
      <trkpt lat="59.9848347" lon="15.8276955">
        <ele>104.8</ele>
        <time>2013-11-20T20:12:20Z</time>
      </trkpt>
      <trkpt lat="59.9848322" lon="15.8276991">
        <ele>104.8</ele>
        <time>2013-11-20T20:12:21Z</time>
      </trkpt>
      <trkpt lat="59.9848305" lon="15.8277041">
        <ele>104.8</ele>
        <time>2013-11-20T20:12:22Z</time>
      </trkpt>
      <trkpt lat="59.984833" lon="15.8277558">
        <ele>104.8</ele>
        <time>2013-11-20T20:12:23Z</time>
      </trkpt>
      <trkpt lat="59.9848306" lon="15.8277576">
        <ele>105</ele>
        <time>2013-11-20T20:12:24Z</time>
        <extensions><gpxtpx:TrackPointExtension><gpxtpx:hr>42</gpxtpx:hr></gpxtpx:TrackPointExtension></extensions>
      </trkpt>
      <trkpt lat="59.9848298" lon="15.8277721">
        <ele>105</ele>
        <time>2013-11-20T20:12:25Z</time>
        <extensions><gpxtpx:TrackPointExtension><gpxtpx:hr>42</gpxtpx:hr></gpxtpx:TrackPointExtension></extensions>
      </trkpt>
      <trkpt lat="59.9848272" lon="15.8277906">
        <ele>104.8</ele>
        <time>2013-11-20T20:12:26Z</time>
        <extensions><gpxtpx:TrackPointExtension><gpxtpx:hr>42</gpxtpx:hr></gpxtpx:TrackPointExtension></extensions>
      </trkpt>
      <trkpt lat="59.9848228" lon="15.8278047">
        <ele>104.8</ele>
        <time>2013-11-20T20:12:27Z</time>
        <extensions><gpxtpx:TrackPointExtension><gpxtpx:hr>42</gpxtpx:hr></gpxtpx:TrackPointExtension></extensions>
      </trkpt>
      <trkpt lat="59.9848133" lon="15.8278544">
        <ele>104.8</ele>
        <time>2013-11-20T20:12:30Z</time>
        <extensions><gpxtpx:TrackPointExtension><gpxtpx:hr>42</gpxtpx:hr></gpxtpx:TrackPointExtension></extensions>
      </trkpt>
      <trkpt lat="59.9848093" lon="15.8278759">
        <ele>104.8</ele>
        <time>2013-11-20T20:12:31Z</time>
        <extensions><gpxtpx:TrackPointExtension><gpxtpx:hr>42</gpxtpx:hr></gpxtpx:TrackPointExtension></extensions>
      </trkpt>
      <trkpt lat="59.9848113" lon="15.8278876">
        <ele>104.8</ele>
        <time>2013-11-20T20:12:32Z</time>
      </trkpt>
      <trkpt lat="59.9848099" lon="15.8278995">
        <ele>104.8</ele>
        <time>2013-11-20T20:12:33Z</time>
      </trkpt>
      <trkpt lat="59.9848103" lon="15.8279075">
        <ele>104.8</ele>
        <time>2013-11-20T20:12:34Z</time>
      </trkpt>
      <trkpt lat="59.9848093" lon="15.8279208">
        <ele>104.8</ele>
        <time>2013-11-20T20:12:35Z</time>
      </trkpt>
      <trkpt lat="59.9848059" lon="15.8279408">
        <ele>104.8</ele>
        <time>2013-11-20T20:12:36Z</time>
      </trkpt>
      <trkpt lat="59.9848051" lon="15.8279548">
        <ele>104.8</ele>
        <time>2013-11-20T20:12:37Z</time>
      </trkpt>
      <trkpt lat="59.9848015" lon="15.8279708">
        <ele>104.8</ele>
        <time>2013-11-20T20:12:38Z</time>
      </trkpt>
      <trkpt lat="59.9847994" lon="15.8279801">
        <ele>104.8</ele>
        <time>2013-11-20T20:12:39Z</time>
      </trkpt>
      <trkpt lat="59.9848026" lon="15.8279825">
        <ele>104.8</ele>
        <time>2013-11-20T20:12:40Z</time>
      </trkpt>
      <trkpt lat="59.9848038" lon="15.8279902">
        <ele>104.8</ele>
        <time>2013-11-20T20:12:41Z</time>
      </trkpt>
      <trkpt lat="59.9848031" lon="15.8279981">
        <ele>104.8</ele>
        <time>2013-11-20T20:12:42Z</time>
      </trkpt>
      <trkpt lat="59.9848059" lon="15.8280128">
        <ele>104.8</ele>
        <time>2013-11-20T20:12:44Z</time>
      </trkpt>
      <trkpt lat="59.9848187" lon="15.8280243">
        <ele>104.8</ele>
        <time>2013-11-20T20:12:51Z</time>
      </trkpt>
      <trkpt lat="59.9848366" lon="15.828006">
        <ele>104.8</ele>
        <time>2013-11-20T20:12:56Z</time>
      </trkpt>
      <trkpt lat="59.9848536" lon="15.8279593">
        <ele>104.8</ele>
        <time>2013-11-20T20:12:58Z</time>
      </trkpt>
      <trkpt lat="59.9848614" lon="15.8279377">
        <ele>105</ele>
        <time>2013-11-20T20:13:00Z</time>
      </trkpt>
      <trkpt lat="59.9848646" lon="15.8279311">
        <ele>105</ele>
        <time>2013-11-20T20:13:01Z</time>
      </trkpt>
      <trkpt lat="59.9848663" lon="15.8279281">
        <ele>104.8</ele>
        <time>2013-11-20T20:13:02Z</time>
      </trkpt>
      <trkpt lat="59.9848676" lon="15.827926">
        <ele>104.8</ele>
        <time>2013-11-20T20:13:03Z</time>
      </trkpt>
      <trkpt lat="59.9848668" lon="15.8279304">
        <ele>105</ele>
        <time>2013-11-20T20:13:05Z</time>
      </trkpt>
      <trkpt lat="59.9848626" lon="15.8279523">
        <ele>104.8</ele>
        <time>2013-11-20T20:13:06Z</time>
      </trkpt>
      <trkpt lat="59.9848632" lon="15.8279533">
        <ele>104.8</ele>
        <time>2013-11-20T20:13:07Z</time>
      </trkpt>
      <trkpt lat="59.9848639" lon="15.8279534">
        <ele>104.8</ele>
        <time>2013-11-20T20:13:08Z</time>
      </trkpt>
      <trkpt lat="59.9848651" lon="15.8279495">
        <ele>104.8</ele>
        <time>2013-11-20T20:13:09Z</time>
      </trkpt>
      <trkpt lat="59.9848674" lon="15.8279449">
        <ele>104.8</ele>
        <time>2013-11-20T20:13:11Z</time>
      </trkpt>
      <trkpt lat="59.9848683" lon="15.8279444">
        <ele>104.8</ele>
        <time>2013-11-20T20:13:12Z</time>
      </trkpt>
      <trkpt lat="59.9848693" lon="15.827946">
        <ele>104.8</ele>
        <time>2013-11-20T20:13:14Z</time>
      </trkpt>
      <trkpt lat="59.9848709" lon="15.8279433">
        <ele>104.8</ele>
        <time>2013-11-20T20:13:17Z</time>
      </trkpt>
      <trkpt lat="59.9848712" lon="15.8279436">
        <ele>104.8</ele>
        <time>2013-11-20T20:13:18Z</time>
      </trkpt>
      <trkpt lat="59.9848765" lon="15.8279424">
        <ele>105</ele>
        <time>2013-11-20T20:13:20Z</time>
      </trkpt>
      <trkpt lat="59.9848782" lon="15.8279498">
        <ele>104.8</ele>
        <time>2013-11-20T20:13:21Z</time>
      </trkpt>
      <trkpt lat="59.98488" lon="15.8279597">
        <ele>104.8</ele>
        <time>2013-11-20T20:13:22Z</time>
      </trkpt>
      <trkpt lat="59.9848861" lon="15.8279638">
        <ele>104.8</ele>
        <time>2013-11-20T20:13:23Z</time>
      </trkpt>
      <trkpt lat="59.9849061" lon="15.8279656">
        <ele>104.8</ele>
        <time>2013-11-20T20:13:25Z</time>
      </trkpt>
      <trkpt lat="59.9849132" lon="15.8279562">
        <ele>104.8</ele>
        <time>2013-11-20T20:13:26Z</time>
      </trkpt>
      <trkpt lat="59.9849321" lon="15.8279471">
        <ele>104.8</ele>
        <time>2013-11-20T20:13:27Z</time>
      </trkpt>
      <trkpt lat="59.9849392" lon="15.8279368">
        <ele>104.8</ele>
        <time>2013-11-20T20:13:28Z</time>
      </trkpt>
      <trkpt lat="59.9849402" lon="15.8279356">
        <ele>104.8</ele>
        <time>2013-11-20T20:13:29Z</time>
      </trkpt>
      <trkpt lat="59.9849407" lon="15.8279349">
        <ele>105</ele>
        <time>2013-11-20T20:13:30Z</time>
      </trkpt>
      <trkpt lat="59.9849409" lon="15.8279368">
        <ele>104.8</ele>
        <time>2013-11-20T20:13:31Z</time>
      </trkpt>
      <trkpt lat="59.9849416" lon="15.827938">
        <ele>104.8</ele>
        <time>2013-11-20T20:13:33Z</time>
      </trkpt>
      <trkpt lat="59.9849419" lon="15.8279381">
        <ele>104.8</ele>
        <time>2013-11-20T20:13:34Z</time>
      </trkpt>
      <trkpt lat="59.9849429" lon="15.8279379">
        <ele>104.8</ele>
        <time>2013-11-20T20:13:35Z</time>
      </trkpt>
      <trkpt lat="59.9849437" lon="15.8279379">
        <ele>104.8</ele>
        <time>2013-11-20T20:13:36Z</time>
      </trkpt>
      <trkpt lat="59.9849445" lon="15.8279357">
        <ele>104.8</ele>
        <time>2013-11-20T20:13:37Z</time>
      </trkpt>
      <trkpt lat="59.9849443" lon="15.8279381">
        <ele>105</ele>
        <time>2013-11-20T20:13:38Z</time>
      </trkpt>
      <trkpt lat="59.9849449" lon="15.8279392">
        <ele>105</ele>
        <time>2013-11-20T20:13:39Z</time>
      </trkpt>
      <trkpt lat="59.9849452" lon="15.8279403">
        <ele>105</ele>
        <time>2013-11-20T20:13:40Z</time>
      </trkpt>
      <trkpt lat="59.9849456" lon="15.8279412">
        <ele>105</ele>
        <time>2013-11-20T20:13:41Z</time>
      </trkpt>
      <trkpt lat="59.9849457" lon="15.827942">
        <ele>105</ele>
        <time>2013-11-20T20:13:42Z</time>
      </trkpt>
      <trkpt lat="59.9849455" lon="15.8279456">
        <ele>105</ele>
        <time>2013-11-20T20:13:43Z</time>
      </trkpt>
      <trkpt lat="59.9849457" lon="15.8279472">
        <ele>104.8</ele>
        <time>2013-11-20T20:13:44Z</time>
      </trkpt>
      <trkpt lat="59.984946" lon="15.8279484">
        <ele>105</ele>
        <time>2013-11-20T20:13:45Z</time>
      </trkpt>
      <trkpt lat="59.9849459" lon="15.8279508">
        <ele>105</ele>
        <time>2013-11-20T20:13:46Z</time>
      </trkpt>
      <trkpt lat="59.9849459" lon="15.8279526">
        <ele>104.8</ele>
        <time>2013-11-20T20:13:47Z</time>
      </trkpt>
      <trkpt lat="59.9849482" lon="15.8279536">
        <ele>105</ele>
        <time>2013-11-20T20:13:50Z</time>
      </trkpt>
      <trkpt lat="59.9849483" lon="15.8279562">
        <ele>104.8</ele>
        <time>2013-11-20T20:13:51Z</time>
      </trkpt>
      <trkpt lat="59.9849489" lon="15.8279559">
        <ele>104.8</ele>
        <time>2013-11-20T20:13:52Z</time>
      </trkpt>
      <trkpt lat="59.9849495" lon="15.8279541">
        <ele>104.8</ele>
        <time>2013-11-20T20:13:53Z</time>
      </trkpt>
      <trkpt lat="59.9849503" lon="15.8279532">
        <ele>104.8</ele>
        <time>2013-11-20T20:13:54Z</time>
      </trkpt>
      <trkpt lat="59.9849512" lon="15.8279529">
        <ele>104.8</ele>
        <time>2013-11-20T20:13:55Z</time>
      </trkpt>
      <trkpt lat="59.9849508" lon="15.8279539">
        <ele>105</ele>
        <time>2013-11-20T20:13:56Z</time>
      </trkpt>
      <trkpt lat="59.9849513" lon="15.8279539">
        <ele>105</ele>
        <time>2013-11-20T20:13:57Z</time>
      </trkpt>
      <trkpt lat="59.9849523" lon="15.8279554">
        <ele>107</ele>
        <time>2013-11-20T20:13:58Z</time>
      </trkpt>
      <trkpt lat="59.9849527" lon="15.8279572">
        <ele>107</ele>
        <time>2013-11-20T20:13:59Z</time>
      </trkpt>
      <trkpt lat="59.9849532" lon="15.8279643">
        <ele>107</ele>
        <time>2013-11-20T20:14:03Z</time>
      </trkpt>
      <trkpt lat="59.9849551" lon="15.8279736">
        <ele>106.8</ele>
        <time>2013-11-20T20:14:10Z</time>
      </trkpt>
      <trkpt lat="59.9849553" lon="15.8279765">
        <ele>107</ele>
        <time>2013-11-20T20:14:11Z</time>
      </trkpt>
      <trkpt lat="59.9849553" lon="15.8279777">
        <ele>107</ele>
        <time>2013-11-20T20:14:14Z</time>
      </trkpt>
      <trkpt lat="59.9849556" lon="15.8279779">
        <ele>107</ele>
        <time>2013-11-20T20:14:17Z</time>
      </trkpt>
      <trkpt lat="59.9849558" lon="15.8279773">
        <ele>107</ele>
        <time>2013-11-20T20:14:18Z</time>
      </trkpt>
      <trkpt lat="59.9849553" lon="15.8279767">
        <ele>107</ele>
        <time>2013-11-20T20:14:21Z</time>
      </trkpt>
      <trkpt lat="59.9849567" lon="15.8279747">
        <ele>107</ele>
        <time>2013-11-20T20:14:22Z</time>
      </trkpt>
      <trkpt lat="59.9849566" lon="15.8279775">
        <ele>107</ele>
        <time>2013-11-20T20:14:23Z</time>
      </trkpt>
      <trkpt lat="59.9849573" lon="15.827977">
        <ele>107</ele>
        <time>2013-11-20T20:14:24Z</time>
      </trkpt>
      <trkpt lat="59.9849581" lon="15.8279752">
        <ele>107</ele>
        <time>2013-11-20T20:14:25Z</time>
      </trkpt>
      <trkpt lat="59.9849577" lon="15.8279829">
        <ele>106.8</ele>
        <time>2013-11-20T20:14:27Z</time>
      </trkpt>
      <trkpt lat="59.9849574" lon="15.827984">
        <ele>107</ele>
        <time>2013-11-20T20:14:28Z</time>
      </trkpt>
      <trkpt lat="59.9849611" lon="15.8279752">
        <ele>106.8</ele>
        <time>2013-11-20T20:14:33Z</time>
      </trkpt>
      <trkpt lat="59.9849616" lon="15.8279748">
        <ele>107</ele>
        <time>2013-11-20T20:14:34Z</time>
      </trkpt>
      <trkpt lat="59.9849615" lon="15.8279761">
        <ele>107</ele>
        <time>2013-11-20T20:14:35Z</time>
      </trkpt>
      <trkpt lat="59.9849618" lon="15.827977">
        <ele>108</ele>
        <time>2013-11-20T20:14:36Z</time>
      </trkpt>
      <trkpt lat="59.9849622" lon="15.8279764">
        <ele>108</ele>
        <time>2013-11-20T20:14:37Z</time>
      </trkpt>
      <trkpt lat="59.9849618" lon="15.8279739">
        <ele>108</ele>
        <time>2013-11-20T20:14:38Z</time>
        <extensions><gpxtpx:TrackPointExtension><gpxtpx:hr>42</gpxtpx:hr></gpxtpx:TrackPointExtension></extensions>
      </trkpt>
      <trkpt lat="59.9849627" lon="15.8279728">
        <ele>108</ele>
        <time>2013-11-20T20:14:39Z</time>
        <extensions><gpxtpx:TrackPointExtension><gpxtpx:hr>41</gpxtpx:hr></gpxtpx:TrackPointExtension></extensions>
      </trkpt>
      <trkpt lat="59.9849626" lon="15.827985">
        <ele>108</ele>
        <time>2013-11-20T20:14:43Z</time>
        <extensions><gpxtpx:TrackPointExtension><gpxtpx:hr>41</gpxtpx:hr></gpxtpx:TrackPointExtension></extensions>
      </trkpt>
      <trkpt lat="59.9849636" lon="15.8279827">
        <ele>107.8</ele>
        <time>2013-11-20T20:14:44Z</time>
        <extensions><gpxtpx:TrackPointExtension><gpxtpx:hr>41</gpxtpx:hr></gpxtpx:TrackPointExtension></extensions>
      </trkpt>
      <trkpt lat="59.9849647" lon="15.8279886">
        <ele>107.8</ele>
        <time>2013-11-20T20:14:45Z</time>
        <extensions><gpxtpx:TrackPointExtension><gpxtpx:hr>41</gpxtpx:hr></gpxtpx:TrackPointExtension></extensions>
      </trkpt>
      <trkpt lat="59.9849648" lon="15.8279912">
        <ele>107.8</ele>
        <time>2013-11-20T20:14:46Z</time>
      </trkpt>
      <trkpt lat="59.984965" lon="15.8279901">
        <ele>107.8</ele>
        <time>2013-11-20T20:14:47Z</time>
      </trkpt>
      <trkpt lat="59.9849665" lon="15.8279925">
        <ele>107.8</ele>
        <time>2013-11-20T20:14:48Z</time>
      </trkpt>
      <trkpt lat="59.9849673" lon="15.8279945">
        <ele>107.8</ele>
        <time>2013-11-20T20:14:49Z</time>
      </trkpt>
      <trkpt lat="59.9849678" lon="15.8279946">
        <ele>107.8</ele>
        <time>2013-11-20T20:14:50Z</time>
      </trkpt>
      <trkpt lat="59.9849699" lon="15.827998">
        <ele>107.8</ele>
        <time>2013-11-20T20:14:51Z</time>
      </trkpt>
      <trkpt lat="59.9849705" lon="15.828012">
        <ele>108</ele>
        <time>2013-11-20T20:14:52Z</time>
      </trkpt>
      <trkpt lat="59.9849702" lon="15.8280277">
        <ele>108</ele>
        <time>2013-11-20T20:14:55Z</time>
      </trkpt>
      <trkpt lat="59.9849701" lon="15.8280223">
        <ele>108</ele>
        <time>2013-11-20T20:14:57Z</time>
      </trkpt>
      <trkpt lat="59.9849703" lon="15.8280211">
        <ele>108</ele>
        <time>2013-11-20T20:14:58Z</time>
        <extensions><gpxtpx:TrackPointExtension><gpxtpx:hr>41</gpxtpx:hr></gpxtpx:TrackPointExtension></extensions>
      </trkpt>
      <trkpt lat="59.9849703" lon="15.8280193">
        <ele>108</ele>
        <time>2013-11-20T20:14:59Z</time>
        <extensions><gpxtpx:TrackPointExtension><gpxtpx:hr>41</gpxtpx:hr></gpxtpx:TrackPointExtension></extensions>
      </trkpt>
      <trkpt lat="59.9849713" lon="15.8280222">
        <ele>108</ele>
        <time>2013-11-20T20:15:01Z</time>
        <extensions><gpxtpx:TrackPointExtension><gpxtpx:hr>41</gpxtpx:hr></gpxtpx:TrackPointExtension></extensions>
      </trkpt>
      <trkpt lat="59.9849715" lon="15.8280207">
        <ele>108</ele>
        <time>2013-11-20T20:15:02Z</time>
        <extensions><gpxtpx:TrackPointExtension><gpxtpx:hr>41</gpxtpx:hr></gpxtpx:TrackPointExtension></extensions>
      </trkpt>
      <trkpt lat="59.9849716" lon="15.8280212">
        <ele>108</ele>
        <time>2013-11-20T20:15:03Z</time>
      </trkpt>
      <trkpt lat="59.9849719" lon="15.82802">
        <ele>108</ele>
        <time>2013-11-20T20:15:04Z</time>
      </trkpt>
      <trkpt lat="59.984972" lon="15.8280193">
        <ele>108</ele>
        <time>2013-11-20T20:15:05Z</time>
        <extensions><gpxtpx:TrackPointExtension><gpxtpx:hr>41</gpxtpx:hr></gpxtpx:TrackPointExtension></extensions>
      </trkpt>
      <trkpt lat="59.9849725" lon="15.8280184">
        <ele>108</ele>
        <time>2013-11-20T20:15:06Z</time>
        <extensions><gpxtpx:TrackPointExtension><gpxtpx:hr>41</gpxtpx:hr></gpxtpx:TrackPointExtension></extensions>
      </trkpt>
      <trkpt lat="59.9849735" lon="15.8280146">
        <ele>107.8</ele>
        <time>2013-11-20T20:15:10Z</time>
        <extensions><gpxtpx:TrackPointExtension><gpxtpx:hr>41</gpxtpx:hr></gpxtpx:TrackPointExtension></extensions>
      </trkpt>
      <trkpt lat="59.984974" lon="15.8280095">
        <ele>108</ele>
        <time>2013-11-20T20:15:11Z</time>
        <extensions><gpxtpx:TrackPointExtension><gpxtpx:hr>41</gpxtpx:hr></gpxtpx:TrackPointExtension></extensions>
      </trkpt>
      <trkpt lat="59.9849747" lon="15.8280063">
        <ele>108</ele>
        <time>2013-11-20T20:15:12Z</time>
        <extensions><gpxtpx:TrackPointExtension><gpxtpx:hr>41</gpxtpx:hr></gpxtpx:TrackPointExtension></extensions>
      </trkpt>
      <trkpt lat="59.984975" lon="15.8280089">
        <ele>108</ele>
        <time>2013-11-20T20:15:13Z</time>
        <extensions><gpxtpx:TrackPointExtension><gpxtpx:hr>41</gpxtpx:hr></gpxtpx:TrackPointExtension></extensions>
      </trkpt>
      <trkpt lat="59.984975" lon="15.828017">
        <ele>108</ele>
        <time>2013-11-20T20:15:14Z</time>
        <extensions><gpxtpx:TrackPointExtension><gpxtpx:hr>41</gpxtpx:hr></gpxtpx:TrackPointExtension></extensions>
      </trkpt>
      <trkpt lat="59.984976" lon="15.8280197">
        <ele>108</ele>
        <time>2013-11-20T20:15:15Z</time>
        <extensions><gpxtpx:TrackPointExtension><gpxtpx:hr>64</gpxtpx:hr></gpxtpx:TrackPointExtension></extensions>
      </trkpt>
      <trkpt lat="59.9849751" lon="15.8280244">
        <ele>108</ele>
        <time>2013-11-20T20:15:16Z</time>
        <extensions><gpxtpx:TrackPointExtension><gpxtpx:hr>81</gpxtpx:hr></gpxtpx:TrackPointExtension></extensions>
      </trkpt>
      <trkpt lat="59.9849756" lon="15.8280285">
        <ele>108</ele>
        <time>2013-11-20T20:15:17Z</time>
        <extensions><gpxtpx:TrackPointExtension><gpxtpx:hr>100</gpxtpx:hr></gpxtpx:TrackPointExtension></extensions>
      </trkpt>
      <trkpt lat="59.9849749" lon="15.8280363">
        <ele>108</ele>
        <time>2013-11-20T20:15:18Z</time>
        <extensions><gpxtpx:TrackPointExtension><gpxtpx:hr>109</gpxtpx:hr></gpxtpx:TrackPointExtension></extensions>
      </trkpt>
      <trkpt lat="59.9849744" lon="15.8280413">
        <ele>108</ele>
        <time>2013-11-20T20:15:19Z</time>
        <extensions><gpxtpx:TrackPointExtension><gpxtpx:hr>115</gpxtpx:hr></gpxtpx:TrackPointExtension></extensions>
      </trkpt>
      <trkpt lat="59.9849745" lon="15.828045">
        <ele>108</ele>
        <time>2013-11-20T20:15:20Z</time>
        <extensions><gpxtpx:TrackPointExtension><gpxtpx:hr>123</gpxtpx:hr></gpxtpx:TrackPointExtension></extensions>
      </trkpt>
      <trkpt lat="59.9849749" lon="15.828047">
        <ele>108</ele>
        <time>2013-11-20T20:15:21Z</time>
        <extensions><gpxtpx:TrackPointExtension><gpxtpx:hr>126</gpxtpx:hr></gpxtpx:TrackPointExtension></extensions>
      </trkpt>
      <trkpt lat="59.9849741" lon="15.8280499">
        <ele>108</ele>
        <time>2013-11-20T20:15:22Z</time>
        <extensions><gpxtpx:TrackPointExtension><gpxtpx:hr>130</gpxtpx:hr></gpxtpx:TrackPointExtension></extensions>
      </trkpt>
      <trkpt lat="59.9849739" lon="15.8280531">
        <ele>109</ele>
        <time>2013-11-20T20:15:23Z</time>
        <extensions><gpxtpx:TrackPointExtension><gpxtpx:hr>132</gpxtpx:hr></gpxtpx:TrackPointExtension></extensions>
      </trkpt>
      <trkpt lat="59.9849741" lon="15.8280574">
        <ele>109</ele>
        <time>2013-11-20T20:15:24Z</time>
        <extensions><gpxtpx:TrackPointExtension><gpxtpx:hr>134</gpxtpx:hr></gpxtpx:TrackPointExtension></extensions>
      </trkpt>
      <trkpt lat="59.9849755" lon="15.8280628">
        <ele>109</ele>
        <time>2013-11-20T20:15:25Z</time>
        <extensions><gpxtpx:TrackPointExtension><gpxtpx:hr>134</gpxtpx:hr></gpxtpx:TrackPointExtension></extensions>
      </trkpt>
      <trkpt lat="59.9849764" lon="15.8280672">
        <ele>109</ele>
        <time>2013-11-20T20:15:26Z</time>
        <extensions><gpxtpx:TrackPointExtension><gpxtpx:hr>134</gpxtpx:hr></gpxtpx:TrackPointExtension></extensions>
      </trkpt>
      <trkpt lat="59.9849761" lon="15.82807">
        <ele>109</ele>
        <time>2013-11-20T20:15:27Z</time>
        <extensions><gpxtpx:TrackPointExtension><gpxtpx:hr>135</gpxtpx:hr></gpxtpx:TrackPointExtension></extensions>
      </trkpt>
      <trkpt lat="59.9849756" lon="15.8280686">
        <ele>109</ele>
        <time>2013-11-20T20:15:28Z</time>
        <extensions><gpxtpx:TrackPointExtension><gpxtpx:hr>136</gpxtpx:hr></gpxtpx:TrackPointExtension></extensions>
      </trkpt>
      <trkpt lat="59.984975" lon="15.8280615">
        <ele>109</ele>
        <time>2013-11-20T20:15:29Z</time>
        <extensions><gpxtpx:TrackPointExtension><gpxtpx:hr>136</gpxtpx:hr></gpxtpx:TrackPointExtension></extensions>
      </trkpt>
      <trkpt lat="59.9849747" lon="15.8280573">
        <ele>109</ele>
        <time>2013-11-20T20:15:30Z</time>
        <extensions><gpxtpx:TrackPointExtension><gpxtpx:hr>137</gpxtpx:hr></gpxtpx:TrackPointExtension></extensions>
      </trkpt>
      <trkpt lat="59.984975" lon="15.828056">
        <ele>109</ele>
        <time>2013-11-20T20:15:31Z</time>
        <extensions><gpxtpx:TrackPointExtension><gpxtpx:hr>137</gpxtpx:hr></gpxtpx:TrackPointExtension></extensions>
      </trkpt>
      <trkpt lat="59.9849756" lon="15.8280549">
        <ele>109</ele>
        <time>2013-11-20T20:15:32Z</time>
        <extensions><gpxtpx:TrackPointExtension><gpxtpx:hr>137</gpxtpx:hr></gpxtpx:TrackPointExtension></extensions>
      </trkpt>
      <trkpt lat="59.9849763" lon="15.8280531">
        <ele>109</ele>
        <time>2013-11-20T20:15:34Z</time>
        <extensions><gpxtpx:TrackPointExtension><gpxtpx:hr>138</gpxtpx:hr></gpxtpx:TrackPointExtension></extensions>
      </trkpt>
      <trkpt lat="59.9849771" lon="15.8280547">
        <ele>109</ele>
        <time>2013-11-20T20:15:35Z</time>
        <extensions><gpxtpx:TrackPointExtension><gpxtpx:hr>137</gpxtpx:hr></gpxtpx:TrackPointExtension></extensions>
      </trkpt>
      <trkpt lat="59.9849775" lon="15.8280527">
        <ele>109</ele>
        <time>2013-11-20T20:15:40Z</time>
        <extensions><gpxtpx:TrackPointExtension><gpxtpx:hr>138</gpxtpx:hr></gpxtpx:TrackPointExtension></extensions>
      </trkpt>
      <trkpt lat="59.9849773" lon="15.828051">
        <ele>109</ele>
        <time>2013-11-20T20:15:41Z</time>
        <extensions><gpxtpx:TrackPointExtension><gpxtpx:hr>137</gpxtpx:hr></gpxtpx:TrackPointExtension></extensions>
      </trkpt>
      <trkpt lat="59.9849776" lon="15.8280503">
        <ele>109</ele>
        <time>2013-11-20T20:15:42Z</time>
        <extensions><gpxtpx:TrackPointExtension><gpxtpx:hr>138</gpxtpx:hr></gpxtpx:TrackPointExtension></extensions>
      </trkpt>
      <trkpt lat="59.9849781" lon="15.8280501">
        <ele>109</ele>
        <time>2013-11-20T20:15:43Z</time>
        <extensions><gpxtpx:TrackPointExtension><gpxtpx:hr>137</gpxtpx:hr></gpxtpx:TrackPointExtension></extensions>
      </trkpt>
      <trkpt lat="59.9849788" lon="15.8280498">
        <ele>108.8</ele>
        <time>2013-11-20T20:15:44Z</time>
        <extensions><gpxtpx:TrackPointExtension><gpxtpx:hr>138</gpxtpx:hr></gpxtpx:TrackPointExtension></extensions>
      </trkpt>
      <trkpt lat="59.9849792" lon="15.82805">
        <ele>109</ele>
        <time>2013-11-20T20:15:45Z</time>
        <extensions><gpxtpx:TrackPointExtension><gpxtpx:hr>138</gpxtpx:hr></gpxtpx:TrackPointExtension></extensions>
      </trkpt>
      <trkpt lat="59.9849808" lon="15.8280534">
        <ele>108.8</ele>
        <time>2013-11-20T20:15:47Z</time>
        <extensions><gpxtpx:TrackPointExtension><gpxtpx:hr>138</gpxtpx:hr></gpxtpx:TrackPointExtension></extensions>
      </trkpt>
      <trkpt lat="59.9849811" lon="15.8280539">
        <ele>109</ele>
        <time>2013-11-20T20:15:48Z</time>
        <extensions><gpxtpx:TrackPointExtension><gpxtpx:hr>138</gpxtpx:hr></gpxtpx:TrackPointExtension></extensions>
      </trkpt>
      <trkpt lat="59.9849813" lon="15.8280534">
        <ele>109</ele>
        <time>2013-11-20T20:15:50Z</time>
        <extensions><gpxtpx:TrackPointExtension><gpxtpx:hr>138</gpxtpx:hr></gpxtpx:TrackPointExtension></extensions>
      </trkpt>
      <trkpt lat="59.9849818" lon="15.8280527">
        <ele>109</ele>
        <time>2013-11-20T20:15:51Z</time>
        <extensions><gpxtpx:TrackPointExtension><gpxtpx:hr>139</gpxtpx:hr></gpxtpx:TrackPointExtension></extensions>
      </trkpt>
      <trkpt lat="59.9849823" lon="15.8280534">
        <ele>108.8</ele>
        <time>2013-11-20T20:15:52Z</time>
        <extensions><gpxtpx:TrackPointExtension><gpxtpx:hr>138</gpxtpx:hr></gpxtpx:TrackPointExtension></extensions>
      </trkpt>
      <trkpt lat="59.9849828" lon="15.8280529">
        <ele>109</ele>
        <time>2013-11-20T20:15:53Z</time>
        <extensions><gpxtpx:TrackPointExtension><gpxtpx:hr>139</gpxtpx:hr></gpxtpx:TrackPointExtension></extensions>
      </trkpt>
      <trkpt lat="59.9849828" lon="15.8280529">
        <ele>108.8</ele>
        <time>2013-11-20T20:15:54Z</time>
        <extensions><gpxtpx:TrackPointExtension><gpxtpx:hr>138</gpxtpx:hr></gpxtpx:TrackPointExtension></extensions>
      </trkpt>
      <trkpt lat="59.9849831" lon="15.8280534">
        <ele>109</ele>
        <time>2013-11-20T20:15:55Z</time>
        <extensions><gpxtpx:TrackPointExtension><gpxtpx:hr>139</gpxtpx:hr></gpxtpx:TrackPointExtension></extensions>
      </trkpt>
      <trkpt lat="59.9849869" lon="15.8280646">
        <ele>108.8</ele>
        <time>2013-11-20T20:15:59Z</time>
        <extensions><gpxtpx:TrackPointExtension><gpxtpx:hr>139</gpxtpx:hr></gpxtpx:TrackPointExtension></extensions>
      </trkpt>
      <trkpt lat="59.9849875" lon="15.8280661">
        <ele>109</ele>
        <time>2013-11-20T20:16:00Z</time>
        <extensions><gpxtpx:TrackPointExtension><gpxtpx:hr>138</gpxtpx:hr></gpxtpx:TrackPointExtension></extensions>
      </trkpt>
      <trkpt lat="59.9849885" lon="15.8280679">
        <ele>108.8</ele>
        <time>2013-11-20T20:16:04Z</time>
        <extensions><gpxtpx:TrackPointExtension><gpxtpx:hr>139</gpxtpx:hr></gpxtpx:TrackPointExtension></extensions>
      </trkpt>
      <trkpt lat="59.9849885" lon="15.8280666">
        <ele>109</ele>
        <time>2013-11-20T20:16:05Z</time>
        <extensions><gpxtpx:TrackPointExtension><gpxtpx:hr>138</gpxtpx:hr></gpxtpx:TrackPointExtension></extensions>
      </trkpt>
      <trkpt lat="59.98499" lon="15.8280581">
        <ele>109</ele>
        <time>2013-11-20T20:16:09Z</time>
        <extensions><gpxtpx:TrackPointExtension><gpxtpx:hr>138</gpxtpx:hr></gpxtpx:TrackPointExtension></extensions>
      </trkpt>
      <trkpt lat="59.9849904" lon="15.8280555">
        <ele>109</ele>
        <time>2013-11-20T20:16:10Z</time>
        <extensions><gpxtpx:TrackPointExtension><gpxtpx:hr>138</gpxtpx:hr></gpxtpx:TrackPointExtension></extensions>
      </trkpt>
      <trkpt lat="59.984991" lon="15.8280552">
        <ele>109</ele>
        <time>2013-11-20T20:16:11Z</time>
        <extensions><gpxtpx:TrackPointExtension><gpxtpx:hr>137</gpxtpx:hr></gpxtpx:TrackPointExtension></extensions>
      </trkpt>
      <trkpt lat="59.9849911" lon="15.8280545">
        <ele>109</ele>
        <time>2013-11-20T20:16:12Z</time>
        <extensions><gpxtpx:TrackPointExtension><gpxtpx:hr>137</gpxtpx:hr></gpxtpx:TrackPointExtension></extensions>
      </trkpt>
      <trkpt lat="59.9849909" lon="15.8280521">
        <ele>109</ele>
        <time>2013-11-20T20:16:13Z</time>
        <extensions><gpxtpx:TrackPointExtension><gpxtpx:hr>137</gpxtpx:hr></gpxtpx:TrackPointExtension></extensions>
      </trkpt>
      <trkpt lat="59.9849908" lon="15.8280498">
        <ele>109</ele>
        <time>2013-11-20T20:16:14Z</time>
        <extensions><gpxtpx:TrackPointExtension><gpxtpx:hr>137</gpxtpx:hr></gpxtpx:TrackPointExtension></extensions>
      </trkpt>
      <trkpt lat="59.9849911" lon="15.828048">
        <ele>110</ele>
        <time>2013-11-20T20:16:15Z</time>
        <extensions><gpxtpx:TrackPointExtension><gpxtpx:hr>137</gpxtpx:hr></gpxtpx:TrackPointExtension></extensions>
      </trkpt>
      <trkpt lat="59.9849913" lon="15.8280477">
        <ele>110</ele>
        <time>2013-11-20T20:16:16Z</time>
        <extensions><gpxtpx:TrackPointExtension><gpxtpx:hr>137</gpxtpx:hr></gpxtpx:TrackPointExtension></extensions>
      </trkpt>
      <trkpt lat="59.9849916" lon="15.8280461">
        <ele>110</ele>
        <time>2013-11-20T20:16:17Z</time>
        <extensions><gpxtpx:TrackPointExtension><gpxtpx:hr>137</gpxtpx:hr></gpxtpx:TrackPointExtension></extensions>
      </trkpt>
      <trkpt lat="59.9849912" lon="15.828043">
        <ele>110</ele>
        <time>2013-11-20T20:16:18Z</time>
        <extensions><gpxtpx:TrackPointExtension><gpxtpx:hr>136</gpxtpx:hr></gpxtpx:TrackPointExtension></extensions>
      </trkpt>
      <trkpt lat="59.9849912" lon="15.8280399">
        <ele>110</ele>
        <time>2013-11-20T20:16:19Z</time>
        <extensions><gpxtpx:TrackPointExtension><gpxtpx:hr>136</gpxtpx:hr></gpxtpx:TrackPointExtension></extensions>
      </trkpt>
      <trkpt lat="59.9849933" lon="15.8280262">
        <ele>110</ele>
        <time>2013-11-20T20:16:27Z</time>
        <extensions><gpxtpx:TrackPointExtension><gpxtpx:hr>135</gpxtpx:hr></gpxtpx:TrackPointExtension></extensions>
      </trkpt>
      <trkpt lat="59.9849934" lon="15.8280246">
        <ele>110</ele>
        <time>2013-11-20T20:16:28Z</time>
        <extensions><gpxtpx:TrackPointExtension><gpxtpx:hr>135</gpxtpx:hr></gpxtpx:TrackPointExtension></extensions>
      </trkpt>
      <trkpt lat="59.9849939" lon="15.8280244">
        <ele>110</ele>
        <time>2013-11-20T20:16:29Z</time>
        <extensions><gpxtpx:TrackPointExtension><gpxtpx:hr>135</gpxtpx:hr></gpxtpx:TrackPointExtension></extensions>
      </trkpt>
      <trkpt lat="59.9849956" lon="15.8280223">
        <ele>110</ele>
        <time>2013-11-20T20:16:31Z</time>
        <extensions><gpxtpx:TrackPointExtension><gpxtpx:hr>135</gpxtpx:hr></gpxtpx:TrackPointExtension></extensions>
      </trkpt>
      <trkpt lat="59.9849955" lon="15.8280213">
        <ele>110</ele>
        <time>2013-11-20T20:16:32Z</time>
        <extensions><gpxtpx:TrackPointExtension><gpxtpx:hr>135</gpxtpx:hr></gpxtpx:TrackPointExtension></extensions>
      </trkpt>
      <trkpt lat="59.9849958" lon="15.82802">
        <ele>110</ele>
        <time>2013-11-20T20:16:33Z</time>
        <extensions><gpxtpx:TrackPointExtension><gpxtpx:hr>135</gpxtpx:hr></gpxtpx:TrackPointExtension></extensions>
      </trkpt>
      <trkpt lat="59.9849956" lon="15.8280178">
        <ele>110</ele>
        <time>2013-11-20T20:16:34Z</time>
        <extensions><gpxtpx:TrackPointExtension><gpxtpx:hr>135</gpxtpx:hr></gpxtpx:TrackPointExtension></extensions>
      </trkpt>
      <trkpt lat="59.9849956" lon="15.8280158">
        <ele>110</ele>
        <time>2013-11-20T20:16:35Z</time>
        <extensions><gpxtpx:TrackPointExtension><gpxtpx:hr>135</gpxtpx:hr></gpxtpx:TrackPointExtension></extensions>
      </trkpt>
      <trkpt lat="59.9849958" lon="15.8280155">
        <ele>110</ele>
        <time>2013-11-20T20:16:36Z</time>
        <extensions><gpxtpx:TrackPointExtension><gpxtpx:hr>135</gpxtpx:hr></gpxtpx:TrackPointExtension></extensions>
      </trkpt>
      <trkpt lat="59.9849959" lon="15.8280148">
        <ele>110</ele>
        <time>2013-11-20T20:16:37Z</time>
        <extensions><gpxtpx:TrackPointExtension><gpxtpx:hr>135</gpxtpx:hr></gpxtpx:TrackPointExtension></extensions>
      </trkpt>
      <trkpt lat="59.9849963" lon="15.8280143">
        <ele>110</ele>
        <time>2013-11-20T20:16:38Z</time>
        <extensions><gpxtpx:TrackPointExtension><gpxtpx:hr>135</gpxtpx:hr></gpxtpx:TrackPointExtension></extensions>
      </trkpt>
      <trkpt lat="59.9849963" lon="15.8280125">
        <ele>110</ele>
        <time>2013-11-20T20:16:39Z</time>
        <extensions><gpxtpx:TrackPointExtension><gpxtpx:hr>136</gpxtpx:hr></gpxtpx:TrackPointExtension></extensions>
      </trkpt>
      <trkpt lat="59.9849936" lon="15.8280126">
        <ele>110</ele>
        <time>2013-11-20T20:16:44Z</time>
        <extensions><gpxtpx:TrackPointExtension><gpxtpx:hr>137</gpxtpx:hr></gpxtpx:TrackPointExtension></extensions>
      </trkpt>
      <trkpt lat="59.9849926" lon="15.8280112">
        <ele>110</ele>
        <time>2013-11-20T20:16:45Z</time>
        <extensions><gpxtpx:TrackPointExtension><gpxtpx:hr>137</gpxtpx:hr></gpxtpx:TrackPointExtension></extensions>
      </trkpt>
      <trkpt lat="59.9849936" lon="15.8280109">
        <ele>110</ele>
        <time>2013-11-20T20:16:47Z</time>
        <extensions><gpxtpx:TrackPointExtension><gpxtpx:hr>137</gpxtpx:hr></gpxtpx:TrackPointExtension></extensions>
      </trkpt>
      <trkpt lat="59.9849976" lon="15.828003">
        <ele>110</ele>
        <time>2013-11-20T20:16:51Z</time>
        <extensions><gpxtpx:TrackPointExtension><gpxtpx:hr>137</gpxtpx:hr></gpxtpx:TrackPointExtension></extensions>
      </trkpt>
      <trkpt lat="59.9849984" lon="15.8280009">
        <ele>110</ele>
        <time>2013-11-20T20:16:52Z</time>
        <extensions><gpxtpx:TrackPointExtension><gpxtpx:hr>137</gpxtpx:hr></gpxtpx:TrackPointExtension></extensions>
      </trkpt>
      <trkpt lat="59.9849964" lon="15.8279997">
        <ele>111</ele>
        <time>2013-11-20T20:16:54Z</time>
        <extensions><gpxtpx:TrackPointExtension><gpxtpx:hr>138</gpxtpx:hr></gpxtpx:TrackPointExtension></extensions>
      </trkpt>
      <trkpt lat="59.9848147" lon="15.8279733">
        <ele>111</ele>
        <time>2013-11-20T20:16:56Z</time>
        <extensions><gpxtpx:TrackPointExtension><gpxtpx:hr>138</gpxtpx:hr></gpxtpx:TrackPointExtension></extensions>
      </trkpt>
      <trkpt lat="59.9848185" lon="15.8279714">
        <ele>111</ele>
        <time>2013-11-20T20:16:58Z</time>
        <extensions><gpxtpx:TrackPointExtension><gpxtpx:hr>138</gpxtpx:hr></gpxtpx:TrackPointExtension></extensions>
      </trkpt>
      <trkpt lat="59.9848176" lon="15.827973">
        <ele>111</ele>
        <time>2013-11-20T20:16:59Z</time>
        <extensions><gpxtpx:TrackPointExtension><gpxtpx:hr>138</gpxtpx:hr></gpxtpx:TrackPointExtension></extensions>
      </trkpt>
      <trkpt lat="59.984817" lon="15.8279752">
        <ele>111</ele>
        <time>2013-11-20T20:17:00Z</time>
        <extensions><gpxtpx:TrackPointExtension><gpxtpx:hr>138</gpxtpx:hr></gpxtpx:TrackPointExtension></extensions>
      </trkpt>
      <trkpt lat="59.9848178" lon="15.8279781">
        <ele>111</ele>
        <time>2013-11-20T20:17:01Z</time>
        <extensions><gpxtpx:TrackPointExtension><gpxtpx:hr>139</gpxtpx:hr></gpxtpx:TrackPointExtension></extensions>
      </trkpt>
      <trkpt lat="59.9848215" lon="15.8279775">
        <ele>111</ele>
        <time>2013-11-20T20:17:02Z</time>
        <extensions><gpxtpx:TrackPointExtension><gpxtpx:hr>139</gpxtpx:hr></gpxtpx:TrackPointExtension></extensions>
      </trkpt>
      <trkpt lat="59.9848253" lon="15.8279416">
        <ele>111</ele>
        <time>2013-11-20T20:17:03Z</time>
        <extensions><gpxtpx:TrackPointExtension><gpxtpx:hr>139</gpxtpx:hr></gpxtpx:TrackPointExtension></extensions>
      </trkpt>
      <trkpt lat="59.9848265" lon="15.8279342">
        <ele>111</ele>
        <time>2013-11-20T20:17:06Z</time>
        <extensions><gpxtpx:TrackPointExtension><gpxtpx:hr>139</gpxtpx:hr></gpxtpx:TrackPointExtension></extensions>
      </trkpt>
      <trkpt lat="59.9848251" lon="15.8279349">
        <ele>111</ele>
        <time>2013-11-20T20:17:07Z</time>
        <extensions><gpxtpx:TrackPointExtension><gpxtpx:hr>139</gpxtpx:hr></gpxtpx:TrackPointExtension></extensions>
      </trkpt>
      <trkpt lat="59.9848233" lon="15.8279358">
        <ele>111</ele>
        <time>2013-11-20T20:17:08Z</time>
        <extensions><gpxtpx:TrackPointExtension><gpxtpx:hr>139</gpxtpx:hr></gpxtpx:TrackPointExtension></extensions>
      </trkpt>
      <trkpt lat="59.9848224" lon="15.8279372">
        <ele>111</ele>
        <time>2013-11-20T20:17:09Z</time>
        <extensions><gpxtpx:TrackPointExtension><gpxtpx:hr>139</gpxtpx:hr></gpxtpx:TrackPointExtension></extensions>
      </trkpt>
      <trkpt lat="59.9848245" lon="15.8279367">
        <ele>111</ele>
        <time>2013-11-20T20:17:10Z</time>
        <extensions><gpxtpx:TrackPointExtension><gpxtpx:hr>139</gpxtpx:hr></gpxtpx:TrackPointExtension></extensions>
      </trkpt>
      <trkpt lat="59.9848217" lon="15.8279384">
        <ele>111</ele>
        <time>2013-11-20T20:17:11Z</time>
        <extensions><gpxtpx:TrackPointExtension><gpxtpx:hr>139</gpxtpx:hr></gpxtpx:TrackPointExtension></extensions>
      </trkpt>
      <trkpt lat="59.9848196" lon="15.8279403">
        <ele>111</ele>
        <time>2013-11-20T20:17:12Z</time>
        <extensions><gpxtpx:TrackPointExtension><gpxtpx:hr>139</gpxtpx:hr></gpxtpx:TrackPointExtension></extensions>
      </trkpt>
      <trkpt lat="59.9848178" lon="15.8279443">
        <ele>111</ele>
        <time>2013-11-20T20:17:13Z</time>
        <extensions><gpxtpx:TrackPointExtension><gpxtpx:hr>139</gpxtpx:hr></gpxtpx:TrackPointExtension></extensions>
      </trkpt>
      <trkpt lat="59.9848159" lon="15.8279476">
        <ele>111</ele>
        <time>2013-11-20T20:17:15Z</time>
        <extensions><gpxtpx:TrackPointExtension><gpxtpx:hr>139</gpxtpx:hr></gpxtpx:TrackPointExtension></extensions>
      </trkpt>
      <trkpt lat="59.9848128" lon="15.8279099">
        <ele>111</ele>
        <time>2013-11-20T20:17:17Z</time>
        <extensions><gpxtpx:TrackPointExtension><gpxtpx:hr>139</gpxtpx:hr></gpxtpx:TrackPointExtension></extensions>
      </trkpt>
      <trkpt lat="59.9848129" lon="15.8279094">
        <ele>111</ele>
        <time>2013-11-20T20:17:22Z</time>
        <extensions><gpxtpx:TrackPointExtension><gpxtpx:hr>139</gpxtpx:hr></gpxtpx:TrackPointExtension></extensions>
      </trkpt>
      <trkpt lat="59.9848215" lon="15.8279026">
        <ele>111</ele>
        <time>2013-11-20T20:17:26Z</time>
        <extensions><gpxtpx:TrackPointExtension><gpxtpx:hr>140</gpxtpx:hr></gpxtpx:TrackPointExtension></extensions>
      </trkpt>
      <trkpt lat="59.9848191" lon="15.8279034">
        <ele>111</ele>
        <time>2013-11-20T20:17:27Z</time>
        <extensions><gpxtpx:TrackPointExtension><gpxtpx:hr>140</gpxtpx:hr></gpxtpx:TrackPointExtension></extensions>
      </trkpt>
      <trkpt lat="59.9848177" lon="15.8279039">
        <ele>111</ele>
        <time>2013-11-20T20:17:28Z</time>
        <extensions><gpxtpx:TrackPointExtension><gpxtpx:hr>140</gpxtpx:hr></gpxtpx:TrackPointExtension></extensions>
      </trkpt>
      <trkpt lat="59.9848192" lon="15.8279032">
        <ele>111</ele>
        <time>2013-11-20T20:17:29Z</time>
        <extensions><gpxtpx:TrackPointExtension><gpxtpx:hr>140</gpxtpx:hr></gpxtpx:TrackPointExtension></extensions>
      </trkpt>
      <trkpt lat="59.9848221" lon="15.8278988">
        <ele>111</ele>
        <time>2013-11-20T20:17:30Z</time>
        <extensions><gpxtpx:TrackPointExtension><gpxtpx:hr>140</gpxtpx:hr></gpxtpx:TrackPointExtension></extensions>
      </trkpt>
      <trkpt lat="59.9848245" lon="15.8278947">
        <ele>112</ele>
        <time>2013-11-20T20:17:31Z</time>
        <extensions><gpxtpx:TrackPointExtension><gpxtpx:hr>140</gpxtpx:hr></gpxtpx:TrackPointExtension></extensions>
      </trkpt>
      <trkpt lat="59.984828" lon="15.8278913">
        <ele>112</ele>
        <time>2013-11-20T20:17:32Z</time>
        <extensions><gpxtpx:TrackPointExtension><gpxtpx:hr>140</gpxtpx:hr></gpxtpx:TrackPointExtension></extensions>
      </trkpt>
      <trkpt lat="59.9848317" lon="15.8278882">
        <ele>112</ele>
        <time>2013-11-20T20:17:33Z</time>
        <extensions><gpxtpx:TrackPointExtension><gpxtpx:hr>140</gpxtpx:hr></gpxtpx:TrackPointExtension></extensions>
      </trkpt>
      <trkpt lat="59.9848319" lon="15.8278874">
        <ele>112</ele>
        <time>2013-11-20T20:17:34Z</time>
        <extensions><gpxtpx:TrackPointExtension><gpxtpx:hr>140</gpxtpx:hr></gpxtpx:TrackPointExtension></extensions>
      </trkpt>
      <trkpt lat="59.9848311" lon="15.8278877">
        <ele>112</ele>
        <time>2013-11-20T20:17:35Z</time>
        <extensions><gpxtpx:TrackPointExtension><gpxtpx:hr>141</gpxtpx:hr></gpxtpx:TrackPointExtension></extensions>
      </trkpt>
      <trkpt lat="59.984831" lon="15.8278876">
        <ele>112</ele>
        <time>2013-11-20T20:17:36Z</time>
        <extensions><gpxtpx:TrackPointExtension><gpxtpx:hr>141</gpxtpx:hr></gpxtpx:TrackPointExtension></extensions>
      </trkpt>
      <trkpt lat="59.9848327" lon="15.8278165">
        <ele>112</ele>
        <time>2013-11-20T20:17:39Z</time>
        <extensions><gpxtpx:TrackPointExtension><gpxtpx:hr>141</gpxtpx:hr></gpxtpx:TrackPointExtension></extensions>
      </trkpt>
      <trkpt lat="59.9848415" lon="15.8277996">
        <ele>112</ele>
        <time>2013-11-20T20:17:40Z</time>
        <extensions><gpxtpx:TrackPointExtension><gpxtpx:hr>141</gpxtpx:hr></gpxtpx:TrackPointExtension></extensions>
      </trkpt>
      <trkpt lat="59.9848435" lon="15.827796">
        <ele>112</ele>
        <time>2013-11-20T20:17:44Z</time>
        <extensions><gpxtpx:TrackPointExtension><gpxtpx:hr>141</gpxtpx:hr></gpxtpx:TrackPointExtension></extensions>
      </trkpt>
      <trkpt lat="59.9848402" lon="15.827799">
        <ele>112</ele>
        <time>2013-11-20T20:17:45Z</time>
        <extensions><gpxtpx:TrackPointExtension><gpxtpx:hr>141</gpxtpx:hr></gpxtpx:TrackPointExtension></extensions>
      </trkpt>
      <trkpt lat="59.9848356" lon="15.8277835">
        <ele>112</ele>
        <time>2013-11-20T20:17:46Z</time>
        <extensions><gpxtpx:TrackPointExtension><gpxtpx:hr>141</gpxtpx:hr></gpxtpx:TrackPointExtension></extensions>
      </trkpt>
      <trkpt lat="59.9848295" lon="15.8277939">
        <ele>112</ele>
        <time>2013-11-20T20:17:48Z</time>
        <extensions><gpxtpx:TrackPointExtension><gpxtpx:hr>141</gpxtpx:hr></gpxtpx:TrackPointExtension></extensions>
      </trkpt>
      <trkpt lat="59.9848214" lon="15.8278058">
        <ele>112</ele>
        <time>2013-11-20T20:17:49Z</time>
        <extensions><gpxtpx:TrackPointExtension><gpxtpx:hr>141</gpxtpx:hr></gpxtpx:TrackPointExtension></extensions>
      </trkpt>
      <trkpt lat="59.9848214" lon="15.8278081">
        <ele>112</ele>
        <time>2013-11-20T20:17:50Z</time>
        <extensions><gpxtpx:TrackPointExtension><gpxtpx:hr>141</gpxtpx:hr></gpxtpx:TrackPointExtension></extensions>
      </trkpt>
      <trkpt lat="59.984824" lon="15.8278051">
        <ele>112</ele>
        <time>2013-11-20T20:17:51Z</time>
        <extensions><gpxtpx:TrackPointExtension><gpxtpx:hr>141</gpxtpx:hr></gpxtpx:TrackPointExtension></extensions>
      </trkpt>
      <trkpt lat="59.9848284" lon="15.8277961">
        <ele>112</ele>
        <time>2013-11-20T20:17:54Z</time>
        <extensions><gpxtpx:TrackPointExtension><gpxtpx:hr>141</gpxtpx:hr></gpxtpx:TrackPointExtension></extensions>
      </trkpt>
      <trkpt lat="59.9848326" lon="15.8277924">
        <ele>112</ele>
        <time>2013-11-20T20:17:55Z</time>
        <extensions><gpxtpx:TrackPointExtension><gpxtpx:hr>141</gpxtpx:hr></gpxtpx:TrackPointExtension></extensions>
      </trkpt>
      <trkpt lat="59.9848352" lon="15.8277891">
        <ele>112</ele>
        <time>2013-11-20T20:17:56Z</time>
        <extensions><gpxtpx:TrackPointExtension><gpxtpx:hr>141</gpxtpx:hr></gpxtpx:TrackPointExtension></extensions>
      </trkpt>
      <trkpt lat="59.9848393" lon="15.8277855">
        <ele>112</ele>
        <time>2013-11-20T20:17:57Z</time>
        <extensions><gpxtpx:TrackPointExtension><gpxtpx:hr>141</gpxtpx:hr></gpxtpx:TrackPointExtension></extensions>
      </trkpt>
      <trkpt lat="59.9848414" lon="15.8277725">
        <ele>112</ele>
        <time>2013-11-20T20:17:58Z</time>
        <extensions><gpxtpx:TrackPointExtension><gpxtpx:hr>141</gpxtpx:hr></gpxtpx:TrackPointExtension></extensions>
      </trkpt>
      <trkpt lat="59.9848416" lon="15.827771">
        <ele>112</ele>
        <time>2013-11-20T20:17:59Z</time>
        <extensions><gpxtpx:TrackPointExtension><gpxtpx:hr>141</gpxtpx:hr></gpxtpx:TrackPointExtension></extensions>
      </trkpt>
      <trkpt lat="59.9848452" lon="15.8277663">
        <ele>112</ele>
        <time>2013-11-20T20:18:00Z</time>
        <extensions><gpxtpx:TrackPointExtension><gpxtpx:hr>141</gpxtpx:hr></gpxtpx:TrackPointExtension></extensions>
      </trkpt>
      <trkpt lat="59.9848507" lon="15.8277603">
        <ele>112</ele>
        <time>2013-11-20T20:18:01Z</time>
        <extensions><gpxtpx:TrackPointExtension><gpxtpx:hr>141</gpxtpx:hr></gpxtpx:TrackPointExtension></extensions>
      </trkpt>
      <trkpt lat="59.9848539" lon="15.8277578">
        <ele>112</ele>
        <time>2013-11-20T20:18:02Z</time>
        <extensions><gpxtpx:TrackPointExtension><gpxtpx:hr>142</gpxtpx:hr></gpxtpx:TrackPointExtension></extensions>
      </trkpt>
      <trkpt lat="59.984853" lon="15.8277572">
        <ele>112</ele>
        <time>2013-11-20T20:18:04Z</time>
        <extensions><gpxtpx:TrackPointExtension><gpxtpx:hr>141</gpxtpx:hr></gpxtpx:TrackPointExtension></extensions>
      </trkpt>
      <trkpt lat="59.9848518" lon="15.8277572">
        <ele>112</ele>
        <time>2013-11-20T20:18:05Z</time>
        <extensions><gpxtpx:TrackPointExtension><gpxtpx:hr>141</gpxtpx:hr></gpxtpx:TrackPointExtension></extensions>
      </trkpt>
      <trkpt lat="59.9848523" lon="15.8277592">
        <ele>112</ele>
        <time>2013-11-20T20:18:06Z</time>
        <extensions><gpxtpx:TrackPointExtension><gpxtpx:hr>141</gpxtpx:hr></gpxtpx:TrackPointExtension></extensions>
      </trkpt>
      <trkpt lat="59.984852" lon="15.8277598">
        <ele>112</ele>
        <time>2013-11-20T20:18:07Z</time>
        <extensions><gpxtpx:TrackPointExtension><gpxtpx:hr>141</gpxtpx:hr></gpxtpx:TrackPointExtension></extensions>
      </trkpt>
      <trkpt lat="59.9848547" lon="15.827757">
        <ele>112</ele>
        <time>2013-11-20T20:18:08Z</time>
        <extensions><gpxtpx:TrackPointExtension><gpxtpx:hr>141</gpxtpx:hr></gpxtpx:TrackPointExtension></extensions>
      </trkpt>
      <trkpt lat="59.9848584" lon="15.8277518">
        <ele>112</ele>
        <time>2013-11-20T20:18:09Z</time>
        <extensions><gpxtpx:TrackPointExtension><gpxtpx:hr>141</gpxtpx:hr></gpxtpx:TrackPointExtension></extensions>
      </trkpt>
      <trkpt lat="59.9848605" lon="15.8277489">
        <ele>112</ele>
        <time>2013-11-20T20:18:10Z</time>
        <extensions><gpxtpx:TrackPointExtension><gpxtpx:hr>141</gpxtpx:hr></gpxtpx:TrackPointExtension></extensions>
      </trkpt>
      <trkpt lat="59.9848631" lon="15.8277472">
        <ele>112</ele>
        <time>2013-11-20T20:18:11Z</time>
        <extensions><gpxtpx:TrackPointExtension><gpxtpx:hr>141</gpxtpx:hr></gpxtpx:TrackPointExtension></extensions>
      </trkpt>
      <trkpt lat="59.9848631" lon="15.8277503">
        <ele>112</ele>
        <time>2013-11-20T20:18:12Z</time>
        <extensions><gpxtpx:TrackPointExtension><gpxtpx:hr>141</gpxtpx:hr></gpxtpx:TrackPointExtension></extensions>
      </trkpt>
      <trkpt lat="59.9848439" lon="15.8277762">
        <ele>112</ele>
        <time>2013-11-20T20:18:13Z</time>
        <extensions><gpxtpx:TrackPointExtension><gpxtpx:hr>141</gpxtpx:hr></gpxtpx:TrackPointExtension></extensions>
      </trkpt>
      <trkpt lat="59.9848356" lon="15.8277876">
        <ele>112</ele>
        <time>2013-11-20T20:18:14Z</time>
        <extensions><gpxtpx:TrackPointExtension><gpxtpx:hr>141</gpxtpx:hr></gpxtpx:TrackPointExtension></extensions>
      </trkpt>
      <trkpt lat="59.9848308" lon="15.827792">
        <ele>112</ele>
        <time>2013-11-20T20:18:15Z</time>
        <extensions><gpxtpx:TrackPointExtension><gpxtpx:hr>141</gpxtpx:hr></gpxtpx:TrackPointExtension></extensions>
      </trkpt>
      <trkpt lat="59.9848255" lon="15.827796">
        <ele>112</ele>
        <time>2013-11-20T20:18:18Z</time>
        <extensions><gpxtpx:TrackPointExtension><gpxtpx:hr>142</gpxtpx:hr></gpxtpx:TrackPointExtension></extensions>
      </trkpt>
      <trkpt lat="59.9848269" lon="15.8277903">
        <ele>112</ele>
        <time>2013-11-20T20:18:19Z</time>
        <extensions><gpxtpx:TrackPointExtension><gpxtpx:hr>142</gpxtpx:hr></gpxtpx:TrackPointExtension></extensions>
      </trkpt>
      <trkpt lat="59.984826" lon="15.8277901">
        <ele>112</ele>
        <time>2013-11-20T20:18:20Z</time>
        <extensions><gpxtpx:TrackPointExtension><gpxtpx:hr>142</gpxtpx:hr></gpxtpx:TrackPointExtension></extensions>
      </trkpt>
      <trkpt lat="59.9848236" lon="15.8277929">
        <ele>112</ele>
        <time>2013-11-20T20:18:21Z</time>
        <extensions><gpxtpx:TrackPointExtension><gpxtpx:hr>142</gpxtpx:hr></gpxtpx:TrackPointExtension></extensions>
      </trkpt>
      <trkpt lat="59.9848196" lon="15.8277964">
        <ele>112</ele>
        <time>2013-11-20T20:18:22Z</time>
        <extensions><gpxtpx:TrackPointExtension><gpxtpx:hr>142</gpxtpx:hr></gpxtpx:TrackPointExtension></extensions>
      </trkpt>
      <trkpt lat="59.9848176" lon="15.8277959">
        <ele>113</ele>
        <time>2013-11-20T20:18:23Z</time>
        <extensions><gpxtpx:TrackPointExtension><gpxtpx:hr>142</gpxtpx:hr></gpxtpx:TrackPointExtension></extensions>
      </trkpt>
      <trkpt lat="59.9848165" lon="15.8277967">
        <ele>113</ele>
        <time>2013-11-20T20:18:24Z</time>
        <extensions><gpxtpx:TrackPointExtension><gpxtpx:hr>142</gpxtpx:hr></gpxtpx:TrackPointExtension></extensions>
      </trkpt>
      <trkpt lat="59.9848151" lon="15.827798">
        <ele>113</ele>
        <time>2013-11-20T20:18:25Z</time>
        <extensions><gpxtpx:TrackPointExtension><gpxtpx:hr>142</gpxtpx:hr></gpxtpx:TrackPointExtension></extensions>
      </trkpt>
      <trkpt lat="59.9848155" lon="15.8277963">
        <ele>113</ele>
        <time>2013-11-20T20:18:26Z</time>
        <extensions><gpxtpx:TrackPointExtension><gpxtpx:hr>142</gpxtpx:hr></gpxtpx:TrackPointExtension></extensions>
      </trkpt>
      <trkpt lat="59.9848181" lon="15.827791">
        <ele>113</ele>
        <time>2013-11-20T20:18:27Z</time>
        <extensions><gpxtpx:TrackPointExtension><gpxtpx:hr>143</gpxtpx:hr></gpxtpx:TrackPointExtension></extensions>
      </trkpt>
      <trkpt lat="59.9848204" lon="15.8277875">
        <ele>113</ele>
        <time>2013-11-20T20:18:28Z</time>
        <extensions><gpxtpx:TrackPointExtension><gpxtpx:hr>143</gpxtpx:hr></gpxtpx:TrackPointExtension></extensions>
      </trkpt>
      <trkpt lat="59.9848259" lon="15.8277886">
        <ele>113</ele>
        <time>2013-11-20T20:18:32Z</time>
        <extensions><gpxtpx:TrackPointExtension><gpxtpx:hr>143</gpxtpx:hr></gpxtpx:TrackPointExtension></extensions>
      </trkpt>
      <trkpt lat="59.984842" lon="15.8277483">
        <ele>113</ele>
        <time>2013-11-20T20:18:37Z</time>
        <extensions><gpxtpx:TrackPointExtension><gpxtpx:hr>143</gpxtpx:hr></gpxtpx:TrackPointExtension></extensions>
      </trkpt>
      <trkpt lat="59.9848609" lon="15.8277225">
        <ele>113</ele>
        <time>2013-11-20T20:18:39Z</time>
        <extensions><gpxtpx:TrackPointExtension><gpxtpx:hr>144</gpxtpx:hr></gpxtpx:TrackPointExtension></extensions>
      </trkpt>
      <trkpt lat="59.9848767" lon="15.8277013">
        <ele>113</ele>
        <time>2013-11-20T20:18:41Z</time>
        <extensions><gpxtpx:TrackPointExtension><gpxtpx:hr>144</gpxtpx:hr></gpxtpx:TrackPointExtension></extensions>
      </trkpt>
      <trkpt lat="59.9848803" lon="15.8276932">
        <ele>113</ele>
        <time>2013-11-20T20:18:42Z</time>
        <extensions><gpxtpx:TrackPointExtension><gpxtpx:hr>144</gpxtpx:hr></gpxtpx:TrackPointExtension></extensions>
      </trkpt>
      <trkpt lat="59.9848833" lon="15.8276875">
        <ele>113</ele>
        <time>2013-11-20T20:18:43Z</time>
        <extensions><gpxtpx:TrackPointExtension><gpxtpx:hr>144</gpxtpx:hr></gpxtpx:TrackPointExtension></extensions>
      </trkpt>
      <trkpt lat="59.984886" lon="15.8276778">
        <ele>113</ele>
        <time>2013-11-20T20:18:44Z</time>
        <extensions><gpxtpx:TrackPointExtension><gpxtpx:hr>144</gpxtpx:hr></gpxtpx:TrackPointExtension></extensions>
      </trkpt>
      <trkpt lat="59.9848929" lon="15.8276677">
        <ele>113</ele>
        <time>2013-11-20T20:18:45Z</time>
        <extensions><gpxtpx:TrackPointExtension><gpxtpx:hr>144</gpxtpx:hr></gpxtpx:TrackPointExtension></extensions>
      </trkpt>
      <trkpt lat="59.9848942" lon="15.8276638">
        <ele>113</ele>
        <time>2013-11-20T20:18:46Z</time>
        <extensions><gpxtpx:TrackPointExtension><gpxtpx:hr>144</gpxtpx:hr></gpxtpx:TrackPointExtension></extensions>
      </trkpt>
      <trkpt lat="59.9848942" lon="15.827658">
        <ele>113</ele>
        <time>2013-11-20T20:18:47Z</time>
        <extensions><gpxtpx:TrackPointExtension><gpxtpx:hr>144</gpxtpx:hr></gpxtpx:TrackPointExtension></extensions>
      </trkpt>
      <trkpt lat="59.9848937" lon="15.8276443">
        <ele>113</ele>
        <time>2013-11-20T20:18:48Z</time>
        <extensions><gpxtpx:TrackPointExtension><gpxtpx:hr>144</gpxtpx:hr></gpxtpx:TrackPointExtension></extensions>
      </trkpt>
      <trkpt lat="59.9848931" lon="15.8276452">
        <ele>113</ele>
        <time>2013-11-20T20:18:49Z</time>
        <extensions><gpxtpx:TrackPointExtension><gpxtpx:hr>144</gpxtpx:hr></gpxtpx:TrackPointExtension></extensions>
      </trkpt>
      <trkpt lat="59.9848932" lon="15.8276461">
        <ele>113</ele>
        <time>2013-11-20T20:18:50Z</time>
        <extensions><gpxtpx:TrackPointExtension><gpxtpx:hr>144</gpxtpx:hr></gpxtpx:TrackPointExtension></extensions>
      </trkpt>
      <trkpt lat="59.9848952" lon="15.8276414">
        <ele>113</ele>
        <time>2013-11-20T20:18:51Z</time>
        <extensions><gpxtpx:TrackPointExtension><gpxtpx:hr>144</gpxtpx:hr></gpxtpx:TrackPointExtension></extensions>
      </trkpt>
      <trkpt lat="59.9849001" lon="15.8276359">
        <ele>113</ele>
        <time>2013-11-20T20:18:52Z</time>
        <extensions><gpxtpx:TrackPointExtension><gpxtpx:hr>144</gpxtpx:hr></gpxtpx:TrackPointExtension></extensions>
      </trkpt>
      <trkpt lat="59.9849059" lon="15.8276299">
        <ele>113</ele>
        <time>2013-11-20T20:18:53Z</time>
        <extensions><gpxtpx:TrackPointExtension><gpxtpx:hr>143</gpxtpx:hr></gpxtpx:TrackPointExtension></extensions>
      </trkpt>
      <trkpt lat="59.9849197" lon="15.8276136">
        <ele>113</ele>
        <time>2013-11-20T20:18:59Z</time>
        <extensions><gpxtpx:TrackPointExtension><gpxtpx:hr>145</gpxtpx:hr></gpxtpx:TrackPointExtension></extensions>
      </trkpt>
      <trkpt lat="59.9849251" lon="15.8276033">
        <ele>113</ele>
        <time>2013-11-20T20:19:01Z</time>
        <extensions><gpxtpx:TrackPointExtension><gpxtpx:hr>145</gpxtpx:hr></gpxtpx:TrackPointExtension></extensions>
      </trkpt>
      <trkpt lat="59.9848981" lon="15.8276183">
        <ele>113</ele>
        <time>2013-11-20T20:19:02Z</time>
        <extensions><gpxtpx:TrackPointExtension><gpxtpx:hr>145</gpxtpx:hr></gpxtpx:TrackPointExtension></extensions>
      </trkpt>
      <trkpt lat="59.9848997" lon="15.8276131">
        <ele>113</ele>
        <time>2013-11-20T20:19:03Z</time>
        <extensions><gpxtpx:TrackPointExtension><gpxtpx:hr>145</gpxtpx:hr></gpxtpx:TrackPointExtension></extensions>
      </trkpt>
      <trkpt lat="59.9849024" lon="15.8276115">
        <ele>113</ele>
        <time>2013-11-20T20:19:04Z</time>
        <extensions><gpxtpx:TrackPointExtension><gpxtpx:hr>145</gpxtpx:hr></gpxtpx:TrackPointExtension></extensions>
      </trkpt>
      <trkpt lat="59.9849072" lon="15.8276053">
        <ele>114</ele>
        <time>2013-11-20T20:19:05Z</time>
        <extensions><gpxtpx:TrackPointExtension><gpxtpx:hr>144</gpxtpx:hr></gpxtpx:TrackPointExtension></extensions>
      </trkpt>
      <trkpt lat="59.984912" lon="15.8276158">
        <ele>114</ele>
        <time>2013-11-20T20:19:06Z</time>
        <extensions><gpxtpx:TrackPointExtension><gpxtpx:hr>145</gpxtpx:hr></gpxtpx:TrackPointExtension></extensions>
      </trkpt>
      <trkpt lat="59.9849189" lon="15.8276163">
        <ele>114</ele>
        <time>2013-11-20T20:19:07Z</time>
        <extensions><gpxtpx:TrackPointExtension><gpxtpx:hr>144</gpxtpx:hr></gpxtpx:TrackPointExtension></extensions>
      </trkpt>
      <trkpt lat="59.9849223" lon="15.8276127">
        <ele>114</ele>
        <time>2013-11-20T20:19:09Z</time>
        <extensions><gpxtpx:TrackPointExtension><gpxtpx:hr>144</gpxtpx:hr></gpxtpx:TrackPointExtension></extensions>
      </trkpt>
      <trkpt lat="59.9849241" lon="15.8276098">
        <ele>114</ele>
        <time>2013-11-20T20:19:10Z</time>
        <extensions><gpxtpx:TrackPointExtension><gpxtpx:hr>144</gpxtpx:hr></gpxtpx:TrackPointExtension></extensions>
      </trkpt>
      <trkpt lat="59.9849232" lon="15.8276051">
        <ele>114</ele>
        <time>2013-11-20T20:19:11Z</time>
        <extensions><gpxtpx:TrackPointExtension><gpxtpx:hr>143</gpxtpx:hr></gpxtpx:TrackPointExtension></extensions>
      </trkpt>
      <trkpt lat="59.9849257" lon="15.8276018">
        <ele>114</ele>
        <time>2013-11-20T20:19:12Z</time>
        <extensions><gpxtpx:TrackPointExtension><gpxtpx:hr>143</gpxtpx:hr></gpxtpx:TrackPointExtension></extensions>
      </trkpt>
      <trkpt lat="59.9849075" lon="15.8276409">
        <ele>114</ele>
        <time>2013-11-20T20:19:14Z</time>
        <extensions><gpxtpx:TrackPointExtension><gpxtpx:hr>143</gpxtpx:hr></gpxtpx:TrackPointExtension></extensions>
      </trkpt>
      <trkpt lat="59.9849164" lon="15.8276131">
        <ele>114</ele>
        <time>2013-11-20T20:19:18Z</time>
        <extensions><gpxtpx:TrackPointExtension><gpxtpx:hr>142</gpxtpx:hr></gpxtpx:TrackPointExtension></extensions>
      </trkpt>
      <trkpt lat="59.9849201" lon="15.8276059">
        <ele>114</ele>
        <time>2013-11-20T20:19:19Z</time>
        <extensions><gpxtpx:TrackPointExtension><gpxtpx:hr>142</gpxtpx:hr></gpxtpx:TrackPointExtension></extensions>
      </trkpt>
      <trkpt lat="59.9849239" lon="15.8276015">
        <ele>114</ele>
        <time>2013-11-20T20:19:20Z</time>
        <extensions><gpxtpx:TrackPointExtension><gpxtpx:hr>141</gpxtpx:hr></gpxtpx:TrackPointExtension></extensions>
      </trkpt>
      <trkpt lat="59.9849284" lon="15.8276006">
        <ele>114</ele>
        <time>2013-11-20T20:19:21Z</time>
        <extensions><gpxtpx:TrackPointExtension><gpxtpx:hr>141</gpxtpx:hr></gpxtpx:TrackPointExtension></extensions>
      </trkpt>
      <trkpt lat="59.9849305" lon="15.8275981">
        <ele>114</ele>
        <time>2013-11-20T20:19:22Z</time>
        <extensions><gpxtpx:TrackPointExtension><gpxtpx:hr>141</gpxtpx:hr></gpxtpx:TrackPointExtension></extensions>
      </trkpt>
      <trkpt lat="59.9849305" lon="15.8275982">
        <ele>114</ele>
        <time>2013-11-20T20:19:23Z</time>
        <extensions><gpxtpx:TrackPointExtension><gpxtpx:hr>141</gpxtpx:hr></gpxtpx:TrackPointExtension></extensions>
      </trkpt>
      <trkpt lat="59.9849315" lon="15.8276022">
        <ele>114</ele>
        <time>2013-11-20T20:19:24Z</time>
        <extensions><gpxtpx:TrackPointExtension><gpxtpx:hr>142</gpxtpx:hr></gpxtpx:TrackPointExtension></extensions>
      </trkpt>
      <trkpt lat="59.9849277" lon="15.827608">
        <ele>114</ele>
        <time>2013-11-20T20:19:25Z</time>
        <extensions><gpxtpx:TrackPointExtension><gpxtpx:hr>142</gpxtpx:hr></gpxtpx:TrackPointExtension></extensions>
      </trkpt>
      <trkpt lat="59.984923" lon="15.8276128">
        <ele>114</ele>
        <time>2013-11-20T20:19:26Z</time>
        <extensions><gpxtpx:TrackPointExtension><gpxtpx:hr>143</gpxtpx:hr></gpxtpx:TrackPointExtension></extensions>
      </trkpt>
      <trkpt lat="59.9848985" lon="15.8276504">
        <ele>114</ele>
        <time>2013-11-20T20:19:27Z</time>
        <extensions><gpxtpx:TrackPointExtension><gpxtpx:hr>143</gpxtpx:hr></gpxtpx:TrackPointExtension></extensions>
      </trkpt>
      <trkpt lat="59.9848712" lon="15.827687">
        <ele>114</ele>
        <time>2013-11-20T20:19:29Z</time>
        <extensions><gpxtpx:TrackPointExtension><gpxtpx:hr>143</gpxtpx:hr></gpxtpx:TrackPointExtension></extensions>
      </trkpt>
      <trkpt lat="59.9848461" lon="15.827738">
        <ele>114</ele>
        <time>2013-11-20T20:19:32Z</time>
        <extensions><gpxtpx:TrackPointExtension><gpxtpx:hr>143</gpxtpx:hr></gpxtpx:TrackPointExtension></extensions>
      </trkpt>
      <trkpt lat="59.9848382" lon="15.827757">
        <ele>114</ele>
        <time>2013-11-20T20:19:33Z</time>
        <extensions><gpxtpx:TrackPointExtension><gpxtpx:hr>143</gpxtpx:hr></gpxtpx:TrackPointExtension></extensions>
      </trkpt>
      <trkpt lat="59.9848307" lon="15.8277497">
        <ele>114</ele>
        <time>2013-11-20T20:19:34Z</time>
        <extensions><gpxtpx:TrackPointExtension><gpxtpx:hr>144</gpxtpx:hr></gpxtpx:TrackPointExtension></extensions>
      </trkpt>
      <trkpt lat="59.9848276" lon="15.8277452">
        <ele>114</ele>
        <time>2013-11-20T20:19:35Z</time>
        <extensions><gpxtpx:TrackPointExtension><gpxtpx:hr>144</gpxtpx:hr></gpxtpx:TrackPointExtension></extensions>
      </trkpt>
      <trkpt lat="59.9848278" lon="15.8277719">
        <ele>114</ele>
        <time>2013-11-20T20:19:38Z</time>
        <extensions><gpxtpx:TrackPointExtension><gpxtpx:hr>144</gpxtpx:hr></gpxtpx:TrackPointExtension></extensions>
      </trkpt>
      <trkpt lat="59.9848251" lon="15.8277821">
        <ele>114</ele>
        <time>2013-11-20T20:19:39Z</time>
        <extensions><gpxtpx:TrackPointExtension><gpxtpx:hr>144</gpxtpx:hr></gpxtpx:TrackPointExtension></extensions>
      </trkpt>
      <trkpt lat="59.9848218" lon="15.8277899">
        <ele>114</ele>
        <time>2013-11-20T20:19:40Z</time>
        <extensions><gpxtpx:TrackPointExtension><gpxtpx:hr>144</gpxtpx:hr></gpxtpx:TrackPointExtension></extensions>
      </trkpt>
      <trkpt lat="59.984816" lon="15.8277908">
        <ele>114</ele>
        <time>2013-11-20T20:19:41Z</time>
        <extensions><gpxtpx:TrackPointExtension><gpxtpx:hr>144</gpxtpx:hr></gpxtpx:TrackPointExtension></extensions>
      </trkpt>
      <trkpt lat="59.9848108" lon="15.8277954">
        <ele>114</ele>
        <time>2013-11-20T20:19:42Z</time>
        <extensions><gpxtpx:TrackPointExtension><gpxtpx:hr>144</gpxtpx:hr></gpxtpx:TrackPointExtension></extensions>
      </trkpt>
      <trkpt lat="59.9848078" lon="15.8277975">
        <ele>114</ele>
        <time>2013-11-20T20:19:43Z</time>
        <extensions><gpxtpx:TrackPointExtension><gpxtpx:hr>143</gpxtpx:hr></gpxtpx:TrackPointExtension></extensions>
      </trkpt>
      <trkpt lat="59.9848155" lon="15.8278363">
        <ele>114</ele>
        <time>2013-11-20T20:19:45Z</time>
        <extensions><gpxtpx:TrackPointExtension><gpxtpx:hr>143</gpxtpx:hr></gpxtpx:TrackPointExtension></extensions>
      </trkpt>
      <trkpt lat="59.9848082" lon="15.8278621">
        <ele>114</ele>
        <time>2013-11-20T20:19:46Z</time>
        <extensions><gpxtpx:TrackPointExtension><gpxtpx:hr>143</gpxtpx:hr></gpxtpx:TrackPointExtension></extensions>
      </trkpt>
      <trkpt lat="59.9848183" lon="15.8278778">
        <ele>114</ele>
        <time>2013-11-20T20:19:51Z</time>
        <extensions><gpxtpx:TrackPointExtension><gpxtpx:hr>143</gpxtpx:hr></gpxtpx:TrackPointExtension></extensions>
      </trkpt>
      <trkpt lat="59.984859" lon="15.8277513">
        <ele>114</ele>
        <time>2013-11-20T20:19:54Z</time>
        <extensions><gpxtpx:TrackPointExtension><gpxtpx:hr>144</gpxtpx:hr></gpxtpx:TrackPointExtension></extensions>
      </trkpt>
      <trkpt lat="59.9848597" lon="15.8277374">
        <ele>114</ele>
        <time>2013-11-20T20:19:55Z</time>
        <extensions><gpxtpx:TrackPointExtension><gpxtpx:hr>144</gpxtpx:hr></gpxtpx:TrackPointExtension></extensions>
      </trkpt>
      <trkpt lat="59.9848563" lon="15.8277419">
        <ele>114</ele>
        <time>2013-11-20T20:19:56Z</time>
        <extensions><gpxtpx:TrackPointExtension><gpxtpx:hr>143</gpxtpx:hr></gpxtpx:TrackPointExtension></extensions>
      </trkpt>
      <trkpt lat="59.9848528" lon="15.8277488">
        <ele>114</ele>
        <time>2013-11-20T20:19:57Z</time>
        <extensions><gpxtpx:TrackPointExtension><gpxtpx:hr>144</gpxtpx:hr></gpxtpx:TrackPointExtension></extensions>
      </trkpt>
      <trkpt lat="59.9848456" lon="15.8277354">
        <ele>114</ele>
        <time>2013-11-20T20:20:01Z</time>
        <extensions><gpxtpx:TrackPointExtension><gpxtpx:hr>144</gpxtpx:hr></gpxtpx:TrackPointExtension></extensions>
      </trkpt>
      <trkpt lat="59.9848487" lon="15.8277262">
        <ele>114</ele>
        <time>2013-11-20T20:20:02Z</time>
        <extensions><gpxtpx:TrackPointExtension><gpxtpx:hr>144</gpxtpx:hr></gpxtpx:TrackPointExtension></extensions>
      </trkpt>
      <trkpt lat="59.9848557" lon="15.8277228">
        <ele>114</ele>
        <time>2013-11-20T20:20:03Z</time>
        <extensions><gpxtpx:TrackPointExtension><gpxtpx:hr>144</gpxtpx:hr></gpxtpx:TrackPointExtension></extensions>
      </trkpt>
      <trkpt lat="59.9848801" lon="15.8277681">
        <ele>114</ele>
        <time>2013-11-20T20:20:04Z</time>
        <extensions><gpxtpx:TrackPointExtension><gpxtpx:hr>144</gpxtpx:hr></gpxtpx:TrackPointExtension></extensions>
      </trkpt>
      <trkpt lat="59.9848846" lon="15.8277685">
        <ele>115</ele>
        <time>2013-11-20T20:20:05Z</time>
        <extensions><gpxtpx:TrackPointExtension><gpxtpx:hr>144</gpxtpx:hr></gpxtpx:TrackPointExtension></extensions>
      </trkpt>
      <trkpt lat="59.9848904" lon="15.8277553">
        <ele>115</ele>
        <time>2013-11-20T20:20:07Z</time>
        <extensions><gpxtpx:TrackPointExtension><gpxtpx:hr>144</gpxtpx:hr></gpxtpx:TrackPointExtension></extensions>
      </trkpt>
      <trkpt lat="59.9848905" lon="15.8277565">
        <ele>115</ele>
        <time>2013-11-20T20:20:08Z</time>
        <extensions><gpxtpx:TrackPointExtension><gpxtpx:hr>145</gpxtpx:hr></gpxtpx:TrackPointExtension></extensions>
      </trkpt>
      <trkpt lat="59.9848901" lon="15.8277481">
        <ele>115</ele>
        <time>2013-11-20T20:20:09Z</time>
        <extensions><gpxtpx:TrackPointExtension><gpxtpx:hr>145</gpxtpx:hr></gpxtpx:TrackPointExtension></extensions>
      </trkpt>
      <trkpt lat="59.9848936" lon="15.827757">
        <ele>115</ele>
        <time>2013-11-20T20:20:10Z</time>
        <extensions><gpxtpx:TrackPointExtension><gpxtpx:hr>145</gpxtpx:hr></gpxtpx:TrackPointExtension></extensions>
      </trkpt>
      <trkpt lat="59.9849499" lon="15.8276839">
        <ele>115</ele>
        <time>2013-11-20T20:20:12Z</time>
        <extensions><gpxtpx:TrackPointExtension><gpxtpx:hr>145</gpxtpx:hr></gpxtpx:TrackPointExtension></extensions>
      </trkpt>
      <trkpt lat="59.9850583" lon="15.8276061">
        <ele>115</ele>
        <time>2013-11-20T20:20:15Z</time>
        <extensions><gpxtpx:TrackPointExtension><gpxtpx:hr>144</gpxtpx:hr></gpxtpx:TrackPointExtension></extensions>
      </trkpt>
      <trkpt lat="59.9851102" lon="15.8275685">
        <ele>115</ele>
        <time>2013-11-20T20:20:16Z</time>
        <extensions><gpxtpx:TrackPointExtension><gpxtpx:hr>145</gpxtpx:hr></gpxtpx:TrackPointExtension></extensions>
      </trkpt>
      <trkpt lat="59.98515" lon="15.8275189">
        <ele>115</ele>
        <time>2013-11-20T20:20:19Z</time>
        <extensions><gpxtpx:TrackPointExtension><gpxtpx:hr>144</gpxtpx:hr></gpxtpx:TrackPointExtension></extensions>
      </trkpt>
      <trkpt lat="59.9851373" lon="15.8275356">
        <ele>115</ele>
        <time>2013-11-20T20:20:20Z</time>
        <extensions><gpxtpx:TrackPointExtension><gpxtpx:hr>144</gpxtpx:hr></gpxtpx:TrackPointExtension></extensions>
      </trkpt>
      <trkpt lat="59.9851603" lon="15.8274954">
        <ele>115</ele>
        <time>2013-11-20T20:20:21Z</time>
        <extensions><gpxtpx:TrackPointExtension><gpxtpx:hr>145</gpxtpx:hr></gpxtpx:TrackPointExtension></extensions>
      </trkpt>
      <trkpt lat="59.9851719" lon="15.8274808">
        <ele>115</ele>
        <time>2013-11-20T20:20:22Z</time>
        <extensions><gpxtpx:TrackPointExtension><gpxtpx:hr>145</gpxtpx:hr></gpxtpx:TrackPointExtension></extensions>
      </trkpt>
      <trkpt lat="59.9851887" lon="15.8274556">
        <ele>115</ele>
        <time>2013-11-20T20:20:23Z</time>
        <extensions><gpxtpx:TrackPointExtension><gpxtpx:hr>145</gpxtpx:hr></gpxtpx:TrackPointExtension></extensions>
      </trkpt>
      <trkpt lat="59.9851908" lon="15.8274489">
        <ele>115</ele>
        <time>2013-11-20T20:20:24Z</time>
        <extensions><gpxtpx:TrackPointExtension><gpxtpx:hr>145</gpxtpx:hr></gpxtpx:TrackPointExtension></extensions>
      </trkpt>
      <trkpt lat="59.9851986" lon="15.8274399">
        <ele>115</ele>
        <time>2013-11-20T20:20:25Z</time>
        <extensions><gpxtpx:TrackPointExtension><gpxtpx:hr>145</gpxtpx:hr></gpxtpx:TrackPointExtension></extensions>
      </trkpt>
      <trkpt lat="59.9852066" lon="15.8274373">
        <ele>115</ele>
        <time>2013-11-20T20:20:26Z</time>
        <extensions><gpxtpx:TrackPointExtension><gpxtpx:hr>144</gpxtpx:hr></gpxtpx:TrackPointExtension></extensions>
      </trkpt>
      <trkpt lat="59.9852094" lon="15.8274253">
        <ele>115</ele>
        <time>2013-11-20T20:20:28Z</time>
        <extensions><gpxtpx:TrackPointExtension><gpxtpx:hr>144</gpxtpx:hr></gpxtpx:TrackPointExtension></extensions>
      </trkpt>
      <trkpt lat="59.9852076" lon="15.8274224">
        <ele>115</ele>
        <time>2013-11-20T20:20:29Z</time>
        <extensions><gpxtpx:TrackPointExtension><gpxtpx:hr>145</gpxtpx:hr></gpxtpx:TrackPointExtension></extensions>
      </trkpt>
      <trkpt lat="59.9852059" lon="15.8274221">
        <ele>115</ele>
        <time>2013-11-20T20:20:30Z</time>
        <extensions><gpxtpx:TrackPointExtension><gpxtpx:hr>144</gpxtpx:hr></gpxtpx:TrackPointExtension></extensions>
      </trkpt>
      <trkpt lat="59.9852045" lon="15.8274317">
        <ele>115</ele>
        <time>2013-11-20T20:20:31Z</time>
        <extensions><gpxtpx:TrackPointExtension><gpxtpx:hr>145</gpxtpx:hr></gpxtpx:TrackPointExtension></extensions>
      </trkpt>
      <trkpt lat="59.9850416" lon="15.8276357">
        <ele>115</ele>
        <time>2013-11-20T20:20:32Z</time>
        <extensions><gpxtpx:TrackPointExtension><gpxtpx:hr>145</gpxtpx:hr></gpxtpx:TrackPointExtension></extensions>
      </trkpt>
      <trkpt lat="59.9850069" lon="15.8276687">
        <ele>115</ele>
        <time>2013-11-20T20:20:33Z</time>
        <extensions><gpxtpx:TrackPointExtension><gpxtpx:hr>145</gpxtpx:hr></gpxtpx:TrackPointExtension></extensions>
      </trkpt>
      <trkpt lat="59.9849769" lon="15.8276989">
        <ele>115</ele>
        <time>2013-11-20T20:20:34Z</time>
        <extensions><gpxtpx:TrackPointExtension><gpxtpx:hr>145</gpxtpx:hr></gpxtpx:TrackPointExtension></extensions>
      </trkpt>
      <trkpt lat="59.9849719" lon="15.8277035">
        <ele>115</ele>
        <time>2013-11-20T20:20:35Z</time>
        <extensions><gpxtpx:TrackPointExtension><gpxtpx:hr>146</gpxtpx:hr></gpxtpx:TrackPointExtension></extensions>
      </trkpt>
      <trkpt lat="59.984961" lon="15.8277261">
        <ele>115</ele>
        <time>2013-11-20T20:20:36Z</time>
        <extensions><gpxtpx:TrackPointExtension><gpxtpx:hr>146</gpxtpx:hr></gpxtpx:TrackPointExtension></extensions>
      </trkpt>
      <trkpt lat="59.9849596" lon="15.8277279">
        <ele>115</ele>
        <time>2013-11-20T20:20:37Z</time>
        <extensions><gpxtpx:TrackPointExtension><gpxtpx:hr>146</gpxtpx:hr></gpxtpx:TrackPointExtension></extensions>
      </trkpt>
      <trkpt lat="59.9849588" lon="15.8277347">
        <ele>115</ele>
        <time>2013-11-20T20:20:38Z</time>
        <extensions><gpxtpx:TrackPointExtension><gpxtpx:hr>146</gpxtpx:hr></gpxtpx:TrackPointExtension></extensions>
      </trkpt>
      <trkpt lat="59.9849529" lon="15.8277418">
        <ele>115</ele>
        <time>2013-11-20T20:20:39Z</time>
        <extensions><gpxtpx:TrackPointExtension><gpxtpx:hr>147</gpxtpx:hr></gpxtpx:TrackPointExtension></extensions>
      </trkpt>
      <trkpt lat="59.9849506" lon="15.8277465">
        <ele>115</ele>
        <time>2013-11-20T20:20:40Z</time>
        <extensions><gpxtpx:TrackPointExtension><gpxtpx:hr>147</gpxtpx:hr></gpxtpx:TrackPointExtension></extensions>
      </trkpt>
      <trkpt lat="59.9849508" lon="15.8277493">
        <ele>115</ele>
        <time>2013-11-20T20:20:41Z</time>
        <extensions><gpxtpx:TrackPointExtension><gpxtpx:hr>147</gpxtpx:hr></gpxtpx:TrackPointExtension></extensions>
      </trkpt>
      <trkpt lat="59.9849512" lon="15.8277557">
        <ele>115</ele>
        <time>2013-11-20T20:20:42Z</time>
        <extensions><gpxtpx:TrackPointExtension><gpxtpx:hr>147</gpxtpx:hr></gpxtpx:TrackPointExtension></extensions>
      </trkpt>
      <trkpt lat="59.9849505" lon="15.8277598">
        <ele>115</ele>
        <time>2013-11-20T20:20:43Z</time>
        <extensions><gpxtpx:TrackPointExtension><gpxtpx:hr>147</gpxtpx:hr></gpxtpx:TrackPointExtension></extensions>
      </trkpt>
      <trkpt lat="59.9849536" lon="15.8277624">
        <ele>115</ele>
        <time>2013-11-20T20:20:45Z</time>
        <extensions><gpxtpx:TrackPointExtension><gpxtpx:hr>147</gpxtpx:hr></gpxtpx:TrackPointExtension></extensions>
      </trkpt>
      <trkpt lat="59.9849597" lon="15.827763">
        <ele>115</ele>
        <time>2013-11-20T20:20:46Z</time>
        <extensions><gpxtpx:TrackPointExtension><gpxtpx:hr>146</gpxtpx:hr></gpxtpx:TrackPointExtension></extensions>
      </trkpt>
      <trkpt lat="59.9849764" lon="15.8277601">
        <ele>115</ele>
        <time>2013-11-20T20:20:47Z</time>
        <extensions><gpxtpx:TrackPointExtension><gpxtpx:hr>146</gpxtpx:hr></gpxtpx:TrackPointExtension></extensions>
      </trkpt>
      <trkpt lat="59.9849792" lon="15.8277545">
        <ele>115</ele>
        <time>2013-11-20T20:20:48Z</time>
        <extensions><gpxtpx:TrackPointExtension><gpxtpx:hr>146</gpxtpx:hr></gpxtpx:TrackPointExtension></extensions>
      </trkpt>
      <trkpt lat="59.9849771" lon="15.8277537">
        <ele>115</ele>
        <time>2013-11-20T20:20:49Z</time>
        <extensions><gpxtpx:TrackPointExtension><gpxtpx:hr>146</gpxtpx:hr></gpxtpx:TrackPointExtension></extensions>
      </trkpt>
      <trkpt lat="59.9849511" lon="15.8277691">
        <ele>115</ele>
        <time>2013-11-20T20:20:53Z</time>
        <extensions><gpxtpx:TrackPointExtension><gpxtpx:hr>146</gpxtpx:hr></gpxtpx:TrackPointExtension></extensions>
      </trkpt>
      <trkpt lat="59.9849591" lon="15.8277472">
        <ele>116</ele>
        <time>2013-11-20T20:20:54Z</time>
        <extensions><gpxtpx:TrackPointExtension><gpxtpx:hr>146</gpxtpx:hr></gpxtpx:TrackPointExtension></extensions>
      </trkpt>
      <trkpt lat="59.9849684" lon="15.8277301">
        <ele>116</ele>
        <time>2013-11-20T20:20:55Z</time>
        <extensions><gpxtpx:TrackPointExtension><gpxtpx:hr>146</gpxtpx:hr></gpxtpx:TrackPointExtension></extensions>
      </trkpt>
      <trkpt lat="59.9849738" lon="15.8277265">
        <ele>116</ele>
        <time>2013-11-20T20:20:56Z</time>
        <extensions><gpxtpx:TrackPointExtension><gpxtpx:hr>146</gpxtpx:hr></gpxtpx:TrackPointExtension></extensions>
      </trkpt>
      <trkpt lat="59.9849781" lon="15.827721">
        <ele>116</ele>
        <time>2013-11-20T20:20:57Z</time>
        <extensions><gpxtpx:TrackPointExtension><gpxtpx:hr>146</gpxtpx:hr></gpxtpx:TrackPointExtension></extensions>
      </trkpt>
      <trkpt lat="59.9849738" lon="15.827729">
        <ele>116</ele>
        <time>2013-11-20T20:20:58Z</time>
        <extensions><gpxtpx:TrackPointExtension><gpxtpx:hr>146</gpxtpx:hr></gpxtpx:TrackPointExtension></extensions>
      </trkpt>
      <trkpt lat="59.9849647" lon="15.827754">
        <ele>116</ele>
        <time>2013-11-20T20:20:59Z</time>
        <extensions><gpxtpx:TrackPointExtension><gpxtpx:hr>146</gpxtpx:hr></gpxtpx:TrackPointExtension></extensions>
      </trkpt>
      <trkpt lat="59.9849436" lon="15.8277786">
        <ele>116</ele>
        <time>2013-11-20T20:21:00Z</time>
        <extensions><gpxtpx:TrackPointExtension><gpxtpx:hr>147</gpxtpx:hr></gpxtpx:TrackPointExtension></extensions>
      </trkpt>
      <trkpt lat="59.9848937" lon="15.8278337">
        <ele>116</ele>
        <time>2013-11-20T20:21:03Z</time>
        <extensions><gpxtpx:TrackPointExtension><gpxtpx:hr>147</gpxtpx:hr></gpxtpx:TrackPointExtension></extensions>
      </trkpt>
      <trkpt lat="59.9848919" lon="15.8278563">
        <ele>116</ele>
        <time>2013-11-20T20:21:05Z</time>
        <extensions><gpxtpx:TrackPointExtension><gpxtpx:hr>147</gpxtpx:hr></gpxtpx:TrackPointExtension></extensions>
      </trkpt>
      <trkpt lat="59.9848881" lon="15.8278505">
        <ele>116</ele>
        <time>2013-11-20T20:21:07Z</time>
        <extensions><gpxtpx:TrackPointExtension><gpxtpx:hr>146</gpxtpx:hr></gpxtpx:TrackPointExtension></extensions>
      </trkpt>
      <trkpt lat="59.9848912" lon="15.8278555">
        <ele>116</ele>
        <time>2013-11-20T20:21:08Z</time>
        <extensions><gpxtpx:TrackPointExtension><gpxtpx:hr>147</gpxtpx:hr></gpxtpx:TrackPointExtension></extensions>
      </trkpt>
      <trkpt lat="59.9848947" lon="15.8278595">
        <ele>116</ele>
        <time>2013-11-20T20:21:09Z</time>
        <extensions><gpxtpx:TrackPointExtension><gpxtpx:hr>147</gpxtpx:hr></gpxtpx:TrackPointExtension></extensions>
      </trkpt>
      <trkpt lat="59.9848984" lon="15.8278607">
        <ele>116</ele>
        <time>2013-11-20T20:21:10Z</time>
        <extensions><gpxtpx:TrackPointExtension><gpxtpx:hr>147</gpxtpx:hr></gpxtpx:TrackPointExtension></extensions>
      </trkpt>
      <trkpt lat="59.9848798" lon="15.8278604">
        <ele>116</ele>
        <time>2013-11-20T20:21:11Z</time>
        <extensions><gpxtpx:TrackPointExtension><gpxtpx:hr>146</gpxtpx:hr></gpxtpx:TrackPointExtension></extensions>
      </trkpt>
      <trkpt lat="59.9848762" lon="15.8278706">
        <ele>116</ele>
        <time>2013-11-20T20:21:13Z</time>
        <extensions><gpxtpx:TrackPointExtension><gpxtpx:hr>146</gpxtpx:hr></gpxtpx:TrackPointExtension></extensions>
      </trkpt>
      <trkpt lat="59.9848356" lon="15.8278877">
        <ele>116</ele>
        <time>2013-11-20T20:21:15Z</time>
        <extensions><gpxtpx:TrackPointExtension><gpxtpx:hr>147</gpxtpx:hr></gpxtpx:TrackPointExtension></extensions>
      </trkpt>
      <trkpt lat="59.9848176" lon="15.8278964">
        <ele>116</ele>
        <time>2013-11-20T20:21:16Z</time>
        <extensions><gpxtpx:TrackPointExtension><gpxtpx:hr>146</gpxtpx:hr></gpxtpx:TrackPointExtension></extensions>
      </trkpt>
      <trkpt lat="59.9847968" lon="15.8279041">
        <ele>116</ele>
        <time>2013-11-20T20:21:17Z</time>
        <extensions><gpxtpx:TrackPointExtension><gpxtpx:hr>146</gpxtpx:hr></gpxtpx:TrackPointExtension></extensions>
      </trkpt>
      <trkpt lat="59.9847756" lon="15.8279121">
        <ele>116</ele>
        <time>2013-11-20T20:21:18Z</time>
        <extensions><gpxtpx:TrackPointExtension><gpxtpx:hr>146</gpxtpx:hr></gpxtpx:TrackPointExtension></extensions>
      </trkpt>
      <trkpt lat="59.9847644" lon="15.8279195">
        <ele>116</ele>
        <time>2013-11-20T20:21:19Z</time>
        <extensions><gpxtpx:TrackPointExtension><gpxtpx:hr>146</gpxtpx:hr></gpxtpx:TrackPointExtension></extensions>
      </trkpt>
      <trkpt lat="59.9847621" lon="15.8279264">
        <ele>116</ele>
        <time>2013-11-20T20:21:20Z</time>
        <extensions><gpxtpx:TrackPointExtension><gpxtpx:hr>146</gpxtpx:hr></gpxtpx:TrackPointExtension></extensions>
      </trkpt>
      <trkpt lat="59.9847584" lon="15.8279358">
        <ele>116</ele>
        <time>2013-11-20T20:21:21Z</time>
        <extensions><gpxtpx:TrackPointExtension><gpxtpx:hr>147</gpxtpx:hr></gpxtpx:TrackPointExtension></extensions>
      </trkpt>
      <trkpt lat="59.9847565" lon="15.8279424">
        <ele>116</ele>
        <time>2013-11-20T20:21:22Z</time>
        <extensions><gpxtpx:TrackPointExtension><gpxtpx:hr>147</gpxtpx:hr></gpxtpx:TrackPointExtension></extensions>
      </trkpt>
      <trkpt lat="59.9847549" lon="15.8279462">
        <ele>116</ele>
        <time>2013-11-20T20:21:23Z</time>
        <extensions><gpxtpx:TrackPointExtension><gpxtpx:hr>147</gpxtpx:hr></gpxtpx:TrackPointExtension></extensions>
      </trkpt>
      <trkpt lat="59.9847565" lon="15.8279418">
        <ele>116</ele>
        <time>2013-11-20T20:21:26Z</time>
        <extensions><gpxtpx:TrackPointExtension><gpxtpx:hr>147</gpxtpx:hr></gpxtpx:TrackPointExtension></extensions>
      </trkpt>
      <trkpt lat="59.9847369" lon="15.827914">
        <ele>116</ele>
        <time>2013-11-20T20:21:28Z</time>
        <extensions><gpxtpx:TrackPointExtension><gpxtpx:hr>147</gpxtpx:hr></gpxtpx:TrackPointExtension></extensions>
      </trkpt>
      <trkpt lat="59.9846971" lon="15.8279456">
        <ele>116</ele>
        <time>2013-11-20T20:21:31Z</time>
        <extensions><gpxtpx:TrackPointExtension><gpxtpx:hr>147</gpxtpx:hr></gpxtpx:TrackPointExtension></extensions>
      </trkpt>
      <trkpt lat="59.9846804" lon="15.8279581">
        <ele>117</ele>
        <time>2013-11-20T20:21:32Z</time>
        <extensions><gpxtpx:TrackPointExtension><gpxtpx:hr>147</gpxtpx:hr></gpxtpx:TrackPointExtension></extensions>
      </trkpt>
      <trkpt lat="59.9846715" lon="15.8279637">
        <ele>117</ele>
        <time>2013-11-20T20:21:33Z</time>
        <extensions><gpxtpx:TrackPointExtension><gpxtpx:hr>147</gpxtpx:hr></gpxtpx:TrackPointExtension></extensions>
      </trkpt>
      <trkpt lat="59.9846718" lon="15.8279592">
        <ele>117</ele>
        <time>2013-11-20T20:21:34Z</time>
        <extensions><gpxtpx:TrackPointExtension><gpxtpx:hr>147</gpxtpx:hr></gpxtpx:TrackPointExtension></extensions>
      </trkpt>
      <trkpt lat="59.984676" lon="15.8279519">
        <ele>117</ele>
        <time>2013-11-20T20:21:35Z</time>
        <extensions><gpxtpx:TrackPointExtension><gpxtpx:hr>147</gpxtpx:hr></gpxtpx:TrackPointExtension></extensions>
      </trkpt>
      <trkpt lat="59.9846805" lon="15.8279435">
        <ele>117</ele>
        <time>2013-11-20T20:21:36Z</time>
        <extensions><gpxtpx:TrackPointExtension><gpxtpx:hr>147</gpxtpx:hr></gpxtpx:TrackPointExtension></extensions>
      </trkpt>
      <trkpt lat="59.9846755" lon="15.8279342">
        <ele>117</ele>
        <time>2013-11-20T20:21:39Z</time>
        <extensions><gpxtpx:TrackPointExtension><gpxtpx:hr>148</gpxtpx:hr></gpxtpx:TrackPointExtension></extensions>
      </trkpt>
      <trkpt lat="59.9846724" lon="15.8279316">
        <ele>117</ele>
        <time>2013-11-20T20:21:40Z</time>
        <extensions><gpxtpx:TrackPointExtension><gpxtpx:hr>148</gpxtpx:hr></gpxtpx:TrackPointExtension></extensions>
      </trkpt>
      <trkpt lat="59.9846724" lon="15.8279281">
        <ele>117</ele>
        <time>2013-11-20T20:21:41Z</time>
        <extensions><gpxtpx:TrackPointExtension><gpxtpx:hr>148</gpxtpx:hr></gpxtpx:TrackPointExtension></extensions>
      </trkpt>
      <trkpt lat="59.9846755" lon="15.8279251">
        <ele>117</ele>
        <time>2013-11-20T20:21:42Z</time>
        <extensions><gpxtpx:TrackPointExtension><gpxtpx:hr>148</gpxtpx:hr></gpxtpx:TrackPointExtension></extensions>
      </trkpt>
      <trkpt lat="59.9846762" lon="15.8279251">
        <ele>117</ele>
        <time>2013-11-20T20:21:44Z</time>
        <extensions><gpxtpx:TrackPointExtension><gpxtpx:hr>148</gpxtpx:hr></gpxtpx:TrackPointExtension></extensions>
      </trkpt>
      <trkpt lat="59.9846741" lon="15.8279315">
        <ele>117</ele>
        <time>2013-11-20T20:21:45Z</time>
        <extensions><gpxtpx:TrackPointExtension><gpxtpx:hr>148</gpxtpx:hr></gpxtpx:TrackPointExtension></extensions>
      </trkpt>
      <trkpt lat="59.9846742" lon="15.8279352">
        <ele>117</ele>
        <time>2013-11-20T20:21:46Z</time>
        <extensions><gpxtpx:TrackPointExtension><gpxtpx:hr>148</gpxtpx:hr></gpxtpx:TrackPointExtension></extensions>
      </trkpt>
      <trkpt lat="59.984674" lon="15.8279358">
        <ele>117</ele>
        <time>2013-11-20T20:21:47Z</time>
        <extensions><gpxtpx:TrackPointExtension><gpxtpx:hr>148</gpxtpx:hr></gpxtpx:TrackPointExtension></extensions>
      </trkpt>
      <trkpt lat="59.9846746" lon="15.8279415">
        <ele>117</ele>
        <time>2013-11-20T20:21:48Z</time>
        <extensions><gpxtpx:TrackPointExtension><gpxtpx:hr>148</gpxtpx:hr></gpxtpx:TrackPointExtension></extensions>
      </trkpt>
      <trkpt lat="59.9846688" lon="15.8279503">
        <ele>117</ele>
        <time>2013-11-20T20:21:49Z</time>
        <extensions><gpxtpx:TrackPointExtension><gpxtpx:hr>148</gpxtpx:hr></gpxtpx:TrackPointExtension></extensions>
      </trkpt>
      <trkpt lat="59.9846643" lon="15.8279562">
        <ele>117</ele>
        <time>2013-11-20T20:21:50Z</time>
        <extensions><gpxtpx:TrackPointExtension><gpxtpx:hr>148</gpxtpx:hr></gpxtpx:TrackPointExtension></extensions>
      </trkpt>
      <trkpt lat="59.9846586" lon="15.827959">
        <ele>117</ele>
        <time>2013-11-20T20:21:51Z</time>
        <extensions><gpxtpx:TrackPointExtension><gpxtpx:hr>148</gpxtpx:hr></gpxtpx:TrackPointExtension></extensions>
      </trkpt>
      <trkpt lat="59.9846533" lon="15.8279636">
        <ele>117</ele>
        <time>2013-11-20T20:21:52Z</time>
        <extensions><gpxtpx:TrackPointExtension><gpxtpx:hr>149</gpxtpx:hr></gpxtpx:TrackPointExtension></extensions>
      </trkpt>
      <trkpt lat="59.9846471" lon="15.827971">
        <ele>117</ele>
        <time>2013-11-20T20:21:53Z</time>
        <extensions><gpxtpx:TrackPointExtension><gpxtpx:hr>149</gpxtpx:hr></gpxtpx:TrackPointExtension></extensions>
      </trkpt>
      <trkpt lat="59.9846446" lon="15.8279784">
        <ele>117</ele>
        <time>2013-11-20T20:21:54Z</time>
        <extensions><gpxtpx:TrackPointExtension><gpxtpx:hr>149</gpxtpx:hr></gpxtpx:TrackPointExtension></extensions>
      </trkpt>
      <trkpt lat="59.9847155" lon="15.8278985">
        <ele>117</ele>
        <time>2013-11-20T20:21:55Z</time>
        <extensions><gpxtpx:TrackPointExtension><gpxtpx:hr>149</gpxtpx:hr></gpxtpx:TrackPointExtension></extensions>
      </trkpt>
      <trkpt lat="59.9847065" lon="15.8279078">
        <ele>117</ele>
        <time>2013-11-20T20:21:56Z</time>
        <extensions><gpxtpx:TrackPointExtension><gpxtpx:hr>149</gpxtpx:hr></gpxtpx:TrackPointExtension></extensions>
      </trkpt>
      <trkpt lat="59.9847022" lon="15.8279146">
        <ele>117</ele>
        <time>2013-11-20T20:21:57Z</time>
        <extensions><gpxtpx:TrackPointExtension><gpxtpx:hr>149</gpxtpx:hr></gpxtpx:TrackPointExtension></extensions>
      </trkpt>
      <trkpt lat="59.9846971" lon="15.8279224">
        <ele>117</ele>
        <time>2013-11-20T20:21:58Z</time>
        <extensions><gpxtpx:TrackPointExtension><gpxtpx:hr>150</gpxtpx:hr></gpxtpx:TrackPointExtension></extensions>
      </trkpt>
      <trkpt lat="59.9846912" lon="15.8279316">
        <ele>117</ele>
        <time>2013-11-20T20:21:59Z</time>
        <extensions><gpxtpx:TrackPointExtension><gpxtpx:hr>150</gpxtpx:hr></gpxtpx:TrackPointExtension></extensions>
      </trkpt>
      <trkpt lat="59.9846841" lon="15.8279415">
        <ele>117</ele>
        <time>2013-11-20T20:22:00Z</time>
        <extensions><gpxtpx:TrackPointExtension><gpxtpx:hr>150</gpxtpx:hr></gpxtpx:TrackPointExtension></extensions>
      </trkpt>
      <trkpt lat="59.984672" lon="15.8279637">
        <ele>117</ele>
        <time>2013-11-20T20:22:01Z</time>
        <extensions><gpxtpx:TrackPointExtension><gpxtpx:hr>150</gpxtpx:hr></gpxtpx:TrackPointExtension></extensions>
      </trkpt>
      <trkpt lat="59.984663" lon="15.8279786">
        <ele>117</ele>
        <time>2013-11-20T20:22:04Z</time>
        <extensions><gpxtpx:TrackPointExtension><gpxtpx:hr>149</gpxtpx:hr></gpxtpx:TrackPointExtension></extensions>
      </trkpt>
      <trkpt lat="59.9846624" lon="15.8279775">
        <ele>117</ele>
        <time>2013-11-20T20:22:05Z</time>
        <extensions><gpxtpx:TrackPointExtension><gpxtpx:hr>149</gpxtpx:hr></gpxtpx:TrackPointExtension></extensions>
      </trkpt>
      <trkpt lat="59.9846565" lon="15.8279813">
        <ele>118</ele>
        <time>2013-11-20T20:22:06Z</time>
        <extensions><gpxtpx:TrackPointExtension><gpxtpx:hr>150</gpxtpx:hr></gpxtpx:TrackPointExtension></extensions>
      </trkpt>
      <trkpt lat="59.9846527" lon="15.8279883">
        <ele>118</ele>
        <time>2013-11-20T20:22:07Z</time>
        <extensions><gpxtpx:TrackPointExtension><gpxtpx:hr>149</gpxtpx:hr></gpxtpx:TrackPointExtension></extensions>
      </trkpt>
      <trkpt lat="59.9846464" lon="15.8279539">
        <ele>118</ele>
        <time>2013-11-20T20:22:10Z</time>
        <extensions><gpxtpx:TrackPointExtension><gpxtpx:hr>150</gpxtpx:hr></gpxtpx:TrackPointExtension></extensions>
      </trkpt>
      <trkpt lat="59.9846447" lon="15.8279521">
        <ele>118.2</ele>
        <time>2013-11-20T20:22:11Z</time>
        <extensions><gpxtpx:TrackPointExtension><gpxtpx:hr>149</gpxtpx:hr></gpxtpx:TrackPointExtension></extensions>
      </trkpt>
      <trkpt lat="59.9846436" lon="15.8279554">
        <ele>118</ele>
        <time>2013-11-20T20:22:12Z</time>
        <extensions><gpxtpx:TrackPointExtension><gpxtpx:hr>150</gpxtpx:hr></gpxtpx:TrackPointExtension></extensions>
      </trkpt>
      <trkpt lat="59.9846497" lon="15.8279657">
        <ele>118</ele>
        <time>2013-11-20T20:22:13Z</time>
        <extensions><gpxtpx:TrackPointExtension><gpxtpx:hr>150</gpxtpx:hr></gpxtpx:TrackPointExtension></extensions>
      </trkpt>
      <trkpt lat="59.9846478" lon="15.8279661">
        <ele>118</ele>
        <time>2013-11-20T20:22:14Z</time>
        <extensions><gpxtpx:TrackPointExtension><gpxtpx:hr>150</gpxtpx:hr></gpxtpx:TrackPointExtension></extensions>
      </trkpt>
      <trkpt lat="59.9846401" lon="15.8279759">
        <ele>118</ele>
        <time>2013-11-20T20:22:15Z</time>
        <extensions><gpxtpx:TrackPointExtension><gpxtpx:hr>151</gpxtpx:hr></gpxtpx:TrackPointExtension></extensions>
      </trkpt>
      <trkpt lat="59.9846328" lon="15.8279955">
        <ele>118</ele>
        <time>2013-11-20T20:22:16Z</time>
        <extensions><gpxtpx:TrackPointExtension><gpxtpx:hr>151</gpxtpx:hr></gpxtpx:TrackPointExtension></extensions>
      </trkpt>
      <trkpt lat="59.9846165" lon="15.8280192">
        <ele>118</ele>
        <time>2013-11-20T20:22:17Z</time>
        <extensions><gpxtpx:TrackPointExtension><gpxtpx:hr>151</gpxtpx:hr></gpxtpx:TrackPointExtension></extensions>
      </trkpt>
      <trkpt lat="59.9845958" lon="15.8280403">
        <ele>118</ele>
        <time>2013-11-20T20:22:18Z</time>
        <extensions><gpxtpx:TrackPointExtension><gpxtpx:hr>150</gpxtpx:hr></gpxtpx:TrackPointExtension></extensions>
      </trkpt>
      <trkpt lat="59.9845778" lon="15.8280715">
        <ele>118</ele>
        <time>2013-11-20T20:22:19Z</time>
        <extensions><gpxtpx:TrackPointExtension><gpxtpx:hr>150</gpxtpx:hr></gpxtpx:TrackPointExtension></extensions>
      </trkpt>
      <trkpt lat="59.9845586" lon="15.8280917">
        <ele>118</ele>
        <time>2013-11-20T20:22:20Z</time>
        <extensions><gpxtpx:TrackPointExtension><gpxtpx:hr>150</gpxtpx:hr></gpxtpx:TrackPointExtension></extensions>
      </trkpt>
      <trkpt lat="59.9845131" lon="15.8281424">
        <ele>118</ele>
        <time>2013-11-20T20:22:22Z</time>
        <extensions><gpxtpx:TrackPointExtension><gpxtpx:hr>150</gpxtpx:hr></gpxtpx:TrackPointExtension></extensions>
      </trkpt>
      <trkpt lat="59.9844823" lon="15.8281722">
        <ele>118</ele>
        <time>2013-11-20T20:22:24Z</time>
        <extensions><gpxtpx:TrackPointExtension><gpxtpx:hr>150</gpxtpx:hr></gpxtpx:TrackPointExtension></extensions>
      </trkpt>
      <trkpt lat="59.9844277" lon="15.828214">
        <ele>118</ele>
        <time>2013-11-20T20:22:27Z</time>
        <extensions><gpxtpx:TrackPointExtension><gpxtpx:hr>149</gpxtpx:hr></gpxtpx:TrackPointExtension></extensions>
      </trkpt>
      <trkpt lat="59.9843838" lon="15.8282782">
        <ele>118</ele>
        <time>2013-11-20T20:22:30Z</time>
        <extensions><gpxtpx:TrackPointExtension><gpxtpx:hr>148</gpxtpx:hr></gpxtpx:TrackPointExtension></extensions>
      </trkpt>
      <trkpt lat="59.9843703" lon="15.8283026">
        <ele>118</ele>
        <time>2013-11-20T20:22:31Z</time>
        <extensions><gpxtpx:TrackPointExtension><gpxtpx:hr>148</gpxtpx:hr></gpxtpx:TrackPointExtension></extensions>
      </trkpt>
      <trkpt lat="59.9844508" lon="15.8282036">
        <ele>118</ele>
        <time>2013-11-20T20:22:32Z</time>
        <extensions><gpxtpx:TrackPointExtension><gpxtpx:hr>148</gpxtpx:hr></gpxtpx:TrackPointExtension></extensions>
      </trkpt>
      <trkpt lat="59.9844473" lon="15.8282105">
        <ele>118</ele>
        <time>2013-11-20T20:22:33Z</time>
        <extensions><gpxtpx:TrackPointExtension><gpxtpx:hr>148</gpxtpx:hr></gpxtpx:TrackPointExtension></extensions>
      </trkpt>
      <trkpt lat="59.9844476" lon="15.8282134">
        <ele>118</ele>
        <time>2013-11-20T20:22:34Z</time>
        <extensions><gpxtpx:TrackPointExtension><gpxtpx:hr>148</gpxtpx:hr></gpxtpx:TrackPointExtension></extensions>
      </trkpt>
      <trkpt lat="59.9844502" lon="15.8282113">
        <ele>118</ele>
        <time>2013-11-20T20:22:35Z</time>
        <extensions><gpxtpx:TrackPointExtension><gpxtpx:hr>148</gpxtpx:hr></gpxtpx:TrackPointExtension></extensions>
      </trkpt>
      <trkpt lat="59.9844548" lon="15.8282038">
        <ele>118</ele>
        <time>2013-11-20T20:22:36Z</time>
        <extensions><gpxtpx:TrackPointExtension><gpxtpx:hr>148</gpxtpx:hr></gpxtpx:TrackPointExtension></extensions>
      </trkpt>
      <trkpt lat="59.9846996" lon="15.8279106">
        <ele>118</ele>
        <time>2013-11-20T20:22:37Z</time>
        <extensions><gpxtpx:TrackPointExtension><gpxtpx:hr>147</gpxtpx:hr></gpxtpx:TrackPointExtension></extensions>
      </trkpt>
      <trkpt lat="59.9847046" lon="15.8279035">
        <ele>118</ele>
        <time>2013-11-20T20:22:38Z</time>
        <extensions><gpxtpx:TrackPointExtension><gpxtpx:hr>147</gpxtpx:hr></gpxtpx:TrackPointExtension></extensions>
      </trkpt>
      <trkpt lat="59.9847109" lon="15.8278949">
        <ele>118</ele>
        <time>2013-11-20T20:22:39Z</time>
        <extensions><gpxtpx:TrackPointExtension><gpxtpx:hr>147</gpxtpx:hr></gpxtpx:TrackPointExtension></extensions>
      </trkpt>
      <trkpt lat="59.9847092" lon="15.8278809">
        <ele>118</ele>
        <time>2013-11-20T20:22:43Z</time>
        <extensions><gpxtpx:TrackPointExtension><gpxtpx:hr>147</gpxtpx:hr></gpxtpx:TrackPointExtension></extensions>
      </trkpt>
      <trkpt lat="59.9847389" lon="15.827834">
        <ele>118</ele>
        <time>2013-11-20T20:22:45Z</time>
        <extensions><gpxtpx:TrackPointExtension><gpxtpx:hr>147</gpxtpx:hr></gpxtpx:TrackPointExtension></extensions>
      </trkpt>
      <trkpt lat="59.9847419" lon="15.8278166">
        <ele>118</ele>
        <time>2013-11-20T20:22:46Z</time>
        <extensions><gpxtpx:TrackPointExtension><gpxtpx:hr>147</gpxtpx:hr></gpxtpx:TrackPointExtension></extensions>
      </trkpt>
      <trkpt lat="59.9847126" lon="15.8277762">
        <ele>118</ele>
        <time>2013-11-20T20:22:50Z</time>
        <extensions><gpxtpx:TrackPointExtension><gpxtpx:hr>147</gpxtpx:hr></gpxtpx:TrackPointExtension></extensions>
      </trkpt>
      <trkpt lat="59.9846182" lon="15.8278789">
        <ele>118</ele>
        <time>2013-11-20T20:22:54Z</time>
        <extensions><gpxtpx:TrackPointExtension><gpxtpx:hr>148</gpxtpx:hr></gpxtpx:TrackPointExtension></extensions>
      </trkpt>
      <trkpt lat="59.9845891" lon="15.8279285">
        <ele>118</ele>
        <time>2013-11-20T20:22:56Z</time>
        <extensions><gpxtpx:TrackPointExtension><gpxtpx:hr>148</gpxtpx:hr></gpxtpx:TrackPointExtension></extensions>
      </trkpt>
      <trkpt lat="59.9845751" lon="15.827946">
        <ele>118</ele>
        <time>2013-11-20T20:22:57Z</time>
        <extensions><gpxtpx:TrackPointExtension><gpxtpx:hr>148</gpxtpx:hr></gpxtpx:TrackPointExtension></extensions>
      </trkpt>
      <trkpt lat="59.9845741" lon="15.8279569">
        <ele>118</ele>
        <time>2013-11-20T20:22:58Z</time>
        <extensions><gpxtpx:TrackPointExtension><gpxtpx:hr>148</gpxtpx:hr></gpxtpx:TrackPointExtension></extensions>
      </trkpt>
      <trkpt lat="59.9845844" lon="15.8279532">
        <ele>118</ele>
        <time>2013-11-20T20:22:59Z</time>
        <extensions><gpxtpx:TrackPointExtension><gpxtpx:hr>148</gpxtpx:hr></gpxtpx:TrackPointExtension></extensions>
      </trkpt>
      <trkpt lat="59.9845785" lon="15.8279644">
        <ele>118</ele>
        <time>2013-11-20T20:23:00Z</time>
        <extensions><gpxtpx:TrackPointExtension><gpxtpx:hr>147</gpxtpx:hr></gpxtpx:TrackPointExtension></extensions>
      </trkpt>
      <trkpt lat="59.9845818" lon="15.8279608">
        <ele>118</ele>
        <time>2013-11-20T20:23:01Z</time>
        <extensions><gpxtpx:TrackPointExtension><gpxtpx:hr>147</gpxtpx:hr></gpxtpx:TrackPointExtension></extensions>
      </trkpt>
      <trkpt lat="59.9846673" lon="15.8278493">
        <ele>118</ele>
        <time>2013-11-20T20:23:02Z</time>
        <extensions><gpxtpx:TrackPointExtension><gpxtpx:hr>147</gpxtpx:hr></gpxtpx:TrackPointExtension></extensions>
      </trkpt>
      <trkpt lat="59.9846741" lon="15.8278415">
        <ele>118</ele>
        <time>2013-11-20T20:23:03Z</time>
        <extensions><gpxtpx:TrackPointExtension><gpxtpx:hr>147</gpxtpx:hr></gpxtpx:TrackPointExtension></extensions>
      </trkpt>
      <trkpt lat="59.9846914" lon="15.8278237">
        <ele>118</ele>
        <time>2013-11-20T20:23:04Z</time>
        <extensions><gpxtpx:TrackPointExtension><gpxtpx:hr>148</gpxtpx:hr></gpxtpx:TrackPointExtension></extensions>
      </trkpt>
      <trkpt lat="59.9847103" lon="15.8277995">
        <ele>118</ele>
        <time>2013-11-20T20:23:05Z</time>
        <extensions><gpxtpx:TrackPointExtension><gpxtpx:hr>147</gpxtpx:hr></gpxtpx:TrackPointExtension></extensions>
      </trkpt>
      <trkpt lat="59.9847246" lon="15.8277807">
        <ele>118</ele>
        <time>2013-11-20T20:23:06Z</time>
        <extensions><gpxtpx:TrackPointExtension><gpxtpx:hr>147</gpxtpx:hr></gpxtpx:TrackPointExtension></extensions>
      </trkpt>
      <trkpt lat="59.9847433" lon="15.8277549">
        <ele>118</ele>
        <time>2013-11-20T20:23:08Z</time>
        <extensions><gpxtpx:TrackPointExtension><gpxtpx:hr>147</gpxtpx:hr></gpxtpx:TrackPointExtension></extensions>
      </trkpt>
      <trkpt lat="59.9847393" lon="15.8277555">
        <ele>118</ele>
        <time>2013-11-20T20:23:09Z</time>
        <extensions><gpxtpx:TrackPointExtension><gpxtpx:hr>148</gpxtpx:hr></gpxtpx:TrackPointExtension></extensions>
      </trkpt>
      <trkpt lat="59.9847101" lon="15.8277995">
        <ele>118</ele>
        <time>2013-11-20T20:23:10Z</time>
        <extensions><gpxtpx:TrackPointExtension><gpxtpx:hr>148</gpxtpx:hr></gpxtpx:TrackPointExtension></extensions>
      </trkpt>
      <trkpt lat="59.9847117" lon="15.8277981">
        <ele>119</ele>
        <time>2013-11-20T20:23:11Z</time>
        <extensions><gpxtpx:TrackPointExtension><gpxtpx:hr>148</gpxtpx:hr></gpxtpx:TrackPointExtension></extensions>
      </trkpt>
      <trkpt lat="59.9847062" lon="15.8278062">
        <ele>119</ele>
        <time>2013-11-20T20:23:12Z</time>
        <extensions><gpxtpx:TrackPointExtension><gpxtpx:hr>148</gpxtpx:hr></gpxtpx:TrackPointExtension></extensions>
      </trkpt>
      <trkpt lat="59.9847103" lon="15.8278028">
        <ele>119</ele>
        <time>2013-11-20T20:23:13Z</time>
        <extensions><gpxtpx:TrackPointExtension><gpxtpx:hr>148</gpxtpx:hr></gpxtpx:TrackPointExtension></extensions>
      </trkpt>
      <trkpt lat="59.9846939" lon="15.8278269">
        <ele>119</ele>
        <time>2013-11-20T20:23:15Z</time>
        <extensions><gpxtpx:TrackPointExtension><gpxtpx:hr>147</gpxtpx:hr></gpxtpx:TrackPointExtension></extensions>
      </trkpt>
      <trkpt lat="59.9846625" lon="15.8278641">
        <ele>119</ele>
        <time>2013-11-20T20:23:17Z</time>
        <extensions><gpxtpx:TrackPointExtension><gpxtpx:hr>148</gpxtpx:hr></gpxtpx:TrackPointExtension></extensions>
      </trkpt>
      <trkpt lat="59.9846527" lon="15.8278696">
        <ele>119</ele>
        <time>2013-11-20T20:23:20Z</time>
        <extensions><gpxtpx:TrackPointExtension><gpxtpx:hr>147</gpxtpx:hr></gpxtpx:TrackPointExtension></extensions>
      </trkpt>
      <trkpt lat="59.9846588" lon="15.8278613">
        <ele>119</ele>
        <time>2013-11-20T20:23:21Z</time>
        <extensions><gpxtpx:TrackPointExtension><gpxtpx:hr>147</gpxtpx:hr></gpxtpx:TrackPointExtension></extensions>
      </trkpt>
      <trkpt lat="59.9847066" lon="15.8278046">
        <ele>119</ele>
        <time>2013-11-20T20:23:22Z</time>
        <extensions><gpxtpx:TrackPointExtension><gpxtpx:hr>147</gpxtpx:hr></gpxtpx:TrackPointExtension></extensions>
      </trkpt>
      <trkpt lat="59.9847231" lon="15.8277851">
        <ele>119</ele>
        <time>2013-11-20T20:23:23Z</time>
        <extensions><gpxtpx:TrackPointExtension><gpxtpx:hr>146</gpxtpx:hr></gpxtpx:TrackPointExtension></extensions>
      </trkpt>
      <trkpt lat="59.9847352" lon="15.8277693">
        <ele>119</ele>
        <time>2013-11-20T20:23:24Z</time>
        <extensions><gpxtpx:TrackPointExtension><gpxtpx:hr>147</gpxtpx:hr></gpxtpx:TrackPointExtension></extensions>
      </trkpt>
      <trkpt lat="59.9847391" lon="15.8277611">
        <ele>119.2</ele>
        <time>2013-11-20T20:23:25Z</time>
        <extensions><gpxtpx:TrackPointExtension><gpxtpx:hr>146</gpxtpx:hr></gpxtpx:TrackPointExtension></extensions>
      </trkpt>
      <trkpt lat="59.984744" lon="15.8277524">
        <ele>119</ele>
        <time>2013-11-20T20:23:26Z</time>
        <extensions><gpxtpx:TrackPointExtension><gpxtpx:hr>146</gpxtpx:hr></gpxtpx:TrackPointExtension></extensions>
      </trkpt>
      <trkpt lat="59.9847482" lon="15.8277446">
        <ele>119</ele>
        <time>2013-11-20T20:23:27Z</time>
        <extensions><gpxtpx:TrackPointExtension><gpxtpx:hr>146</gpxtpx:hr></gpxtpx:TrackPointExtension></extensions>
      </trkpt>
      <trkpt lat="59.9847486" lon="15.8277411">
        <ele>119</ele>
        <time>2013-11-20T20:23:28Z</time>
        <extensions><gpxtpx:TrackPointExtension><gpxtpx:hr>146</gpxtpx:hr></gpxtpx:TrackPointExtension></extensions>
      </trkpt>
      <trkpt lat="59.9847455" lon="15.8277422">
        <ele>119</ele>
        <time>2013-11-20T20:23:29Z</time>
        <extensions><gpxtpx:TrackPointExtension><gpxtpx:hr>146</gpxtpx:hr></gpxtpx:TrackPointExtension></extensions>
      </trkpt>
      <trkpt lat="59.984743" lon="15.8277437">
        <ele>119</ele>
        <time>2013-11-20T20:23:30Z</time>
        <extensions><gpxtpx:TrackPointExtension><gpxtpx:hr>146</gpxtpx:hr></gpxtpx:TrackPointExtension></extensions>
      </trkpt>
      <trkpt lat="59.9847384" lon="15.8277482">
        <ele>119</ele>
        <time>2013-11-20T20:23:31Z</time>
        <extensions><gpxtpx:TrackPointExtension><gpxtpx:hr>146</gpxtpx:hr></gpxtpx:TrackPointExtension></extensions>
      </trkpt>
      <trkpt lat="59.9847344" lon="15.827755">
        <ele>119</ele>
        <time>2013-11-20T20:23:32Z</time>
        <extensions><gpxtpx:TrackPointExtension><gpxtpx:hr>147</gpxtpx:hr></gpxtpx:TrackPointExtension></extensions>
      </trkpt>
      <trkpt lat="59.9847312" lon="15.8277624">
        <ele>119</ele>
        <time>2013-11-20T20:23:34Z</time>
        <extensions><gpxtpx:TrackPointExtension><gpxtpx:hr>147</gpxtpx:hr></gpxtpx:TrackPointExtension></extensions>
      </trkpt>
      <trkpt lat="59.9847302" lon="15.8277621">
        <ele>119</ele>
        <time>2013-11-20T20:23:35Z</time>
        <extensions><gpxtpx:TrackPointExtension><gpxtpx:hr>147</gpxtpx:hr></gpxtpx:TrackPointExtension></extensions>
      </trkpt>
      <trkpt lat="59.9848238" lon="15.8276737">
        <ele>119</ele>
        <time>2013-11-20T20:23:39Z</time>
        <extensions><gpxtpx:TrackPointExtension><gpxtpx:hr>146</gpxtpx:hr></gpxtpx:TrackPointExtension></extensions>
      </trkpt>
      <trkpt lat="59.9848389" lon="15.8276628">
        <ele>119</ele>
        <time>2013-11-20T20:23:41Z</time>
        <extensions><gpxtpx:TrackPointExtension><gpxtpx:hr>147</gpxtpx:hr></gpxtpx:TrackPointExtension></extensions>
      </trkpt>
      <trkpt lat="59.9848445" lon="15.827654">
        <ele>119</ele>
        <time>2013-11-20T20:23:46Z</time>
        <extensions><gpxtpx:TrackPointExtension><gpxtpx:hr>147</gpxtpx:hr></gpxtpx:TrackPointExtension></extensions>
      </trkpt>
      <trkpt lat="59.984843" lon="15.827653">
        <ele>119</ele>
        <time>2013-11-20T20:23:47Z</time>
        <extensions><gpxtpx:TrackPointExtension><gpxtpx:hr>147</gpxtpx:hr></gpxtpx:TrackPointExtension></extensions>
      </trkpt>
      <trkpt lat="59.9848413" lon="15.8276532">
        <ele>119</ele>
        <time>2013-11-20T20:23:49Z</time>
        <extensions><gpxtpx:TrackPointExtension><gpxtpx:hr>146</gpxtpx:hr></gpxtpx:TrackPointExtension></extensions>
      </trkpt>
      <trkpt lat="59.9848411" lon="15.8276526">
        <ele>119</ele>
        <time>2013-11-20T20:23:50Z</time>
        <extensions><gpxtpx:TrackPointExtension><gpxtpx:hr>146</gpxtpx:hr></gpxtpx:TrackPointExtension></extensions>
      </trkpt>
      <trkpt lat="59.9848446" lon="15.8276475">
        <ele>119</ele>
        <time>2013-11-20T20:23:51Z</time>
        <extensions><gpxtpx:TrackPointExtension><gpxtpx:hr>146</gpxtpx:hr></gpxtpx:TrackPointExtension></extensions>
      </trkpt>
      <trkpt lat="59.9848494" lon="15.8276419">
        <ele>119</ele>
        <time>2013-11-20T20:23:52Z</time>
        <extensions><gpxtpx:TrackPointExtension><gpxtpx:hr>146</gpxtpx:hr></gpxtpx:TrackPointExtension></extensions>
      </trkpt>
      <trkpt lat="59.9848422" lon="15.8276613">
        <ele>119</ele>
        <time>2013-11-20T20:23:53Z</time>
        <extensions><gpxtpx:TrackPointExtension><gpxtpx:hr>147</gpxtpx:hr></gpxtpx:TrackPointExtension></extensions>
      </trkpt>
      <trkpt lat="59.9848595" lon="15.8276459">
        <ele>119</ele>
        <time>2013-11-20T20:23:55Z</time>
        <extensions><gpxtpx:TrackPointExtension><gpxtpx:hr>147</gpxtpx:hr></gpxtpx:TrackPointExtension></extensions>
      </trkpt>
      <trkpt lat="59.9848648" lon="15.8276373">
        <ele>119</ele>
        <time>2013-11-20T20:23:56Z</time>
        <extensions><gpxtpx:TrackPointExtension><gpxtpx:hr>147</gpxtpx:hr></gpxtpx:TrackPointExtension></extensions>
      </trkpt>
      <trkpt lat="59.9848386" lon="15.8276747">
        <ele>119</ele>
        <time>2013-11-20T20:23:59Z</time>
        <extensions><gpxtpx:TrackPointExtension><gpxtpx:hr>148</gpxtpx:hr></gpxtpx:TrackPointExtension></extensions>
      </trkpt>
      <trkpt lat="59.9848269" lon="15.827691">
        <ele>119</ele>
        <time>2013-11-20T20:24:00Z</time>
        <extensions><gpxtpx:TrackPointExtension><gpxtpx:hr>148</gpxtpx:hr></gpxtpx:TrackPointExtension></extensions>
      </trkpt>
      <trkpt lat="59.9848153" lon="15.8277115">
        <ele>120</ele>
        <time>2013-11-20T20:24:05Z</time>
        <extensions><gpxtpx:TrackPointExtension><gpxtpx:hr>149</gpxtpx:hr></gpxtpx:TrackPointExtension></extensions>
      </trkpt>
      <trkpt lat="59.9848201" lon="15.8277054">
        <ele>120</ele>
        <time>2013-11-20T20:24:06Z</time>
        <extensions><gpxtpx:TrackPointExtension><gpxtpx:hr>149</gpxtpx:hr></gpxtpx:TrackPointExtension></extensions>
      </trkpt>
      <trkpt lat="59.984862" lon="15.8276579">
        <ele>120</ele>
        <time>2013-11-20T20:24:07Z</time>
        <extensions><gpxtpx:TrackPointExtension><gpxtpx:hr>149</gpxtpx:hr></gpxtpx:TrackPointExtension></extensions>
      </trkpt>
      <trkpt lat="59.9848673" lon="15.8276482">
        <ele>120</ele>
        <time>2013-11-20T20:24:09Z</time>
        <extensions><gpxtpx:TrackPointExtension><gpxtpx:hr>148</gpxtpx:hr></gpxtpx:TrackPointExtension></extensions>
      </trkpt>
      <trkpt lat="59.9848688" lon="15.827649">
        <ele>120</ele>
        <time>2013-11-20T20:24:10Z</time>
        <extensions><gpxtpx:TrackPointExtension><gpxtpx:hr>148</gpxtpx:hr></gpxtpx:TrackPointExtension></extensions>
      </trkpt>
      <trkpt lat="59.9848735" lon="15.8276426">
        <ele>120.2</ele>
        <time>2013-11-20T20:24:11Z</time>
        <extensions><gpxtpx:TrackPointExtension><gpxtpx:hr>148</gpxtpx:hr></gpxtpx:TrackPointExtension></extensions>
      </trkpt>
      <trkpt lat="59.9848817" lon="15.8276421">
        <ele>120</ele>
        <time>2013-11-20T20:24:12Z</time>
        <extensions><gpxtpx:TrackPointExtension><gpxtpx:hr>148</gpxtpx:hr></gpxtpx:TrackPointExtension></extensions>
      </trkpt>
      <trkpt lat="59.9848909" lon="15.8276332">
        <ele>120</ele>
        <time>2013-11-20T20:24:13Z</time>
        <extensions><gpxtpx:TrackPointExtension><gpxtpx:hr>148</gpxtpx:hr></gpxtpx:TrackPointExtension></extensions>
      </trkpt>
      <trkpt lat="59.9848942" lon="15.8276225">
        <ele>120</ele>
        <time>2013-11-20T20:24:14Z</time>
        <extensions><gpxtpx:TrackPointExtension><gpxtpx:hr>148</gpxtpx:hr></gpxtpx:TrackPointExtension></extensions>
      </trkpt>
      <trkpt lat="59.9848933" lon="15.8276143">
        <ele>120</ele>
        <time>2013-11-20T20:24:15Z</time>
        <extensions><gpxtpx:TrackPointExtension><gpxtpx:hr>149</gpxtpx:hr></gpxtpx:TrackPointExtension></extensions>
      </trkpt>
      <trkpt lat="59.984889" lon="15.8276146">
        <ele>120</ele>
        <time>2013-11-20T20:24:16Z</time>
        <extensions><gpxtpx:TrackPointExtension><gpxtpx:hr>148</gpxtpx:hr></gpxtpx:TrackPointExtension></extensions>
      </trkpt>
      <trkpt lat="59.9848555" lon="15.8276631">
        <ele>120</ele>
        <time>2013-11-20T20:24:17Z</time>
        <extensions><gpxtpx:TrackPointExtension><gpxtpx:hr>149</gpxtpx:hr></gpxtpx:TrackPointExtension></extensions>
      </trkpt>
      <trkpt lat="59.9848524" lon="15.8276663">
        <ele>120</ele>
        <time>2013-11-20T20:24:18Z</time>
        <extensions><gpxtpx:TrackPointExtension><gpxtpx:hr>149</gpxtpx:hr></gpxtpx:TrackPointExtension></extensions>
      </trkpt>
      <trkpt lat="59.9848521" lon="15.827668">
        <ele>120</ele>
        <time>2013-11-20T20:24:19Z</time>
        <extensions><gpxtpx:TrackPointExtension><gpxtpx:hr>149</gpxtpx:hr></gpxtpx:TrackPointExtension></extensions>
      </trkpt>
      <trkpt lat="59.9848512" lon="15.8276704">
        <ele>120</ele>
        <time>2013-11-20T20:24:20Z</time>
        <extensions><gpxtpx:TrackPointExtension><gpxtpx:hr>149</gpxtpx:hr></gpxtpx:TrackPointExtension></extensions>
      </trkpt>
      <trkpt lat="59.9848511" lon="15.8276711">
        <ele>120</ele>
        <time>2013-11-20T20:24:21Z</time>
        <extensions><gpxtpx:TrackPointExtension><gpxtpx:hr>149</gpxtpx:hr></gpxtpx:TrackPointExtension></extensions>
      </trkpt>
      <trkpt lat="59.9848512" lon="15.8276689">
        <ele>120</ele>
        <time>2013-11-20T20:24:22Z</time>
        <extensions><gpxtpx:TrackPointExtension><gpxtpx:hr>149</gpxtpx:hr></gpxtpx:TrackPointExtension></extensions>
      </trkpt>
      <trkpt lat="59.9848551" lon="15.8276621">
        <ele>120</ele>
        <time>2013-11-20T20:24:23Z</time>
        <extensions><gpxtpx:TrackPointExtension><gpxtpx:hr>149</gpxtpx:hr></gpxtpx:TrackPointExtension></extensions>
      </trkpt>
      <trkpt lat="59.9848571" lon="15.8276609">
        <ele>120</ele>
        <time>2013-11-20T20:24:24Z</time>
        <extensions><gpxtpx:TrackPointExtension><gpxtpx:hr>150</gpxtpx:hr></gpxtpx:TrackPointExtension></extensions>
      </trkpt>
      <trkpt lat="59.9848623" lon="15.8276604">
        <ele>120</ele>
        <time>2013-11-20T20:24:25Z</time>
        <extensions><gpxtpx:TrackPointExtension><gpxtpx:hr>150</gpxtpx:hr></gpxtpx:TrackPointExtension></extensions>
      </trkpt>
      <trkpt lat="59.9848667" lon="15.8276556">
        <ele>120</ele>
        <time>2013-11-20T20:24:26Z</time>
        <extensions><gpxtpx:TrackPointExtension><gpxtpx:hr>150</gpxtpx:hr></gpxtpx:TrackPointExtension></extensions>
      </trkpt>
      <trkpt lat="59.9848725" lon="15.8276531">
        <ele>120</ele>
        <time>2013-11-20T20:24:28Z</time>
        <extensions><gpxtpx:TrackPointExtension><gpxtpx:hr>150</gpxtpx:hr></gpxtpx:TrackPointExtension></extensions>
      </trkpt>
      <trkpt lat="59.9848676" lon="15.8276369">
        <ele>120</ele>
        <time>2013-11-20T20:24:30Z</time>
        <extensions><gpxtpx:TrackPointExtension><gpxtpx:hr>150</gpxtpx:hr></gpxtpx:TrackPointExtension></extensions>
      </trkpt>
      <trkpt lat="59.9848711" lon="15.8276297">
        <ele>120</ele>
        <time>2013-11-20T20:24:31Z</time>
        <extensions><gpxtpx:TrackPointExtension><gpxtpx:hr>150</gpxtpx:hr></gpxtpx:TrackPointExtension></extensions>
      </trkpt>
      <trkpt lat="59.9848722" lon="15.8276257">
        <ele>120</ele>
        <time>2013-11-20T20:24:32Z</time>
        <extensions><gpxtpx:TrackPointExtension><gpxtpx:hr>150</gpxtpx:hr></gpxtpx:TrackPointExtension></extensions>
      </trkpt>
      <trkpt lat="59.9848685" lon="15.8276286">
        <ele>120</ele>
        <time>2013-11-20T20:24:33Z</time>
        <extensions><gpxtpx:TrackPointExtension><gpxtpx:hr>150</gpxtpx:hr></gpxtpx:TrackPointExtension></extensions>
      </trkpt>
      <trkpt lat="59.9848624" lon="15.8276338">
        <ele>120</ele>
        <time>2013-11-20T20:24:34Z</time>
        <extensions><gpxtpx:TrackPointExtension><gpxtpx:hr>150</gpxtpx:hr></gpxtpx:TrackPointExtension></extensions>
      </trkpt>
      <trkpt lat="59.984859" lon="15.8276313">
        <ele>120</ele>
        <time>2013-11-20T20:24:35Z</time>
        <extensions><gpxtpx:TrackPointExtension><gpxtpx:hr>150</gpxtpx:hr></gpxtpx:TrackPointExtension></extensions>
      </trkpt>
      <trkpt lat="59.9848572" lon="15.8276302">
        <ele>120</ele>
        <time>2013-11-20T20:24:36Z</time>
        <extensions><gpxtpx:TrackPointExtension><gpxtpx:hr>150</gpxtpx:hr></gpxtpx:TrackPointExtension></extensions>
      </trkpt>
      <trkpt lat="59.9848574" lon="15.82763">
        <ele>120</ele>
        <time>2013-11-20T20:24:37Z</time>
        <extensions><gpxtpx:TrackPointExtension><gpxtpx:hr>151</gpxtpx:hr></gpxtpx:TrackPointExtension></extensions>
      </trkpt>
      <trkpt lat="59.9848542" lon="15.8276347">
        <ele>120</ele>
        <time>2013-11-20T20:24:38Z</time>
        <extensions><gpxtpx:TrackPointExtension><gpxtpx:hr>150</gpxtpx:hr></gpxtpx:TrackPointExtension></extensions>
      </trkpt>
      <trkpt lat="59.984853" lon="15.8276381">
        <ele>120</ele>
        <time>2013-11-20T20:24:39Z</time>
        <extensions><gpxtpx:TrackPointExtension><gpxtpx:hr>151</gpxtpx:hr></gpxtpx:TrackPointExtension></extensions>
      </trkpt>
      <trkpt lat="59.9848456" lon="15.8276478">
        <ele>120</ele>
        <time>2013-11-20T20:24:43Z</time>
        <extensions><gpxtpx:TrackPointExtension><gpxtpx:hr>151</gpxtpx:hr></gpxtpx:TrackPointExtension></extensions>
      </trkpt>
      <trkpt lat="59.9848432" lon="15.8276518">
        <ele>120</ele>
        <time>2013-11-20T20:24:44Z</time>
        <extensions><gpxtpx:TrackPointExtension><gpxtpx:hr>151</gpxtpx:hr></gpxtpx:TrackPointExtension></extensions>
      </trkpt>
      <trkpt lat="59.9848393" lon="15.8276586">
        <ele>121</ele>
        <time>2013-11-20T20:24:45Z</time>
        <extensions><gpxtpx:TrackPointExtension><gpxtpx:hr>151</gpxtpx:hr></gpxtpx:TrackPointExtension></extensions>
      </trkpt>
      <trkpt lat="59.9848368" lon="15.8276606">
        <ele>121</ele>
        <time>2013-11-20T20:24:46Z</time>
        <extensions><gpxtpx:TrackPointExtension><gpxtpx:hr>150</gpxtpx:hr></gpxtpx:TrackPointExtension></extensions>
      </trkpt>
      <trkpt lat="59.9848357" lon="15.8276595">
        <ele>121</ele>
        <time>2013-11-20T20:24:47Z</time>
        <extensions><gpxtpx:TrackPointExtension><gpxtpx:hr>151</gpxtpx:hr></gpxtpx:TrackPointExtension></extensions>
      </trkpt>
      <trkpt lat="59.9848326" lon="15.8276586">
        <ele>121</ele>
        <time>2013-11-20T20:24:48Z</time>
        <extensions><gpxtpx:TrackPointExtension><gpxtpx:hr>151</gpxtpx:hr></gpxtpx:TrackPointExtension></extensions>
      </trkpt>
      <trkpt lat="59.9847874" lon="15.8277569">
        <ele>121</ele>
        <time>2013-11-20T20:24:56Z</time>
        <extensions><gpxtpx:TrackPointExtension><gpxtpx:hr>151</gpxtpx:hr></gpxtpx:TrackPointExtension></extensions>
      </trkpt>
      <trkpt lat="59.9847803" lon="15.8277706">
        <ele>121</ele>
        <time>2013-11-20T20:24:57Z</time>
        <extensions><gpxtpx:TrackPointExtension><gpxtpx:hr>151</gpxtpx:hr></gpxtpx:TrackPointExtension></extensions>
      </trkpt>
      <trkpt lat="59.9847714" lon="15.8277479">
        <ele>121</ele>
        <time>2013-11-20T20:25:01Z</time>
        <extensions><gpxtpx:TrackPointExtension><gpxtpx:hr>151</gpxtpx:hr></gpxtpx:TrackPointExtension></extensions>
      </trkpt>
      <trkpt lat="59.9847732" lon="15.8277542">
        <ele>121</ele>
        <time>2013-11-20T20:25:02Z</time>
        <extensions><gpxtpx:TrackPointExtension><gpxtpx:hr>151</gpxtpx:hr></gpxtpx:TrackPointExtension></extensions>
      </trkpt>
      <trkpt lat="59.9847728" lon="15.8277557">
        <ele>121</ele>
        <time>2013-11-20T20:25:03Z</time>
        <extensions><gpxtpx:TrackPointExtension><gpxtpx:hr>151</gpxtpx:hr></gpxtpx:TrackPointExtension></extensions>
      </trkpt>
      <trkpt lat="59.9847684" lon="15.8277661">
        <ele>121</ele>
        <time>2013-11-20T20:25:04Z</time>
        <extensions><gpxtpx:TrackPointExtension><gpxtpx:hr>152</gpxtpx:hr></gpxtpx:TrackPointExtension></extensions>
      </trkpt>
      <trkpt lat="59.9847869" lon="15.8277673">
        <ele>121</ele>
        <time>2013-11-20T20:25:05Z</time>
        <extensions><gpxtpx:TrackPointExtension><gpxtpx:hr>152</gpxtpx:hr></gpxtpx:TrackPointExtension></extensions>
      </trkpt>
      <trkpt lat="59.9847825" lon="15.8277734">
        <ele>121</ele>
        <time>2013-11-20T20:25:06Z</time>
        <extensions><gpxtpx:TrackPointExtension><gpxtpx:hr>152</gpxtpx:hr></gpxtpx:TrackPointExtension></extensions>
      </trkpt>
      <trkpt lat="59.9847808" lon="15.8277871">
        <ele>121</ele>
        <time>2013-11-20T20:25:07Z</time>
        <extensions><gpxtpx:TrackPointExtension><gpxtpx:hr>152</gpxtpx:hr></gpxtpx:TrackPointExtension></extensions>
      </trkpt>
      <trkpt lat="59.984779" lon="15.8277889">
        <ele>121</ele>
        <time>2013-11-20T20:25:08Z</time>
        <extensions><gpxtpx:TrackPointExtension><gpxtpx:hr>152</gpxtpx:hr></gpxtpx:TrackPointExtension></extensions>
      </trkpt>
      <trkpt lat="59.9847937" lon="15.8277781">
        <ele>121</ele>
        <time>2013-11-20T20:25:09Z</time>
        <extensions><gpxtpx:TrackPointExtension><gpxtpx:hr>152</gpxtpx:hr></gpxtpx:TrackPointExtension></extensions>
      </trkpt>
      <trkpt lat="59.984816" lon="15.8277491">
        <ele>121</ele>
        <time>2013-11-20T20:25:10Z</time>
        <extensions><gpxtpx:TrackPointExtension><gpxtpx:hr>152</gpxtpx:hr></gpxtpx:TrackPointExtension></extensions>
      </trkpt>
      <trkpt lat="59.9848408" lon="15.827719">
        <ele>121</ele>
        <time>2013-11-20T20:25:11Z</time>
        <extensions><gpxtpx:TrackPointExtension><gpxtpx:hr>152</gpxtpx:hr></gpxtpx:TrackPointExtension></extensions>
      </trkpt>
      <trkpt lat="59.9848767" lon="15.8276807">
        <ele>121</ele>
        <time>2013-11-20T20:25:14Z</time>
        <extensions><gpxtpx:TrackPointExtension><gpxtpx:hr>152</gpxtpx:hr></gpxtpx:TrackPointExtension></extensions>
      </trkpt>
      <trkpt lat="59.9848809" lon="15.8276779">
        <ele>121</ele>
        <time>2013-11-20T20:25:15Z</time>
        <extensions><gpxtpx:TrackPointExtension><gpxtpx:hr>152</gpxtpx:hr></gpxtpx:TrackPointExtension></extensions>
      </trkpt>
      <trkpt lat="59.9848837" lon="15.8276742">
        <ele>121</ele>
        <time>2013-11-20T20:25:16Z</time>
        <extensions><gpxtpx:TrackPointExtension><gpxtpx:hr>152</gpxtpx:hr></gpxtpx:TrackPointExtension></extensions>
      </trkpt>
      <trkpt lat="59.9848605" lon="15.8276966">
        <ele>121</ele>
        <time>2013-11-20T20:25:20Z</time>
        <extensions><gpxtpx:TrackPointExtension><gpxtpx:hr>151</gpxtpx:hr></gpxtpx:TrackPointExtension></extensions>
      </trkpt>
      <trkpt lat="59.9848534" lon="15.8277073">
        <ele>121</ele>
        <time>2013-11-20T20:25:21Z</time>
        <extensions><gpxtpx:TrackPointExtension><gpxtpx:hr>151</gpxtpx:hr></gpxtpx:TrackPointExtension></extensions>
      </trkpt>
      <trkpt lat="59.9848547" lon="15.8277074">
        <ele>121.2</ele>
        <time>2013-11-20T20:25:23Z</time>
        <extensions><gpxtpx:TrackPointExtension><gpxtpx:hr>150</gpxtpx:hr></gpxtpx:TrackPointExtension></extensions>
      </trkpt>
      <trkpt lat="59.9848642" lon="15.8276982">
        <ele>122.2</ele>
        <time>2013-11-20T20:25:24Z</time>
        <extensions><gpxtpx:TrackPointExtension><gpxtpx:hr>150</gpxtpx:hr></gpxtpx:TrackPointExtension></extensions>
      </trkpt>
      <trkpt lat="59.9848826" lon="15.8276727">
        <ele>122.2</ele>
        <time>2013-11-20T20:25:26Z</time>
        <extensions><gpxtpx:TrackPointExtension><gpxtpx:hr>150</gpxtpx:hr></gpxtpx:TrackPointExtension></extensions>
      </trkpt>
      <trkpt lat="59.9848799" lon="15.8276709">
        <ele>122.2</ele>
        <time>2013-11-20T20:25:28Z</time>
        <extensions><gpxtpx:TrackPointExtension><gpxtpx:hr>150</gpxtpx:hr></gpxtpx:TrackPointExtension></extensions>
      </trkpt>
      <trkpt lat="59.9848884" lon="15.8276637">
        <ele>122.2</ele>
        <time>2013-11-20T20:25:30Z</time>
        <extensions><gpxtpx:TrackPointExtension><gpxtpx:hr>151</gpxtpx:hr></gpxtpx:TrackPointExtension></extensions>
      </trkpt>
      <trkpt lat="59.9848888" lon="15.8276633">
        <ele>122.2</ele>
        <time>2013-11-20T20:25:31Z</time>
        <extensions><gpxtpx:TrackPointExtension><gpxtpx:hr>150</gpxtpx:hr></gpxtpx:TrackPointExtension></extensions>
      </trkpt>
      <trkpt lat="59.984889" lon="15.8276626">
        <ele>122.2</ele>
        <time>2013-11-20T20:25:32Z</time>
        <extensions><gpxtpx:TrackPointExtension><gpxtpx:hr>150</gpxtpx:hr></gpxtpx:TrackPointExtension></extensions>
      </trkpt>
      <trkpt lat="59.984888" lon="15.8276628">
        <ele>122.2</ele>
        <time>2013-11-20T20:25:33Z</time>
        <extensions><gpxtpx:TrackPointExtension><gpxtpx:hr>150</gpxtpx:hr></gpxtpx:TrackPointExtension></extensions>
      </trkpt>
      <trkpt lat="59.9848853" lon="15.8276681">
        <ele>122.2</ele>
        <time>2013-11-20T20:25:34Z</time>
        <extensions><gpxtpx:TrackPointExtension><gpxtpx:hr>151</gpxtpx:hr></gpxtpx:TrackPointExtension></extensions>
      </trkpt>
      <trkpt lat="59.9848828" lon="15.8276731">
        <ele>122.2</ele>
        <time>2013-11-20T20:25:35Z</time>
        <extensions><gpxtpx:TrackPointExtension><gpxtpx:hr>151</gpxtpx:hr></gpxtpx:TrackPointExtension></extensions>
      </trkpt>
      <trkpt lat="59.984881" lon="15.8276783">
        <ele>122.2</ele>
        <time>2013-11-20T20:25:36Z</time>
        <extensions><gpxtpx:TrackPointExtension><gpxtpx:hr>150</gpxtpx:hr></gpxtpx:TrackPointExtension></extensions>
      </trkpt>
      <trkpt lat="59.9848777" lon="15.8276847">
        <ele>122.2</ele>
        <time>2013-11-20T20:25:37Z</time>
        <extensions><gpxtpx:TrackPointExtension><gpxtpx:hr>151</gpxtpx:hr></gpxtpx:TrackPointExtension></extensions>
      </trkpt>
      <trkpt lat="59.9848746" lon="15.8276917">
        <ele>122.2</ele>
        <time>2013-11-20T20:25:38Z</time>
        <extensions><gpxtpx:TrackPointExtension><gpxtpx:hr>150</gpxtpx:hr></gpxtpx:TrackPointExtension></extensions>
      </trkpt>
      <trkpt lat="59.9848717" lon="15.8276966">
        <ele>122.2</ele>
        <time>2013-11-20T20:25:39Z</time>
        <extensions><gpxtpx:TrackPointExtension><gpxtpx:hr>151</gpxtpx:hr></gpxtpx:TrackPointExtension></extensions>
      </trkpt>
      <trkpt lat="59.9848336" lon="15.8277637">
        <ele>122.2</ele>
        <time>2013-11-20T20:25:41Z</time>
        <extensions><gpxtpx:TrackPointExtension><gpxtpx:hr>151</gpxtpx:hr></gpxtpx:TrackPointExtension></extensions>
      </trkpt>
      <trkpt lat="59.9848203" lon="15.8277819">
        <ele>122.2</ele>
        <time>2013-11-20T20:25:42Z</time>
        <extensions><gpxtpx:TrackPointExtension><gpxtpx:hr>150</gpxtpx:hr></gpxtpx:TrackPointExtension></extensions>
      </trkpt>
      <trkpt lat="59.9848041" lon="15.8278029">
        <ele>122.2</ele>
        <time>2013-11-20T20:25:43Z</time>
        <extensions><gpxtpx:TrackPointExtension><gpxtpx:hr>151</gpxtpx:hr></gpxtpx:TrackPointExtension></extensions>
      </trkpt>
      <trkpt lat="59.9847781" lon="15.8278285">
        <ele>122.2</ele>
        <time>2013-11-20T20:25:46Z</time>
        <extensions><gpxtpx:TrackPointExtension><gpxtpx:hr>151</gpxtpx:hr></gpxtpx:TrackPointExtension></extensions>
      </trkpt>
      <trkpt lat="59.9847752" lon="15.8278336">
        <ele>122.2</ele>
        <time>2013-11-20T20:25:47Z</time>
        <extensions><gpxtpx:TrackPointExtension><gpxtpx:hr>151</gpxtpx:hr></gpxtpx:TrackPointExtension></extensions>
      </trkpt>
      <trkpt lat="59.9847755" lon="15.8278369">
        <ele>122.2</ele>
        <time>2013-11-20T20:25:48Z</time>
        <extensions><gpxtpx:TrackPointExtension><gpxtpx:hr>151</gpxtpx:hr></gpxtpx:TrackPointExtension></extensions>
      </trkpt>
      <trkpt lat="59.9847766" lon="15.8278416">
        <ele>122.2</ele>
        <time>2013-11-20T20:25:49Z</time>
        <extensions><gpxtpx:TrackPointExtension><gpxtpx:hr>151</gpxtpx:hr></gpxtpx:TrackPointExtension></extensions>
      </trkpt>
      <trkpt lat="59.9847771" lon="15.8278454">
        <ele>122.2</ele>
        <time>2013-11-20T20:25:50Z</time>
        <extensions><gpxtpx:TrackPointExtension><gpxtpx:hr>151</gpxtpx:hr></gpxtpx:TrackPointExtension></extensions>
      </trkpt>
      <trkpt lat="59.9847804" lon="15.8278441">
        <ele>122.2</ele>
        <time>2013-11-20T20:25:51Z</time>
        <extensions><gpxtpx:TrackPointExtension><gpxtpx:hr>150</gpxtpx:hr></gpxtpx:TrackPointExtension></extensions>
      </trkpt>
      <trkpt lat="59.9847842" lon="15.8278435">
        <ele>122.2</ele>
        <time>2013-11-20T20:25:52Z</time>
        <extensions><gpxtpx:TrackPointExtension><gpxtpx:hr>150</gpxtpx:hr></gpxtpx:TrackPointExtension></extensions>
      </trkpt>
      <trkpt lat="59.9847846" lon="15.8278462">
        <ele>122.2</ele>
        <time>2013-11-20T20:25:53Z</time>
        <extensions><gpxtpx:TrackPointExtension><gpxtpx:hr>150</gpxtpx:hr></gpxtpx:TrackPointExtension></extensions>
      </trkpt>
      <trkpt lat="59.9847834" lon="15.8278484">
        <ele>122.2</ele>
        <time>2013-11-20T20:25:54Z</time>
        <extensions><gpxtpx:TrackPointExtension><gpxtpx:hr>150</gpxtpx:hr></gpxtpx:TrackPointExtension></extensions>
      </trkpt>
      <trkpt lat="59.9847892" lon="15.827841">
        <ele>122.2</ele>
        <time>2013-11-20T20:25:55Z</time>
        <extensions><gpxtpx:TrackPointExtension><gpxtpx:hr>150</gpxtpx:hr></gpxtpx:TrackPointExtension></extensions>
      </trkpt>
      <trkpt lat="59.9847818" lon="15.8278444">
        <ele>122.2</ele>
        <time>2013-11-20T20:25:59Z</time>
        <extensions><gpxtpx:TrackPointExtension><gpxtpx:hr>150</gpxtpx:hr></gpxtpx:TrackPointExtension></extensions>
      </trkpt>
      <trkpt lat="59.9847997" lon="15.8278249">
        <ele>122.2</ele>
        <time>2013-11-20T20:26:00Z</time>
        <extensions><gpxtpx:TrackPointExtension><gpxtpx:hr>150</gpxtpx:hr></gpxtpx:TrackPointExtension></extensions>
      </trkpt>
      <trkpt lat="59.9848046" lon="15.827817">
        <ele>122.2</ele>
        <time>2013-11-20T20:26:01Z</time>
        <extensions><gpxtpx:TrackPointExtension><gpxtpx:hr>150</gpxtpx:hr></gpxtpx:TrackPointExtension></extensions>
      </trkpt>
      <trkpt lat="59.9848069" lon="15.8278122">
        <ele>122.2</ele>
        <time>2013-11-20T20:26:02Z</time>
        <extensions><gpxtpx:TrackPointExtension><gpxtpx:hr>150</gpxtpx:hr></gpxtpx:TrackPointExtension></extensions>
      </trkpt>
      <trkpt lat="59.9848084" lon="15.8278091">
        <ele>122.2</ele>
        <time>2013-11-20T20:26:03Z</time>
        <extensions><gpxtpx:TrackPointExtension><gpxtpx:hr>150</gpxtpx:hr></gpxtpx:TrackPointExtension></extensions>
      </trkpt>
      <trkpt lat="59.9848119" lon="15.8278046">
        <ele>122.2</ele>
        <time>2013-11-20T20:26:04Z</time>
        <extensions><gpxtpx:TrackPointExtension><gpxtpx:hr>149</gpxtpx:hr></gpxtpx:TrackPointExtension></extensions>
      </trkpt>
      <trkpt lat="59.9848232" lon="15.827788">
        <ele>122.2</ele>
        <time>2013-11-20T20:26:08Z</time>
        <extensions><gpxtpx:TrackPointExtension><gpxtpx:hr>149</gpxtpx:hr></gpxtpx:TrackPointExtension></extensions>
      </trkpt>
      <trkpt lat="59.9848224" lon="15.8278012">
        <ele>122.2</ele>
        <time>2013-11-20T20:26:11Z</time>
        <extensions><gpxtpx:TrackPointExtension><gpxtpx:hr>150</gpxtpx:hr></gpxtpx:TrackPointExtension></extensions>
      </trkpt>
      <trkpt lat="59.9848248" lon="15.8277998">
        <ele>123.2</ele>
        <time>2013-11-20T20:26:12Z</time>
        <extensions><gpxtpx:TrackPointExtension><gpxtpx:hr>149</gpxtpx:hr></gpxtpx:TrackPointExtension></extensions>
      </trkpt>
      <trkpt lat="59.984808" lon="15.827819">
        <ele>123.2</ele>
        <time>2013-11-20T20:26:14Z</time>
        <extensions><gpxtpx:TrackPointExtension><gpxtpx:hr>149</gpxtpx:hr></gpxtpx:TrackPointExtension></extensions>
      </trkpt>
      <trkpt lat="59.9848005" lon="15.8278284">
        <ele>123.2</ele>
        <time>2013-11-20T20:26:15Z</time>
        <extensions><gpxtpx:TrackPointExtension><gpxtpx:hr>149</gpxtpx:hr></gpxtpx:TrackPointExtension></extensions>
      </trkpt>
      <trkpt lat="59.9847569" lon="15.8278855">
        <ele>123.2</ele>
        <time>2013-11-20T20:26:19Z</time>
        <extensions><gpxtpx:TrackPointExtension><gpxtpx:hr>150</gpxtpx:hr></gpxtpx:TrackPointExtension></extensions>
      </trkpt>
      <trkpt lat="59.9847544" lon="15.8278917">
        <ele>123.2</ele>
        <time>2013-11-20T20:26:20Z</time>
        <extensions><gpxtpx:TrackPointExtension><gpxtpx:hr>150</gpxtpx:hr></gpxtpx:TrackPointExtension></extensions>
      </trkpt>
      <trkpt lat="59.9847468" lon="15.827904">
        <ele>123.2</ele>
        <time>2013-11-20T20:26:21Z</time>
        <extensions><gpxtpx:TrackPointExtension><gpxtpx:hr>150</gpxtpx:hr></gpxtpx:TrackPointExtension></extensions>
      </trkpt>
      <trkpt lat="59.9847453" lon="15.827911">
        <ele>123.2</ele>
        <time>2013-11-20T20:26:22Z</time>
        <extensions><gpxtpx:TrackPointExtension><gpxtpx:hr>150</gpxtpx:hr></gpxtpx:TrackPointExtension></extensions>
      </trkpt>
      <trkpt lat="59.984743" lon="15.8279177">
        <ele>123.2</ele>
        <time>2013-11-20T20:26:23Z</time>
        <extensions><gpxtpx:TrackPointExtension><gpxtpx:hr>150</gpxtpx:hr></gpxtpx:TrackPointExtension></extensions>
      </trkpt>
      <trkpt lat="59.9847395" lon="15.8279278">
        <ele>123.2</ele>
        <time>2013-11-20T20:26:24Z</time>
        <extensions><gpxtpx:TrackPointExtension><gpxtpx:hr>150</gpxtpx:hr></gpxtpx:TrackPointExtension></extensions>
      </trkpt>
      <trkpt lat="59.9847341" lon="15.8279365">
        <ele>123.2</ele>
        <time>2013-11-20T20:26:25Z</time>
        <extensions><gpxtpx:TrackPointExtension><gpxtpx:hr>149</gpxtpx:hr></gpxtpx:TrackPointExtension></extensions>
      </trkpt>
      <trkpt lat="59.9847369" lon="15.8279389">
        <ele>123.2</ele>
        <time>2013-11-20T20:26:26Z</time>
        <extensions><gpxtpx:TrackPointExtension><gpxtpx:hr>149</gpxtpx:hr></gpxtpx:TrackPointExtension></extensions>
      </trkpt>
      <trkpt lat="59.9847325" lon="15.8279489">
        <ele>123.2</ele>
        <time>2013-11-20T20:26:27Z</time>
        <extensions><gpxtpx:TrackPointExtension><gpxtpx:hr>149</gpxtpx:hr></gpxtpx:TrackPointExtension></extensions>
      </trkpt>
      <trkpt lat="59.9847281" lon="15.8279574">
        <ele>123.2</ele>
        <time>2013-11-20T20:26:28Z</time>
        <extensions><gpxtpx:TrackPointExtension><gpxtpx:hr>149</gpxtpx:hr></gpxtpx:TrackPointExtension></extensions>
      </trkpt>
      <trkpt lat="59.9847235" lon="15.8279599">
        <ele>123.2</ele>
        <time>2013-11-20T20:26:29Z</time>
        <extensions><gpxtpx:TrackPointExtension><gpxtpx:hr>149</gpxtpx:hr></gpxtpx:TrackPointExtension></extensions>
      </trkpt>
      <trkpt lat="59.9847069" lon="15.8279874">
        <ele>123.2</ele>
        <time>2013-11-20T20:26:30Z</time>
        <extensions><gpxtpx:TrackPointExtension><gpxtpx:hr>149</gpxtpx:hr></gpxtpx:TrackPointExtension></extensions>
      </trkpt>
      <trkpt lat="59.9846843" lon="15.8280149">
        <ele>123.2</ele>
        <time>2013-11-20T20:26:31Z</time>
        <extensions><gpxtpx:TrackPointExtension><gpxtpx:hr>149</gpxtpx:hr></gpxtpx:TrackPointExtension></extensions>
      </trkpt>
      <trkpt lat="59.9846666" lon="15.8280368">
        <ele>123.2</ele>
        <time>2013-11-20T20:26:32Z</time>
        <extensions><gpxtpx:TrackPointExtension><gpxtpx:hr>149</gpxtpx:hr></gpxtpx:TrackPointExtension></extensions>
      </trkpt>
      <trkpt lat="59.9846466" lon="15.8280607">
        <ele>123.2</ele>
        <time>2013-11-20T20:26:33Z</time>
        <extensions><gpxtpx:TrackPointExtension><gpxtpx:hr>149</gpxtpx:hr></gpxtpx:TrackPointExtension></extensions>
      </trkpt>
      <trkpt lat="59.9846269" lon="15.8280803">
        <ele>123.2</ele>
        <time>2013-11-20T20:26:35Z</time>
        <extensions><gpxtpx:TrackPointExtension><gpxtpx:hr>149</gpxtpx:hr></gpxtpx:TrackPointExtension></extensions>
      </trkpt>
      <trkpt lat="59.9846159" lon="15.8280908">
        <ele>123.2</ele>
        <time>2013-11-20T20:26:37Z</time>
        <extensions><gpxtpx:TrackPointExtension><gpxtpx:hr>149</gpxtpx:hr></gpxtpx:TrackPointExtension></extensions>
      </trkpt>
      <trkpt lat="59.9846128" lon="15.8280982">
        <ele>123.2</ele>
        <time>2013-11-20T20:26:39Z</time>
        <extensions><gpxtpx:TrackPointExtension><gpxtpx:hr>149</gpxtpx:hr></gpxtpx:TrackPointExtension></extensions>
      </trkpt>
      <trkpt lat="59.9846109" lon="15.8281016">
        <ele>123.2</ele>
        <time>2013-11-20T20:26:40Z</time>
        <extensions><gpxtpx:TrackPointExtension><gpxtpx:hr>149</gpxtpx:hr></gpxtpx:TrackPointExtension></extensions>
      </trkpt>
      <trkpt lat="59.9846056" lon="15.8281092">
        <ele>123.2</ele>
        <time>2013-11-20T20:26:41Z</time>
        <extensions><gpxtpx:TrackPointExtension><gpxtpx:hr>149</gpxtpx:hr></gpxtpx:TrackPointExtension></extensions>
      </trkpt>
      <trkpt lat="59.9846412" lon="15.8280802">
        <ele>123.2</ele>
        <time>2013-11-20T20:26:42Z</time>
        <extensions><gpxtpx:TrackPointExtension><gpxtpx:hr>150</gpxtpx:hr></gpxtpx:TrackPointExtension></extensions>
      </trkpt>
      <trkpt lat="59.9846303" lon="15.8281021">
        <ele>123.2</ele>
        <time>2013-11-20T20:26:44Z</time>
        <extensions><gpxtpx:TrackPointExtension><gpxtpx:hr>150</gpxtpx:hr></gpxtpx:TrackPointExtension></extensions>
      </trkpt>
      <trkpt lat="59.9846249" lon="15.8281137">
        <ele>123.2</ele>
        <time>2013-11-20T20:26:45Z</time>
        <extensions><gpxtpx:TrackPointExtension><gpxtpx:hr>150</gpxtpx:hr></gpxtpx:TrackPointExtension></extensions>
      </trkpt>
      <trkpt lat="59.9846204" lon="15.828119">
        <ele>123.2</ele>
        <time>2013-11-20T20:26:46Z</time>
        <extensions><gpxtpx:TrackPointExtension><gpxtpx:hr>150</gpxtpx:hr></gpxtpx:TrackPointExtension></extensions>
      </trkpt>
      <trkpt lat="59.9846223" lon="15.828117">
        <ele>123.2</ele>
        <time>2013-11-20T20:26:47Z</time>
        <extensions><gpxtpx:TrackPointExtension><gpxtpx:hr>150</gpxtpx:hr></gpxtpx:TrackPointExtension></extensions>
      </trkpt>
      <trkpt lat="59.9846256" lon="15.828112">
        <ele>124.2</ele>
        <time>2013-11-20T20:26:48Z</time>
        <extensions><gpxtpx:TrackPointExtension><gpxtpx:hr>149</gpxtpx:hr></gpxtpx:TrackPointExtension></extensions>
      </trkpt>
      <trkpt lat="59.9846307" lon="15.8281057">
        <ele>124.2</ele>
        <time>2013-11-20T20:26:49Z</time>
        <extensions><gpxtpx:TrackPointExtension><gpxtpx:hr>150</gpxtpx:hr></gpxtpx:TrackPointExtension></extensions>
      </trkpt>
      <trkpt lat="59.9846788" lon="15.8280445">
        <ele>124.2</ele>
        <time>2013-11-20T20:26:50Z</time>
        <extensions><gpxtpx:TrackPointExtension><gpxtpx:hr>150</gpxtpx:hr></gpxtpx:TrackPointExtension></extensions>
      </trkpt>
      <trkpt lat="59.9847012" lon="15.8280169">
        <ele>124.2</ele>
        <time>2013-11-20T20:26:51Z</time>
        <extensions><gpxtpx:TrackPointExtension><gpxtpx:hr>150</gpxtpx:hr></gpxtpx:TrackPointExtension></extensions>
      </trkpt>
      <trkpt lat="59.9847031" lon="15.8280134">
        <ele>124.2</ele>
        <time>2013-11-20T20:26:53Z</time>
        <extensions><gpxtpx:TrackPointExtension><gpxtpx:hr>150</gpxtpx:hr></gpxtpx:TrackPointExtension></extensions>
      </trkpt>
      <trkpt lat="59.9846994" lon="15.8280176">
        <ele>124.2</ele>
        <time>2013-11-20T20:26:54Z</time>
        <extensions><gpxtpx:TrackPointExtension><gpxtpx:hr>150</gpxtpx:hr></gpxtpx:TrackPointExtension></extensions>
      </trkpt>
      <trkpt lat="59.9847004" lon="15.8280197">
        <ele>124.2</ele>
        <time>2013-11-20T20:26:55Z</time>
        <extensions><gpxtpx:TrackPointExtension><gpxtpx:hr>150</gpxtpx:hr></gpxtpx:TrackPointExtension></extensions>
      </trkpt>
      <trkpt lat="59.9846931" lon="15.8280288">
        <ele>124.2</ele>
        <time>2013-11-20T20:26:56Z</time>
        <extensions><gpxtpx:TrackPointExtension><gpxtpx:hr>150</gpxtpx:hr></gpxtpx:TrackPointExtension></extensions>
      </trkpt>
      <trkpt lat="59.9846897" lon="15.828034">
        <ele>124.2</ele>
        <time>2013-11-20T20:26:57Z</time>
        <extensions><gpxtpx:TrackPointExtension><gpxtpx:hr>150</gpxtpx:hr></gpxtpx:TrackPointExtension></extensions>
      </trkpt>
      <trkpt lat="59.9846895" lon="15.8280279">
        <ele>124.2</ele>
        <time>2013-11-20T20:26:58Z</time>
        <extensions><gpxtpx:TrackPointExtension><gpxtpx:hr>150</gpxtpx:hr></gpxtpx:TrackPointExtension></extensions>
      </trkpt>
      <trkpt lat="59.9846861" lon="15.8280269">
        <ele>124.2</ele>
        <time>2013-11-20T20:26:59Z</time>
        <extensions><gpxtpx:TrackPointExtension><gpxtpx:hr>150</gpxtpx:hr></gpxtpx:TrackPointExtension></extensions>
      </trkpt>
      <trkpt lat="59.9846809" lon="15.8280305">
        <ele>124.2</ele>
        <time>2013-11-20T20:27:00Z</time>
        <extensions><gpxtpx:TrackPointExtension><gpxtpx:hr>151</gpxtpx:hr></gpxtpx:TrackPointExtension></extensions>
      </trkpt>
      <trkpt lat="59.984686" lon="15.8280228">
        <ele>124.2</ele>
        <time>2013-11-20T20:27:01Z</time>
        <extensions><gpxtpx:TrackPointExtension><gpxtpx:hr>151</gpxtpx:hr></gpxtpx:TrackPointExtension></extensions>
      </trkpt>
      <trkpt lat="59.9846784" lon="15.8280294">
        <ele>124.2</ele>
        <time>2013-11-20T20:27:02Z</time>
        <extensions><gpxtpx:TrackPointExtension><gpxtpx:hr>151</gpxtpx:hr></gpxtpx:TrackPointExtension></extensions>
      </trkpt>
      <trkpt lat="59.9846674" lon="15.8280415">
        <ele>124.2</ele>
        <time>2013-11-20T20:27:04Z</time>
        <extensions><gpxtpx:TrackPointExtension><gpxtpx:hr>150</gpxtpx:hr></gpxtpx:TrackPointExtension></extensions>
      </trkpt>
      <trkpt lat="59.9846648" lon="15.8280435">
        <ele>124.2</ele>
        <time>2013-11-20T20:27:05Z</time>
        <extensions><gpxtpx:TrackPointExtension><gpxtpx:hr>150</gpxtpx:hr></gpxtpx:TrackPointExtension></extensions>
      </trkpt>
      <trkpt lat="59.9846602" lon="15.8280474">
        <ele>124.2</ele>
        <time>2013-11-20T20:27:07Z</time>
        <extensions><gpxtpx:TrackPointExtension><gpxtpx:hr>150</gpxtpx:hr></gpxtpx:TrackPointExtension></extensions>
      </trkpt>
      <trkpt lat="59.9846533" lon="15.8280539">
        <ele>124.2</ele>
        <time>2013-11-20T20:27:08Z</time>
        <extensions><gpxtpx:TrackPointExtension><gpxtpx:hr>150</gpxtpx:hr></gpxtpx:TrackPointExtension></extensions>
      </trkpt>
      <trkpt lat="59.9846518" lon="15.8280604">
        <ele>124.2</ele>
        <time>2013-11-20T20:27:09Z</time>
        <extensions><gpxtpx:TrackPointExtension><gpxtpx:hr>150</gpxtpx:hr></gpxtpx:TrackPointExtension></extensions>
      </trkpt>
      <trkpt lat="59.9846533" lon="15.8280571">
        <ele>124.2</ele>
        <time>2013-11-20T20:27:10Z</time>
        <extensions><gpxtpx:TrackPointExtension><gpxtpx:hr>150</gpxtpx:hr></gpxtpx:TrackPointExtension></extensions>
      </trkpt>
      <trkpt lat="59.9846487" lon="15.8280587">
        <ele>124.2</ele>
        <time>2013-11-20T20:27:11Z</time>
        <extensions><gpxtpx:TrackPointExtension><gpxtpx:hr>150</gpxtpx:hr></gpxtpx:TrackPointExtension></extensions>
      </trkpt>
      <trkpt lat="59.9847133" lon="15.82797">
        <ele>124.2</ele>
        <time>2013-11-20T20:27:14Z</time>
        <extensions><gpxtpx:TrackPointExtension><gpxtpx:hr>151</gpxtpx:hr></gpxtpx:TrackPointExtension></extensions>
      </trkpt>
      <trkpt lat="59.984751" lon="15.8279187">
        <ele>124.2</ele>
        <time>2013-11-20T20:27:15Z</time>
        <extensions><gpxtpx:TrackPointExtension><gpxtpx:hr>151</gpxtpx:hr></gpxtpx:TrackPointExtension></extensions>
      </trkpt>
      <trkpt lat="59.984804" lon="15.8278489">
        <ele>124.2</ele>
        <time>2013-11-20T20:27:17Z</time>
        <extensions><gpxtpx:TrackPointExtension><gpxtpx:hr>151</gpxtpx:hr></gpxtpx:TrackPointExtension></extensions>
      </trkpt>
      <trkpt lat="59.9848212" lon="15.8278281">
        <ele>124.2</ele>
        <time>2013-11-20T20:27:18Z</time>
        <extensions><gpxtpx:TrackPointExtension><gpxtpx:hr>151</gpxtpx:hr></gpxtpx:TrackPointExtension></extensions>
      </trkpt>
      <trkpt lat="59.9848343" lon="15.8278099">
        <ele>124.2</ele>
        <time>2013-11-20T20:27:19Z</time>
        <extensions><gpxtpx:TrackPointExtension><gpxtpx:hr>152</gpxtpx:hr></gpxtpx:TrackPointExtension></extensions>
      </trkpt>
      <trkpt lat="59.9848459" lon="15.8277965">
        <ele>124.2</ele>
        <time>2013-11-20T20:27:20Z</time>
        <extensions><gpxtpx:TrackPointExtension><gpxtpx:hr>152</gpxtpx:hr></gpxtpx:TrackPointExtension></extensions>
      </trkpt>
      <trkpt lat="59.984865" lon="15.8277656">
        <ele>124.2</ele>
        <time>2013-11-20T20:27:21Z</time>
        <extensions><gpxtpx:TrackPointExtension><gpxtpx:hr>152</gpxtpx:hr></gpxtpx:TrackPointExtension></extensions>
      </trkpt>
      <trkpt lat="59.9848734" lon="15.827751">
        <ele>124.2</ele>
        <time>2013-11-20T20:27:22Z</time>
        <extensions><gpxtpx:TrackPointExtension><gpxtpx:hr>152</gpxtpx:hr></gpxtpx:TrackPointExtension></extensions>
      </trkpt>
      <trkpt lat="59.9848808" lon="15.8277323">
        <ele>124.2</ele>
        <time>2013-11-20T20:27:23Z</time>
        <extensions><gpxtpx:TrackPointExtension><gpxtpx:hr>152</gpxtpx:hr></gpxtpx:TrackPointExtension></extensions>
      </trkpt>
      <trkpt lat="59.9849012" lon="15.8277079">
        <ele>125.2</ele>
        <time>2013-11-20T20:27:26Z</time>
        <extensions><gpxtpx:TrackPointExtension><gpxtpx:hr>152</gpxtpx:hr></gpxtpx:TrackPointExtension></extensions>
      </trkpt>
      <trkpt lat="59.9849026" lon="15.8277059">
        <ele>125.2</ele>
        <time>2013-11-20T20:27:27Z</time>
        <extensions><gpxtpx:TrackPointExtension><gpxtpx:hr>152</gpxtpx:hr></gpxtpx:TrackPointExtension></extensions>
      </trkpt>
      <trkpt lat="59.9849025" lon="15.8277039">
        <ele>125.2</ele>
        <time>2013-11-20T20:27:28Z</time>
        <extensions><gpxtpx:TrackPointExtension><gpxtpx:hr>152</gpxtpx:hr></gpxtpx:TrackPointExtension></extensions>
      </trkpt>
      <trkpt lat="59.9848847" lon="15.827734">
        <ele>125.2</ele>
        <time>2013-11-20T20:27:37Z</time>
        <extensions><gpxtpx:TrackPointExtension><gpxtpx:hr>152</gpxtpx:hr></gpxtpx:TrackPointExtension></extensions>
      </trkpt>
      <trkpt lat="59.9848853" lon="15.8277406">
        <ele>125.2</ele>
        <time>2013-11-20T20:27:38Z</time>
        <extensions><gpxtpx:TrackPointExtension><gpxtpx:hr>152</gpxtpx:hr></gpxtpx:TrackPointExtension></extensions>
      </trkpt>
      <trkpt lat="59.9848826" lon="15.8277402">
        <ele>125.2</ele>
        <time>2013-11-20T20:27:39Z</time>
        <extensions><gpxtpx:TrackPointExtension><gpxtpx:hr>152</gpxtpx:hr></gpxtpx:TrackPointExtension></extensions>
      </trkpt>
      <trkpt lat="59.9848803" lon="15.8277454">
        <ele>125.2</ele>
        <time>2013-11-20T20:27:40Z</time>
        <extensions><gpxtpx:TrackPointExtension><gpxtpx:hr>152</gpxtpx:hr></gpxtpx:TrackPointExtension></extensions>
      </trkpt>
      <trkpt lat="59.9848638" lon="15.8278079">
        <ele>125.2</ele>
        <time>2013-11-20T20:27:41Z</time>
        <extensions><gpxtpx:TrackPointExtension><gpxtpx:hr>152</gpxtpx:hr></gpxtpx:TrackPointExtension></extensions>
      </trkpt>
      <trkpt lat="59.9848575" lon="15.8278297">
        <ele>125.2</ele>
        <time>2013-11-20T20:27:42Z</time>
        <extensions><gpxtpx:TrackPointExtension><gpxtpx:hr>152</gpxtpx:hr></gpxtpx:TrackPointExtension></extensions>
      </trkpt>
      <trkpt lat="59.984856" lon="15.8278396">
        <ele>125.2</ele>
        <time>2013-11-20T20:27:43Z</time>
        <extensions><gpxtpx:TrackPointExtension><gpxtpx:hr>152</gpxtpx:hr></gpxtpx:TrackPointExtension></extensions>
      </trkpt>
      <trkpt lat="59.9848559" lon="15.8278467">
        <ele>125.2</ele>
        <time>2013-11-20T20:27:44Z</time>
        <extensions><gpxtpx:TrackPointExtension><gpxtpx:hr>153</gpxtpx:hr></gpxtpx:TrackPointExtension></extensions>
      </trkpt>
      <trkpt lat="59.9848554" lon="15.8278861">
        <ele>125.2</ele>
        <time>2013-11-20T20:27:45Z</time>
        <extensions><gpxtpx:TrackPointExtension><gpxtpx:hr>153</gpxtpx:hr></gpxtpx:TrackPointExtension></extensions>
      </trkpt>
      <trkpt lat="59.9848546" lon="15.8279119">
        <ele>125.2</ele>
        <time>2013-11-20T20:27:47Z</time>
        <extensions><gpxtpx:TrackPointExtension><gpxtpx:hr>153</gpxtpx:hr></gpxtpx:TrackPointExtension></extensions>
      </trkpt>
      <trkpt lat="59.9848441" lon="15.827925">
        <ele>125.2</ele>
        <time>2013-11-20T20:27:53Z</time>
        <extensions><gpxtpx:TrackPointExtension><gpxtpx:hr>153</gpxtpx:hr></gpxtpx:TrackPointExtension></extensions>
      </trkpt>
      <trkpt lat="59.9848332" lon="15.827904">
        <ele>125.2</ele>
        <time>2013-11-20T20:27:55Z</time>
        <extensions><gpxtpx:TrackPointExtension><gpxtpx:hr>153</gpxtpx:hr></gpxtpx:TrackPointExtension></extensions>
      </trkpt>
      <trkpt lat="59.9848537" lon="15.8278745">
        <ele>125.2</ele>
        <time>2013-11-20T20:27:59Z</time>
        <extensions><gpxtpx:TrackPointExtension><gpxtpx:hr>152</gpxtpx:hr></gpxtpx:TrackPointExtension></extensions>
      </trkpt>
      <trkpt lat="59.9848529" lon="15.8278721">
        <ele>125.2</ele>
        <time>2013-11-20T20:28:00Z</time>
        <extensions><gpxtpx:TrackPointExtension><gpxtpx:hr>152</gpxtpx:hr></gpxtpx:TrackPointExtension></extensions>
      </trkpt>
      <trkpt lat="59.9848523" lon="15.8278702">
        <ele>125.2</ele>
        <time>2013-11-20T20:28:01Z</time>
        <extensions><gpxtpx:TrackPointExtension><gpxtpx:hr>152</gpxtpx:hr></gpxtpx:TrackPointExtension></extensions>
      </trkpt>
      <trkpt lat="59.9848539" lon="15.8278658">
        <ele>125.2</ele>
        <time>2013-11-20T20:28:02Z</time>
        <extensions><gpxtpx:TrackPointExtension><gpxtpx:hr>151</gpxtpx:hr></gpxtpx:TrackPointExtension></extensions>
      </trkpt>
      <trkpt lat="59.984858" lon="15.8278615">
        <ele>125.2</ele>
        <time>2013-11-20T20:28:04Z</time>
        <extensions><gpxtpx:TrackPointExtension><gpxtpx:hr>151</gpxtpx:hr></gpxtpx:TrackPointExtension></extensions>
      </trkpt>
      <trkpt lat="59.9848559" lon="15.8278684">
        <ele>125.2</ele>
        <time>2013-11-20T20:28:05Z</time>
        <extensions><gpxtpx:TrackPointExtension><gpxtpx:hr>150</gpxtpx:hr></gpxtpx:TrackPointExtension></extensions>
      </trkpt>
      <trkpt lat="59.9848531" lon="15.827872">
        <ele>125.2</ele>
        <time>2013-11-20T20:28:06Z</time>
        <extensions><gpxtpx:TrackPointExtension><gpxtpx:hr>150</gpxtpx:hr></gpxtpx:TrackPointExtension></extensions>
      </trkpt>
      <trkpt lat="59.9848518" lon="15.8278807">
        <ele>125.2</ele>
        <time>2013-11-20T20:28:08Z</time>
        <extensions><gpxtpx:TrackPointExtension><gpxtpx:hr>150</gpxtpx:hr></gpxtpx:TrackPointExtension></extensions>
      </trkpt>
      <trkpt lat="59.9848549" lon="15.8278774">
        <ele>125.2</ele>
        <time>2013-11-20T20:28:09Z</time>
        <extensions><gpxtpx:TrackPointExtension><gpxtpx:hr>149</gpxtpx:hr></gpxtpx:TrackPointExtension></extensions>
      </trkpt>
      <trkpt lat="59.984864" lon="15.8278401">
        <ele>125.2</ele>
        <time>2013-11-20T20:28:11Z</time>
        <extensions><gpxtpx:TrackPointExtension><gpxtpx:hr>149</gpxtpx:hr></gpxtpx:TrackPointExtension></extensions>
      </trkpt>
      <trkpt lat="59.984872" lon="15.8278272">
        <ele>125.2</ele>
        <time>2013-11-20T20:28:12Z</time>
        <extensions><gpxtpx:TrackPointExtension><gpxtpx:hr>150</gpxtpx:hr></gpxtpx:TrackPointExtension></extensions>
      </trkpt>
      <trkpt lat="59.9848866" lon="15.8278038">
        <ele>126.2</ele>
        <time>2013-11-20T20:28:13Z</time>
        <extensions><gpxtpx:TrackPointExtension><gpxtpx:hr>150</gpxtpx:hr></gpxtpx:TrackPointExtension></extensions>
      </trkpt>
      <trkpt lat="59.9849004" lon="15.8277863">
        <ele>126.2</ele>
        <time>2013-11-20T20:28:14Z</time>
        <extensions><gpxtpx:TrackPointExtension><gpxtpx:hr>150</gpxtpx:hr></gpxtpx:TrackPointExtension></extensions>
      </trkpt>
      <trkpt lat="59.9849018" lon="15.8277876">
        <ele>126.2</ele>
        <time>2013-11-20T20:28:15Z</time>
        <extensions><gpxtpx:TrackPointExtension><gpxtpx:hr>150</gpxtpx:hr></gpxtpx:TrackPointExtension></extensions>
      </trkpt>
      <trkpt lat="59.9848781" lon="15.8278174">
        <ele>126.2</ele>
        <time>2013-11-20T20:28:18Z</time>
        <extensions><gpxtpx:TrackPointExtension><gpxtpx:hr>149</gpxtpx:hr></gpxtpx:TrackPointExtension></extensions>
      </trkpt>
      <trkpt lat="59.9848288" lon="15.8278917">
        <ele>126.2</ele>
        <time>2013-11-20T20:28:23Z</time>
        <extensions><gpxtpx:TrackPointExtension><gpxtpx:hr>150</gpxtpx:hr></gpxtpx:TrackPointExtension></extensions>
      </trkpt>
      <trkpt lat="59.9848238" lon="15.8278962">
        <ele>126.2</ele>
        <time>2013-11-20T20:28:25Z</time>
        <extensions><gpxtpx:TrackPointExtension><gpxtpx:hr>150</gpxtpx:hr></gpxtpx:TrackPointExtension></extensions>
      </trkpt>
      <trkpt lat="59.9848207" lon="15.8278963">
        <ele>126.2</ele>
        <time>2013-11-20T20:28:26Z</time>
        <extensions><gpxtpx:TrackPointExtension><gpxtpx:hr>150</gpxtpx:hr></gpxtpx:TrackPointExtension></extensions>
      </trkpt>
      <trkpt lat="59.984823" lon="15.8278912">
        <ele>126.2</ele>
        <time>2013-11-20T20:28:27Z</time>
        <extensions><gpxtpx:TrackPointExtension><gpxtpx:hr>150</gpxtpx:hr></gpxtpx:TrackPointExtension></extensions>
      </trkpt>
      <trkpt lat="59.9848245" lon="15.8278852">
        <ele>126.2</ele>
        <time>2013-11-20T20:28:28Z</time>
        <extensions><gpxtpx:TrackPointExtension><gpxtpx:hr>150</gpxtpx:hr></gpxtpx:TrackPointExtension></extensions>
      </trkpt>
      <trkpt lat="59.9848349" lon="15.8278628">
        <ele>126.2</ele>
        <time>2013-11-20T20:28:30Z</time>
        <extensions><gpxtpx:TrackPointExtension><gpxtpx:hr>150</gpxtpx:hr></gpxtpx:TrackPointExtension></extensions>
      </trkpt>
      <trkpt lat="59.9848383" lon="15.8278562">
        <ele>126.2</ele>
        <time>2013-11-20T20:28:32Z</time>
        <extensions><gpxtpx:TrackPointExtension><gpxtpx:hr>150</gpxtpx:hr></gpxtpx:TrackPointExtension></extensions>
      </trkpt>
      <trkpt lat="59.9848381" lon="15.8278575">
        <ele>126.2</ele>
        <time>2013-11-20T20:28:33Z</time>
        <extensions><gpxtpx:TrackPointExtension><gpxtpx:hr>150</gpxtpx:hr></gpxtpx:TrackPointExtension></extensions>
      </trkpt>
      <trkpt lat="59.9848194" lon="15.8278881">
        <ele>126.2</ele>
        <time>2013-11-20T20:28:34Z</time>
        <extensions><gpxtpx:TrackPointExtension><gpxtpx:hr>150</gpxtpx:hr></gpxtpx:TrackPointExtension></extensions>
      </trkpt>
      <trkpt lat="59.9848103" lon="15.8279032">
        <ele>126.2</ele>
        <time>2013-11-20T20:28:35Z</time>
        <extensions><gpxtpx:TrackPointExtension><gpxtpx:hr>151</gpxtpx:hr></gpxtpx:TrackPointExtension></extensions>
      </trkpt>
      <trkpt lat="59.984803" lon="15.827911">
        <ele>126.2</ele>
        <time>2013-11-20T20:28:36Z</time>
        <extensions><gpxtpx:TrackPointExtension><gpxtpx:hr>151</gpxtpx:hr></gpxtpx:TrackPointExtension></extensions>
      </trkpt>
      <trkpt lat="59.9847958" lon="15.8279223">
        <ele>126.2</ele>
        <time>2013-11-20T20:28:37Z</time>
        <extensions><gpxtpx:TrackPointExtension><gpxtpx:hr>151</gpxtpx:hr></gpxtpx:TrackPointExtension></extensions>
      </trkpt>
      <trkpt lat="59.9847917" lon="15.8279244">
        <ele>126.2</ele>
        <time>2013-11-20T20:28:38Z</time>
        <extensions><gpxtpx:TrackPointExtension><gpxtpx:hr>151</gpxtpx:hr></gpxtpx:TrackPointExtension></extensions>
      </trkpt>
      <trkpt lat="59.9847874" lon="15.8279275">
        <ele>126.2</ele>
        <time>2013-11-20T20:28:39Z</time>
        <extensions><gpxtpx:TrackPointExtension><gpxtpx:hr>151</gpxtpx:hr></gpxtpx:TrackPointExtension></extensions>
      </trkpt>
      <trkpt lat="59.9847801" lon="15.8279342">
        <ele>126.2</ele>
        <time>2013-11-20T20:28:40Z</time>
        <extensions><gpxtpx:TrackPointExtension><gpxtpx:hr>151</gpxtpx:hr></gpxtpx:TrackPointExtension></extensions>
      </trkpt>
      <trkpt lat="59.9847401" lon="15.8279882">
        <ele>126.2</ele>
        <time>2013-11-20T20:28:43Z</time>
        <extensions><gpxtpx:TrackPointExtension><gpxtpx:hr>151</gpxtpx:hr></gpxtpx:TrackPointExtension></extensions>
      </trkpt>
      <trkpt lat="59.9846822" lon="15.8280757">
        <ele>127.2</ele>
        <time>2013-11-20T20:28:48Z</time>
        <extensions><gpxtpx:TrackPointExtension><gpxtpx:hr>151</gpxtpx:hr></gpxtpx:TrackPointExtension></extensions>
      </trkpt>
      <trkpt lat="59.9846728" lon="15.8280931">
        <ele>127.2</ele>
        <time>2013-11-20T20:28:51Z</time>
        <extensions><gpxtpx:TrackPointExtension><gpxtpx:hr>151</gpxtpx:hr></gpxtpx:TrackPointExtension></extensions>
      </trkpt>
      <trkpt lat="59.9846779" lon="15.8280917">
        <ele>127.2</ele>
        <time>2013-11-20T20:28:52Z</time>
        <extensions><gpxtpx:TrackPointExtension><gpxtpx:hr>152</gpxtpx:hr></gpxtpx:TrackPointExtension></extensions>
      </trkpt>
      <trkpt lat="59.9847436" lon="15.8280098">
        <ele>127.2</ele>
        <time>2013-11-20T20:28:53Z</time>
        <extensions><gpxtpx:TrackPointExtension><gpxtpx:hr>152</gpxtpx:hr></gpxtpx:TrackPointExtension></extensions>
      </trkpt>
      <trkpt lat="59.9847559" lon="15.8279919">
        <ele>127.2</ele>
        <time>2013-11-20T20:28:54Z</time>
        <extensions><gpxtpx:TrackPointExtension><gpxtpx:hr>152</gpxtpx:hr></gpxtpx:TrackPointExtension></extensions>
      </trkpt>
      <trkpt lat="59.9847624" lon="15.8279814">
        <ele>127.2</ele>
        <time>2013-11-20T20:28:55Z</time>
        <extensions><gpxtpx:TrackPointExtension><gpxtpx:hr>152</gpxtpx:hr></gpxtpx:TrackPointExtension></extensions>
      </trkpt>
      <trkpt lat="59.9847667" lon="15.8279772">
        <ele>127.2</ele>
        <time>2013-11-20T20:28:56Z</time>
        <extensions><gpxtpx:TrackPointExtension><gpxtpx:hr>152</gpxtpx:hr></gpxtpx:TrackPointExtension></extensions>
      </trkpt>
      <trkpt lat="59.9847648" lon="15.8279846">
        <ele>127.2</ele>
        <time>2013-11-20T20:28:57Z</time>
        <extensions><gpxtpx:TrackPointExtension><gpxtpx:hr>152</gpxtpx:hr></gpxtpx:TrackPointExtension></extensions>
      </trkpt>
      <trkpt lat="59.9847593" lon="15.8279923">
        <ele>127.2</ele>
        <time>2013-11-20T20:28:58Z</time>
        <extensions><gpxtpx:TrackPointExtension><gpxtpx:hr>152</gpxtpx:hr></gpxtpx:TrackPointExtension></extensions>
      </trkpt>
      <trkpt lat="59.9847547" lon="15.8279975">
        <ele>127.2</ele>
        <time>2013-11-20T20:28:59Z</time>
        <extensions><gpxtpx:TrackPointExtension><gpxtpx:hr>152</gpxtpx:hr></gpxtpx:TrackPointExtension></extensions>
      </trkpt>
      <trkpt lat="59.9847497" lon="15.8280045">
        <ele>127.2</ele>
        <time>2013-11-20T20:29:00Z</time>
        <extensions><gpxtpx:TrackPointExtension><gpxtpx:hr>152</gpxtpx:hr></gpxtpx:TrackPointExtension></extensions>
      </trkpt>
      <trkpt lat="59.9847466" lon="15.8280078">
        <ele>127.2</ele>
        <time>2013-11-20T20:29:01Z</time>
        <extensions><gpxtpx:TrackPointExtension><gpxtpx:hr>152</gpxtpx:hr></gpxtpx:TrackPointExtension></extensions>
      </trkpt>
      <trkpt lat="59.9847463" lon="15.8280078">
        <ele>127.2</ele>
        <time>2013-11-20T20:29:02Z</time>
        <extensions><gpxtpx:TrackPointExtension><gpxtpx:hr>152</gpxtpx:hr></gpxtpx:TrackPointExtension></extensions>
      </trkpt>
      <trkpt lat="59.9847461" lon="15.8280078">
        <ele>127.2</ele>
        <time>2013-11-20T20:29:03Z</time>
        <extensions><gpxtpx:TrackPointExtension><gpxtpx:hr>152</gpxtpx:hr></gpxtpx:TrackPointExtension></extensions>
      </trkpt>
      <trkpt lat="59.9847254" lon="15.8280282">
        <ele>127.2</ele>
        <time>2013-11-20T20:29:07Z</time>
        <extensions><gpxtpx:TrackPointExtension><gpxtpx:hr>153</gpxtpx:hr></gpxtpx:TrackPointExtension></extensions>
      </trkpt>
      <trkpt lat="59.9847359" lon="15.8280093">
        <ele>127.2</ele>
        <time>2013-11-20T20:29:11Z</time>
        <extensions><gpxtpx:TrackPointExtension><gpxtpx:hr>152</gpxtpx:hr></gpxtpx:TrackPointExtension></extensions>
      </trkpt>
      <trkpt lat="59.984734" lon="15.8280109">
        <ele>127.2</ele>
        <time>2013-11-20T20:29:12Z</time>
        <extensions><gpxtpx:TrackPointExtension><gpxtpx:hr>152</gpxtpx:hr></gpxtpx:TrackPointExtension></extensions>
      </trkpt>
      <trkpt lat="59.9847365" lon="15.8280026">
        <ele>127.2</ele>
        <time>2013-11-20T20:29:14Z</time>
        <extensions><gpxtpx:TrackPointExtension><gpxtpx:hr>152</gpxtpx:hr></gpxtpx:TrackPointExtension></extensions>
      </trkpt>
      <trkpt lat="59.9847362" lon="15.8279964">
        <ele>127.2</ele>
        <time>2013-11-20T20:29:15Z</time>
        <extensions><gpxtpx:TrackPointExtension><gpxtpx:hr>152</gpxtpx:hr></gpxtpx:TrackPointExtension></extensions>
      </trkpt>
      <trkpt lat="59.9847324" lon="15.8279994">
        <ele>127.2</ele>
        <time>2013-11-20T20:29:16Z</time>
        <extensions><gpxtpx:TrackPointExtension><gpxtpx:hr>152</gpxtpx:hr></gpxtpx:TrackPointExtension></extensions>
      </trkpt>
      <trkpt lat="59.9847283" lon="15.8280063">
        <ele>127.2</ele>
        <time>2013-11-20T20:29:17Z</time>
        <extensions><gpxtpx:TrackPointExtension><gpxtpx:hr>152</gpxtpx:hr></gpxtpx:TrackPointExtension></extensions>
      </trkpt>
      <trkpt lat="59.9847246" lon="15.8280131">
        <ele>127.2</ele>
        <time>2013-11-20T20:29:18Z</time>
        <extensions><gpxtpx:TrackPointExtension><gpxtpx:hr>152</gpxtpx:hr></gpxtpx:TrackPointExtension></extensions>
      </trkpt>
      <trkpt lat="59.9847226" lon="15.8280132">
        <ele>127.2</ele>
        <time>2013-11-20T20:29:19Z</time>
        <extensions><gpxtpx:TrackPointExtension><gpxtpx:hr>153</gpxtpx:hr></gpxtpx:TrackPointExtension></extensions>
      </trkpt>
      <trkpt lat="59.9847251" lon="15.82801">
        <ele>127.2</ele>
        <time>2013-11-20T20:29:20Z</time>
        <extensions><gpxtpx:TrackPointExtension><gpxtpx:hr>152</gpxtpx:hr></gpxtpx:TrackPointExtension></extensions>
      </trkpt>
      <trkpt lat="59.9847296" lon="15.8280052">
        <ele>127.2</ele>
        <time>2013-11-20T20:29:21Z</time>
        <extensions><gpxtpx:TrackPointExtension><gpxtpx:hr>153</gpxtpx:hr></gpxtpx:TrackPointExtension></extensions>
      </trkpt>
      <trkpt lat="59.9847316" lon="15.8280038">
        <ele>127.2</ele>
        <time>2013-11-20T20:29:22Z</time>
        <extensions><gpxtpx:TrackPointExtension><gpxtpx:hr>152</gpxtpx:hr></gpxtpx:TrackPointExtension></extensions>
      </trkpt>
      <trkpt lat="59.9847347" lon="15.8280048">
        <ele>127.2</ele>
        <time>2013-11-20T20:29:23Z</time>
        <extensions><gpxtpx:TrackPointExtension><gpxtpx:hr>153</gpxtpx:hr></gpxtpx:TrackPointExtension></extensions>
      </trkpt>
      <trkpt lat="59.9848332" lon="15.8278622">
        <ele>127.2</ele>
        <time>2013-11-20T20:29:24Z</time>
        <extensions><gpxtpx:TrackPointExtension><gpxtpx:hr>153</gpxtpx:hr></gpxtpx:TrackPointExtension></extensions>
      </trkpt>
      <trkpt lat="59.9848375" lon="15.827855">
        <ele>127.2</ele>
        <time>2013-11-20T20:29:25Z</time>
        <extensions><gpxtpx:TrackPointExtension><gpxtpx:hr>152</gpxtpx:hr></gpxtpx:TrackPointExtension></extensions>
      </trkpt>
      <trkpt lat="59.9848372" lon="15.8278534">
        <ele>127.2</ele>
        <time>2013-11-20T20:29:26Z</time>
        <extensions><gpxtpx:TrackPointExtension><gpxtpx:hr>153</gpxtpx:hr></gpxtpx:TrackPointExtension></extensions>
      </trkpt>
      <trkpt lat="59.984838" lon="15.8278515">
        <ele>127.2</ele>
        <time>2013-11-20T20:29:27Z</time>
        <extensions><gpxtpx:TrackPointExtension><gpxtpx:hr>152</gpxtpx:hr></gpxtpx:TrackPointExtension></extensions>
      </trkpt>
      <trkpt lat="59.9848513" lon="15.8278251">
        <ele>127.2</ele>
        <time>2013-11-20T20:29:28Z</time>
        <extensions><gpxtpx:TrackPointExtension><gpxtpx:hr>153</gpxtpx:hr></gpxtpx:TrackPointExtension></extensions>
      </trkpt>
      <trkpt lat="59.9848498" lon="15.8278278">
        <ele>128.2</ele>
        <time>2013-11-20T20:29:29Z</time>
        <extensions><gpxtpx:TrackPointExtension><gpxtpx:hr>152</gpxtpx:hr></gpxtpx:TrackPointExtension></extensions>
      </trkpt>
      <trkpt lat="59.984845" lon="15.8278291">
        <ele>128.2</ele>
        <time>2013-11-20T20:29:30Z</time>
        <extensions><gpxtpx:TrackPointExtension><gpxtpx:hr>152</gpxtpx:hr></gpxtpx:TrackPointExtension></extensions>
      </trkpt>
      <trkpt lat="59.9848472" lon="15.8278278">
        <ele>128.2</ele>
        <time>2013-11-20T20:29:31Z</time>
        <extensions><gpxtpx:TrackPointExtension><gpxtpx:hr>152</gpxtpx:hr></gpxtpx:TrackPointExtension></extensions>
      </trkpt>
      <trkpt lat="59.9848493" lon="15.8278255">
        <ele>128.2</ele>
        <time>2013-11-20T20:29:32Z</time>
        <extensions><gpxtpx:TrackPointExtension><gpxtpx:hr>153</gpxtpx:hr></gpxtpx:TrackPointExtension></extensions>
      </trkpt>
      <trkpt lat="59.9848495" lon="15.8278244">
        <ele>128.2</ele>
        <time>2013-11-20T20:29:33Z</time>
        <extensions><gpxtpx:TrackPointExtension><gpxtpx:hr>152</gpxtpx:hr></gpxtpx:TrackPointExtension></extensions>
      </trkpt>
      <trkpt lat="59.984861" lon="15.8278056">
        <ele>128.2</ele>
        <time>2013-11-20T20:29:40Z</time>
        <extensions><gpxtpx:TrackPointExtension><gpxtpx:hr>152</gpxtpx:hr></gpxtpx:TrackPointExtension></extensions>
      </trkpt>
      <trkpt lat="59.9848607" lon="15.8278055">
        <ele>128.2</ele>
        <time>2013-11-20T20:29:41Z</time>
        <extensions><gpxtpx:TrackPointExtension><gpxtpx:hr>152</gpxtpx:hr></gpxtpx:TrackPointExtension></extensions>
      </trkpt>
      <trkpt lat="59.9848628" lon="15.8278018">
        <ele>128.2</ele>
        <time>2013-11-20T20:29:42Z</time>
        <extensions><gpxtpx:TrackPointExtension><gpxtpx:hr>152</gpxtpx:hr></gpxtpx:TrackPointExtension></extensions>
      </trkpt>
      <trkpt lat="59.9848536" lon="15.8278006">
        <ele>128.2</ele>
        <time>2013-11-20T20:29:45Z</time>
        <extensions><gpxtpx:TrackPointExtension><gpxtpx:hr>152</gpxtpx:hr></gpxtpx:TrackPointExtension></extensions>
      </trkpt>
      <trkpt lat="59.9848504" lon="15.8278053">
        <ele>128.2</ele>
        <time>2013-11-20T20:29:46Z</time>
        <extensions><gpxtpx:TrackPointExtension><gpxtpx:hr>152</gpxtpx:hr></gpxtpx:TrackPointExtension></extensions>
      </trkpt>
      <trkpt lat="59.9848527" lon="15.8278017">
        <ele>128.2</ele>
        <time>2013-11-20T20:29:47Z</time>
        <extensions><gpxtpx:TrackPointExtension><gpxtpx:hr>152</gpxtpx:hr></gpxtpx:TrackPointExtension></extensions>
      </trkpt>
      <trkpt lat="59.9848533" lon="15.8277992">
        <ele>128.2</ele>
        <time>2013-11-20T20:29:48Z</time>
        <extensions><gpxtpx:TrackPointExtension><gpxtpx:hr>152</gpxtpx:hr></gpxtpx:TrackPointExtension></extensions>
      </trkpt>
      <trkpt lat="59.9848559" lon="15.8277947">
        <ele>128.2</ele>
        <time>2013-11-20T20:29:49Z</time>
        <extensions><gpxtpx:TrackPointExtension><gpxtpx:hr>152</gpxtpx:hr></gpxtpx:TrackPointExtension></extensions>
      </trkpt>
      <trkpt lat="59.9848607" lon="15.8277845">
        <ele>128.2</ele>
        <time>2013-11-20T20:29:50Z</time>
        <extensions><gpxtpx:TrackPointExtension><gpxtpx:hr>152</gpxtpx:hr></gpxtpx:TrackPointExtension></extensions>
      </trkpt>
      <trkpt lat="59.9848747" lon="15.8277584">
        <ele>128.2</ele>
        <time>2013-11-20T20:29:51Z</time>
        <extensions><gpxtpx:TrackPointExtension><gpxtpx:hr>152</gpxtpx:hr></gpxtpx:TrackPointExtension></extensions>
      </trkpt>
      <trkpt lat="59.9848813" lon="15.8277484">
        <ele>128.2</ele>
        <time>2013-11-20T20:29:52Z</time>
        <extensions><gpxtpx:TrackPointExtension><gpxtpx:hr>152</gpxtpx:hr></gpxtpx:TrackPointExtension></extensions>
      </trkpt>
      <trkpt lat="59.9848875" lon="15.8277395">
        <ele>128.2</ele>
        <time>2013-11-20T20:29:53Z</time>
        <extensions><gpxtpx:TrackPointExtension><gpxtpx:hr>152</gpxtpx:hr></gpxtpx:TrackPointExtension></extensions>
      </trkpt>
      <trkpt lat="59.9848828" lon="15.8277405">
        <ele>128.2</ele>
        <time>2013-11-20T20:29:57Z</time>
        <extensions><gpxtpx:TrackPointExtension><gpxtpx:hr>152</gpxtpx:hr></gpxtpx:TrackPointExtension></extensions>
      </trkpt>
      <trkpt lat="59.9848818" lon="15.8277437">
        <ele>129.4</ele>
        <time>2013-11-20T20:29:59Z</time>
        <extensions><gpxtpx:TrackPointExtension><gpxtpx:hr>153</gpxtpx:hr></gpxtpx:TrackPointExtension></extensions>
      </trkpt>
      <trkpt lat="59.9848692" lon="15.8277917">
        <ele>129.4</ele>
        <time>2013-11-20T20:30:01Z</time>
        <extensions><gpxtpx:TrackPointExtension><gpxtpx:hr>153</gpxtpx:hr></gpxtpx:TrackPointExtension></extensions>
      </trkpt>
      <trkpt lat="59.9848227" lon="15.8279024">
        <ele>129.4</ele>
        <time>2013-11-20T20:30:03Z</time>
        <extensions><gpxtpx:TrackPointExtension><gpxtpx:hr>153</gpxtpx:hr></gpxtpx:TrackPointExtension></extensions>
      </trkpt>
      <trkpt lat="59.9847922" lon="15.8279498">
        <ele>129.4</ele>
        <time>2013-11-20T20:30:05Z</time>
        <extensions><gpxtpx:TrackPointExtension><gpxtpx:hr>154</gpxtpx:hr></gpxtpx:TrackPointExtension></extensions>
      </trkpt>
      <trkpt lat="59.9847859" lon="15.8279558">
        <ele>129.4</ele>
        <time>2013-11-20T20:30:08Z</time>
        <extensions><gpxtpx:TrackPointExtension><gpxtpx:hr>154</gpxtpx:hr></gpxtpx:TrackPointExtension></extensions>
      </trkpt>
      <trkpt lat="59.9847829" lon="15.8279643">
        <ele>129.4</ele>
        <time>2013-11-20T20:30:09Z</time>
        <extensions><gpxtpx:TrackPointExtension><gpxtpx:hr>155</gpxtpx:hr></gpxtpx:TrackPointExtension></extensions>
      </trkpt>
      <trkpt lat="59.9847849" lon="15.8279718">
        <ele>129.4</ele>
        <time>2013-11-20T20:30:10Z</time>
        <extensions><gpxtpx:TrackPointExtension><gpxtpx:hr>155</gpxtpx:hr></gpxtpx:TrackPointExtension></extensions>
      </trkpt>
      <trkpt lat="59.984788" lon="15.8279786">
        <ele>129.4</ele>
        <time>2013-11-20T20:30:11Z</time>
        <extensions><gpxtpx:TrackPointExtension><gpxtpx:hr>155</gpxtpx:hr></gpxtpx:TrackPointExtension></extensions>
      </trkpt>
      <trkpt lat="59.9847889" lon="15.8279875">
        <ele>129.2</ele>
        <time>2013-11-20T20:30:12Z</time>
        <extensions><gpxtpx:TrackPointExtension><gpxtpx:hr>155</gpxtpx:hr></gpxtpx:TrackPointExtension></extensions>
      </trkpt>
      <trkpt lat="59.9848012" lon="15.8279816">
        <ele>129.4</ele>
        <time>2013-11-20T20:30:13Z</time>
        <extensions><gpxtpx:TrackPointExtension><gpxtpx:hr>155</gpxtpx:hr></gpxtpx:TrackPointExtension></extensions>
      </trkpt>
      <trkpt lat="59.9848" lon="15.8279861">
        <ele>129.4</ele>
        <time>2013-11-20T20:30:14Z</time>
        <extensions><gpxtpx:TrackPointExtension><gpxtpx:hr>156</gpxtpx:hr></gpxtpx:TrackPointExtension></extensions>
      </trkpt>
      <trkpt lat="59.9847997" lon="15.8279876">
        <ele>129.4</ele>
        <time>2013-11-20T20:30:15Z</time>
        <extensions><gpxtpx:TrackPointExtension><gpxtpx:hr>156</gpxtpx:hr></gpxtpx:TrackPointExtension></extensions>
      </trkpt>
      <trkpt lat="59.9847994" lon="15.827981">
        <ele>129.4</ele>
        <time>2013-11-20T20:30:16Z</time>
        <extensions><gpxtpx:TrackPointExtension><gpxtpx:hr>155</gpxtpx:hr></gpxtpx:TrackPointExtension></extensions>
      </trkpt>
      <trkpt lat="59.9848014" lon="15.8279765">
        <ele>129.4</ele>
        <time>2013-11-20T20:30:17Z</time>
        <extensions><gpxtpx:TrackPointExtension><gpxtpx:hr>156</gpxtpx:hr></gpxtpx:TrackPointExtension></extensions>
      </trkpt>
      <trkpt lat="59.9848027" lon="15.8279833">
        <ele>129.4</ele>
        <time>2013-11-20T20:30:18Z</time>
        <extensions><gpxtpx:TrackPointExtension><gpxtpx:hr>155</gpxtpx:hr></gpxtpx:TrackPointExtension></extensions>
      </trkpt>
      <trkpt lat="59.9848058" lon="15.8279824">
        <ele>129.4</ele>
        <time>2013-11-20T20:30:19Z</time>
        <extensions><gpxtpx:TrackPointExtension><gpxtpx:hr>155</gpxtpx:hr></gpxtpx:TrackPointExtension></extensions>
      </trkpt>
      <trkpt lat="59.9848102" lon="15.8279759">
        <ele>129.4</ele>
        <time>2013-11-20T20:30:20Z</time>
        <extensions><gpxtpx:TrackPointExtension><gpxtpx:hr>155</gpxtpx:hr></gpxtpx:TrackPointExtension></extensions>
      </trkpt>
      <trkpt lat="59.9848102" lon="15.8279566">
        <ele>129.4</ele>
        <time>2013-11-20T20:30:26Z</time>
        <extensions><gpxtpx:TrackPointExtension><gpxtpx:hr>154</gpxtpx:hr></gpxtpx:TrackPointExtension></extensions>
      </trkpt>
      <trkpt lat="59.9848101" lon="15.82796">
        <ele>129.4</ele>
        <time>2013-11-20T20:30:28Z</time>
        <extensions><gpxtpx:TrackPointExtension><gpxtpx:hr>154</gpxtpx:hr></gpxtpx:TrackPointExtension></extensions>
      </trkpt>
      <trkpt lat="59.9848102" lon="15.8279642">
        <ele>129.4</ele>
        <time>2013-11-20T20:30:29Z</time>
        <extensions><gpxtpx:TrackPointExtension><gpxtpx:hr>153</gpxtpx:hr></gpxtpx:TrackPointExtension></extensions>
      </trkpt>
      <trkpt lat="59.9848137" lon="15.8279617">
        <ele>129.4</ele>
        <time>2013-11-20T20:30:30Z</time>
        <extensions><gpxtpx:TrackPointExtension><gpxtpx:hr>153</gpxtpx:hr></gpxtpx:TrackPointExtension></extensions>
      </trkpt>
      <trkpt lat="59.9848136" lon="15.8279664">
        <ele>129.4</ele>
        <time>2013-11-20T20:30:31Z</time>
        <extensions><gpxtpx:TrackPointExtension><gpxtpx:hr>153</gpxtpx:hr></gpxtpx:TrackPointExtension></extensions>
      </trkpt>
      <trkpt lat="59.9848129" lon="15.8279705">
        <ele>129.4</ele>
        <time>2013-11-20T20:30:32Z</time>
        <extensions><gpxtpx:TrackPointExtension><gpxtpx:hr>152</gpxtpx:hr></gpxtpx:TrackPointExtension></extensions>
      </trkpt>
      <trkpt lat="59.9848129" lon="15.8279696">
        <ele>129.4</ele>
        <time>2013-11-20T20:30:33Z</time>
        <extensions><gpxtpx:TrackPointExtension><gpxtpx:hr>152</gpxtpx:hr></gpxtpx:TrackPointExtension></extensions>
      </trkpt>
      <trkpt lat="59.9848153" lon="15.8279651">
        <ele>129.4</ele>
        <time>2013-11-20T20:30:34Z</time>
        <extensions><gpxtpx:TrackPointExtension><gpxtpx:hr>152</gpxtpx:hr></gpxtpx:TrackPointExtension></extensions>
      </trkpt>
      <trkpt lat="59.984873" lon="15.8278376">
        <ele>129.4</ele>
        <time>2013-11-20T20:30:35Z</time>
        <extensions><gpxtpx:TrackPointExtension><gpxtpx:hr>152</gpxtpx:hr></gpxtpx:TrackPointExtension></extensions>
      </trkpt>
      <trkpt lat="59.9848771" lon="15.8278385">
        <ele>129.4</ele>
        <time>2013-11-20T20:30:36Z</time>
        <extensions><gpxtpx:TrackPointExtension><gpxtpx:hr>152</gpxtpx:hr></gpxtpx:TrackPointExtension></extensions>
      </trkpt>
      <trkpt lat="59.9848791" lon="15.8278414">
        <ele>129.4</ele>
        <time>2013-11-20T20:30:37Z</time>
        <extensions><gpxtpx:TrackPointExtension><gpxtpx:hr>152</gpxtpx:hr></gpxtpx:TrackPointExtension></extensions>
      </trkpt>
      <trkpt lat="59.9848784" lon="15.8278471">
        <ele>129.4</ele>
        <time>2013-11-20T20:30:38Z</time>
        <extensions><gpxtpx:TrackPointExtension><gpxtpx:hr>152</gpxtpx:hr></gpxtpx:TrackPointExtension></extensions>
      </trkpt>
      <trkpt lat="59.9848787" lon="15.8278552">
        <ele>129.4</ele>
        <time>2013-11-20T20:30:39Z</time>
        <extensions><gpxtpx:TrackPointExtension><gpxtpx:hr>151</gpxtpx:hr></gpxtpx:TrackPointExtension></extensions>
      </trkpt>
      <trkpt lat="59.9848796" lon="15.827862">
        <ele>129.4</ele>
        <time>2013-11-20T20:30:40Z</time>
        <extensions><gpxtpx:TrackPointExtension><gpxtpx:hr>152</gpxtpx:hr></gpxtpx:TrackPointExtension></extensions>
      </trkpt>
      <trkpt lat="59.9848847" lon="15.8278517">
        <ele>129.4</ele>
        <time>2013-11-20T20:30:43Z</time>
        <extensions><gpxtpx:TrackPointExtension><gpxtpx:hr>151</gpxtpx:hr></gpxtpx:TrackPointExtension></extensions>
      </trkpt>
      <trkpt lat="59.984882" lon="15.8278528">
        <ele>129.4</ele>
        <time>2013-11-20T20:30:44Z</time>
        <extensions><gpxtpx:TrackPointExtension><gpxtpx:hr>152</gpxtpx:hr></gpxtpx:TrackPointExtension></extensions>
      </trkpt>
      <trkpt lat="59.9848806" lon="15.8278528">
        <ele>129.4</ele>
        <time>2013-11-20T20:30:45Z</time>
        <extensions><gpxtpx:TrackPointExtension><gpxtpx:hr>152</gpxtpx:hr></gpxtpx:TrackPointExtension></extensions>
      </trkpt>
      <trkpt lat="59.9848796" lon="15.8278536">
        <ele>129.4</ele>
        <time>2013-11-20T20:30:46Z</time>
        <extensions><gpxtpx:TrackPointExtension><gpxtpx:hr>152</gpxtpx:hr></gpxtpx:TrackPointExtension></extensions>
      </trkpt>
      <trkpt lat="59.9848785" lon="15.8278556">
        <ele>129.4</ele>
        <time>2013-11-20T20:30:47Z</time>
        <extensions><gpxtpx:TrackPointExtension><gpxtpx:hr>152</gpxtpx:hr></gpxtpx:TrackPointExtension></extensions>
      </trkpt>
      <trkpt lat="59.9848762" lon="15.8278503">
        <ele>130.4</ele>
        <time>2013-11-20T20:30:49Z</time>
        <extensions><gpxtpx:TrackPointExtension><gpxtpx:hr>152</gpxtpx:hr></gpxtpx:TrackPointExtension></extensions>
      </trkpt>
      <trkpt lat="59.9848764" lon="15.8278511">
        <ele>130.4</ele>
        <time>2013-11-20T20:30:50Z</time>
        <extensions><gpxtpx:TrackPointExtension><gpxtpx:hr>151</gpxtpx:hr></gpxtpx:TrackPointExtension></extensions>
      </trkpt>
      <trkpt lat="59.9848761" lon="15.827848">
        <ele>130.4</ele>
        <time>2013-11-20T20:30:51Z</time>
        <extensions><gpxtpx:TrackPointExtension><gpxtpx:hr>151</gpxtpx:hr></gpxtpx:TrackPointExtension></extensions>
      </trkpt>
      <trkpt lat="59.9848762" lon="15.8278484">
        <ele>130.4</ele>
        <time>2013-11-20T20:30:52Z</time>
        <extensions><gpxtpx:TrackPointExtension><gpxtpx:hr>151</gpxtpx:hr></gpxtpx:TrackPointExtension></extensions>
      </trkpt>
      <trkpt lat="59.9848765" lon="15.8278508">
        <ele>130.4</ele>
        <time>2013-11-20T20:30:53Z</time>
        <extensions><gpxtpx:TrackPointExtension><gpxtpx:hr>152</gpxtpx:hr></gpxtpx:TrackPointExtension></extensions>
      </trkpt>
      <trkpt lat="59.9848775" lon="15.8278545">
        <ele>130.4</ele>
        <time>2013-11-20T20:30:54Z</time>
        <extensions><gpxtpx:TrackPointExtension><gpxtpx:hr>151</gpxtpx:hr></gpxtpx:TrackPointExtension></extensions>
      </trkpt>
      <trkpt lat="59.9848784" lon="15.8278469">
        <ele>130.4</ele>
        <time>2013-11-20T20:30:58Z</time>
        <extensions><gpxtpx:TrackPointExtension><gpxtpx:hr>151</gpxtpx:hr></gpxtpx:TrackPointExtension></extensions>
      </trkpt>
      <trkpt lat="59.9848787" lon="15.8278474">
        <ele>130.4</ele>
        <time>2013-11-20T20:30:59Z</time>
        <extensions><gpxtpx:TrackPointExtension><gpxtpx:hr>152</gpxtpx:hr></gpxtpx:TrackPointExtension></extensions>
      </trkpt>
      <trkpt lat="59.9848792" lon="15.8278492">
        <ele>130.4</ele>
        <time>2013-11-20T20:31:00Z</time>
        <extensions><gpxtpx:TrackPointExtension><gpxtpx:hr>151</gpxtpx:hr></gpxtpx:TrackPointExtension></extensions>
      </trkpt>
      <trkpt lat="59.9848846" lon="15.8278566">
        <ele>130.4</ele>
        <time>2013-11-20T20:31:04Z</time>
        <extensions><gpxtpx:TrackPointExtension><gpxtpx:hr>152</gpxtpx:hr></gpxtpx:TrackPointExtension></extensions>
      </trkpt>
      <trkpt lat="59.984885" lon="15.8278575">
        <ele>130.4</ele>
        <time>2013-11-20T20:31:05Z</time>
        <extensions><gpxtpx:TrackPointExtension><gpxtpx:hr>151</gpxtpx:hr></gpxtpx:TrackPointExtension></extensions>
      </trkpt>
      <trkpt lat="59.9848857" lon="15.8278575">
        <ele>130.4</ele>
        <time>2013-11-20T20:31:06Z</time>
        <extensions><gpxtpx:TrackPointExtension><gpxtpx:hr>152</gpxtpx:hr></gpxtpx:TrackPointExtension></extensions>
      </trkpt>
      <trkpt lat="59.9848865" lon="15.8278529">
        <ele>130.4</ele>
        <time>2013-11-20T20:31:07Z</time>
        <extensions><gpxtpx:TrackPointExtension><gpxtpx:hr>151</gpxtpx:hr></gpxtpx:TrackPointExtension></extensions>
      </trkpt>
      <trkpt lat="59.9848873" lon="15.827859">
        <ele>130.4</ele>
        <time>2013-11-20T20:31:08Z</time>
        <extensions><gpxtpx:TrackPointExtension><gpxtpx:hr>151</gpxtpx:hr></gpxtpx:TrackPointExtension></extensions>
      </trkpt>
      <trkpt lat="59.9848865" lon="15.8278643">
        <ele>130.4</ele>
        <time>2013-11-20T20:31:09Z</time>
        <extensions><gpxtpx:TrackPointExtension><gpxtpx:hr>151</gpxtpx:hr></gpxtpx:TrackPointExtension></extensions>
      </trkpt>
      <trkpt lat="59.984882" lon="15.8278566">
        <ele>130.4</ele>
        <time>2013-11-20T20:31:14Z</time>
        <extensions><gpxtpx:TrackPointExtension><gpxtpx:hr>151</gpxtpx:hr></gpxtpx:TrackPointExtension></extensions>
      </trkpt>
      <trkpt lat="59.9848858" lon="15.8278428">
        <ele>130.4</ele>
        <time>2013-11-20T20:31:23Z</time>
        <extensions><gpxtpx:TrackPointExtension><gpxtpx:hr>151</gpxtpx:hr></gpxtpx:TrackPointExtension></extensions>
      </trkpt>
      <trkpt lat="59.984885" lon="15.8278448">
        <ele>130.4</ele>
        <time>2013-11-20T20:31:25Z</time>
        <extensions><gpxtpx:TrackPointExtension><gpxtpx:hr>151</gpxtpx:hr></gpxtpx:TrackPointExtension></extensions>
      </trkpt>
      <trkpt lat="59.9848852" lon="15.8278434">
        <ele>130.4</ele>
        <time>2013-11-20T20:31:26Z</time>
        <extensions><gpxtpx:TrackPointExtension><gpxtpx:hr>151</gpxtpx:hr></gpxtpx:TrackPointExtension></extensions>
      </trkpt>
      <trkpt lat="59.984886" lon="15.82784">
        <ele>130.4</ele>
        <time>2013-11-20T20:31:27Z</time>
        <extensions><gpxtpx:TrackPointExtension><gpxtpx:hr>152</gpxtpx:hr></gpxtpx:TrackPointExtension></extensions>
      </trkpt>
      <trkpt lat="59.9848868" lon="15.8278362">
        <ele>130.4</ele>
        <time>2013-11-20T20:31:28Z</time>
        <extensions><gpxtpx:TrackPointExtension><gpxtpx:hr>152</gpxtpx:hr></gpxtpx:TrackPointExtension></extensions>
      </trkpt>
      <trkpt lat="59.9848874" lon="15.8278351">
        <ele>130.4</ele>
        <time>2013-11-20T20:31:29Z</time>
        <extensions><gpxtpx:TrackPointExtension><gpxtpx:hr>152</gpxtpx:hr></gpxtpx:TrackPointExtension></extensions>
      </trkpt>
      <trkpt lat="59.9848888" lon="15.827832">
        <ele>130.4</ele>
        <time>2013-11-20T20:31:31Z</time>
        <extensions><gpxtpx:TrackPointExtension><gpxtpx:hr>152</gpxtpx:hr></gpxtpx:TrackPointExtension></extensions>
      </trkpt>
      <trkpt lat="59.9848891" lon="15.8278311">
        <ele>130.4</ele>
        <time>2013-11-20T20:31:32Z</time>
        <extensions><gpxtpx:TrackPointExtension><gpxtpx:hr>152</gpxtpx:hr></gpxtpx:TrackPointExtension></extensions>
      </trkpt>
      <trkpt lat="59.9848891" lon="15.8278319">
        <ele>131.4</ele>
        <time>2013-11-20T20:31:33Z</time>
        <extensions><gpxtpx:TrackPointExtension><gpxtpx:hr>152</gpxtpx:hr></gpxtpx:TrackPointExtension></extensions>
      </trkpt>
      <trkpt lat="59.9848895" lon="15.827832">
        <ele>131.4</ele>
        <time>2013-11-20T20:31:34Z</time>
        <extensions><gpxtpx:TrackPointExtension><gpxtpx:hr>152</gpxtpx:hr></gpxtpx:TrackPointExtension></extensions>
      </trkpt>
      <trkpt lat="59.9848892" lon="15.8278346">
        <ele>131.4</ele>
        <time>2013-11-20T20:31:35Z</time>
        <extensions><gpxtpx:TrackPointExtension><gpxtpx:hr>152</gpxtpx:hr></gpxtpx:TrackPointExtension></extensions>
      </trkpt>
      <trkpt lat="59.9848927" lon="15.8278351">
        <ele>131.4</ele>
        <time>2013-11-20T20:31:43Z</time>
        <extensions><gpxtpx:TrackPointExtension><gpxtpx:hr>153</gpxtpx:hr></gpxtpx:TrackPointExtension></extensions>
      </trkpt>
      <trkpt lat="59.9848927" lon="15.8278353">
        <ele>131.4</ele>
        <time>2013-11-20T20:31:44Z</time>
        <extensions><gpxtpx:TrackPointExtension><gpxtpx:hr>153</gpxtpx:hr></gpxtpx:TrackPointExtension></extensions>
      </trkpt>
      <trkpt lat="59.9848912" lon="15.8278405">
        <ele>131.4</ele>
        <time>2013-11-20T20:31:46Z</time>
        <extensions><gpxtpx:TrackPointExtension><gpxtpx:hr>153</gpxtpx:hr></gpxtpx:TrackPointExtension></extensions>
      </trkpt>
      <trkpt lat="59.9848917" lon="15.8278403">
        <ele>131.4</ele>
        <time>2013-11-20T20:31:47Z</time>
        <extensions><gpxtpx:TrackPointExtension><gpxtpx:hr>152</gpxtpx:hr></gpxtpx:TrackPointExtension></extensions>
      </trkpt>
      <trkpt lat="59.9848915" lon="15.8278414">
        <ele>131.4</ele>
        <time>2013-11-20T20:31:48Z</time>
        <extensions><gpxtpx:TrackPointExtension><gpxtpx:hr>153</gpxtpx:hr></gpxtpx:TrackPointExtension></extensions>
      </trkpt>
      <trkpt lat="59.9848911" lon="15.8278407">
        <ele>131.4</ele>
        <time>2013-11-20T20:31:49Z</time>
        <extensions><gpxtpx:TrackPointExtension><gpxtpx:hr>152</gpxtpx:hr></gpxtpx:TrackPointExtension></extensions>
      </trkpt>
      <trkpt lat="59.9848906" lon="15.827842">
        <ele>131.4</ele>
        <time>2013-11-20T20:31:50Z</time>
        <extensions><gpxtpx:TrackPointExtension><gpxtpx:hr>152</gpxtpx:hr></gpxtpx:TrackPointExtension></extensions>
      </trkpt>
      <trkpt lat="59.9848896" lon="15.827847">
        <ele>131.4</ele>
        <time>2013-11-20T20:31:52Z</time>
        <extensions><gpxtpx:TrackPointExtension><gpxtpx:hr>152</gpxtpx:hr></gpxtpx:TrackPointExtension></extensions>
      </trkpt>
      <trkpt lat="59.9848885" lon="15.8278454">
        <ele>131.4</ele>
        <time>2013-11-20T20:31:53Z</time>
        <extensions><gpxtpx:TrackPointExtension><gpxtpx:hr>152</gpxtpx:hr></gpxtpx:TrackPointExtension></extensions>
      </trkpt>
      <trkpt lat="59.984889" lon="15.8278465">
        <ele>131.4</ele>
        <time>2013-11-20T20:31:54Z</time>
        <extensions><gpxtpx:TrackPointExtension><gpxtpx:hr>152</gpxtpx:hr></gpxtpx:TrackPointExtension></extensions>
      </trkpt>
      <trkpt lat="59.9848894" lon="15.8278465">
        <ele>131.4</ele>
        <time>2013-11-20T20:31:55Z</time>
        <extensions><gpxtpx:TrackPointExtension><gpxtpx:hr>152</gpxtpx:hr></gpxtpx:TrackPointExtension></extensions>
      </trkpt>
      <trkpt lat="59.9848897" lon="15.8278464">
        <ele>131.4</ele>
        <time>2013-11-20T20:31:56Z</time>
        <extensions><gpxtpx:TrackPointExtension><gpxtpx:hr>152</gpxtpx:hr></gpxtpx:TrackPointExtension></extensions>
      </trkpt>
      <trkpt lat="59.98489" lon="15.8278478">
        <ele>131.4</ele>
        <time>2013-11-20T20:31:57Z</time>
        <extensions><gpxtpx:TrackPointExtension><gpxtpx:hr>152</gpxtpx:hr></gpxtpx:TrackPointExtension></extensions>
      </trkpt>
      <trkpt lat="59.9848892" lon="15.8278503">
        <ele>131.4</ele>
        <time>2013-11-20T20:31:58Z</time>
        <extensions><gpxtpx:TrackPointExtension><gpxtpx:hr>153</gpxtpx:hr></gpxtpx:TrackPointExtension></extensions>
      </trkpt>
      <trkpt lat="59.9848892" lon="15.8278544">
        <ele>131.4</ele>
        <time>2013-11-20T20:32:01Z</time>
        <extensions><gpxtpx:TrackPointExtension><gpxtpx:hr>153</gpxtpx:hr></gpxtpx:TrackPointExtension></extensions>
      </trkpt>
      <trkpt lat="59.9848912" lon="15.8278577">
        <ele>131.4</ele>
        <time>2013-11-20T20:32:05Z</time>
        <extensions><gpxtpx:TrackPointExtension><gpxtpx:hr>153</gpxtpx:hr></gpxtpx:TrackPointExtension></extensions>
      </trkpt>
      <trkpt lat="59.9848913" lon="15.8278542">
        <ele>132.4</ele>
        <time>2013-11-20T20:32:06Z</time>
        <extensions><gpxtpx:TrackPointExtension><gpxtpx:hr>154</gpxtpx:hr></gpxtpx:TrackPointExtension></extensions>
      </trkpt>
      <trkpt lat="59.9848921" lon="15.8278471">
        <ele>132.4</ele>
        <time>2013-11-20T20:32:07Z</time>
        <extensions><gpxtpx:TrackPointExtension><gpxtpx:hr>154</gpxtpx:hr></gpxtpx:TrackPointExtension></extensions>
      </trkpt>
      <trkpt lat="59.9848925" lon="15.8278459">
        <ele>132.4</ele>
        <time>2013-11-20T20:32:08Z</time>
        <extensions><gpxtpx:TrackPointExtension><gpxtpx:hr>154</gpxtpx:hr></gpxtpx:TrackPointExtension></extensions>
      </trkpt>
      <trkpt lat="59.9848929" lon="15.8278424">
        <ele>132.4</ele>
        <time>2013-11-20T20:32:09Z</time>
        <extensions><gpxtpx:TrackPointExtension><gpxtpx:hr>153</gpxtpx:hr></gpxtpx:TrackPointExtension></extensions>
      </trkpt>
      <trkpt lat="59.9848927" lon="15.8278389">
        <ele>132.4</ele>
        <time>2013-11-20T20:32:10Z</time>
        <extensions><gpxtpx:TrackPointExtension><gpxtpx:hr>154</gpxtpx:hr></gpxtpx:TrackPointExtension></extensions>
      </trkpt>
      <trkpt lat="59.984892" lon="15.8278388">
        <ele>132.4</ele>
        <time>2013-11-20T20:32:12Z</time>
        <extensions><gpxtpx:TrackPointExtension><gpxtpx:hr>154</gpxtpx:hr></gpxtpx:TrackPointExtension></extensions>
      </trkpt>
      <trkpt lat="59.9848921" lon="15.8278427">
        <ele>132.4</ele>
        <time>2013-11-20T20:32:13Z</time>
        <extensions><gpxtpx:TrackPointExtension><gpxtpx:hr>154</gpxtpx:hr></gpxtpx:TrackPointExtension></extensions>
      </trkpt>
      <trkpt lat="59.9848925" lon="15.8278475">
        <ele>132.4</ele>
        <time>2013-11-20T20:32:14Z</time>
        <extensions><gpxtpx:TrackPointExtension><gpxtpx:hr>154</gpxtpx:hr></gpxtpx:TrackPointExtension></extensions>
      </trkpt>
      <trkpt lat="59.9848917" lon="15.8278485">
        <ele>132.4</ele>
        <time>2013-11-20T20:32:15Z</time>
        <extensions><gpxtpx:TrackPointExtension><gpxtpx:hr>154</gpxtpx:hr></gpxtpx:TrackPointExtension></extensions>
      </trkpt>
      <trkpt lat="59.9848913" lon="15.8278473">
        <ele>132.4</ele>
        <time>2013-11-20T20:32:18Z</time>
        <extensions><gpxtpx:TrackPointExtension><gpxtpx:hr>153</gpxtpx:hr></gpxtpx:TrackPointExtension></extensions>
      </trkpt>
      <trkpt lat="59.9848734" lon="15.8277523">
        <ele>132.4</ele>
        <time>2013-11-20T20:32:20Z</time>
        <extensions><gpxtpx:TrackPointExtension><gpxtpx:hr>153</gpxtpx:hr></gpxtpx:TrackPointExtension></extensions>
      </trkpt>
      <trkpt lat="59.9848713" lon="15.827739">
        <ele>132.4</ele>
        <time>2013-11-20T20:32:21Z</time>
        <extensions><gpxtpx:TrackPointExtension><gpxtpx:hr>153</gpxtpx:hr></gpxtpx:TrackPointExtension></extensions>
      </trkpt>
      <trkpt lat="59.9848706" lon="15.827735">
        <ele>132.4</ele>
        <time>2013-11-20T20:32:22Z</time>
        <extensions><gpxtpx:TrackPointExtension><gpxtpx:hr>153</gpxtpx:hr></gpxtpx:TrackPointExtension></extensions>
      </trkpt>
      <trkpt lat="59.9848699" lon="15.8277353">
        <ele>132.4</ele>
        <time>2013-11-20T20:32:23Z</time>
        <extensions><gpxtpx:TrackPointExtension><gpxtpx:hr>153</gpxtpx:hr></gpxtpx:TrackPointExtension></extensions>
      </trkpt>
      <trkpt lat="59.9848701" lon="15.82774">
        <ele>132.4</ele>
        <time>2013-11-20T20:32:24Z</time>
        <extensions><gpxtpx:TrackPointExtension><gpxtpx:hr>153</gpxtpx:hr></gpxtpx:TrackPointExtension></extensions>
      </trkpt>
      <trkpt lat="59.9848714" lon="15.8277477">
        <ele>132.4</ele>
        <time>2013-11-20T20:32:25Z</time>
        <extensions><gpxtpx:TrackPointExtension><gpxtpx:hr>153</gpxtpx:hr></gpxtpx:TrackPointExtension></extensions>
      </trkpt>
      <trkpt lat="59.9848714" lon="15.8277478">
        <ele>132.4</ele>
        <time>2013-11-20T20:32:26Z</time>
        <extensions><gpxtpx:TrackPointExtension><gpxtpx:hr>153</gpxtpx:hr></gpxtpx:TrackPointExtension></extensions>
      </trkpt>
      <trkpt lat="59.9848724" lon="15.8277493">
        <ele>132.4</ele>
        <time>2013-11-20T20:32:27Z</time>
        <extensions><gpxtpx:TrackPointExtension><gpxtpx:hr>153</gpxtpx:hr></gpxtpx:TrackPointExtension></extensions>
      </trkpt>
      <trkpt lat="59.9848751" lon="15.8277422">
        <ele>132.4</ele>
        <time>2013-11-20T20:32:33Z</time>
        <extensions><gpxtpx:TrackPointExtension><gpxtpx:hr>154</gpxtpx:hr></gpxtpx:TrackPointExtension></extensions>
      </trkpt>
      <trkpt lat="59.9848736" lon="15.8277373">
        <ele>132.4</ele>
        <time>2013-11-20T20:32:36Z</time>
        <extensions><gpxtpx:TrackPointExtension><gpxtpx:hr>154</gpxtpx:hr></gpxtpx:TrackPointExtension></extensions>
      </trkpt>
      <trkpt lat="59.9848729" lon="15.8277356">
        <ele>132.4</ele>
        <time>2013-11-20T20:32:37Z</time>
        <extensions><gpxtpx:TrackPointExtension><gpxtpx:hr>153</gpxtpx:hr></gpxtpx:TrackPointExtension></extensions>
      </trkpt>
      <trkpt lat="59.9848755" lon="15.8277519">
        <ele>132.4</ele>
        <time>2013-11-20T20:32:40Z</time>
        <extensions><gpxtpx:TrackPointExtension><gpxtpx:hr>153</gpxtpx:hr></gpxtpx:TrackPointExtension></extensions>
      </trkpt>
      <trkpt lat="59.9848763" lon="15.8277498">
        <ele>132.4</ele>
        <time>2013-11-20T20:32:41Z</time>
        <extensions><gpxtpx:TrackPointExtension><gpxtpx:hr>153</gpxtpx:hr></gpxtpx:TrackPointExtension></extensions>
      </trkpt>
      <trkpt lat="59.9848764" lon="15.8277441">
        <ele>133.4</ele>
        <time>2013-11-20T20:32:42Z</time>
        <extensions><gpxtpx:TrackPointExtension><gpxtpx:hr>153</gpxtpx:hr></gpxtpx:TrackPointExtension></extensions>
      </trkpt>
      <trkpt lat="59.9848755" lon="15.8277386">
        <ele>133.4</ele>
        <time>2013-11-20T20:32:44Z</time>
        <extensions><gpxtpx:TrackPointExtension><gpxtpx:hr>153</gpxtpx:hr></gpxtpx:TrackPointExtension></extensions>
      </trkpt>
      <trkpt lat="59.9848748" lon="15.8277348">
        <ele>133.4</ele>
        <time>2013-11-20T20:32:45Z</time>
        <extensions><gpxtpx:TrackPointExtension><gpxtpx:hr>153</gpxtpx:hr></gpxtpx:TrackPointExtension></extensions>
      </trkpt>
      <trkpt lat="59.9848734" lon="15.827727">
        <ele>133.4</ele>
        <time>2013-11-20T20:32:48Z</time>
        <extensions><gpxtpx:TrackPointExtension><gpxtpx:hr>153</gpxtpx:hr></gpxtpx:TrackPointExtension></extensions>
      </trkpt>
      <trkpt lat="59.984874" lon="15.8277291">
        <ele>133.4</ele>
        <time>2013-11-20T20:32:49Z</time>
        <extensions><gpxtpx:TrackPointExtension><gpxtpx:hr>153</gpxtpx:hr></gpxtpx:TrackPointExtension></extensions>
      </trkpt>
      <trkpt lat="59.9848756" lon="15.8277317">
        <ele>133.4</ele>
        <time>2013-11-20T20:32:51Z</time>
        <extensions><gpxtpx:TrackPointExtension><gpxtpx:hr>152</gpxtpx:hr></gpxtpx:TrackPointExtension></extensions>
      </trkpt>
      <trkpt lat="59.9848765" lon="15.8277318">
        <ele>133.4</ele>
        <time>2013-11-20T20:32:52Z</time>
        <extensions><gpxtpx:TrackPointExtension><gpxtpx:hr>152</gpxtpx:hr></gpxtpx:TrackPointExtension></extensions>
      </trkpt>
      <trkpt lat="59.9848773" lon="15.8277272">
        <ele>133.4</ele>
        <time>2013-11-20T20:32:53Z</time>
        <extensions><gpxtpx:TrackPointExtension><gpxtpx:hr>152</gpxtpx:hr></gpxtpx:TrackPointExtension></extensions>
      </trkpt>
      <trkpt lat="59.9848787" lon="15.8277681">
        <ele>133.4</ele>
        <time>2013-11-20T20:32:56Z</time>
        <extensions><gpxtpx:TrackPointExtension><gpxtpx:hr>152</gpxtpx:hr></gpxtpx:TrackPointExtension></extensions>
      </trkpt>
      <trkpt lat="59.9848691" lon="15.8277907">
        <ele>133.4</ele>
        <time>2013-11-20T20:32:58Z</time>
        <extensions><gpxtpx:TrackPointExtension><gpxtpx:hr>152</gpxtpx:hr></gpxtpx:TrackPointExtension></extensions>
      </trkpt>
      <trkpt lat="59.9848663" lon="15.8277995">
        <ele>133.4</ele>
        <time>2013-11-20T20:33:00Z</time>
        <extensions><gpxtpx:TrackPointExtension><gpxtpx:hr>151</gpxtpx:hr></gpxtpx:TrackPointExtension></extensions>
      </trkpt>
      <trkpt lat="59.9848678" lon="15.8278005">
        <ele>133.4</ele>
        <time>2013-11-20T20:33:01Z</time>
        <extensions><gpxtpx:TrackPointExtension><gpxtpx:hr>151</gpxtpx:hr></gpxtpx:TrackPointExtension></extensions>
      </trkpt>
      <trkpt lat="59.9848672" lon="15.8278016">
        <ele>133.4</ele>
        <time>2013-11-20T20:33:02Z</time>
        <extensions><gpxtpx:TrackPointExtension><gpxtpx:hr>152</gpxtpx:hr></gpxtpx:TrackPointExtension></extensions>
      </trkpt>
      <trkpt lat="59.984866" lon="15.827806">
        <ele>133.4</ele>
        <time>2013-11-20T20:33:03Z</time>
        <extensions><gpxtpx:TrackPointExtension><gpxtpx:hr>151</gpxtpx:hr></gpxtpx:TrackPointExtension></extensions>
      </trkpt>
      <trkpt lat="59.9848676" lon="15.8278084">
        <ele>133.4</ele>
        <time>2013-11-20T20:33:04Z</time>
        <extensions><gpxtpx:TrackPointExtension><gpxtpx:hr>152</gpxtpx:hr></gpxtpx:TrackPointExtension></extensions>
      </trkpt>
      <trkpt lat="59.9848672" lon="15.8278161">
        <ele>133.4</ele>
        <time>2013-11-20T20:33:05Z</time>
        <extensions><gpxtpx:TrackPointExtension><gpxtpx:hr>152</gpxtpx:hr></gpxtpx:TrackPointExtension></extensions>
      </trkpt>
      <trkpt lat="59.9848683" lon="15.8278187">
        <ele>133.4</ele>
        <time>2013-11-20T20:33:06Z</time>
        <extensions><gpxtpx:TrackPointExtension><gpxtpx:hr>152</gpxtpx:hr></gpxtpx:TrackPointExtension></extensions>
      </trkpt>
      <trkpt lat="59.9848698" lon="15.8278182">
        <ele>134.4</ele>
        <time>2013-11-20T20:33:07Z</time>
        <extensions><gpxtpx:TrackPointExtension><gpxtpx:hr>152</gpxtpx:hr></gpxtpx:TrackPointExtension></extensions>
      </trkpt>
      <trkpt lat="59.9848707" lon="15.8278146">
        <ele>134.4</ele>
        <time>2013-11-20T20:33:08Z</time>
        <extensions><gpxtpx:TrackPointExtension><gpxtpx:hr>153</gpxtpx:hr></gpxtpx:TrackPointExtension></extensions>
      </trkpt>
      <trkpt lat="59.9848714" lon="15.8278103">
        <ele>134.4</ele>
        <time>2013-11-20T20:33:09Z</time>
        <extensions><gpxtpx:TrackPointExtension><gpxtpx:hr>153</gpxtpx:hr></gpxtpx:TrackPointExtension></extensions>
      </trkpt>
      <trkpt lat="59.9848718" lon="15.8278063">
        <ele>134.4</ele>
        <time>2013-11-20T20:33:10Z</time>
        <extensions><gpxtpx:TrackPointExtension><gpxtpx:hr>153</gpxtpx:hr></gpxtpx:TrackPointExtension></extensions>
      </trkpt>
      <trkpt lat="59.984872" lon="15.8278044">
        <ele>134.4</ele>
        <time>2013-11-20T20:33:11Z</time>
        <extensions><gpxtpx:TrackPointExtension><gpxtpx:hr>153</gpxtpx:hr></gpxtpx:TrackPointExtension></extensions>
      </trkpt>
      <trkpt lat="59.9848721" lon="15.8278042">
        <ele>134.4</ele>
        <time>2013-11-20T20:33:12Z</time>
        <extensions><gpxtpx:TrackPointExtension><gpxtpx:hr>153</gpxtpx:hr></gpxtpx:TrackPointExtension></extensions>
      </trkpt>
      <trkpt lat="59.9848727" lon="15.8278075">
        <ele>134.4</ele>
        <time>2013-11-20T20:33:13Z</time>
        <extensions><gpxtpx:TrackPointExtension><gpxtpx:hr>154</gpxtpx:hr></gpxtpx:TrackPointExtension></extensions>
      </trkpt>
      <trkpt lat="59.9848733" lon="15.8278155">
        <ele>134.4</ele>
        <time>2013-11-20T20:33:14Z</time>
        <extensions><gpxtpx:TrackPointExtension><gpxtpx:hr>154</gpxtpx:hr></gpxtpx:TrackPointExtension></extensions>
      </trkpt>
      <trkpt lat="59.9848729" lon="15.8278172">
        <ele>134.4</ele>
        <time>2013-11-20T20:33:15Z</time>
        <extensions><gpxtpx:TrackPointExtension><gpxtpx:hr>154</gpxtpx:hr></gpxtpx:TrackPointExtension></extensions>
      </trkpt>
      <trkpt lat="59.9848706" lon="15.8278345">
        <ele>134.4</ele>
        <time>2013-11-20T20:33:21Z</time>
        <extensions><gpxtpx:TrackPointExtension><gpxtpx:hr>154</gpxtpx:hr></gpxtpx:TrackPointExtension></extensions>
      </trkpt>
      <trkpt lat="59.9848695" lon="15.8278385">
        <ele>134.4</ele>
        <time>2013-11-20T20:33:22Z</time>
        <extensions><gpxtpx:TrackPointExtension><gpxtpx:hr>153</gpxtpx:hr></gpxtpx:TrackPointExtension></extensions>
      </trkpt>
      <trkpt lat="59.984869" lon="15.8278414">
        <ele>134.4</ele>
        <time>2013-11-20T20:33:23Z</time>
        <extensions><gpxtpx:TrackPointExtension><gpxtpx:hr>153</gpxtpx:hr></gpxtpx:TrackPointExtension></extensions>
      </trkpt>
      <trkpt lat="59.9848686" lon="15.8278436">
        <ele>134.4</ele>
        <time>2013-11-20T20:33:24Z</time>
        <extensions><gpxtpx:TrackPointExtension><gpxtpx:hr>153</gpxtpx:hr></gpxtpx:TrackPointExtension></extensions>
      </trkpt>
      <trkpt lat="59.9848683" lon="15.8278427">
        <ele>134.4</ele>
        <time>2013-11-20T20:33:25Z</time>
        <extensions><gpxtpx:TrackPointExtension><gpxtpx:hr>153</gpxtpx:hr></gpxtpx:TrackPointExtension></extensions>
      </trkpt>
      <trkpt lat="59.9848681" lon="15.8278444">
        <ele>134.4</ele>
        <time>2013-11-20T20:33:26Z</time>
        <extensions><gpxtpx:TrackPointExtension><gpxtpx:hr>153</gpxtpx:hr></gpxtpx:TrackPointExtension></extensions>
      </trkpt>
      <trkpt lat="59.9848668" lon="15.8278498">
        <ele>134.4</ele>
        <time>2013-11-20T20:33:28Z</time>
        <extensions><gpxtpx:TrackPointExtension><gpxtpx:hr>154</gpxtpx:hr></gpxtpx:TrackPointExtension></extensions>
      </trkpt>
      <trkpt lat="59.9848661" lon="15.8278548">
        <ele>134.4</ele>
        <time>2013-11-20T20:33:29Z</time>
        <extensions><gpxtpx:TrackPointExtension><gpxtpx:hr>154</gpxtpx:hr></gpxtpx:TrackPointExtension></extensions>
      </trkpt>
      <trkpt lat="59.9848657" lon="15.8278578">
        <ele>134.4</ele>
        <time>2013-11-20T20:33:30Z</time>
        <extensions><gpxtpx:TrackPointExtension><gpxtpx:hr>154</gpxtpx:hr></gpxtpx:TrackPointExtension></extensions>
      </trkpt>
      <trkpt lat="59.9848656" lon="15.8278571">
        <ele>134.4</ele>
        <time>2013-11-20T20:33:31Z</time>
        <extensions><gpxtpx:TrackPointExtension><gpxtpx:hr>154</gpxtpx:hr></gpxtpx:TrackPointExtension></extensions>
      </trkpt>
      <trkpt lat="59.9848654" lon="15.8278555">
        <ele>134.4</ele>
        <time>2013-11-20T20:33:32Z</time>
        <extensions><gpxtpx:TrackPointExtension><gpxtpx:hr>154</gpxtpx:hr></gpxtpx:TrackPointExtension></extensions>
      </trkpt>
      <trkpt lat="59.9848657" lon="15.8278556">
        <ele>134.4</ele>
        <time>2013-11-20T20:33:33Z</time>
        <extensions><gpxtpx:TrackPointExtension><gpxtpx:hr>154</gpxtpx:hr></gpxtpx:TrackPointExtension></extensions>
      </trkpt>
      <trkpt lat="59.9848659" lon="15.8278561">
        <ele>134.4</ele>
        <time>2013-11-20T20:33:34Z</time>
        <extensions><gpxtpx:TrackPointExtension><gpxtpx:hr>155</gpxtpx:hr></gpxtpx:TrackPointExtension></extensions>
      </trkpt>
      <trkpt lat="59.9848668" lon="15.8278533">
        <ele>134.4</ele>
        <time>2013-11-20T20:33:36Z</time>
        <extensions><gpxtpx:TrackPointExtension><gpxtpx:hr>154</gpxtpx:hr></gpxtpx:TrackPointExtension></extensions>
      </trkpt>
      <trkpt lat="59.9848697" lon="15.8278472">
        <ele>134.4</ele>
        <time>2013-11-20T20:33:37Z</time>
        <extensions><gpxtpx:TrackPointExtension><gpxtpx:hr>155</gpxtpx:hr></gpxtpx:TrackPointExtension></extensions>
      </trkpt>
      <trkpt lat="59.9848735" lon="15.8278432">
        <ele>134.4</ele>
        <time>2013-11-20T20:33:38Z</time>
        <extensions><gpxtpx:TrackPointExtension><gpxtpx:hr>154</gpxtpx:hr></gpxtpx:TrackPointExtension></extensions>
      </trkpt>
      <trkpt lat="59.984874" lon="15.8278431">
        <ele>134.4</ele>
        <time>2013-11-20T20:33:39Z</time>
        <extensions><gpxtpx:TrackPointExtension><gpxtpx:hr>155</gpxtpx:hr></gpxtpx:TrackPointExtension></extensions>
      </trkpt>
      <trkpt lat="59.984872" lon="15.8278424">
        <ele>134.4</ele>
        <time>2013-11-20T20:33:40Z</time>
        <extensions><gpxtpx:TrackPointExtension><gpxtpx:hr>155</gpxtpx:hr></gpxtpx:TrackPointExtension></extensions>
      </trkpt>
      <trkpt lat="59.9848727" lon="15.8278373">
        <ele>135.4</ele>
        <time>2013-11-20T20:33:41Z</time>
        <extensions><gpxtpx:TrackPointExtension><gpxtpx:hr>155</gpxtpx:hr></gpxtpx:TrackPointExtension></extensions>
      </trkpt>
      <trkpt lat="59.9848665" lon="15.8278225">
        <ele>135.4</ele>
        <time>2013-11-20T20:33:46Z</time>
        <extensions><gpxtpx:TrackPointExtension><gpxtpx:hr>155</gpxtpx:hr></gpxtpx:TrackPointExtension></extensions>
      </trkpt>
      <trkpt lat="59.9848646" lon="15.827815">
        <ele>135.4</ele>
        <time>2013-11-20T20:33:47Z</time>
        <extensions><gpxtpx:TrackPointExtension><gpxtpx:hr>155</gpxtpx:hr></gpxtpx:TrackPointExtension></extensions>
      </trkpt>
      <trkpt lat="59.9848657" lon="15.8278158">
        <ele>135.4</ele>
        <time>2013-11-20T20:33:48Z</time>
        <extensions><gpxtpx:TrackPointExtension><gpxtpx:hr>155</gpxtpx:hr></gpxtpx:TrackPointExtension></extensions>
      </trkpt>
      <trkpt lat="59.9847976" lon="15.8278867">
        <ele>135.4</ele>
        <time>2013-11-20T20:33:50Z</time>
        <extensions><gpxtpx:TrackPointExtension><gpxtpx:hr>155</gpxtpx:hr></gpxtpx:TrackPointExtension></extensions>
      </trkpt>
      <trkpt lat="59.9847773" lon="15.8279251">
        <ele>135.4</ele>
        <time>2013-11-20T20:33:51Z</time>
        <extensions><gpxtpx:TrackPointExtension><gpxtpx:hr>155</gpxtpx:hr></gpxtpx:TrackPointExtension></extensions>
      </trkpt>
      <trkpt lat="59.9847647" lon="15.8279508">
        <ele>135.4</ele>
        <time>2013-11-20T20:33:52Z</time>
        <extensions><gpxtpx:TrackPointExtension><gpxtpx:hr>155</gpxtpx:hr></gpxtpx:TrackPointExtension></extensions>
      </trkpt>
      <trkpt lat="59.9847512" lon="15.8279713">
        <ele>135.4</ele>
        <time>2013-11-20T20:33:53Z</time>
        <extensions><gpxtpx:TrackPointExtension><gpxtpx:hr>155</gpxtpx:hr></gpxtpx:TrackPointExtension></extensions>
      </trkpt>
      <trkpt lat="59.9847153" lon="15.8280172">
        <ele>135.4</ele>
        <time>2013-11-20T20:33:54Z</time>
        <extensions><gpxtpx:TrackPointExtension><gpxtpx:hr>155</gpxtpx:hr></gpxtpx:TrackPointExtension></extensions>
      </trkpt>
      <trkpt lat="59.9846523" lon="15.8280917">
        <ele>135.4</ele>
        <time>2013-11-20T20:33:56Z</time>
        <extensions><gpxtpx:TrackPointExtension><gpxtpx:hr>155</gpxtpx:hr></gpxtpx:TrackPointExtension></extensions>
      </trkpt>
      <trkpt lat="59.9846535" lon="15.8280979">
        <ele>135.4</ele>
        <time>2013-11-20T20:33:58Z</time>
        <extensions><gpxtpx:TrackPointExtension><gpxtpx:hr>155</gpxtpx:hr></gpxtpx:TrackPointExtension></extensions>
      </trkpt>
      <trkpt lat="59.9846606" lon="15.8280863">
        <ele>135.4</ele>
        <time>2013-11-20T20:33:59Z</time>
        <extensions><gpxtpx:TrackPointExtension><gpxtpx:hr>155</gpxtpx:hr></gpxtpx:TrackPointExtension></extensions>
      </trkpt>
      <trkpt lat="59.9846637" lon="15.8280824">
        <ele>135.4</ele>
        <time>2013-11-20T20:34:00Z</time>
        <extensions><gpxtpx:TrackPointExtension><gpxtpx:hr>155</gpxtpx:hr></gpxtpx:TrackPointExtension></extensions>
      </trkpt>
      <trkpt lat="59.9846665" lon="15.8280824">
        <ele>135.4</ele>
        <time>2013-11-20T20:34:01Z</time>
        <extensions><gpxtpx:TrackPointExtension><gpxtpx:hr>155</gpxtpx:hr></gpxtpx:TrackPointExtension></extensions>
      </trkpt>
      <trkpt lat="59.9846703" lon="15.8280789">
        <ele>135.4</ele>
        <time>2013-11-20T20:34:02Z</time>
        <extensions><gpxtpx:TrackPointExtension><gpxtpx:hr>155</gpxtpx:hr></gpxtpx:TrackPointExtension></extensions>
      </trkpt>
      <trkpt lat="59.9846722" lon="15.8280778">
        <ele>135.4</ele>
        <time>2013-11-20T20:34:03Z</time>
        <extensions><gpxtpx:TrackPointExtension><gpxtpx:hr>155</gpxtpx:hr></gpxtpx:TrackPointExtension></extensions>
      </trkpt>
      <trkpt lat="59.984672" lon="15.8280816">
        <ele>135.4</ele>
        <time>2013-11-20T20:34:04Z</time>
        <extensions><gpxtpx:TrackPointExtension><gpxtpx:hr>154</gpxtpx:hr></gpxtpx:TrackPointExtension></extensions>
      </trkpt>
      <trkpt lat="59.9846692" lon="15.8280822">
        <ele>135.4</ele>
        <time>2013-11-20T20:34:05Z</time>
        <extensions><gpxtpx:TrackPointExtension><gpxtpx:hr>155</gpxtpx:hr></gpxtpx:TrackPointExtension></extensions>
      </trkpt>
      <trkpt lat="59.9846682" lon="15.8280899">
        <ele>135.4</ele>
        <time>2013-11-20T20:34:06Z</time>
        <extensions><gpxtpx:TrackPointExtension><gpxtpx:hr>155</gpxtpx:hr></gpxtpx:TrackPointExtension></extensions>
      </trkpt>
      <trkpt lat="59.9846705" lon="15.8280933">
        <ele>135.4</ele>
        <time>2013-11-20T20:34:07Z</time>
        <extensions><gpxtpx:TrackPointExtension><gpxtpx:hr>154</gpxtpx:hr></gpxtpx:TrackPointExtension></extensions>
      </trkpt>
      <trkpt lat="59.9848164" lon="15.8279142">
        <ele>135.4</ele>
        <time>2013-11-20T20:34:08Z</time>
        <extensions><gpxtpx:TrackPointExtension><gpxtpx:hr>155</gpxtpx:hr></gpxtpx:TrackPointExtension></extensions>
      </trkpt>
      <trkpt lat="59.9848198" lon="15.8279084">
        <ele>135.4</ele>
        <time>2013-11-20T20:34:09Z</time>
        <extensions><gpxtpx:TrackPointExtension><gpxtpx:hr>155</gpxtpx:hr></gpxtpx:TrackPointExtension></extensions>
      </trkpt>
      <trkpt lat="59.984819" lon="15.8279116">
        <ele>135.4</ele>
        <time>2013-11-20T20:34:10Z</time>
        <extensions><gpxtpx:TrackPointExtension><gpxtpx:hr>155</gpxtpx:hr></gpxtpx:TrackPointExtension></extensions>
      </trkpt>
      <trkpt lat="59.9848218" lon="15.8279096">
        <ele>135.4</ele>
        <time>2013-11-20T20:34:13Z</time>
        <extensions><gpxtpx:TrackPointExtension><gpxtpx:hr>154</gpxtpx:hr></gpxtpx:TrackPointExtension></extensions>
      </trkpt>
      <trkpt lat="59.9848027" lon="15.8279389">
        <ele>135.4</ele>
        <time>2013-11-20T20:34:15Z</time>
        <extensions><gpxtpx:TrackPointExtension><gpxtpx:hr>154</gpxtpx:hr></gpxtpx:TrackPointExtension></extensions>
      </trkpt>
      <trkpt lat="59.9847844" lon="15.827966">
        <ele>135.4</ele>
        <time>2013-11-20T20:34:16Z</time>
        <extensions><gpxtpx:TrackPointExtension><gpxtpx:hr>154</gpxtpx:hr></gpxtpx:TrackPointExtension></extensions>
      </trkpt>
      <trkpt lat="59.9847794" lon="15.8279685">
        <ele>135.4</ele>
        <time>2013-11-20T20:34:17Z</time>
        <extensions><gpxtpx:TrackPointExtension><gpxtpx:hr>154</gpxtpx:hr></gpxtpx:TrackPointExtension></extensions>
      </trkpt>
      <trkpt lat="59.9847769" lon="15.8279685">
        <ele>135.4</ele>
        <time>2013-11-20T20:34:18Z</time>
        <extensions><gpxtpx:TrackPointExtension><gpxtpx:hr>154</gpxtpx:hr></gpxtpx:TrackPointExtension></extensions>
      </trkpt>
      <trkpt lat="59.9847788" lon="15.8279684">
        <ele>135.4</ele>
        <time>2013-11-20T20:34:19Z</time>
        <extensions><gpxtpx:TrackPointExtension><gpxtpx:hr>154</gpxtpx:hr></gpxtpx:TrackPointExtension></extensions>
      </trkpt>
      <trkpt lat="59.9847797" lon="15.8279731">
        <ele>135.4</ele>
        <time>2013-11-20T20:34:20Z</time>
        <extensions><gpxtpx:TrackPointExtension><gpxtpx:hr>154</gpxtpx:hr></gpxtpx:TrackPointExtension></extensions>
      </trkpt>
      <trkpt lat="59.9847884" lon="15.8279718">
        <ele>135.4</ele>
        <time>2013-11-20T20:34:23Z</time>
        <extensions><gpxtpx:TrackPointExtension><gpxtpx:hr>154</gpxtpx:hr></gpxtpx:TrackPointExtension></extensions>
      </trkpt>
      <trkpt lat="59.9847831" lon="15.8279866">
        <ele>135.4</ele>
        <time>2013-11-20T20:34:24Z</time>
        <extensions><gpxtpx:TrackPointExtension><gpxtpx:hr>154</gpxtpx:hr></gpxtpx:TrackPointExtension></extensions>
      </trkpt>
      <trkpt lat="59.9847867" lon="15.8279788">
        <ele>135.4</ele>
        <time>2013-11-20T20:34:25Z</time>
        <extensions><gpxtpx:TrackPointExtension><gpxtpx:hr>153</gpxtpx:hr></gpxtpx:TrackPointExtension></extensions>
      </trkpt>
      <trkpt lat="59.9847839" lon="15.8279739">
        <ele>135.4</ele>
        <time>2013-11-20T20:34:26Z</time>
        <extensions><gpxtpx:TrackPointExtension><gpxtpx:hr>153</gpxtpx:hr></gpxtpx:TrackPointExtension></extensions>
      </trkpt>
      <trkpt lat="59.9847746" lon="15.8279788">
        <ele>135.4</ele>
        <time>2013-11-20T20:34:27Z</time>
        <extensions><gpxtpx:TrackPointExtension><gpxtpx:hr>154</gpxtpx:hr></gpxtpx:TrackPointExtension></extensions>
      </trkpt>
      <trkpt lat="59.9847693" lon="15.8279723">
        <ele>136.4</ele>
        <time>2013-11-20T20:34:28Z</time>
        <extensions><gpxtpx:TrackPointExtension><gpxtpx:hr>153</gpxtpx:hr></gpxtpx:TrackPointExtension></extensions>
      </trkpt>
      <trkpt lat="59.9847692" lon="15.8279704">
        <ele>136.4</ele>
        <time>2013-11-20T20:34:29Z</time>
        <extensions><gpxtpx:TrackPointExtension><gpxtpx:hr>154</gpxtpx:hr></gpxtpx:TrackPointExtension></extensions>
      </trkpt>
      <trkpt lat="59.984772" lon="15.8279658">
        <ele>136.4</ele>
        <time>2013-11-20T20:34:30Z</time>
        <extensions><gpxtpx:TrackPointExtension><gpxtpx:hr>154</gpxtpx:hr></gpxtpx:TrackPointExtension></extensions>
      </trkpt>
      <trkpt lat="59.9847717" lon="15.8279628">
        <ele>136.4</ele>
        <time>2013-11-20T20:34:31Z</time>
        <extensions><gpxtpx:TrackPointExtension><gpxtpx:hr>154</gpxtpx:hr></gpxtpx:TrackPointExtension></extensions>
      </trkpt>
      <trkpt lat="59.9847708" lon="15.8279871">
        <ele>136.4</ele>
        <time>2013-11-20T20:34:32Z</time>
        <extensions><gpxtpx:TrackPointExtension><gpxtpx:hr>154</gpxtpx:hr></gpxtpx:TrackPointExtension></extensions>
      </trkpt>
      <trkpt lat="59.9847678" lon="15.8279905">
        <ele>136.4</ele>
        <time>2013-11-20T20:34:33Z</time>
        <extensions><gpxtpx:TrackPointExtension><gpxtpx:hr>154</gpxtpx:hr></gpxtpx:TrackPointExtension></extensions>
      </trkpt>
      <trkpt lat="59.9847678" lon="15.8279844">
        <ele>136.4</ele>
        <time>2013-11-20T20:34:34Z</time>
        <extensions><gpxtpx:TrackPointExtension><gpxtpx:hr>153</gpxtpx:hr></gpxtpx:TrackPointExtension></extensions>
      </trkpt>
      <trkpt lat="59.9847763" lon="15.8279649">
        <ele>136.4</ele>
        <time>2013-11-20T20:34:35Z</time>
        <extensions><gpxtpx:TrackPointExtension><gpxtpx:hr>153</gpxtpx:hr></gpxtpx:TrackPointExtension></extensions>
      </trkpt>
      <trkpt lat="59.9847878" lon="15.8279437">
        <ele>136.4</ele>
        <time>2013-11-20T20:34:36Z</time>
        <extensions><gpxtpx:TrackPointExtension><gpxtpx:hr>153</gpxtpx:hr></gpxtpx:TrackPointExtension></extensions>
      </trkpt>
      <trkpt lat="59.9848019" lon="15.8279285">
        <ele>136.4</ele>
        <time>2013-11-20T20:34:37Z</time>
        <extensions><gpxtpx:TrackPointExtension><gpxtpx:hr>153</gpxtpx:hr></gpxtpx:TrackPointExtension></extensions>
      </trkpt>
      <trkpt lat="59.9848151" lon="15.8279187">
        <ele>136.4</ele>
        <time>2013-11-20T20:34:38Z</time>
        <extensions><gpxtpx:TrackPointExtension><gpxtpx:hr>154</gpxtpx:hr></gpxtpx:TrackPointExtension></extensions>
      </trkpt>
      <trkpt lat="59.9848223" lon="15.8279099">
        <ele>136.4</ele>
        <time>2013-11-20T20:34:39Z</time>
        <extensions><gpxtpx:TrackPointExtension><gpxtpx:hr>153</gpxtpx:hr></gpxtpx:TrackPointExtension></extensions>
      </trkpt>
      <trkpt lat="59.9848237" lon="15.8279119">
        <ele>136.4</ele>
        <time>2013-11-20T20:34:40Z</time>
        <extensions><gpxtpx:TrackPointExtension><gpxtpx:hr>154</gpxtpx:hr></gpxtpx:TrackPointExtension></extensions>
      </trkpt>
      <trkpt lat="59.9848279" lon="15.8279036">
        <ele>136.4</ele>
        <time>2013-11-20T20:34:41Z</time>
        <extensions><gpxtpx:TrackPointExtension><gpxtpx:hr>153</gpxtpx:hr></gpxtpx:TrackPointExtension></extensions>
      </trkpt>
      <trkpt lat="59.9848261" lon="15.8279017">
        <ele>136.4</ele>
        <time>2013-11-20T20:34:42Z</time>
        <extensions><gpxtpx:TrackPointExtension><gpxtpx:hr>154</gpxtpx:hr></gpxtpx:TrackPointExtension></extensions>
      </trkpt>
      <trkpt lat="59.9848241" lon="15.8279059">
        <ele>136.4</ele>
        <time>2013-11-20T20:34:44Z</time>
        <extensions><gpxtpx:TrackPointExtension><gpxtpx:hr>154</gpxtpx:hr></gpxtpx:TrackPointExtension></extensions>
      </trkpt>
      <trkpt lat="59.9848207" lon="15.8279165">
        <ele>136.4</ele>
        <time>2013-11-20T20:34:45Z</time>
        <extensions><gpxtpx:TrackPointExtension><gpxtpx:hr>154</gpxtpx:hr></gpxtpx:TrackPointExtension></extensions>
      </trkpt>
      <trkpt lat="59.9848186" lon="15.8279234">
        <ele>136.4</ele>
        <time>2013-11-20T20:34:46Z</time>
        <extensions><gpxtpx:TrackPointExtension><gpxtpx:hr>154</gpxtpx:hr></gpxtpx:TrackPointExtension></extensions>
      </trkpt>
      <trkpt lat="59.9848204" lon="15.8279145">
        <ele>136.4</ele>
        <time>2013-11-20T20:34:47Z</time>
        <extensions><gpxtpx:TrackPointExtension><gpxtpx:hr>154</gpxtpx:hr></gpxtpx:TrackPointExtension></extensions>
      </trkpt>
      <trkpt lat="59.9848258" lon="15.8279109">
        <ele>136.4</ele>
        <time>2013-11-20T20:34:49Z</time>
        <extensions><gpxtpx:TrackPointExtension><gpxtpx:hr>154</gpxtpx:hr></gpxtpx:TrackPointExtension></extensions>
      </trkpt>
      <trkpt lat="59.9848512" lon="15.8278938">
        <ele>136.4</ele>
        <time>2013-11-20T20:34:51Z</time>
        <extensions><gpxtpx:TrackPointExtension><gpxtpx:hr>155</gpxtpx:hr></gpxtpx:TrackPointExtension></extensions>
      </trkpt>
      <trkpt lat="59.9848724" lon="15.8278623">
        <ele>136.4</ele>
        <time>2013-11-20T20:34:54Z</time>
        <extensions><gpxtpx:TrackPointExtension><gpxtpx:hr>155</gpxtpx:hr></gpxtpx:TrackPointExtension></extensions>
      </trkpt>
      <trkpt lat="59.9848724" lon="15.8278575">
        <ele>136.4</ele>
        <time>2013-11-20T20:34:55Z</time>
        <extensions><gpxtpx:TrackPointExtension><gpxtpx:hr>155</gpxtpx:hr></gpxtpx:TrackPointExtension></extensions>
      </trkpt>
      <trkpt lat="59.9848684" lon="15.8278597">
        <ele>136.4</ele>
        <time>2013-11-20T20:34:56Z</time>
        <extensions><gpxtpx:TrackPointExtension><gpxtpx:hr>155</gpxtpx:hr></gpxtpx:TrackPointExtension></extensions>
      </trkpt>
      <trkpt lat="59.9848683" lon="15.8278605">
        <ele>136.6</ele>
        <time>2013-11-20T20:34:57Z</time>
        <extensions><gpxtpx:TrackPointExtension><gpxtpx:hr>155</gpxtpx:hr></gpxtpx:TrackPointExtension></extensions>
      </trkpt>
      <trkpt lat="59.9848716" lon="15.8278561">
        <ele>136.4</ele>
        <time>2013-11-20T20:34:58Z</time>
        <extensions><gpxtpx:TrackPointExtension><gpxtpx:hr>155</gpxtpx:hr></gpxtpx:TrackPointExtension></extensions>
      </trkpt>
      <trkpt lat="59.9848752" lon="15.8277954">
        <ele>136.4</ele>
        <time>2013-11-20T20:34:59Z</time>
        <extensions><gpxtpx:TrackPointExtension><gpxtpx:hr>155</gpxtpx:hr></gpxtpx:TrackPointExtension></extensions>
      </trkpt>
      <trkpt lat="59.9848791" lon="15.8277864">
        <ele>136.4</ele>
        <time>2013-11-20T20:35:00Z</time>
        <extensions><gpxtpx:TrackPointExtension><gpxtpx:hr>155</gpxtpx:hr></gpxtpx:TrackPointExtension></extensions>
      </trkpt>
      <trkpt lat="59.9848726" lon="15.8277652">
        <ele>137.4</ele>
        <time>2013-11-20T20:35:03Z</time>
        <extensions><gpxtpx:TrackPointExtension><gpxtpx:hr>154</gpxtpx:hr></gpxtpx:TrackPointExtension></extensions>
      </trkpt>
      <trkpt lat="59.9848578" lon="15.8277495">
        <ele>137.4</ele>
        <time>2013-11-20T20:35:04Z</time>
        <extensions><gpxtpx:TrackPointExtension><gpxtpx:hr>155</gpxtpx:hr></gpxtpx:TrackPointExtension></extensions>
      </trkpt>
      <trkpt lat="59.9848464" lon="15.8277794">
        <ele>137.4</ele>
        <time>2013-11-20T20:35:06Z</time>
        <extensions><gpxtpx:TrackPointExtension><gpxtpx:hr>155</gpxtpx:hr></gpxtpx:TrackPointExtension></extensions>
      </trkpt>
      <trkpt lat="59.9848398" lon="15.8278032">
        <ele>137.4</ele>
        <time>2013-11-20T20:35:08Z</time>
        <extensions><gpxtpx:TrackPointExtension><gpxtpx:hr>154</gpxtpx:hr></gpxtpx:TrackPointExtension></extensions>
      </trkpt>
      <trkpt lat="59.9848325" lon="15.8278485">
        <ele>137.4</ele>
        <time>2013-11-20T20:35:10Z</time>
        <extensions><gpxtpx:TrackPointExtension><gpxtpx:hr>154</gpxtpx:hr></gpxtpx:TrackPointExtension></extensions>
      </trkpt>
      <trkpt lat="59.9848324" lon="15.827866">
        <ele>137.4</ele>
        <time>2013-11-20T20:35:12Z</time>
        <extensions><gpxtpx:TrackPointExtension><gpxtpx:hr>154</gpxtpx:hr></gpxtpx:TrackPointExtension></extensions>
      </trkpt>
      <trkpt lat="59.9848321" lon="15.8278676">
        <ele>137.4</ele>
        <time>2013-11-20T20:35:13Z</time>
        <extensions><gpxtpx:TrackPointExtension><gpxtpx:hr>153</gpxtpx:hr></gpxtpx:TrackPointExtension></extensions>
      </trkpt>
      <trkpt lat="59.984832" lon="15.8278671">
        <ele>137.4</ele>
        <time>2013-11-20T20:35:14Z</time>
        <extensions><gpxtpx:TrackPointExtension><gpxtpx:hr>153</gpxtpx:hr></gpxtpx:TrackPointExtension></extensions>
      </trkpt>
      <trkpt lat="59.9848278" lon="15.8278668">
        <ele>137.4</ele>
        <time>2013-11-20T20:35:15Z</time>
        <extensions><gpxtpx:TrackPointExtension><gpxtpx:hr>153</gpxtpx:hr></gpxtpx:TrackPointExtension></extensions>
      </trkpt>
      <trkpt lat="59.9848253" lon="15.8278904">
        <ele>137.4</ele>
        <time>2013-11-20T20:35:16Z</time>
        <extensions><gpxtpx:TrackPointExtension><gpxtpx:hr>153</gpxtpx:hr></gpxtpx:TrackPointExtension></extensions>
      </trkpt>
      <trkpt lat="59.9848248" lon="15.8279013">
        <ele>137.4</ele>
        <time>2013-11-20T20:35:17Z</time>
        <extensions><gpxtpx:TrackPointExtension><gpxtpx:hr>153</gpxtpx:hr></gpxtpx:TrackPointExtension></extensions>
      </trkpt>
      <trkpt lat="59.9848272" lon="15.8279159">
        <ele>137.4</ele>
        <time>2013-11-20T20:35:18Z</time>
        <extensions><gpxtpx:TrackPointExtension><gpxtpx:hr>154</gpxtpx:hr></gpxtpx:TrackPointExtension></extensions>
      </trkpt>
      <trkpt lat="59.9848249" lon="15.8279228">
        <ele>137.4</ele>
        <time>2013-11-20T20:35:19Z</time>
        <extensions><gpxtpx:TrackPointExtension><gpxtpx:hr>154</gpxtpx:hr></gpxtpx:TrackPointExtension></extensions>
      </trkpt>
      <trkpt lat="59.9848217" lon="15.8279312">
        <ele>137.4</ele>
        <time>2013-11-20T20:35:20Z</time>
        <extensions><gpxtpx:TrackPointExtension><gpxtpx:hr>153</gpxtpx:hr></gpxtpx:TrackPointExtension></extensions>
      </trkpt>
      <trkpt lat="59.9848141" lon="15.8279513">
        <ele>137.4</ele>
        <time>2013-11-20T20:35:21Z</time>
        <extensions><gpxtpx:TrackPointExtension><gpxtpx:hr>154</gpxtpx:hr></gpxtpx:TrackPointExtension></extensions>
      </trkpt>
      <trkpt lat="59.9848017" lon="15.8279486">
        <ele>137.4</ele>
        <time>2013-11-20T20:35:22Z</time>
        <extensions><gpxtpx:TrackPointExtension><gpxtpx:hr>153</gpxtpx:hr></gpxtpx:TrackPointExtension></extensions>
      </trkpt>
      <trkpt lat="59.9847992" lon="15.8279433">
        <ele>137.4</ele>
        <time>2013-11-20T20:35:23Z</time>
        <extensions><gpxtpx:TrackPointExtension><gpxtpx:hr>153</gpxtpx:hr></gpxtpx:TrackPointExtension></extensions>
      </trkpt>
      <trkpt lat="59.9848001" lon="15.8279425">
        <ele>137.4</ele>
        <time>2013-11-20T20:35:24Z</time>
        <extensions><gpxtpx:TrackPointExtension><gpxtpx:hr>154</gpxtpx:hr></gpxtpx:TrackPointExtension></extensions>
      </trkpt>
      <trkpt lat="59.9848009" lon="15.8279382">
        <ele>137.4</ele>
        <time>2013-11-20T20:35:25Z</time>
        <extensions><gpxtpx:TrackPointExtension><gpxtpx:hr>153</gpxtpx:hr></gpxtpx:TrackPointExtension></extensions>
      </trkpt>
      <trkpt lat="59.984802" lon="15.8279332">
        <ele>137.4</ele>
        <time>2013-11-20T20:35:26Z</time>
        <extensions><gpxtpx:TrackPointExtension><gpxtpx:hr>154</gpxtpx:hr></gpxtpx:TrackPointExtension></extensions>
      </trkpt>
      <trkpt lat="59.9848056" lon="15.8279309">
        <ele>137.4</ele>
        <time>2013-11-20T20:35:27Z</time>
        <extensions><gpxtpx:TrackPointExtension><gpxtpx:hr>153</gpxtpx:hr></gpxtpx:TrackPointExtension></extensions>
      </trkpt>
      <trkpt lat="59.984812" lon="15.8279344">
        <ele>137.4</ele>
        <time>2013-11-20T20:35:28Z</time>
        <extensions><gpxtpx:TrackPointExtension><gpxtpx:hr>153</gpxtpx:hr></gpxtpx:TrackPointExtension></extensions>
      </trkpt>
      <trkpt lat="59.9848172" lon="15.827931">
        <ele>137.4</ele>
        <time>2013-11-20T20:35:29Z</time>
        <extensions><gpxtpx:TrackPointExtension><gpxtpx:hr>153</gpxtpx:hr></gpxtpx:TrackPointExtension></extensions>
      </trkpt>
      <trkpt lat="59.9848251" lon="15.8279213">
        <ele>137.4</ele>
        <time>2013-11-20T20:35:30Z</time>
        <extensions><gpxtpx:TrackPointExtension><gpxtpx:hr>153</gpxtpx:hr></gpxtpx:TrackPointExtension></extensions>
      </trkpt>
      <trkpt lat="59.9848328" lon="15.8279263">
        <ele>137.4</ele>
        <time>2013-11-20T20:35:31Z</time>
        <extensions><gpxtpx:TrackPointExtension><gpxtpx:hr>154</gpxtpx:hr></gpxtpx:TrackPointExtension></extensions>
      </trkpt>
      <trkpt lat="59.9848353" lon="15.8279292">
        <ele>137.4</ele>
        <time>2013-11-20T20:35:32Z</time>
        <extensions><gpxtpx:TrackPointExtension><gpxtpx:hr>153</gpxtpx:hr></gpxtpx:TrackPointExtension></extensions>
      </trkpt>
      <trkpt lat="59.9848419" lon="15.8279247">
        <ele>137.4</ele>
        <time>2013-11-20T20:35:33Z</time>
        <extensions><gpxtpx:TrackPointExtension><gpxtpx:hr>154</gpxtpx:hr></gpxtpx:TrackPointExtension></extensions>
      </trkpt>
      <trkpt lat="59.9848507" lon="15.8279223">
        <ele>137.4</ele>
        <time>2013-11-20T20:35:34Z</time>
        <extensions><gpxtpx:TrackPointExtension><gpxtpx:hr>153</gpxtpx:hr></gpxtpx:TrackPointExtension></extensions>
      </trkpt>
      <trkpt lat="59.9848565" lon="15.8279192">
        <ele>137.4</ele>
        <time>2013-11-20T20:35:35Z</time>
        <extensions><gpxtpx:TrackPointExtension><gpxtpx:hr>154</gpxtpx:hr></gpxtpx:TrackPointExtension></extensions>
      </trkpt>
      <trkpt lat="59.9848596" lon="15.8279135">
        <ele>137.4</ele>
        <time>2013-11-20T20:35:36Z</time>
        <extensions><gpxtpx:TrackPointExtension><gpxtpx:hr>154</gpxtpx:hr></gpxtpx:TrackPointExtension></extensions>
      </trkpt>
      <trkpt lat="59.9848625" lon="15.8279048">
        <ele>137.4</ele>
        <time>2013-11-20T20:35:37Z</time>
        <extensions><gpxtpx:TrackPointExtension><gpxtpx:hr>154</gpxtpx:hr></gpxtpx:TrackPointExtension></extensions>
      </trkpt>
      <trkpt lat="59.9848622" lon="15.8278985">
        <ele>137.4</ele>
        <time>2013-11-20T20:35:38Z</time>
        <extensions><gpxtpx:TrackPointExtension><gpxtpx:hr>154</gpxtpx:hr></gpxtpx:TrackPointExtension></extensions>
      </trkpt>
      <trkpt lat="59.9848632" lon="15.8279002">
        <ele>137.4</ele>
        <time>2013-11-20T20:35:39Z</time>
        <extensions><gpxtpx:TrackPointExtension><gpxtpx:hr>154</gpxtpx:hr></gpxtpx:TrackPointExtension></extensions>
      </trkpt>
      <trkpt lat="59.9848569" lon="15.8279126">
        <ele>137.4</ele>
        <time>2013-11-20T20:35:42Z</time>
        <extensions><gpxtpx:TrackPointExtension><gpxtpx:hr>154</gpxtpx:hr></gpxtpx:TrackPointExtension></extensions>
      </trkpt>
      <trkpt lat="59.9848476" lon="15.8279225">
        <ele>137.4</ele>
        <time>2013-11-20T20:35:48Z</time>
        <extensions><gpxtpx:TrackPointExtension><gpxtpx:hr>154</gpxtpx:hr></gpxtpx:TrackPointExtension></extensions>
      </trkpt>
      <trkpt lat="59.984815" lon="15.8279239">
        <ele>137.4</ele>
        <time>2013-11-20T20:35:52Z</time>
        <extensions><gpxtpx:TrackPointExtension><gpxtpx:hr>155</gpxtpx:hr></gpxtpx:TrackPointExtension></extensions>
      </trkpt>
      <trkpt lat="59.9848119" lon="15.827927">
        <ele>137.4</ele>
        <time>2013-11-20T20:35:53Z</time>
        <extensions><gpxtpx:TrackPointExtension><gpxtpx:hr>155</gpxtpx:hr></gpxtpx:TrackPointExtension></extensions>
      </trkpt>
      <trkpt lat="59.984814" lon="15.8279314">
        <ele>137.4</ele>
        <time>2013-11-20T20:35:54Z</time>
        <extensions><gpxtpx:TrackPointExtension><gpxtpx:hr>154</gpxtpx:hr></gpxtpx:TrackPointExtension></extensions>
      </trkpt>
      <trkpt lat="59.9848106" lon="15.8279344">
        <ele>137.4</ele>
        <time>2013-11-20T20:35:55Z</time>
        <extensions><gpxtpx:TrackPointExtension><gpxtpx:hr>155</gpxtpx:hr></gpxtpx:TrackPointExtension></extensions>
      </trkpt>
      <trkpt lat="59.9848077" lon="15.8279354">
        <ele>138.6</ele>
        <time>2013-11-20T20:35:56Z</time>
        <extensions><gpxtpx:TrackPointExtension><gpxtpx:hr>154</gpxtpx:hr></gpxtpx:TrackPointExtension></extensions>
      </trkpt>
      <trkpt lat="59.9848111" lon="15.8279338">
        <ele>138.4</ele>
        <time>2013-11-20T20:35:57Z</time>
        <extensions><gpxtpx:TrackPointExtension><gpxtpx:hr>154</gpxtpx:hr></gpxtpx:TrackPointExtension></extensions>
      </trkpt>
      <trkpt lat="59.9848191" lon="15.8279293">
        <ele>138.4</ele>
        <time>2013-11-20T20:35:58Z</time>
        <extensions><gpxtpx:TrackPointExtension><gpxtpx:hr>154</gpxtpx:hr></gpxtpx:TrackPointExtension></extensions>
      </trkpt>
      <trkpt lat="59.9848273" lon="15.8279171">
        <ele>138.4</ele>
        <time>2013-11-20T20:35:59Z</time>
        <extensions><gpxtpx:TrackPointExtension><gpxtpx:hr>154</gpxtpx:hr></gpxtpx:TrackPointExtension></extensions>
      </trkpt>
      <trkpt lat="59.9848324" lon="15.8279094">
        <ele>138.4</ele>
        <time>2013-11-20T20:36:00Z</time>
        <extensions><gpxtpx:TrackPointExtension><gpxtpx:hr>154</gpxtpx:hr></gpxtpx:TrackPointExtension></extensions>
      </trkpt>
      <trkpt lat="59.9848422" lon="15.8279049">
        <ele>138.4</ele>
        <time>2013-11-20T20:36:01Z</time>
        <extensions><gpxtpx:TrackPointExtension><gpxtpx:hr>154</gpxtpx:hr></gpxtpx:TrackPointExtension></extensions>
      </trkpt>
      <trkpt lat="59.9848465" lon="15.8279055">
        <ele>138.4</ele>
        <time>2013-11-20T20:36:02Z</time>
        <extensions><gpxtpx:TrackPointExtension><gpxtpx:hr>154</gpxtpx:hr></gpxtpx:TrackPointExtension></extensions>
      </trkpt>
      <trkpt lat="59.9848468" lon="15.8279113">
        <ele>138.4</ele>
        <time>2013-11-20T20:36:03Z</time>
        <extensions><gpxtpx:TrackPointExtension><gpxtpx:hr>155</gpxtpx:hr></gpxtpx:TrackPointExtension></extensions>
      </trkpt>
      <trkpt lat="59.9848456" lon="15.8279135">
        <ele>138.4</ele>
        <time>2013-11-20T20:36:04Z</time>
        <extensions><gpxtpx:TrackPointExtension><gpxtpx:hr>155</gpxtpx:hr></gpxtpx:TrackPointExtension></extensions>
      </trkpt>
      <trkpt lat="59.9848473" lon="15.8279061">
        <ele>138.4</ele>
        <time>2013-11-20T20:36:05Z</time>
        <extensions><gpxtpx:TrackPointExtension><gpxtpx:hr>154</gpxtpx:hr></gpxtpx:TrackPointExtension></extensions>
      </trkpt>
      <trkpt lat="59.9848418" lon="15.8279135">
        <ele>138.4</ele>
        <time>2013-11-20T20:36:08Z</time>
        <extensions><gpxtpx:TrackPointExtension><gpxtpx:hr>154</gpxtpx:hr></gpxtpx:TrackPointExtension></extensions>
      </trkpt>
      <trkpt lat="59.9848549" lon="15.8278912">
        <ele>138.4</ele>
        <time>2013-11-20T20:36:11Z</time>
        <extensions><gpxtpx:TrackPointExtension><gpxtpx:hr>155</gpxtpx:hr></gpxtpx:TrackPointExtension></extensions>
      </trkpt>
      <trkpt lat="59.9848576" lon="15.827888">
        <ele>138.4</ele>
        <time>2013-11-20T20:36:12Z</time>
        <extensions><gpxtpx:TrackPointExtension><gpxtpx:hr>155</gpxtpx:hr></gpxtpx:TrackPointExtension></extensions>
      </trkpt>
      <trkpt lat="59.9848651" lon="15.8278887">
        <ele>138.4</ele>
        <time>2013-11-20T20:36:13Z</time>
        <extensions><gpxtpx:TrackPointExtension><gpxtpx:hr>155</gpxtpx:hr></gpxtpx:TrackPointExtension></extensions>
      </trkpt>
      <trkpt lat="59.9848681" lon="15.8278896">
        <ele>138.4</ele>
        <time>2013-11-20T20:36:14Z</time>
        <extensions><gpxtpx:TrackPointExtension><gpxtpx:hr>155</gpxtpx:hr></gpxtpx:TrackPointExtension></extensions>
      </trkpt>
      <trkpt lat="59.9848673" lon="15.8278916">
        <ele>138.4</ele>
        <time>2013-11-20T20:36:15Z</time>
        <extensions><gpxtpx:TrackPointExtension><gpxtpx:hr>155</gpxtpx:hr></gpxtpx:TrackPointExtension></extensions>
      </trkpt>
      <trkpt lat="59.984866" lon="15.8278954">
        <ele>138.4</ele>
        <time>2013-11-20T20:36:16Z</time>
        <extensions><gpxtpx:TrackPointExtension><gpxtpx:hr>155</gpxtpx:hr></gpxtpx:TrackPointExtension></extensions>
      </trkpt>
      <trkpt lat="59.984864" lon="15.8279031">
        <ele>138.4</ele>
        <time>2013-11-20T20:36:17Z</time>
        <extensions><gpxtpx:TrackPointExtension><gpxtpx:hr>155</gpxtpx:hr></gpxtpx:TrackPointExtension></extensions>
      </trkpt>
      <trkpt lat="59.9848424" lon="15.8279239">
        <ele>138.4</ele>
        <time>2013-11-20T20:36:18Z</time>
        <extensions><gpxtpx:TrackPointExtension><gpxtpx:hr>156</gpxtpx:hr></gpxtpx:TrackPointExtension></extensions>
      </trkpt>
      <trkpt lat="59.9848314" lon="15.827933">
        <ele>138.4</ele>
        <time>2013-11-20T20:36:19Z</time>
        <extensions><gpxtpx:TrackPointExtension><gpxtpx:hr>155</gpxtpx:hr></gpxtpx:TrackPointExtension></extensions>
      </trkpt>
      <trkpt lat="59.9848252" lon="15.8279402">
        <ele>138.4</ele>
        <time>2013-11-20T20:36:20Z</time>
        <extensions><gpxtpx:TrackPointExtension><gpxtpx:hr>156</gpxtpx:hr></gpxtpx:TrackPointExtension></extensions>
      </trkpt>
      <trkpt lat="59.9848234" lon="15.8279402">
        <ele>138.4</ele>
        <time>2013-11-20T20:36:21Z</time>
        <extensions><gpxtpx:TrackPointExtension><gpxtpx:hr>156</gpxtpx:hr></gpxtpx:TrackPointExtension></extensions>
      </trkpt>
      <trkpt lat="59.9848236" lon="15.8279395">
        <ele>138.4</ele>
        <time>2013-11-20T20:36:22Z</time>
        <extensions><gpxtpx:TrackPointExtension><gpxtpx:hr>156</gpxtpx:hr></gpxtpx:TrackPointExtension></extensions>
      </trkpt>
      <trkpt lat="59.9848255" lon="15.8279378">
        <ele>138.4</ele>
        <time>2013-11-20T20:36:23Z</time>
        <extensions><gpxtpx:TrackPointExtension><gpxtpx:hr>156</gpxtpx:hr></gpxtpx:TrackPointExtension></extensions>
      </trkpt>
      <trkpt lat="59.984827" lon="15.8279333">
        <ele>138.4</ele>
        <time>2013-11-20T20:36:24Z</time>
        <extensions><gpxtpx:TrackPointExtension><gpxtpx:hr>156</gpxtpx:hr></gpxtpx:TrackPointExtension></extensions>
      </trkpt>
      <trkpt lat="59.9848231" lon="15.8279204">
        <ele>138.4</ele>
        <time>2013-11-20T20:36:25Z</time>
        <extensions><gpxtpx:TrackPointExtension><gpxtpx:hr>156</gpxtpx:hr></gpxtpx:TrackPointExtension></extensions>
      </trkpt>
      <trkpt lat="59.9848266" lon="15.8279037">
        <ele>138.4</ele>
        <time>2013-11-20T20:36:26Z</time>
        <extensions><gpxtpx:TrackPointExtension><gpxtpx:hr>156</gpxtpx:hr></gpxtpx:TrackPointExtension></extensions>
      </trkpt>
      <trkpt lat="59.9848243" lon="15.8278986">
        <ele>138.4</ele>
        <time>2013-11-20T20:36:27Z</time>
        <extensions><gpxtpx:TrackPointExtension><gpxtpx:hr>156</gpxtpx:hr></gpxtpx:TrackPointExtension></extensions>
      </trkpt>
      <trkpt lat="59.9848272" lon="15.8278955">
        <ele>138.4</ele>
        <time>2013-11-20T20:36:28Z</time>
        <extensions><gpxtpx:TrackPointExtension><gpxtpx:hr>155</gpxtpx:hr></gpxtpx:TrackPointExtension></extensions>
      </trkpt>
      <trkpt lat="59.9848335" lon="15.8279006">
        <ele>138.6</ele>
        <time>2013-11-20T20:36:30Z</time>
        <extensions><gpxtpx:TrackPointExtension><gpxtpx:hr>155</gpxtpx:hr></gpxtpx:TrackPointExtension></extensions>
      </trkpt>
      <trkpt lat="59.9848317" lon="15.8279005">
        <ele>138.4</ele>
        <time>2013-11-20T20:36:31Z</time>
        <extensions><gpxtpx:TrackPointExtension><gpxtpx:hr>156</gpxtpx:hr></gpxtpx:TrackPointExtension></extensions>
      </trkpt>
      <trkpt lat="59.9848278" lon="15.827906">
        <ele>138.4</ele>
        <time>2013-11-20T20:36:34Z</time>
        <extensions><gpxtpx:TrackPointExtension><gpxtpx:hr>155</gpxtpx:hr></gpxtpx:TrackPointExtension></extensions>
      </trkpt>
      <trkpt lat="59.9848276" lon="15.8279098">
        <ele>138.4</ele>
        <time>2013-11-20T20:36:36Z</time>
        <extensions><gpxtpx:TrackPointExtension><gpxtpx:hr>155</gpxtpx:hr></gpxtpx:TrackPointExtension></extensions>
      </trkpt>
      <trkpt lat="59.9848273" lon="15.8279099">
        <ele>138.4</ele>
        <time>2013-11-20T20:36:37Z</time>
        <extensions><gpxtpx:TrackPointExtension><gpxtpx:hr>156</gpxtpx:hr></gpxtpx:TrackPointExtension></extensions>
      </trkpt>
      <trkpt lat="59.9848237" lon="15.8279166">
        <ele>138.4</ele>
        <time>2013-11-20T20:36:38Z</time>
        <extensions><gpxtpx:TrackPointExtension><gpxtpx:hr>156</gpxtpx:hr></gpxtpx:TrackPointExtension></extensions>
      </trkpt>
      <trkpt lat="59.984817" lon="15.8279161">
        <ele>138.4</ele>
        <time>2013-11-20T20:36:39Z</time>
        <extensions><gpxtpx:TrackPointExtension><gpxtpx:hr>155</gpxtpx:hr></gpxtpx:TrackPointExtension></extensions>
      </trkpt>
      <trkpt lat="59.9848126" lon="15.8279218">
        <ele>138.4</ele>
        <time>2013-11-20T20:36:40Z</time>
        <extensions><gpxtpx:TrackPointExtension><gpxtpx:hr>156</gpxtpx:hr></gpxtpx:TrackPointExtension></extensions>
      </trkpt>
      <trkpt lat="59.9847868" lon="15.827952">
        <ele>138.4</ele>
        <time>2013-11-20T20:36:41Z</time>
        <extensions><gpxtpx:TrackPointExtension><gpxtpx:hr>155</gpxtpx:hr></gpxtpx:TrackPointExtension></extensions>
      </trkpt>
      <trkpt lat="59.9847668" lon="15.8279767">
        <ele>138.4</ele>
        <time>2013-11-20T20:36:42Z</time>
        <extensions><gpxtpx:TrackPointExtension><gpxtpx:hr>156</gpxtpx:hr></gpxtpx:TrackPointExtension></extensions>
      </trkpt>
      <trkpt lat="59.9847555" lon="15.8279935">
        <ele>138.4</ele>
        <time>2013-11-20T20:36:43Z</time>
        <extensions><gpxtpx:TrackPointExtension><gpxtpx:hr>155</gpxtpx:hr></gpxtpx:TrackPointExtension></extensions>
      </trkpt>
      <trkpt lat="59.9847461" lon="15.8280147">
        <ele>138.4</ele>
        <time>2013-11-20T20:36:44Z</time>
        <extensions><gpxtpx:TrackPointExtension><gpxtpx:hr>155</gpxtpx:hr></gpxtpx:TrackPointExtension></extensions>
      </trkpt>
      <trkpt lat="59.984722" lon="15.8280446">
        <ele>138.4</ele>
        <time>2013-11-20T20:36:45Z</time>
        <extensions><gpxtpx:TrackPointExtension><gpxtpx:hr>155</gpxtpx:hr></gpxtpx:TrackPointExtension></extensions>
      </trkpt>
      <trkpt lat="59.9847134" lon="15.8280518">
        <ele>138.4</ele>
        <time>2013-11-20T20:36:46Z</time>
        <extensions><gpxtpx:TrackPointExtension><gpxtpx:hr>154</gpxtpx:hr></gpxtpx:TrackPointExtension></extensions>
      </trkpt>
      <trkpt lat="59.9847026" lon="15.8280634">
        <ele>139.4</ele>
        <time>2013-11-20T20:36:47Z</time>
        <extensions><gpxtpx:TrackPointExtension><gpxtpx:hr>154</gpxtpx:hr></gpxtpx:TrackPointExtension></extensions>
      </trkpt>
      <trkpt lat="59.9846963" lon="15.8280735">
        <ele>139.4</ele>
        <time>2013-11-20T20:36:48Z</time>
        <extensions><gpxtpx:TrackPointExtension><gpxtpx:hr>154</gpxtpx:hr></gpxtpx:TrackPointExtension></extensions>
      </trkpt>
      <trkpt lat="59.9846945" lon="15.8280803">
        <ele>139.6</ele>
        <time>2013-11-20T20:36:49Z</time>
        <extensions><gpxtpx:TrackPointExtension><gpxtpx:hr>153</gpxtpx:hr></gpxtpx:TrackPointExtension></extensions>
      </trkpt>
      <trkpt lat="59.9846964" lon="15.8280778">
        <ele>139.6</ele>
        <time>2013-11-20T20:36:50Z</time>
        <extensions><gpxtpx:TrackPointExtension><gpxtpx:hr>153</gpxtpx:hr></gpxtpx:TrackPointExtension></extensions>
      </trkpt>
      <trkpt lat="59.9846979" lon="15.8280733">
        <ele>139.6</ele>
        <time>2013-11-20T20:36:51Z</time>
        <extensions><gpxtpx:TrackPointExtension><gpxtpx:hr>153</gpxtpx:hr></gpxtpx:TrackPointExtension></extensions>
      </trkpt>
      <trkpt lat="59.9847043" lon="15.828063">
        <ele>139.4</ele>
        <time>2013-11-20T20:36:52Z</time>
        <extensions><gpxtpx:TrackPointExtension><gpxtpx:hr>153</gpxtpx:hr></gpxtpx:TrackPointExtension></extensions>
      </trkpt>
      <trkpt lat="59.9847083" lon="15.8280606">
        <ele>139.4</ele>
        <time>2013-11-20T20:36:53Z</time>
        <extensions><gpxtpx:TrackPointExtension><gpxtpx:hr>153</gpxtpx:hr></gpxtpx:TrackPointExtension></extensions>
      </trkpt>
      <trkpt lat="59.9847104" lon="15.8280533">
        <ele>139.4</ele>
        <time>2013-11-20T20:36:55Z</time>
        <extensions><gpxtpx:TrackPointExtension><gpxtpx:hr>154</gpxtpx:hr></gpxtpx:TrackPointExtension></extensions>
      </trkpt>
      <trkpt lat="59.9847066" lon="15.8280487">
        <ele>139.4</ele>
        <time>2013-11-20T20:36:56Z</time>
        <extensions><gpxtpx:TrackPointExtension><gpxtpx:hr>154</gpxtpx:hr></gpxtpx:TrackPointExtension></extensions>
      </trkpt>
      <trkpt lat="59.9846914" lon="15.8280531">
        <ele>139.4</ele>
        <time>2013-11-20T20:36:59Z</time>
        <extensions><gpxtpx:TrackPointExtension><gpxtpx:hr>155</gpxtpx:hr></gpxtpx:TrackPointExtension></extensions>
      </trkpt>
      <trkpt lat="59.9847792" lon="15.8278509">
        <ele>139.4</ele>
        <time>2013-11-20T20:37:00Z</time>
        <extensions><gpxtpx:TrackPointExtension><gpxtpx:hr>155</gpxtpx:hr></gpxtpx:TrackPointExtension></extensions>
      </trkpt>
      <trkpt lat="59.9847782" lon="15.8278182">
        <ele>139.4</ele>
        <time>2013-11-20T20:37:03Z</time>
        <extensions><gpxtpx:TrackPointExtension><gpxtpx:hr>156</gpxtpx:hr></gpxtpx:TrackPointExtension></extensions>
      </trkpt>
      <trkpt lat="59.9848048" lon="15.8277717">
        <ele>139.6</ele>
        <time>2013-11-20T20:37:08Z</time>
        <extensions><gpxtpx:TrackPointExtension><gpxtpx:hr>157</gpxtpx:hr></gpxtpx:TrackPointExtension></extensions>
      </trkpt>
      <trkpt lat="59.9848108" lon="15.8277593">
        <ele>139.4</ele>
        <time>2013-11-20T20:37:09Z</time>
        <extensions><gpxtpx:TrackPointExtension><gpxtpx:hr>158</gpxtpx:hr></gpxtpx:TrackPointExtension></extensions>
      </trkpt>
      <trkpt lat="59.9848097" lon="15.8277537">
        <ele>139.4</ele>
        <time>2013-11-20T20:37:10Z</time>
        <extensions><gpxtpx:TrackPointExtension><gpxtpx:hr>157</gpxtpx:hr></gpxtpx:TrackPointExtension></extensions>
      </trkpt>
      <trkpt lat="59.9848132" lon="15.8277506">
        <ele>139.4</ele>
        <time>2013-11-20T20:37:11Z</time>
        <extensions><gpxtpx:TrackPointExtension><gpxtpx:hr>158</gpxtpx:hr></gpxtpx:TrackPointExtension></extensions>
      </trkpt>
      <trkpt lat="59.9847834" lon="15.8277578">
        <ele>139.4</ele>
        <time>2013-11-20T20:37:12Z</time>
        <extensions><gpxtpx:TrackPointExtension><gpxtpx:hr>158</gpxtpx:hr></gpxtpx:TrackPointExtension></extensions>
      </trkpt>
      <trkpt lat="59.9847813" lon="15.827756">
        <ele>139.4</ele>
        <time>2013-11-20T20:37:13Z</time>
        <extensions><gpxtpx:TrackPointExtension><gpxtpx:hr>157</gpxtpx:hr></gpxtpx:TrackPointExtension></extensions>
      </trkpt>
      <trkpt lat="59.984787" lon="15.8277554">
        <ele>139.4</ele>
        <time>2013-11-20T20:37:15Z</time>
        <extensions><gpxtpx:TrackPointExtension><gpxtpx:hr>157</gpxtpx:hr></gpxtpx:TrackPointExtension></extensions>
      </trkpt>
      <trkpt lat="59.9847934" lon="15.8277464">
        <ele>139.4</ele>
        <time>2013-11-20T20:37:16Z</time>
        <extensions><gpxtpx:TrackPointExtension><gpxtpx:hr>157</gpxtpx:hr></gpxtpx:TrackPointExtension></extensions>
      </trkpt>
      <trkpt lat="59.9847942" lon="15.8277292">
        <ele>139.4</ele>
        <time>2013-11-20T20:37:17Z</time>
        <extensions><gpxtpx:TrackPointExtension><gpxtpx:hr>157</gpxtpx:hr></gpxtpx:TrackPointExtension></extensions>
      </trkpt>
      <trkpt lat="59.9848019" lon="15.8277167">
        <ele>139.4</ele>
        <time>2013-11-20T20:37:18Z</time>
        <extensions><gpxtpx:TrackPointExtension><gpxtpx:hr>157</gpxtpx:hr></gpxtpx:TrackPointExtension></extensions>
      </trkpt>
      <trkpt lat="59.9848091" lon="15.8277046">
        <ele>139.4</ele>
        <time>2013-11-20T20:37:19Z</time>
        <extensions><gpxtpx:TrackPointExtension><gpxtpx:hr>156</gpxtpx:hr></gpxtpx:TrackPointExtension></extensions>
      </trkpt>
      <trkpt lat="59.9848106" lon="15.827689">
        <ele>139.4</ele>
        <time>2013-11-20T20:37:20Z</time>
        <extensions><gpxtpx:TrackPointExtension><gpxtpx:hr>156</gpxtpx:hr></gpxtpx:TrackPointExtension></extensions>
      </trkpt>
      <trkpt lat="59.9848048" lon="15.827686">
        <ele>140.6</ele>
        <time>2013-11-20T20:37:21Z</time>
        <extensions><gpxtpx:TrackPointExtension><gpxtpx:hr>156</gpxtpx:hr></gpxtpx:TrackPointExtension></extensions>
      </trkpt>
      <trkpt lat="59.9847875" lon="15.827697">
        <ele>140.6</ele>
        <time>2013-11-20T20:37:24Z</time>
        <extensions><gpxtpx:TrackPointExtension><gpxtpx:hr>156</gpxtpx:hr></gpxtpx:TrackPointExtension></extensions>
      </trkpt>
      <trkpt lat="59.9847771" lon="15.8277013">
        <ele>140.6</ele>
        <time>2013-11-20T20:37:25Z</time>
        <extensions><gpxtpx:TrackPointExtension><gpxtpx:hr>156</gpxtpx:hr></gpxtpx:TrackPointExtension></extensions>
      </trkpt>
      <trkpt lat="59.9847676" lon="15.8277027">
        <ele>140.6</ele>
        <time>2013-11-20T20:37:26Z</time>
        <extensions><gpxtpx:TrackPointExtension><gpxtpx:hr>156</gpxtpx:hr></gpxtpx:TrackPointExtension></extensions>
      </trkpt>
      <trkpt lat="59.9847457" lon="15.8277222">
        <ele>140.6</ele>
        <time>2013-11-20T20:37:28Z</time>
        <extensions><gpxtpx:TrackPointExtension><gpxtpx:hr>155</gpxtpx:hr></gpxtpx:TrackPointExtension></extensions>
      </trkpt>
      <trkpt lat="59.984743" lon="15.8277271">
        <ele>140.6</ele>
        <time>2013-11-20T20:37:29Z</time>
        <extensions><gpxtpx:TrackPointExtension><gpxtpx:hr>155</gpxtpx:hr></gpxtpx:TrackPointExtension></extensions>
      </trkpt>
      <trkpt lat="59.9847417" lon="15.8277283">
        <ele>140.6</ele>
        <time>2013-11-20T20:37:30Z</time>
        <extensions><gpxtpx:TrackPointExtension><gpxtpx:hr>155</gpxtpx:hr></gpxtpx:TrackPointExtension></extensions>
      </trkpt>
      <trkpt lat="59.9847403" lon="15.8277273">
        <ele>140.6</ele>
        <time>2013-11-20T20:37:31Z</time>
        <extensions><gpxtpx:TrackPointExtension><gpxtpx:hr>154</gpxtpx:hr></gpxtpx:TrackPointExtension></extensions>
      </trkpt>
      <trkpt lat="59.984743" lon="15.8277281">
        <ele>140.6</ele>
        <time>2013-11-20T20:37:32Z</time>
        <extensions><gpxtpx:TrackPointExtension><gpxtpx:hr>154</gpxtpx:hr></gpxtpx:TrackPointExtension></extensions>
      </trkpt>
      <trkpt lat="59.9847467" lon="15.8277287">
        <ele>140.6</ele>
        <time>2013-11-20T20:37:33Z</time>
        <extensions><gpxtpx:TrackPointExtension><gpxtpx:hr>154</gpxtpx:hr></gpxtpx:TrackPointExtension></extensions>
      </trkpt>
      <trkpt lat="59.984749" lon="15.8277244">
        <ele>140.6</ele>
        <time>2013-11-20T20:37:34Z</time>
        <extensions><gpxtpx:TrackPointExtension><gpxtpx:hr>153</gpxtpx:hr></gpxtpx:TrackPointExtension></extensions>
      </trkpt>
      <trkpt lat="59.9847531" lon="15.8277226">
        <ele>140.6</ele>
        <time>2013-11-20T20:37:36Z</time>
        <extensions><gpxtpx:TrackPointExtension><gpxtpx:hr>153</gpxtpx:hr></gpxtpx:TrackPointExtension></extensions>
      </trkpt>
      <trkpt lat="59.9847504" lon="15.8277182">
        <ele>140.6</ele>
        <time>2013-11-20T20:37:37Z</time>
        <extensions><gpxtpx:TrackPointExtension><gpxtpx:hr>152</gpxtpx:hr></gpxtpx:TrackPointExtension></extensions>
      </trkpt>
      <trkpt lat="59.9847423" lon="15.8277092">
        <ele>140.6</ele>
        <time>2013-11-20T20:37:38Z</time>
        <extensions><gpxtpx:TrackPointExtension><gpxtpx:hr>152</gpxtpx:hr></gpxtpx:TrackPointExtension></extensions>
      </trkpt>
      <trkpt lat="59.9847385" lon="15.8277053">
        <ele>140.6</ele>
        <time>2013-11-20T20:37:40Z</time>
        <extensions><gpxtpx:TrackPointExtension><gpxtpx:hr>152</gpxtpx:hr></gpxtpx:TrackPointExtension></extensions>
      </trkpt>
      <trkpt lat="59.9847342" lon="15.8277144">
        <ele>140.6</ele>
        <time>2013-11-20T20:37:42Z</time>
        <extensions><gpxtpx:TrackPointExtension><gpxtpx:hr>152</gpxtpx:hr></gpxtpx:TrackPointExtension></extensions>
      </trkpt>
      <trkpt lat="59.9847281" lon="15.8277089">
        <ele>140.6</ele>
        <time>2013-11-20T20:37:44Z</time>
        <extensions><gpxtpx:TrackPointExtension><gpxtpx:hr>152</gpxtpx:hr></gpxtpx:TrackPointExtension></extensions>
      </trkpt>
      <trkpt lat="59.9847243" lon="15.8277168">
        <ele>140.6</ele>
        <time>2013-11-20T20:37:45Z</time>
        <extensions><gpxtpx:TrackPointExtension><gpxtpx:hr>152</gpxtpx:hr></gpxtpx:TrackPointExtension></extensions>
      </trkpt>
      <trkpt lat="59.9847215" lon="15.8277189">
        <ele>140.6</ele>
        <time>2013-11-20T20:37:46Z</time>
        <extensions><gpxtpx:TrackPointExtension><gpxtpx:hr>153</gpxtpx:hr></gpxtpx:TrackPointExtension></extensions>
      </trkpt>
      <trkpt lat="59.9847204" lon="15.8277215">
        <ele>140.6</ele>
        <time>2013-11-20T20:37:47Z</time>
        <extensions><gpxtpx:TrackPointExtension><gpxtpx:hr>152</gpxtpx:hr></gpxtpx:TrackPointExtension></extensions>
      </trkpt>
      <trkpt lat="59.9847202" lon="15.827724">
        <ele>140.6</ele>
        <time>2013-11-20T20:37:48Z</time>
        <extensions><gpxtpx:TrackPointExtension><gpxtpx:hr>153</gpxtpx:hr></gpxtpx:TrackPointExtension></extensions>
      </trkpt>
      <trkpt lat="59.9847212" lon="15.8277264">
        <ele>140.6</ele>
        <time>2013-11-20T20:37:51Z</time>
        <extensions><gpxtpx:TrackPointExtension><gpxtpx:hr>152</gpxtpx:hr></gpxtpx:TrackPointExtension></extensions>
      </trkpt>
      <trkpt lat="59.9847495" lon="15.8277298">
        <ele>140.6</ele>
        <time>2013-11-20T20:37:56Z</time>
        <extensions><gpxtpx:TrackPointExtension><gpxtpx:hr>151</gpxtpx:hr></gpxtpx:TrackPointExtension></extensions>
      </trkpt>
      <trkpt lat="59.9847478" lon="15.8277494">
        <ele>140.6</ele>
        <time>2013-11-20T20:38:00Z</time>
        <extensions><gpxtpx:TrackPointExtension><gpxtpx:hr>150</gpxtpx:hr></gpxtpx:TrackPointExtension></extensions>
      </trkpt>
      <trkpt lat="59.9847617" lon="15.8277509">
        <ele>140.6</ele>
        <time>2013-11-20T20:38:02Z</time>
        <extensions><gpxtpx:TrackPointExtension><gpxtpx:hr>149</gpxtpx:hr></gpxtpx:TrackPointExtension></extensions>
      </trkpt>
      <trkpt lat="59.9847685" lon="15.8277373">
        <ele>140.6</ele>
        <time>2013-11-20T20:38:04Z</time>
        <extensions><gpxtpx:TrackPointExtension><gpxtpx:hr>149</gpxtpx:hr></gpxtpx:TrackPointExtension></extensions>
      </trkpt>
      <trkpt lat="59.9847618" lon="15.8277296">
        <ele>140.6</ele>
        <time>2013-11-20T20:38:05Z</time>
        <extensions><gpxtpx:TrackPointExtension><gpxtpx:hr>149</gpxtpx:hr></gpxtpx:TrackPointExtension></extensions>
      </trkpt>
      <trkpt lat="59.9847558" lon="15.8277196">
        <ele>140.6</ele>
        <time>2013-11-20T20:38:07Z</time>
        <extensions><gpxtpx:TrackPointExtension><gpxtpx:hr>148</gpxtpx:hr></gpxtpx:TrackPointExtension></extensions>
      </trkpt>
      <trkpt lat="59.984757" lon="15.8277201">
        <ele>140.6</ele>
        <time>2013-11-20T20:38:08Z</time>
        <extensions><gpxtpx:TrackPointExtension><gpxtpx:hr>148</gpxtpx:hr></gpxtpx:TrackPointExtension></extensions>
      </trkpt>
      <trkpt lat="59.9847568" lon="15.8277198">
        <ele>140.6</ele>
        <time>2013-11-20T20:38:09Z</time>
        <extensions><gpxtpx:TrackPointExtension><gpxtpx:hr>148</gpxtpx:hr></gpxtpx:TrackPointExtension></extensions>
      </trkpt>
      <trkpt lat="59.9847587" lon="15.8277208">
        <ele>140.6</ele>
        <time>2013-11-20T20:38:10Z</time>
        <extensions><gpxtpx:TrackPointExtension><gpxtpx:hr>148</gpxtpx:hr></gpxtpx:TrackPointExtension></extensions>
      </trkpt>
      <trkpt lat="59.984762" lon="15.8277229">
        <ele>140.6</ele>
        <time>2013-11-20T20:38:11Z</time>
        <extensions><gpxtpx:TrackPointExtension><gpxtpx:hr>148</gpxtpx:hr></gpxtpx:TrackPointExtension></extensions>
      </trkpt>
      <trkpt lat="59.9847642" lon="15.8277287">
        <ele>140.6</ele>
        <time>2013-11-20T20:38:12Z</time>
        <extensions><gpxtpx:TrackPointExtension><gpxtpx:hr>147</gpxtpx:hr></gpxtpx:TrackPointExtension></extensions>
      </trkpt>
      <trkpt lat="59.9847653" lon="15.8277337">
        <ele>140.6</ele>
        <time>2013-11-20T20:38:13Z</time>
        <extensions><gpxtpx:TrackPointExtension><gpxtpx:hr>148</gpxtpx:hr></gpxtpx:TrackPointExtension></extensions>
      </trkpt>
      <trkpt lat="59.9847657" lon="15.8277395">
        <ele>140.6</ele>
        <time>2013-11-20T20:38:14Z</time>
        <extensions><gpxtpx:TrackPointExtension><gpxtpx:hr>147</gpxtpx:hr></gpxtpx:TrackPointExtension></extensions>
      </trkpt>
      <trkpt lat="59.9847313" lon="15.8277901">
        <ele>140.6</ele>
        <time>2013-11-20T20:38:15Z</time>
        <extensions><gpxtpx:TrackPointExtension><gpxtpx:hr>147</gpxtpx:hr></gpxtpx:TrackPointExtension></extensions>
      </trkpt>
      <trkpt lat="59.9847238" lon="15.8278058">
        <ele>140.6</ele>
        <time>2013-11-20T20:38:16Z</time>
        <extensions><gpxtpx:TrackPointExtension><gpxtpx:hr>147</gpxtpx:hr></gpxtpx:TrackPointExtension></extensions>
      </trkpt>
      <trkpt lat="59.9847176" lon="15.827821">
        <ele>140.6</ele>
        <time>2013-11-20T20:38:17Z</time>
        <extensions><gpxtpx:TrackPointExtension><gpxtpx:hr>147</gpxtpx:hr></gpxtpx:TrackPointExtension></extensions>
      </trkpt>
      <trkpt lat="59.9847152" lon="15.827837">
        <ele>140.6</ele>
        <time>2013-11-20T20:38:18Z</time>
        <extensions><gpxtpx:TrackPointExtension><gpxtpx:hr>147</gpxtpx:hr></gpxtpx:TrackPointExtension></extensions>
      </trkpt>
      <trkpt lat="59.9847172" lon="15.827855">
        <ele>140.6</ele>
        <time>2013-11-20T20:38:19Z</time>
        <extensions><gpxtpx:TrackPointExtension><gpxtpx:hr>147</gpxtpx:hr></gpxtpx:TrackPointExtension></extensions>
      </trkpt>
      <trkpt lat="59.9847155" lon="15.8278597">
        <ele>140.6</ele>
        <time>2013-11-20T20:38:20Z</time>
        <extensions><gpxtpx:TrackPointExtension><gpxtpx:hr>147</gpxtpx:hr></gpxtpx:TrackPointExtension></extensions>
      </trkpt>
      <trkpt lat="59.9847165" lon="15.8278646">
        <ele>140.6</ele>
        <time>2013-11-20T20:38:21Z</time>
        <extensions><gpxtpx:TrackPointExtension><gpxtpx:hr>146</gpxtpx:hr></gpxtpx:TrackPointExtension></extensions>
      </trkpt>
      <trkpt lat="59.9847167" lon="15.8278717">
        <ele>140.6</ele>
        <time>2013-11-20T20:38:22Z</time>
        <extensions><gpxtpx:TrackPointExtension><gpxtpx:hr>146</gpxtpx:hr></gpxtpx:TrackPointExtension></extensions>
      </trkpt>
      <trkpt lat="59.9847096" lon="15.8278739">
        <ele>140.6</ele>
        <time>2013-11-20T20:38:24Z</time>
        <extensions><gpxtpx:TrackPointExtension><gpxtpx:hr>147</gpxtpx:hr></gpxtpx:TrackPointExtension></extensions>
      </trkpt>
      <trkpt lat="59.984706" lon="15.8278725">
        <ele>140.6</ele>
        <time>2013-11-20T20:38:26Z</time>
        <extensions><gpxtpx:TrackPointExtension><gpxtpx:hr>147</gpxtpx:hr></gpxtpx:TrackPointExtension></extensions>
      </trkpt>
      <trkpt lat="59.9847052" lon="15.8278769">
        <ele>140.6</ele>
        <time>2013-11-20T20:38:27Z</time>
        <extensions><gpxtpx:TrackPointExtension><gpxtpx:hr>146</gpxtpx:hr></gpxtpx:TrackPointExtension></extensions>
      </trkpt>
      <trkpt lat="59.9847061" lon="15.8278782">
        <ele>140.6</ele>
        <time>2013-11-20T20:38:28Z</time>
        <extensions><gpxtpx:TrackPointExtension><gpxtpx:hr>146</gpxtpx:hr></gpxtpx:TrackPointExtension></extensions>
      </trkpt>
      <trkpt lat="59.984707" lon="15.8278766">
        <ele>140.6</ele>
        <time>2013-11-20T20:38:29Z</time>
        <extensions><gpxtpx:TrackPointExtension><gpxtpx:hr>146</gpxtpx:hr></gpxtpx:TrackPointExtension></extensions>
      </trkpt>
      <trkpt lat="59.9847009" lon="15.8278773">
        <ele>140.6</ele>
        <time>2013-11-20T20:38:32Z</time>
        <extensions><gpxtpx:TrackPointExtension><gpxtpx:hr>146</gpxtpx:hr></gpxtpx:TrackPointExtension></extensions>
      </trkpt>
      <trkpt lat="59.9847035" lon="15.8278774">
        <ele>140.6</ele>
        <time>2013-11-20T20:38:33Z</time>
        <extensions><gpxtpx:TrackPointExtension><gpxtpx:hr>147</gpxtpx:hr></gpxtpx:TrackPointExtension></extensions>
      </trkpt>
      <trkpt lat="59.9846997" lon="15.8278889">
        <ele>140.6</ele>
        <time>2013-11-20T20:38:36Z</time>
        <extensions><gpxtpx:TrackPointExtension><gpxtpx:hr>146</gpxtpx:hr></gpxtpx:TrackPointExtension></extensions>
      </trkpt>
      <trkpt lat="59.9846949" lon="15.8278979">
        <ele>140.6</ele>
        <time>2013-11-20T20:38:37Z</time>
        <extensions><gpxtpx:TrackPointExtension><gpxtpx:hr>146</gpxtpx:hr></gpxtpx:TrackPointExtension></extensions>
      </trkpt>
      <trkpt lat="59.9846927" lon="15.8279076">
        <ele>140.6</ele>
        <time>2013-11-20T20:38:38Z</time>
        <extensions><gpxtpx:TrackPointExtension><gpxtpx:hr>146</gpxtpx:hr></gpxtpx:TrackPointExtension></extensions>
      </trkpt>
      <trkpt lat="59.984703" lon="15.827858">
        <ele>140.6</ele>
        <time>2013-11-20T20:38:40Z</time>
        <extensions><gpxtpx:TrackPointExtension><gpxtpx:hr>146</gpxtpx:hr></gpxtpx:TrackPointExtension></extensions>
      </trkpt>
      <trkpt lat="59.9847122" lon="15.8278404">
        <ele>140.6</ele>
        <time>2013-11-20T20:38:42Z</time>
        <extensions><gpxtpx:TrackPointExtension><gpxtpx:hr>146</gpxtpx:hr></gpxtpx:TrackPointExtension></extensions>
      </trkpt>
      <trkpt lat="59.9847144" lon="15.8278336">
        <ele>140.6</ele>
        <time>2013-11-20T20:38:43Z</time>
        <extensions><gpxtpx:TrackPointExtension><gpxtpx:hr>146</gpxtpx:hr></gpxtpx:TrackPointExtension></extensions>
      </trkpt>
      <trkpt lat="59.9847139" lon="15.8278298">
        <ele>140.6</ele>
        <time>2013-11-20T20:38:44Z</time>
        <extensions><gpxtpx:TrackPointExtension><gpxtpx:hr>146</gpxtpx:hr></gpxtpx:TrackPointExtension></extensions>
      </trkpt>
      <trkpt lat="59.9847124" lon="15.8278302">
        <ele>140.6</ele>
        <time>2013-11-20T20:38:45Z</time>
        <extensions><gpxtpx:TrackPointExtension><gpxtpx:hr>146</gpxtpx:hr></gpxtpx:TrackPointExtension></extensions>
      </trkpt>
      <trkpt lat="59.9847099" lon="15.8278297">
        <ele>140.6</ele>
        <time>2013-11-20T20:38:46Z</time>
        <extensions><gpxtpx:TrackPointExtension><gpxtpx:hr>146</gpxtpx:hr></gpxtpx:TrackPointExtension></extensions>
      </trkpt>
      <trkpt lat="59.9847079" lon="15.827831">
        <ele>140.6</ele>
        <time>2013-11-20T20:38:47Z</time>
        <extensions><gpxtpx:TrackPointExtension><gpxtpx:hr>145</gpxtpx:hr></gpxtpx:TrackPointExtension></extensions>
      </trkpt>
      <trkpt lat="59.9846958" lon="15.8278306">
        <ele>140.6</ele>
        <time>2013-11-20T20:38:48Z</time>
        <extensions><gpxtpx:TrackPointExtension><gpxtpx:hr>145</gpxtpx:hr></gpxtpx:TrackPointExtension></extensions>
      </trkpt>
      <trkpt lat="59.9847024" lon="15.8278787">
        <ele>140.6</ele>
        <time>2013-11-20T20:38:52Z</time>
        <extensions><gpxtpx:TrackPointExtension><gpxtpx:hr>145</gpxtpx:hr></gpxtpx:TrackPointExtension></extensions>
      </trkpt>
      <trkpt lat="59.9847109" lon="15.8278867">
        <ele>141.6</ele>
        <time>2013-11-20T20:38:53Z</time>
        <extensions><gpxtpx:TrackPointExtension><gpxtpx:hr>145</gpxtpx:hr></gpxtpx:TrackPointExtension></extensions>
      </trkpt>
      <trkpt lat="59.984716" lon="15.8279016">
        <ele>141.6</ele>
        <time>2013-11-20T20:38:55Z</time>
        <extensions><gpxtpx:TrackPointExtension><gpxtpx:hr>144</gpxtpx:hr></gpxtpx:TrackPointExtension></extensions>
      </trkpt>
      <trkpt lat="59.9847065" lon="15.8279337">
        <ele>141.6</ele>
        <time>2013-11-20T20:38:58Z</time>
        <extensions><gpxtpx:TrackPointExtension><gpxtpx:hr>144</gpxtpx:hr></gpxtpx:TrackPointExtension></extensions>
      </trkpt>
      <trkpt lat="59.9847064" lon="15.8279365">
        <ele>141.6</ele>
        <time>2013-11-20T20:38:59Z</time>
        <extensions><gpxtpx:TrackPointExtension><gpxtpx:hr>145</gpxtpx:hr></gpxtpx:TrackPointExtension></extensions>
      </trkpt>
      <trkpt lat="59.9847204" lon="15.8279187">
        <ele>141.6</ele>
        <time>2013-11-20T20:39:02Z</time>
        <extensions><gpxtpx:TrackPointExtension><gpxtpx:hr>145</gpxtpx:hr></gpxtpx:TrackPointExtension></extensions>
      </trkpt>
      <trkpt lat="59.9847232" lon="15.8279215">
        <ele>141.6</ele>
        <time>2013-11-20T20:39:03Z</time>
        <extensions><gpxtpx:TrackPointExtension><gpxtpx:hr>145</gpxtpx:hr></gpxtpx:TrackPointExtension></extensions>
      </trkpt>
      <trkpt lat="59.9847241" lon="15.8279226">
        <ele>141.6</ele>
        <time>2013-11-20T20:39:04Z</time>
        <extensions><gpxtpx:TrackPointExtension><gpxtpx:hr>146</gpxtpx:hr></gpxtpx:TrackPointExtension></extensions>
      </trkpt>
      <trkpt lat="59.9847281" lon="15.8278857">
        <ele>141.6</ele>
        <time>2013-11-20T20:39:05Z</time>
        <extensions><gpxtpx:TrackPointExtension><gpxtpx:hr>146</gpxtpx:hr></gpxtpx:TrackPointExtension></extensions>
      </trkpt>
      <trkpt lat="59.9847254" lon="15.8278784">
        <ele>141.6</ele>
        <time>2013-11-20T20:39:06Z</time>
        <extensions><gpxtpx:TrackPointExtension><gpxtpx:hr>146</gpxtpx:hr></gpxtpx:TrackPointExtension></extensions>
      </trkpt>
      <trkpt lat="59.9847245" lon="15.8278733">
        <ele>141.6</ele>
        <time>2013-11-20T20:39:07Z</time>
        <extensions><gpxtpx:TrackPointExtension><gpxtpx:hr>146</gpxtpx:hr></gpxtpx:TrackPointExtension></extensions>
      </trkpt>
      <trkpt lat="59.9847264" lon="15.8278705">
        <ele>141.6</ele>
        <time>2013-11-20T20:39:08Z</time>
        <extensions><gpxtpx:TrackPointExtension><gpxtpx:hr>146</gpxtpx:hr></gpxtpx:TrackPointExtension></extensions>
      </trkpt>
      <trkpt lat="59.98473" lon="15.8278717">
        <ele>141.6</ele>
        <time>2013-11-20T20:39:09Z</time>
        <extensions><gpxtpx:TrackPointExtension><gpxtpx:hr>146</gpxtpx:hr></gpxtpx:TrackPointExtension></extensions>
      </trkpt>
      <trkpt lat="59.9847436" lon="15.8278748">
        <ele>141.6</ele>
        <time>2013-11-20T20:39:10Z</time>
        <extensions><gpxtpx:TrackPointExtension><gpxtpx:hr>146</gpxtpx:hr></gpxtpx:TrackPointExtension></extensions>
      </trkpt>
      <trkpt lat="59.9847462" lon="15.8278806">
        <ele>141.6</ele>
        <time>2013-11-20T20:39:11Z</time>
        <extensions><gpxtpx:TrackPointExtension><gpxtpx:hr>145</gpxtpx:hr></gpxtpx:TrackPointExtension></extensions>
      </trkpt>
      <trkpt lat="59.9847447" lon="15.8278754">
        <ele>141.6</ele>
        <time>2013-11-20T20:39:12Z</time>
        <extensions><gpxtpx:TrackPointExtension><gpxtpx:hr>146</gpxtpx:hr></gpxtpx:TrackPointExtension></extensions>
      </trkpt>
      <trkpt lat="59.9847418" lon="15.8278796">
        <ele>141.6</ele>
        <time>2013-11-20T20:39:13Z</time>
        <extensions><gpxtpx:TrackPointExtension><gpxtpx:hr>146</gpxtpx:hr></gpxtpx:TrackPointExtension></extensions>
      </trkpt>
      <trkpt lat="59.9847451" lon="15.8278984">
        <ele>141.6</ele>
        <time>2013-11-20T20:39:17Z</time>
        <extensions><gpxtpx:TrackPointExtension><gpxtpx:hr>146</gpxtpx:hr></gpxtpx:TrackPointExtension></extensions>
      </trkpt>
      <trkpt lat="59.9847433" lon="15.8279103">
        <ele>141.6</ele>
        <time>2013-11-20T20:39:19Z</time>
        <extensions><gpxtpx:TrackPointExtension><gpxtpx:hr>146</gpxtpx:hr></gpxtpx:TrackPointExtension></extensions>
      </trkpt>
      <trkpt lat="59.9847451" lon="15.8279148">
        <ele>141.6</ele>
        <time>2013-11-20T20:39:20Z</time>
        <extensions><gpxtpx:TrackPointExtension><gpxtpx:hr>145</gpxtpx:hr></gpxtpx:TrackPointExtension></extensions>
      </trkpt>
      <trkpt lat="59.9847472" lon="15.8279211">
        <ele>141.6</ele>
        <time>2013-11-20T20:39:21Z</time>
        <extensions><gpxtpx:TrackPointExtension><gpxtpx:hr>145</gpxtpx:hr></gpxtpx:TrackPointExtension></extensions>
      </trkpt>
      <trkpt lat="59.9847524" lon="15.8279269">
        <ele>141.6</ele>
        <time>2013-11-20T20:39:23Z</time>
        <extensions><gpxtpx:TrackPointExtension><gpxtpx:hr>144</gpxtpx:hr></gpxtpx:TrackPointExtension></extensions>
      </trkpt>
      <trkpt lat="59.9847537" lon="15.8279254">
        <ele>141.6</ele>
        <time>2013-11-20T20:39:24Z</time>
        <extensions><gpxtpx:TrackPointExtension><gpxtpx:hr>144</gpxtpx:hr></gpxtpx:TrackPointExtension></extensions>
      </trkpt>
      <trkpt lat="59.9847559" lon="15.8279184">
        <ele>141.6</ele>
        <time>2013-11-20T20:39:25Z</time>
        <extensions><gpxtpx:TrackPointExtension><gpxtpx:hr>144</gpxtpx:hr></gpxtpx:TrackPointExtension></extensions>
      </trkpt>
      <trkpt lat="59.984757" lon="15.8279104">
        <ele>141.6</ele>
        <time>2013-11-20T20:39:26Z</time>
        <extensions><gpxtpx:TrackPointExtension><gpxtpx:hr>144</gpxtpx:hr></gpxtpx:TrackPointExtension></extensions>
      </trkpt>
      <trkpt lat="59.9847647" lon="15.8278657">
        <ele>141.6</ele>
        <time>2013-11-20T20:39:27Z</time>
        <extensions><gpxtpx:TrackPointExtension><gpxtpx:hr>143</gpxtpx:hr></gpxtpx:TrackPointExtension></extensions>
      </trkpt>
      <trkpt lat="59.9847693" lon="15.8278363">
        <ele>141.6</ele>
        <time>2013-11-20T20:39:28Z</time>
        <extensions><gpxtpx:TrackPointExtension><gpxtpx:hr>143</gpxtpx:hr></gpxtpx:TrackPointExtension></extensions>
      </trkpt>
      <trkpt lat="59.9847779" lon="15.8277986">
        <ele>141.6</ele>
        <time>2013-11-20T20:39:29Z</time>
        <extensions><gpxtpx:TrackPointExtension><gpxtpx:hr>143</gpxtpx:hr></gpxtpx:TrackPointExtension></extensions>
      </trkpt>
      <trkpt lat="59.9847867" lon="15.8277871">
        <ele>141.6</ele>
        <time>2013-11-20T20:39:30Z</time>
        <extensions><gpxtpx:TrackPointExtension><gpxtpx:hr>142</gpxtpx:hr></gpxtpx:TrackPointExtension></extensions>
      </trkpt>
      <trkpt lat="59.9848009" lon="15.8277798">
        <ele>141.6</ele>
        <time>2013-11-20T20:39:31Z</time>
        <extensions><gpxtpx:TrackPointExtension><gpxtpx:hr>142</gpxtpx:hr></gpxtpx:TrackPointExtension></extensions>
      </trkpt>
      <trkpt lat="59.9848217" lon="15.827764">
        <ele>141.6</ele>
        <time>2013-11-20T20:39:32Z</time>
        <extensions><gpxtpx:TrackPointExtension><gpxtpx:hr>142</gpxtpx:hr></gpxtpx:TrackPointExtension></extensions>
      </trkpt>
      <trkpt lat="59.9848395" lon="15.8277608">
        <ele>141.6</ele>
        <time>2013-11-20T20:39:33Z</time>
        <extensions><gpxtpx:TrackPointExtension><gpxtpx:hr>141</gpxtpx:hr></gpxtpx:TrackPointExtension></extensions>
      </trkpt>
      <trkpt lat="59.9848502" lon="15.8277736">
        <ele>141.6</ele>
        <time>2013-11-20T20:39:35Z</time>
        <extensions><gpxtpx:TrackPointExtension><gpxtpx:hr>141</gpxtpx:hr></gpxtpx:TrackPointExtension></extensions>
      </trkpt>
      <trkpt lat="59.9848584" lon="15.8277637">
        <ele>141.6</ele>
        <time>2013-11-20T20:39:36Z</time>
        <extensions><gpxtpx:TrackPointExtension><gpxtpx:hr>141</gpxtpx:hr></gpxtpx:TrackPointExtension></extensions>
      </trkpt>
      <trkpt lat="59.9848793" lon="15.8276928">
        <ele>141.6</ele>
        <time>2013-11-20T20:39:40Z</time>
        <extensions><gpxtpx:TrackPointExtension><gpxtpx:hr>140</gpxtpx:hr></gpxtpx:TrackPointExtension></extensions>
      </trkpt>
      <trkpt lat="59.9848812" lon="15.8276848">
        <ele>141.6</ele>
        <time>2013-11-20T20:39:41Z</time>
        <extensions><gpxtpx:TrackPointExtension><gpxtpx:hr>140</gpxtpx:hr></gpxtpx:TrackPointExtension></extensions>
      </trkpt>
      <trkpt lat="59.984884" lon="15.8276567">
        <ele>141.6</ele>
        <time>2013-11-20T20:39:44Z</time>
        <extensions><gpxtpx:TrackPointExtension><gpxtpx:hr>140</gpxtpx:hr></gpxtpx:TrackPointExtension></extensions>
      </trkpt>
      <trkpt lat="59.9848839" lon="15.8276312">
        <ele>141.6</ele>
        <time>2013-11-20T20:39:47Z</time>
        <extensions><gpxtpx:TrackPointExtension><gpxtpx:hr>141</gpxtpx:hr></gpxtpx:TrackPointExtension></extensions>
      </trkpt>
      <trkpt lat="59.9848932" lon="15.827622">
        <ele>141.6</ele>
        <time>2013-11-20T20:39:49Z</time>
        <extensions><gpxtpx:TrackPointExtension><gpxtpx:hr>141</gpxtpx:hr></gpxtpx:TrackPointExtension></extensions>
      </trkpt>
      <trkpt lat="59.9848974" lon="15.8276222">
        <ele>141.6</ele>
        <time>2013-11-20T20:39:50Z</time>
        <extensions><gpxtpx:TrackPointExtension><gpxtpx:hr>141</gpxtpx:hr></gpxtpx:TrackPointExtension></extensions>
      </trkpt>
      <trkpt lat="59.9848992" lon="15.8276123">
        <ele>141.6</ele>
        <time>2013-11-20T20:39:53Z</time>
        <extensions><gpxtpx:TrackPointExtension><gpxtpx:hr>142</gpxtpx:hr></gpxtpx:TrackPointExtension></extensions>
      </trkpt>
      <trkpt lat="59.9848976" lon="15.8276017">
        <ele>141.6</ele>
        <time>2013-11-20T20:39:54Z</time>
        <extensions><gpxtpx:TrackPointExtension><gpxtpx:hr>142</gpxtpx:hr></gpxtpx:TrackPointExtension></extensions>
      </trkpt>
      <trkpt lat="59.9848445" lon="15.8276488">
        <ele>141.6</ele>
        <time>2013-11-20T20:39:55Z</time>
        <extensions><gpxtpx:TrackPointExtension><gpxtpx:hr>142</gpxtpx:hr></gpxtpx:TrackPointExtension></extensions>
      </trkpt>
      <trkpt lat="59.9848429" lon="15.8276376">
        <ele>141.6</ele>
        <time>2013-11-20T20:39:56Z</time>
        <extensions><gpxtpx:TrackPointExtension><gpxtpx:hr>142</gpxtpx:hr></gpxtpx:TrackPointExtension></extensions>
      </trkpt>
      <trkpt lat="59.9848414" lon="15.8276305">
        <ele>141.6</ele>
        <time>2013-11-20T20:39:57Z</time>
        <extensions><gpxtpx:TrackPointExtension><gpxtpx:hr>143</gpxtpx:hr></gpxtpx:TrackPointExtension></extensions>
      </trkpt>
      <trkpt lat="59.9848411" lon="15.8276287">
        <ele>141.6</ele>
        <time>2013-11-20T20:39:58Z</time>
        <extensions><gpxtpx:TrackPointExtension><gpxtpx:hr>142</gpxtpx:hr></gpxtpx:TrackPointExtension></extensions>
      </trkpt>
      <trkpt lat="59.9848415" lon="15.8276291">
        <ele>142.6</ele>
        <time>2013-11-20T20:39:59Z</time>
        <extensions><gpxtpx:TrackPointExtension><gpxtpx:hr>142</gpxtpx:hr></gpxtpx:TrackPointExtension></extensions>
      </trkpt>
      <trkpt lat="59.9848438" lon="15.82763">
        <ele>142.6</ele>
        <time>2013-11-20T20:40:00Z</time>
        <extensions><gpxtpx:TrackPointExtension><gpxtpx:hr>142</gpxtpx:hr></gpxtpx:TrackPointExtension></extensions>
      </trkpt>
      <trkpt lat="59.9848439" lon="15.8276382">
        <ele>142.6</ele>
        <time>2013-11-20T20:40:01Z</time>
        <extensions><gpxtpx:TrackPointExtension><gpxtpx:hr>142</gpxtpx:hr></gpxtpx:TrackPointExtension></extensions>
      </trkpt>
      <trkpt lat="59.9848213" lon="15.8276965">
        <ele>142.6</ele>
        <time>2013-11-20T20:40:02Z</time>
        <extensions><gpxtpx:TrackPointExtension><gpxtpx:hr>142</gpxtpx:hr></gpxtpx:TrackPointExtension></extensions>
      </trkpt>
      <trkpt lat="59.9848093" lon="15.8277149">
        <ele>142.6</ele>
        <time>2013-11-20T20:40:03Z</time>
        <extensions><gpxtpx:TrackPointExtension><gpxtpx:hr>142</gpxtpx:hr></gpxtpx:TrackPointExtension></extensions>
      </trkpt>
      <trkpt lat="59.9848031" lon="15.8277318">
        <ele>142.6</ele>
        <time>2013-11-20T20:40:04Z</time>
        <extensions><gpxtpx:TrackPointExtension><gpxtpx:hr>142</gpxtpx:hr></gpxtpx:TrackPointExtension></extensions>
      </trkpt>
      <trkpt lat="59.9848024" lon="15.8277408">
        <ele>142.6</ele>
        <time>2013-11-20T20:40:05Z</time>
        <extensions><gpxtpx:TrackPointExtension><gpxtpx:hr>141</gpxtpx:hr></gpxtpx:TrackPointExtension></extensions>
      </trkpt>
      <trkpt lat="59.9848083" lon="15.8277633">
        <ele>142.6</ele>
        <time>2013-11-20T20:40:11Z</time>
        <extensions><gpxtpx:TrackPointExtension><gpxtpx:hr>141</gpxtpx:hr></gpxtpx:TrackPointExtension></extensions>
      </trkpt>
      <trkpt lat="59.9848166" lon="15.8277671">
        <ele>142.6</ele>
        <time>2013-11-20T20:40:15Z</time>
        <extensions><gpxtpx:TrackPointExtension><gpxtpx:hr>142</gpxtpx:hr></gpxtpx:TrackPointExtension></extensions>
      </trkpt>
      <trkpt lat="59.9848218" lon="15.8277663">
        <ele>142.6</ele>
        <time>2013-11-20T20:40:16Z</time>
        <extensions><gpxtpx:TrackPointExtension><gpxtpx:hr>142</gpxtpx:hr></gpxtpx:TrackPointExtension></extensions>
      </trkpt>
      <trkpt lat="59.9848204" lon="15.8277561">
        <ele>142.6</ele>
        <time>2013-11-20T20:40:18Z</time>
        <extensions><gpxtpx:TrackPointExtension><gpxtpx:hr>142</gpxtpx:hr></gpxtpx:TrackPointExtension></extensions>
      </trkpt>
      <trkpt lat="59.984822" lon="15.8277517">
        <ele>142.6</ele>
        <time>2013-11-20T20:40:20Z</time>
        <extensions><gpxtpx:TrackPointExtension><gpxtpx:hr>142</gpxtpx:hr></gpxtpx:TrackPointExtension></extensions>
      </trkpt>
      <trkpt lat="59.9848238" lon="15.8277513">
        <ele>142.6</ele>
        <time>2013-11-20T20:40:21Z</time>
        <extensions><gpxtpx:TrackPointExtension><gpxtpx:hr>142</gpxtpx:hr></gpxtpx:TrackPointExtension></extensions>
      </trkpt>
      <trkpt lat="59.9848245" lon="15.8277476">
        <ele>142.6</ele>
        <time>2013-11-20T20:40:22Z</time>
        <extensions><gpxtpx:TrackPointExtension><gpxtpx:hr>142</gpxtpx:hr></gpxtpx:TrackPointExtension></extensions>
      </trkpt>
      <trkpt lat="59.9848309" lon="15.8277495">
        <ele>142.6</ele>
        <time>2013-11-20T20:40:24Z</time>
        <extensions><gpxtpx:TrackPointExtension><gpxtpx:hr>142</gpxtpx:hr></gpxtpx:TrackPointExtension></extensions>
      </trkpt>
      <trkpt lat="59.9848166" lon="15.8277591">
        <ele>142.6</ele>
        <time>2013-11-20T20:40:25Z</time>
        <extensions><gpxtpx:TrackPointExtension><gpxtpx:hr>143</gpxtpx:hr></gpxtpx:TrackPointExtension></extensions>
      </trkpt>
      <trkpt lat="59.9848149" lon="15.8277758">
        <ele>142.6</ele>
        <time>2013-11-20T20:40:26Z</time>
        <extensions><gpxtpx:TrackPointExtension><gpxtpx:hr>143</gpxtpx:hr></gpxtpx:TrackPointExtension></extensions>
      </trkpt>
      <trkpt lat="59.9848143" lon="15.8277861">
        <ele>142.6</ele>
        <time>2013-11-20T20:40:27Z</time>
        <extensions><gpxtpx:TrackPointExtension><gpxtpx:hr>143</gpxtpx:hr></gpxtpx:TrackPointExtension></extensions>
      </trkpt>
      <trkpt lat="59.9847937" lon="15.8277948">
        <ele>142.6</ele>
        <time>2013-11-20T20:40:29Z</time>
        <extensions><gpxtpx:TrackPointExtension><gpxtpx:hr>143</gpxtpx:hr></gpxtpx:TrackPointExtension></extensions>
      </trkpt>
      <trkpt lat="59.9847911" lon="15.8277936">
        <ele>142.6</ele>
        <time>2013-11-20T20:40:30Z</time>
        <extensions><gpxtpx:TrackPointExtension><gpxtpx:hr>144</gpxtpx:hr></gpxtpx:TrackPointExtension></extensions>
      </trkpt>
      <trkpt lat="59.9847941" lon="15.827747">
        <ele>142.6</ele>
        <time>2013-11-20T20:40:35Z</time>
        <extensions><gpxtpx:TrackPointExtension><gpxtpx:hr>145</gpxtpx:hr></gpxtpx:TrackPointExtension></extensions>
      </trkpt>
      <trkpt lat="59.9847933" lon="15.8277232">
        <ele>142.6</ele>
        <time>2013-11-20T20:40:37Z</time>
        <extensions><gpxtpx:TrackPointExtension><gpxtpx:hr>146</gpxtpx:hr></gpxtpx:TrackPointExtension></extensions>
      </trkpt>
      <trkpt lat="59.9847959" lon="15.8277155">
        <ele>142.6</ele>
        <time>2013-11-20T20:40:38Z</time>
        <extensions><gpxtpx:TrackPointExtension><gpxtpx:hr>146</gpxtpx:hr></gpxtpx:TrackPointExtension></extensions>
      </trkpt>
      <trkpt lat="59.9847975" lon="15.8277127">
        <ele>142.6</ele>
        <time>2013-11-20T20:40:39Z</time>
        <extensions><gpxtpx:TrackPointExtension><gpxtpx:hr>147</gpxtpx:hr></gpxtpx:TrackPointExtension></extensions>
      </trkpt>
      <trkpt lat="59.9847977" lon="15.8277091">
        <ele>142.6</ele>
        <time>2013-11-20T20:40:40Z</time>
        <extensions><gpxtpx:TrackPointExtension><gpxtpx:hr>148</gpxtpx:hr></gpxtpx:TrackPointExtension></extensions>
      </trkpt>
      <trkpt lat="59.9847974" lon="15.827705">
        <ele>142.6</ele>
        <time>2013-11-20T20:40:41Z</time>
        <extensions><gpxtpx:TrackPointExtension><gpxtpx:hr>148</gpxtpx:hr></gpxtpx:TrackPointExtension></extensions>
      </trkpt>
      <trkpt lat="59.9847969" lon="15.8276944">
        <ele>142.6</ele>
        <time>2013-11-20T20:40:42Z</time>
        <extensions><gpxtpx:TrackPointExtension><gpxtpx:hr>148</gpxtpx:hr></gpxtpx:TrackPointExtension></extensions>
      </trkpt>
      <trkpt lat="59.9848001" lon="15.8276871">
        <ele>142.6</ele>
        <time>2013-11-20T20:40:43Z</time>
        <extensions><gpxtpx:TrackPointExtension><gpxtpx:hr>149</gpxtpx:hr></gpxtpx:TrackPointExtension></extensions>
      </trkpt>
      <trkpt lat="59.9848024" lon="15.8276844">
        <ele>142.6</ele>
        <time>2013-11-20T20:40:44Z</time>
        <extensions><gpxtpx:TrackPointExtension><gpxtpx:hr>149</gpxtpx:hr></gpxtpx:TrackPointExtension></extensions>
      </trkpt>
      <trkpt lat="59.9848033" lon="15.8276856">
        <ele>142.6</ele>
        <time>2013-11-20T20:40:45Z</time>
        <extensions><gpxtpx:TrackPointExtension><gpxtpx:hr>149</gpxtpx:hr></gpxtpx:TrackPointExtension></extensions>
      </trkpt>
      <trkpt lat="59.9848065" lon="15.8276848">
        <ele>142.6</ele>
        <time>2013-11-20T20:40:46Z</time>
        <extensions><gpxtpx:TrackPointExtension><gpxtpx:hr>149</gpxtpx:hr></gpxtpx:TrackPointExtension></extensions>
      </trkpt>
      <trkpt lat="59.9848006" lon="15.8276913">
        <ele>142.6</ele>
        <time>2013-11-20T20:40:49Z</time>
        <extensions><gpxtpx:TrackPointExtension><gpxtpx:hr>149</gpxtpx:hr></gpxtpx:TrackPointExtension></extensions>
      </trkpt>
      <trkpt lat="59.9848" lon="15.8276914">
        <ele>142.6</ele>
        <time>2013-11-20T20:40:50Z</time>
        <extensions><gpxtpx:TrackPointExtension><gpxtpx:hr>148</gpxtpx:hr></gpxtpx:TrackPointExtension></extensions>
      </trkpt>
      <trkpt lat="59.9848007" lon="15.8276908">
        <ele>142.6</ele>
        <time>2013-11-20T20:40:51Z</time>
        <extensions><gpxtpx:TrackPointExtension><gpxtpx:hr>149</gpxtpx:hr></gpxtpx:TrackPointExtension></extensions>
      </trkpt>
      <trkpt lat="59.9848022" lon="15.8276907">
        <ele>142.6</ele>
        <time>2013-11-20T20:40:52Z</time>
        <extensions><gpxtpx:TrackPointExtension><gpxtpx:hr>149</gpxtpx:hr></gpxtpx:TrackPointExtension></extensions>
      </trkpt>
      <trkpt lat="59.9848024" lon="15.8276896">
        <ele>142.6</ele>
        <time>2013-11-20T20:40:53Z</time>
        <extensions><gpxtpx:TrackPointExtension><gpxtpx:hr>149</gpxtpx:hr></gpxtpx:TrackPointExtension></extensions>
      </trkpt>
      <trkpt lat="59.9848059" lon="15.8276851">
        <ele>142.6</ele>
        <time>2013-11-20T20:40:58Z</time>
        <extensions><gpxtpx:TrackPointExtension><gpxtpx:hr>149</gpxtpx:hr></gpxtpx:TrackPointExtension></extensions>
      </trkpt>
      <trkpt lat="59.9848068" lon="15.8276589">
        <ele>142.6</ele>
        <time>2013-11-20T20:41:01Z</time>
        <extensions><gpxtpx:TrackPointExtension><gpxtpx:hr>150</gpxtpx:hr></gpxtpx:TrackPointExtension></extensions>
      </trkpt>
      <trkpt lat="59.9848108" lon="15.8276607">
        <ele>142.6</ele>
        <time>2013-11-20T20:41:02Z</time>
        <extensions><gpxtpx:TrackPointExtension><gpxtpx:hr>150</gpxtpx:hr></gpxtpx:TrackPointExtension></extensions>
      </trkpt>
      <trkpt lat="59.9848105" lon="15.827669">
        <ele>142.6</ele>
        <time>2013-11-20T20:41:03Z</time>
        <extensions><gpxtpx:TrackPointExtension><gpxtpx:hr>150</gpxtpx:hr></gpxtpx:TrackPointExtension></extensions>
      </trkpt>
      <trkpt lat="59.9848103" lon="15.8276762">
        <ele>142.6</ele>
        <time>2013-11-20T20:41:04Z</time>
        <extensions><gpxtpx:TrackPointExtension><gpxtpx:hr>150</gpxtpx:hr></gpxtpx:TrackPointExtension></extensions>
      </trkpt>
      <trkpt lat="59.9848122" lon="15.8276799">
        <ele>142.6</ele>
        <time>2013-11-20T20:41:05Z</time>
        <extensions><gpxtpx:TrackPointExtension><gpxtpx:hr>150</gpxtpx:hr></gpxtpx:TrackPointExtension></extensions>
      </trkpt>
      <trkpt lat="59.9848115" lon="15.8276819">
        <ele>142.6</ele>
        <time>2013-11-20T20:41:06Z</time>
        <extensions><gpxtpx:TrackPointExtension><gpxtpx:hr>150</gpxtpx:hr></gpxtpx:TrackPointExtension></extensions>
      </trkpt>
      <trkpt lat="59.9848144" lon="15.8276884">
        <ele>142.6</ele>
        <time>2013-11-20T20:41:08Z</time>
        <extensions><gpxtpx:TrackPointExtension><gpxtpx:hr>151</gpxtpx:hr></gpxtpx:TrackPointExtension></extensions>
      </trkpt>
      <trkpt lat="59.9848137" lon="15.8276921">
        <ele>142.6</ele>
        <time>2013-11-20T20:41:09Z</time>
        <extensions><gpxtpx:TrackPointExtension><gpxtpx:hr>151</gpxtpx:hr></gpxtpx:TrackPointExtension></extensions>
      </trkpt>
      <trkpt lat="59.9848067" lon="15.8276944">
        <ele>142.6</ele>
        <time>2013-11-20T20:41:10Z</time>
        <extensions><gpxtpx:TrackPointExtension><gpxtpx:hr>151</gpxtpx:hr></gpxtpx:TrackPointExtension></extensions>
      </trkpt>
      <trkpt lat="59.9847917" lon="15.8277186">
        <ele>142.6</ele>
        <time>2013-11-20T20:41:14Z</time>
        <extensions><gpxtpx:TrackPointExtension><gpxtpx:hr>152</gpxtpx:hr></gpxtpx:TrackPointExtension></extensions>
      </trkpt>
      <trkpt lat="59.9847926" lon="15.8277238">
        <ele>142.6</ele>
        <time>2013-11-20T20:41:15Z</time>
        <extensions><gpxtpx:TrackPointExtension><gpxtpx:hr>152</gpxtpx:hr></gpxtpx:TrackPointExtension></extensions>
      </trkpt>
      <trkpt lat="59.9847931" lon="15.8277262">
        <ele>142.6</ele>
        <time>2013-11-20T20:41:16Z</time>
        <extensions><gpxtpx:TrackPointExtension><gpxtpx:hr>152</gpxtpx:hr></gpxtpx:TrackPointExtension></extensions>
      </trkpt>
      <trkpt lat="59.9847927" lon="15.8277283">
        <ele>142.6</ele>
        <time>2013-11-20T20:41:17Z</time>
        <extensions><gpxtpx:TrackPointExtension><gpxtpx:hr>152</gpxtpx:hr></gpxtpx:TrackPointExtension></extensions>
      </trkpt>
      <trkpt lat="59.9847926" lon="15.8277273">
        <ele>142.6</ele>
        <time>2013-11-20T20:41:18Z</time>
        <extensions><gpxtpx:TrackPointExtension><gpxtpx:hr>152</gpxtpx:hr></gpxtpx:TrackPointExtension></extensions>
      </trkpt>
      <trkpt lat="59.9847942" lon="15.8277248">
        <ele>142.6</ele>
        <time>2013-11-20T20:41:19Z</time>
        <extensions><gpxtpx:TrackPointExtension><gpxtpx:hr>152</gpxtpx:hr></gpxtpx:TrackPointExtension></extensions>
      </trkpt>
      <trkpt lat="59.9847967" lon="15.8277234">
        <ele>142.6</ele>
        <time>2013-11-20T20:41:20Z</time>
        <extensions><gpxtpx:TrackPointExtension><gpxtpx:hr>152</gpxtpx:hr></gpxtpx:TrackPointExtension></extensions>
      </trkpt>
      <trkpt lat="59.9847959" lon="15.8277244">
        <ele>142.6</ele>
        <time>2013-11-20T20:41:21Z</time>
        <extensions><gpxtpx:TrackPointExtension><gpxtpx:hr>152</gpxtpx:hr></gpxtpx:TrackPointExtension></extensions>
      </trkpt>
      <trkpt lat="59.9847946" lon="15.8277294">
        <ele>142.6</ele>
        <time>2013-11-20T20:41:22Z</time>
        <extensions><gpxtpx:TrackPointExtension><gpxtpx:hr>152</gpxtpx:hr></gpxtpx:TrackPointExtension></extensions>
      </trkpt>
      <trkpt lat="59.9848004" lon="15.8277449">
        <ele>142.6</ele>
        <time>2013-11-20T20:41:28Z</time>
        <extensions><gpxtpx:TrackPointExtension><gpxtpx:hr>153</gpxtpx:hr></gpxtpx:TrackPointExtension></extensions>
      </trkpt>
      <trkpt lat="59.984805" lon="15.8277416">
        <ele>142.6</ele>
        <time>2013-11-20T20:41:34Z</time>
        <extensions><gpxtpx:TrackPointExtension><gpxtpx:hr>154</gpxtpx:hr></gpxtpx:TrackPointExtension></extensions>
      </trkpt>
      <trkpt lat="59.9848031" lon="15.8277435">
        <ele>142.6</ele>
        <time>2013-11-20T20:41:35Z</time>
        <extensions><gpxtpx:TrackPointExtension><gpxtpx:hr>154</gpxtpx:hr></gpxtpx:TrackPointExtension></extensions>
      </trkpt>
      <trkpt lat="59.9848012" lon="15.8277459">
        <ele>142.6</ele>
        <time>2013-11-20T20:41:36Z</time>
        <extensions><gpxtpx:TrackPointExtension><gpxtpx:hr>154</gpxtpx:hr></gpxtpx:TrackPointExtension></extensions>
      </trkpt>
      <trkpt lat="59.9848015" lon="15.8277402">
        <ele>142.6</ele>
        <time>2013-11-20T20:41:37Z</time>
        <extensions><gpxtpx:TrackPointExtension><gpxtpx:hr>154</gpxtpx:hr></gpxtpx:TrackPointExtension></extensions>
      </trkpt>
      <trkpt lat="59.9848022" lon="15.8277374">
        <ele>142.6</ele>
        <time>2013-11-20T20:41:38Z</time>
        <extensions><gpxtpx:TrackPointExtension><gpxtpx:hr>154</gpxtpx:hr></gpxtpx:TrackPointExtension></extensions>
      </trkpt>
      <trkpt lat="59.9848032" lon="15.8277355">
        <ele>142.6</ele>
        <time>2013-11-20T20:41:39Z</time>
        <extensions><gpxtpx:TrackPointExtension><gpxtpx:hr>154</gpxtpx:hr></gpxtpx:TrackPointExtension></extensions>
      </trkpt>
      <trkpt lat="59.9848041" lon="15.8277344">
        <ele>142.6</ele>
        <time>2013-11-20T20:41:40Z</time>
        <extensions><gpxtpx:TrackPointExtension><gpxtpx:hr>154</gpxtpx:hr></gpxtpx:TrackPointExtension></extensions>
      </trkpt>
      <trkpt lat="59.9848046" lon="15.8277344">
        <ele>142.6</ele>
        <time>2013-11-20T20:41:41Z</time>
        <extensions><gpxtpx:TrackPointExtension><gpxtpx:hr>154</gpxtpx:hr></gpxtpx:TrackPointExtension></extensions>
      </trkpt>
      <trkpt lat="59.9848046" lon="15.8277346">
        <ele>142.6</ele>
        <time>2013-11-20T20:41:42Z</time>
        <extensions><gpxtpx:TrackPointExtension><gpxtpx:hr>154</gpxtpx:hr></gpxtpx:TrackPointExtension></extensions>
      </trkpt>
      <trkpt lat="59.9848041" lon="15.8277369">
        <ele>142.6</ele>
        <time>2013-11-20T20:41:43Z</time>
        <extensions><gpxtpx:TrackPointExtension><gpxtpx:hr>154</gpxtpx:hr></gpxtpx:TrackPointExtension></extensions>
      </trkpt>
      <trkpt lat="59.9848041" lon="15.8277384">
        <ele>142.6</ele>
        <time>2013-11-20T20:41:44Z</time>
        <extensions><gpxtpx:TrackPointExtension><gpxtpx:hr>154</gpxtpx:hr></gpxtpx:TrackPointExtension></extensions>
      </trkpt>
      <trkpt lat="59.9848031" lon="15.8277451">
        <ele>142.6</ele>
        <time>2013-11-20T20:41:51Z</time>
        <extensions><gpxtpx:TrackPointExtension><gpxtpx:hr>156</gpxtpx:hr></gpxtpx:TrackPointExtension></extensions>
      </trkpt>
      <trkpt lat="59.9848001" lon="15.8277419">
        <ele>142.6</ele>
        <time>2013-11-20T20:41:53Z</time>
        <extensions><gpxtpx:TrackPointExtension><gpxtpx:hr>157</gpxtpx:hr></gpxtpx:TrackPointExtension></extensions>
      </trkpt>
      <trkpt lat="59.9848019" lon="15.8277308">
        <ele>142.6</ele>
        <time>2013-11-20T20:41:54Z</time>
        <extensions><gpxtpx:TrackPointExtension><gpxtpx:hr>158</gpxtpx:hr></gpxtpx:TrackPointExtension></extensions>
      </trkpt>
      <trkpt lat="59.9848009" lon="15.8277208">
        <ele>142.6</ele>
        <time>2013-11-20T20:41:55Z</time>
        <extensions><gpxtpx:TrackPointExtension><gpxtpx:hr>158</gpxtpx:hr></gpxtpx:TrackPointExtension></extensions>
      </trkpt>
      <trkpt lat="59.984803" lon="15.8277106">
        <ele>142.6</ele>
        <time>2013-11-20T20:41:56Z</time>
        <extensions><gpxtpx:TrackPointExtension><gpxtpx:hr>158</gpxtpx:hr></gpxtpx:TrackPointExtension></extensions>
      </trkpt>
      <trkpt lat="59.9848068" lon="15.8277068">
        <ele>142.6</ele>
        <time>2013-11-20T20:41:57Z</time>
        <extensions><gpxtpx:TrackPointExtension><gpxtpx:hr>158</gpxtpx:hr></gpxtpx:TrackPointExtension></extensions>
      </trkpt>
      <trkpt lat="59.9848072" lon="15.8277045">
        <ele>142.6</ele>
        <time>2013-11-20T20:41:58Z</time>
        <extensions><gpxtpx:TrackPointExtension><gpxtpx:hr>158</gpxtpx:hr></gpxtpx:TrackPointExtension></extensions>
      </trkpt>
      <trkpt lat="59.9848081" lon="15.8277009">
        <ele>142.6</ele>
        <time>2013-11-20T20:41:59Z</time>
        <extensions><gpxtpx:TrackPointExtension><gpxtpx:hr>158</gpxtpx:hr></gpxtpx:TrackPointExtension></extensions>
      </trkpt>
      <trkpt lat="59.9848081" lon="15.8276939">
        <ele>142.6</ele>
        <time>2013-11-20T20:42:00Z</time>
        <extensions><gpxtpx:TrackPointExtension><gpxtpx:hr>158</gpxtpx:hr></gpxtpx:TrackPointExtension></extensions>
      </trkpt>
      <trkpt lat="59.9848079" lon="15.8277002">
        <ele>142.6</ele>
        <time>2013-11-20T20:42:01Z</time>
        <extensions><gpxtpx:TrackPointExtension><gpxtpx:hr>158</gpxtpx:hr></gpxtpx:TrackPointExtension></extensions>
      </trkpt>
      <trkpt lat="59.9848064" lon="15.8277157">
        <ele>142.6</ele>
        <time>2013-11-20T20:42:02Z</time>
        <extensions><gpxtpx:TrackPointExtension><gpxtpx:hr>159</gpxtpx:hr></gpxtpx:TrackPointExtension></extensions>
      </trkpt>
      <trkpt lat="59.9848069" lon="15.8277229">
        <ele>142.6</ele>
        <time>2013-11-20T20:42:03Z</time>
        <extensions><gpxtpx:TrackPointExtension><gpxtpx:hr>158</gpxtpx:hr></gpxtpx:TrackPointExtension></extensions>
      </trkpt>
      <trkpt lat="59.9848084" lon="15.8277197">
        <ele>142.6</ele>
        <time>2013-11-20T20:42:04Z</time>
        <extensions><gpxtpx:TrackPointExtension><gpxtpx:hr>159</gpxtpx:hr></gpxtpx:TrackPointExtension></extensions>
      </trkpt>
      <trkpt lat="59.984808" lon="15.8277193">
        <ele>142.6</ele>
        <time>2013-11-20T20:42:05Z</time>
        <extensions><gpxtpx:TrackPointExtension><gpxtpx:hr>159</gpxtpx:hr></gpxtpx:TrackPointExtension></extensions>
      </trkpt>
      <trkpt lat="59.9848037" lon="15.827728">
        <ele>142.6</ele>
        <time>2013-11-20T20:42:06Z</time>
        <extensions><gpxtpx:TrackPointExtension><gpxtpx:hr>159</gpxtpx:hr></gpxtpx:TrackPointExtension></extensions>
      </trkpt>
      <trkpt lat="59.9848012" lon="15.8277333">
        <ele>142.6</ele>
        <time>2013-11-20T20:42:07Z</time>
        <extensions><gpxtpx:TrackPointExtension><gpxtpx:hr>159</gpxtpx:hr></gpxtpx:TrackPointExtension></extensions>
      </trkpt>
      <trkpt lat="59.9848025" lon="15.8277316">
        <ele>142.6</ele>
        <time>2013-11-20T20:42:08Z</time>
        <extensions><gpxtpx:TrackPointExtension><gpxtpx:hr>159</gpxtpx:hr></gpxtpx:TrackPointExtension></extensions>
      </trkpt>
      <trkpt lat="59.9848033" lon="15.8277295">
        <ele>142.6</ele>
        <time>2013-11-20T20:42:09Z</time>
        <extensions><gpxtpx:TrackPointExtension><gpxtpx:hr>159</gpxtpx:hr></gpxtpx:TrackPointExtension></extensions>
      </trkpt>
      <trkpt lat="59.9848043" lon="15.8277263">
        <ele>142.6</ele>
        <time>2013-11-20T20:42:10Z</time>
        <extensions><gpxtpx:TrackPointExtension><gpxtpx:hr>159</gpxtpx:hr></gpxtpx:TrackPointExtension></extensions>
      </trkpt>
      <trkpt lat="59.9848038" lon="15.8277267">
        <ele>142.6</ele>
        <time>2013-11-20T20:42:11Z</time>
        <extensions><gpxtpx:TrackPointExtension><gpxtpx:hr>159</gpxtpx:hr></gpxtpx:TrackPointExtension></extensions>
      </trkpt>
      <trkpt lat="59.9847741" lon="15.8277851">
        <ele>142.6</ele>
        <time>2013-11-20T20:42:12Z</time>
        <extensions><gpxtpx:TrackPointExtension><gpxtpx:hr>159</gpxtpx:hr></gpxtpx:TrackPointExtension></extensions>
      </trkpt>
      <trkpt lat="59.9847691" lon="15.8277913">
        <ele>142.6</ele>
        <time>2013-11-20T20:42:13Z</time>
        <extensions><gpxtpx:TrackPointExtension><gpxtpx:hr>159</gpxtpx:hr></gpxtpx:TrackPointExtension></extensions>
      </trkpt>
      <trkpt lat="59.9847669" lon="15.8277966">
        <ele>142.6</ele>
        <time>2013-11-20T20:42:15Z</time>
        <extensions><gpxtpx:TrackPointExtension><gpxtpx:hr>159</gpxtpx:hr></gpxtpx:TrackPointExtension></extensions>
      </trkpt>
      <trkpt lat="59.9847686" lon="15.8277945">
        <ele>142.6</ele>
        <time>2013-11-20T20:42:16Z</time>
        <extensions><gpxtpx:TrackPointExtension><gpxtpx:hr>160</gpxtpx:hr></gpxtpx:TrackPointExtension></extensions>
      </trkpt>
      <trkpt lat="59.9847692" lon="15.8277948">
        <ele>142.6</ele>
        <time>2013-11-20T20:42:17Z</time>
        <extensions><gpxtpx:TrackPointExtension><gpxtpx:hr>159</gpxtpx:hr></gpxtpx:TrackPointExtension></extensions>
      </trkpt>
      <trkpt lat="59.9847692" lon="15.8277947">
        <ele>142.6</ele>
        <time>2013-11-20T20:42:18Z</time>
        <extensions><gpxtpx:TrackPointExtension><gpxtpx:hr>160</gpxtpx:hr></gpxtpx:TrackPointExtension></extensions>
      </trkpt>
      <trkpt lat="59.9847681" lon="15.8277959">
        <ele>142.6</ele>
        <time>2013-11-20T20:42:19Z</time>
        <extensions><gpxtpx:TrackPointExtension><gpxtpx:hr>159</gpxtpx:hr></gpxtpx:TrackPointExtension></extensions>
      </trkpt>
      <trkpt lat="59.9847662" lon="15.827799">
        <ele>142.6</ele>
        <time>2013-11-20T20:42:20Z</time>
        <extensions><gpxtpx:TrackPointExtension><gpxtpx:hr>159</gpxtpx:hr></gpxtpx:TrackPointExtension></extensions>
      </trkpt>
      <trkpt lat="59.9847655" lon="15.8278001">
        <ele>142.6</ele>
        <time>2013-11-20T20:42:21Z</time>
        <extensions><gpxtpx:TrackPointExtension><gpxtpx:hr>160</gpxtpx:hr></gpxtpx:TrackPointExtension></extensions>
      </trkpt>
      <trkpt lat="59.9847644" lon="15.8278021">
        <ele>142.6</ele>
        <time>2013-11-20T20:42:22Z</time>
        <extensions><gpxtpx:TrackPointExtension><gpxtpx:hr>159</gpxtpx:hr></gpxtpx:TrackPointExtension></extensions>
      </trkpt>
      <trkpt lat="59.984772" lon="15.8277908">
        <ele>142.6</ele>
        <time>2013-11-20T20:42:25Z</time>
        <extensions><gpxtpx:TrackPointExtension><gpxtpx:hr>159</gpxtpx:hr></gpxtpx:TrackPointExtension></extensions>
      </trkpt>
      <trkpt lat="59.9847674" lon="15.8277946">
        <ele>142.6</ele>
        <time>2013-11-20T20:42:26Z</time>
        <extensions><gpxtpx:TrackPointExtension><gpxtpx:hr>159</gpxtpx:hr></gpxtpx:TrackPointExtension></extensions>
      </trkpt>
      <trkpt lat="59.9847772" lon="15.8278028">
        <ele>142.6</ele>
        <time>2013-11-20T20:42:27Z</time>
        <extensions><gpxtpx:TrackPointExtension><gpxtpx:hr>159</gpxtpx:hr></gpxtpx:TrackPointExtension></extensions>
      </trkpt>
      <trkpt lat="59.9847703" lon="15.8278213">
        <ele>142.6</ele>
        <time>2013-11-20T20:42:30Z</time>
        <extensions><gpxtpx:TrackPointExtension><gpxtpx:hr>160</gpxtpx:hr></gpxtpx:TrackPointExtension></extensions>
      </trkpt>
      <trkpt lat="59.9847713" lon="15.8278272">
        <ele>142.6</ele>
        <time>2013-11-20T20:42:31Z</time>
        <extensions><gpxtpx:TrackPointExtension><gpxtpx:hr>159</gpxtpx:hr></gpxtpx:TrackPointExtension></extensions>
      </trkpt>
      <trkpt lat="59.984772" lon="15.8278317">
        <ele>142.6</ele>
        <time>2013-11-20T20:42:32Z</time>
        <extensions><gpxtpx:TrackPointExtension><gpxtpx:hr>160</gpxtpx:hr></gpxtpx:TrackPointExtension></extensions>
      </trkpt>
      <trkpt lat="59.9847717" lon="15.8278313">
        <ele>142.6</ele>
        <time>2013-11-20T20:42:33Z</time>
        <extensions><gpxtpx:TrackPointExtension><gpxtpx:hr>159</gpxtpx:hr></gpxtpx:TrackPointExtension></extensions>
      </trkpt>
      <trkpt lat="59.9847715" lon="15.8278305">
        <ele>142.6</ele>
        <time>2013-11-20T20:42:34Z</time>
        <extensions><gpxtpx:TrackPointExtension><gpxtpx:hr>159</gpxtpx:hr></gpxtpx:TrackPointExtension></extensions>
      </trkpt>
      <trkpt lat="59.9847756" lon="15.8277652">
        <ele>142.6</ele>
        <time>2013-11-20T20:42:40Z</time>
        <extensions><gpxtpx:TrackPointExtension><gpxtpx:hr>160</gpxtpx:hr></gpxtpx:TrackPointExtension></extensions>
      </trkpt>
      <trkpt lat="59.9847673" lon="15.8276997">
        <ele>142.6</ele>
        <time>2013-11-20T20:42:43Z</time>
        <extensions><gpxtpx:TrackPointExtension><gpxtpx:hr>159</gpxtpx:hr></gpxtpx:TrackPointExtension></extensions>
      </trkpt>
      <trkpt lat="59.9847512" lon="15.8276114">
        <ele>142.6</ele>
        <time>2013-11-20T20:42:50Z</time>
        <extensions><gpxtpx:TrackPointExtension><gpxtpx:hr>159</gpxtpx:hr></gpxtpx:TrackPointExtension></extensions>
      </trkpt>
      <trkpt lat="59.9847497" lon="15.8276158">
        <ele>142.6</ele>
        <time>2013-11-20T20:42:51Z</time>
        <extensions><gpxtpx:TrackPointExtension><gpxtpx:hr>159</gpxtpx:hr></gpxtpx:TrackPointExtension></extensions>
      </trkpt>
      <trkpt lat="59.9847487" lon="15.8276066">
        <ele>142.6</ele>
        <time>2013-11-20T20:42:52Z</time>
        <extensions><gpxtpx:TrackPointExtension><gpxtpx:hr>160</gpxtpx:hr></gpxtpx:TrackPointExtension></extensions>
      </trkpt>
      <trkpt lat="59.9847461" lon="15.8276029">
        <ele>142.6</ele>
        <time>2013-11-20T20:42:53Z</time>
        <extensions><gpxtpx:TrackPointExtension><gpxtpx:hr>160</gpxtpx:hr></gpxtpx:TrackPointExtension></extensions>
      </trkpt>
      <trkpt lat="59.9847456" lon="15.8275947">
        <ele>142.6</ele>
        <time>2013-11-20T20:42:54Z</time>
        <extensions><gpxtpx:TrackPointExtension><gpxtpx:hr>160</gpxtpx:hr></gpxtpx:TrackPointExtension></extensions>
      </trkpt>
      <trkpt lat="59.9847445" lon="15.8275872">
        <ele>142.6</ele>
        <time>2013-11-20T20:42:55Z</time>
        <extensions><gpxtpx:TrackPointExtension><gpxtpx:hr>160</gpxtpx:hr></gpxtpx:TrackPointExtension></extensions>
      </trkpt>
      <trkpt lat="59.9847433" lon="15.8275825">
        <ele>142.6</ele>
        <time>2013-11-20T20:42:56Z</time>
        <extensions><gpxtpx:TrackPointExtension><gpxtpx:hr>161</gpxtpx:hr></gpxtpx:TrackPointExtension></extensions>
      </trkpt>
      <trkpt lat="59.9847445" lon="15.8275813">
        <ele>142.6</ele>
        <time>2013-11-20T20:42:57Z</time>
        <extensions><gpxtpx:TrackPointExtension><gpxtpx:hr>161</gpxtpx:hr></gpxtpx:TrackPointExtension></extensions>
      </trkpt>
      <trkpt lat="59.9847535" lon="15.8275988">
        <ele>142.6</ele>
        <time>2013-11-20T20:42:58Z</time>
        <extensions><gpxtpx:TrackPointExtension><gpxtpx:hr>160</gpxtpx:hr></gpxtpx:TrackPointExtension></extensions>
      </trkpt>
      <trkpt lat="59.9847567" lon="15.8275996">
        <ele>142.6</ele>
        <time>2013-11-20T20:42:59Z</time>
        <extensions><gpxtpx:TrackPointExtension><gpxtpx:hr>161</gpxtpx:hr></gpxtpx:TrackPointExtension></extensions>
      </trkpt>
      <trkpt lat="59.9847558" lon="15.8276013">
        <ele>142.6</ele>
        <time>2013-11-20T20:43:00Z</time>
        <extensions><gpxtpx:TrackPointExtension><gpxtpx:hr>161</gpxtpx:hr></gpxtpx:TrackPointExtension></extensions>
      </trkpt>
      <trkpt lat="59.984751" lon="15.8276131">
        <ele>142.6</ele>
        <time>2013-11-20T20:43:01Z</time>
        <extensions><gpxtpx:TrackPointExtension><gpxtpx:hr>161</gpxtpx:hr></gpxtpx:TrackPointExtension></extensions>
      </trkpt>
      <trkpt lat="59.9847392" lon="15.8276594">
        <ele>142.6</ele>
        <time>2013-11-20T20:43:02Z</time>
        <extensions><gpxtpx:TrackPointExtension><gpxtpx:hr>161</gpxtpx:hr></gpxtpx:TrackPointExtension></extensions>
      </trkpt>
      <trkpt lat="59.9847395" lon="15.827675">
        <ele>143.6</ele>
        <time>2013-11-20T20:43:04Z</time>
        <extensions><gpxtpx:TrackPointExtension><gpxtpx:hr>161</gpxtpx:hr></gpxtpx:TrackPointExtension></extensions>
      </trkpt>
      <trkpt lat="59.9847408" lon="15.8276764">
        <ele>143.6</ele>
        <time>2013-11-20T20:43:07Z</time>
        <extensions><gpxtpx:TrackPointExtension><gpxtpx:hr>161</gpxtpx:hr></gpxtpx:TrackPointExtension></extensions>
      </trkpt>
      <trkpt lat="59.9847342" lon="15.8276548">
        <ele>143.6</ele>
        <time>2013-11-20T20:43:10Z</time>
        <extensions><gpxtpx:TrackPointExtension><gpxtpx:hr>161</gpxtpx:hr></gpxtpx:TrackPointExtension></extensions>
      </trkpt>
      <trkpt lat="59.9847345" lon="15.8276509">
        <ele>143.6</ele>
        <time>2013-11-20T20:43:11Z</time>
        <extensions><gpxtpx:TrackPointExtension><gpxtpx:hr>161</gpxtpx:hr></gpxtpx:TrackPointExtension></extensions>
      </trkpt>
      <trkpt lat="59.9847544" lon="15.8276468">
        <ele>143.6</ele>
        <time>2013-11-20T20:43:12Z</time>
        <extensions><gpxtpx:TrackPointExtension><gpxtpx:hr>160</gpxtpx:hr></gpxtpx:TrackPointExtension></extensions>
      </trkpt>
      <trkpt lat="59.9847537" lon="15.8276421">
        <ele>143.6</ele>
        <time>2013-11-20T20:43:13Z</time>
        <extensions><gpxtpx:TrackPointExtension><gpxtpx:hr>161</gpxtpx:hr></gpxtpx:TrackPointExtension></extensions>
      </trkpt>
      <trkpt lat="59.9847523" lon="15.8276328">
        <ele>143.6</ele>
        <time>2013-11-20T20:43:14Z</time>
        <extensions><gpxtpx:TrackPointExtension><gpxtpx:hr>160</gpxtpx:hr></gpxtpx:TrackPointExtension></extensions>
      </trkpt>
      <trkpt lat="59.9847513" lon="15.8276233">
        <ele>143.6</ele>
        <time>2013-11-20T20:43:15Z</time>
        <extensions><gpxtpx:TrackPointExtension><gpxtpx:hr>160</gpxtpx:hr></gpxtpx:TrackPointExtension></extensions>
      </trkpt>
      <trkpt lat="59.9847506" lon="15.8276043">
        <ele>143.6</ele>
        <time>2013-11-20T20:43:16Z</time>
        <extensions><gpxtpx:TrackPointExtension><gpxtpx:hr>160</gpxtpx:hr></gpxtpx:TrackPointExtension></extensions>
      </trkpt>
      <trkpt lat="59.9847564" lon="15.8275972">
        <ele>143.6</ele>
        <time>2013-11-20T20:43:17Z</time>
        <extensions><gpxtpx:TrackPointExtension><gpxtpx:hr>160</gpxtpx:hr></gpxtpx:TrackPointExtension></extensions>
      </trkpt>
      <trkpt lat="59.9847683" lon="15.8276119">
        <ele>143.6</ele>
        <time>2013-11-20T20:43:19Z</time>
        <extensions><gpxtpx:TrackPointExtension><gpxtpx:hr>159</gpxtpx:hr></gpxtpx:TrackPointExtension></extensions>
      </trkpt>
      <trkpt lat="59.9847763" lon="15.8276184">
        <ele>143.6</ele>
        <time>2013-11-20T20:43:20Z</time>
        <extensions><gpxtpx:TrackPointExtension><gpxtpx:hr>158</gpxtpx:hr></gpxtpx:TrackPointExtension></extensions>
      </trkpt>
      <trkpt lat="59.9847792" lon="15.8276163">
        <ele>143.6</ele>
        <time>2013-11-20T20:43:21Z</time>
        <extensions><gpxtpx:TrackPointExtension><gpxtpx:hr>158</gpxtpx:hr></gpxtpx:TrackPointExtension></extensions>
      </trkpt>
      <trkpt lat="59.9847799" lon="15.8276043">
        <ele>143.6</ele>
        <time>2013-11-20T20:43:24Z</time>
        <extensions><gpxtpx:TrackPointExtension><gpxtpx:hr>156</gpxtpx:hr></gpxtpx:TrackPointExtension></extensions>
      </trkpt>
      <trkpt lat="59.9847797" lon="15.8276045">
        <ele>143.6</ele>
        <time>2013-11-20T20:43:25Z</time>
        <extensions><gpxtpx:TrackPointExtension><gpxtpx:hr>156</gpxtpx:hr></gpxtpx:TrackPointExtension></extensions>
      </trkpt>
      <trkpt lat="59.9847701" lon="15.8276457">
        <ele>143.6</ele>
        <time>2013-11-20T20:43:26Z</time>
        <extensions><gpxtpx:TrackPointExtension><gpxtpx:hr>156</gpxtpx:hr></gpxtpx:TrackPointExtension></extensions>
      </trkpt>
      <trkpt lat="59.9847709" lon="15.8276574">
        <ele>143.6</ele>
        <time>2013-11-20T20:43:27Z</time>
        <extensions><gpxtpx:TrackPointExtension><gpxtpx:hr>155</gpxtpx:hr></gpxtpx:TrackPointExtension></extensions>
      </trkpt>
      <trkpt lat="59.9847831" lon="15.8276936">
        <ele>143.6</ele>
        <time>2013-11-20T20:43:33Z</time>
        <extensions><gpxtpx:TrackPointExtension><gpxtpx:hr>155</gpxtpx:hr></gpxtpx:TrackPointExtension></extensions>
      </trkpt>
      <trkpt lat="59.984781" lon="15.8277074">
        <ele>143.6</ele>
        <time>2013-11-20T20:43:34Z</time>
        <extensions><gpxtpx:TrackPointExtension><gpxtpx:hr>156</gpxtpx:hr></gpxtpx:TrackPointExtension></extensions>
      </trkpt>
      <trkpt lat="59.9847805" lon="15.8277211">
        <ele>143.6</ele>
        <time>2013-11-20T20:43:35Z</time>
        <extensions><gpxtpx:TrackPointExtension><gpxtpx:hr>156</gpxtpx:hr></gpxtpx:TrackPointExtension></extensions>
      </trkpt>
      <trkpt lat="59.9847844" lon="15.8277012">
        <ele>143.6</ele>
        <time>2013-11-20T20:43:39Z</time>
        <extensions><gpxtpx:TrackPointExtension><gpxtpx:hr>157</gpxtpx:hr></gpxtpx:TrackPointExtension></extensions>
      </trkpt>
      <trkpt lat="59.9847834" lon="15.8276876">
        <ele>143.6</ele>
        <time>2013-11-20T20:43:40Z</time>
        <extensions><gpxtpx:TrackPointExtension><gpxtpx:hr>157</gpxtpx:hr></gpxtpx:TrackPointExtension></extensions>
      </trkpt>
      <trkpt lat="59.9847696" lon="15.8277074">
        <ele>143.6</ele>
        <time>2013-11-20T20:43:41Z</time>
        <extensions><gpxtpx:TrackPointExtension><gpxtpx:hr>157</gpxtpx:hr></gpxtpx:TrackPointExtension></extensions>
      </trkpt>
      <trkpt lat="59.9847694" lon="15.8276996">
        <ele>143.6</ele>
        <time>2013-11-20T20:43:42Z</time>
        <extensions><gpxtpx:TrackPointExtension><gpxtpx:hr>157</gpxtpx:hr></gpxtpx:TrackPointExtension></extensions>
      </trkpt>
      <trkpt lat="59.9847651" lon="15.8276979">
        <ele>143.6</ele>
        <time>2013-11-20T20:43:43Z</time>
        <extensions><gpxtpx:TrackPointExtension><gpxtpx:hr>157</gpxtpx:hr></gpxtpx:TrackPointExtension></extensions>
      </trkpt>
      <trkpt lat="59.9847658" lon="15.8276879">
        <ele>143.6</ele>
        <time>2013-11-20T20:43:44Z</time>
        <extensions><gpxtpx:TrackPointExtension><gpxtpx:hr>157</gpxtpx:hr></gpxtpx:TrackPointExtension></extensions>
      </trkpt>
      <trkpt lat="59.9847694" lon="15.8276813">
        <ele>143.6</ele>
        <time>2013-11-20T20:43:45Z</time>
        <extensions><gpxtpx:TrackPointExtension><gpxtpx:hr>157</gpxtpx:hr></gpxtpx:TrackPointExtension></extensions>
      </trkpt>
      <trkpt lat="59.98477" lon="15.8276923">
        <ele>143.6</ele>
        <time>2013-11-20T20:43:47Z</time>
        <extensions><gpxtpx:TrackPointExtension><gpxtpx:hr>157</gpxtpx:hr></gpxtpx:TrackPointExtension></extensions>
      </trkpt>
      <trkpt lat="59.9847694" lon="15.8276994">
        <ele>143.6</ele>
        <time>2013-11-20T20:43:48Z</time>
        <extensions><gpxtpx:TrackPointExtension><gpxtpx:hr>157</gpxtpx:hr></gpxtpx:TrackPointExtension></extensions>
      </trkpt>
      <trkpt lat="59.9847717" lon="15.8277032">
        <ele>143.6</ele>
        <time>2013-11-20T20:43:49Z</time>
        <extensions><gpxtpx:TrackPointExtension><gpxtpx:hr>157</gpxtpx:hr></gpxtpx:TrackPointExtension></extensions>
      </trkpt>
      <trkpt lat="59.9847725" lon="15.827707">
        <ele>143.6</ele>
        <time>2013-11-20T20:43:50Z</time>
        <extensions><gpxtpx:TrackPointExtension><gpxtpx:hr>157</gpxtpx:hr></gpxtpx:TrackPointExtension></extensions>
      </trkpt>
      <trkpt lat="59.9847751" lon="15.8277108">
        <ele>143.6</ele>
        <time>2013-11-20T20:43:52Z</time>
        <extensions><gpxtpx:TrackPointExtension><gpxtpx:hr>157</gpxtpx:hr></gpxtpx:TrackPointExtension></extensions>
      </trkpt>
      <trkpt lat="59.9847823" lon="15.8277281">
        <ele>143.6</ele>
        <time>2013-11-20T20:43:54Z</time>
        <extensions><gpxtpx:TrackPointExtension><gpxtpx:hr>157</gpxtpx:hr></gpxtpx:TrackPointExtension></extensions>
      </trkpt>
      <trkpt lat="59.9847828" lon="15.8277421">
        <ele>143.6</ele>
        <time>2013-11-20T20:43:55Z</time>
        <extensions><gpxtpx:TrackPointExtension><gpxtpx:hr>157</gpxtpx:hr></gpxtpx:TrackPointExtension></extensions>
      </trkpt>
      <trkpt lat="59.9847827" lon="15.8277548">
        <ele>143.6</ele>
        <time>2013-11-20T20:43:56Z</time>
        <extensions><gpxtpx:TrackPointExtension><gpxtpx:hr>157</gpxtpx:hr></gpxtpx:TrackPointExtension></extensions>
      </trkpt>
      <trkpt lat="59.9847856" lon="15.82777">
        <ele>143.6</ele>
        <time>2013-11-20T20:43:58Z</time>
        <extensions><gpxtpx:TrackPointExtension><gpxtpx:hr>156</gpxtpx:hr></gpxtpx:TrackPointExtension></extensions>
      </trkpt>
      <trkpt lat="59.9847872" lon="15.8277777">
        <ele>143.6</ele>
        <time>2013-11-20T20:43:59Z</time>
        <extensions><gpxtpx:TrackPointExtension><gpxtpx:hr>157</gpxtpx:hr></gpxtpx:TrackPointExtension></extensions>
      </trkpt>
      <trkpt lat="59.9847906" lon="15.8278001">
        <ele>143.6</ele>
        <time>2013-11-20T20:44:02Z</time>
        <extensions><gpxtpx:TrackPointExtension><gpxtpx:hr>155</gpxtpx:hr></gpxtpx:TrackPointExtension></extensions>
      </trkpt>
      <trkpt lat="59.9847922" lon="15.8278091">
        <ele>143.6</ele>
        <time>2013-11-20T20:44:07Z</time>
        <extensions><gpxtpx:TrackPointExtension><gpxtpx:hr>153</gpxtpx:hr></gpxtpx:TrackPointExtension></extensions>
      </trkpt>
      <trkpt lat="59.9847922" lon="15.8278096">
        <ele>143.6</ele>
        <time>2013-11-20T20:44:08Z</time>
        <extensions><gpxtpx:TrackPointExtension><gpxtpx:hr>152</gpxtpx:hr></gpxtpx:TrackPointExtension></extensions>
      </trkpt>
      <trkpt lat="59.9847918" lon="15.8278041">
        <ele>143.6</ele>
        <time>2013-11-20T20:44:09Z</time>
        <extensions><gpxtpx:TrackPointExtension><gpxtpx:hr>152</gpxtpx:hr></gpxtpx:TrackPointExtension></extensions>
      </trkpt>
      <trkpt lat="59.9847903" lon="15.8277954">
        <ele>143.6</ele>
        <time>2013-11-20T20:44:10Z</time>
        <extensions><gpxtpx:TrackPointExtension><gpxtpx:hr>152</gpxtpx:hr></gpxtpx:TrackPointExtension></extensions>
      </trkpt>
      <trkpt lat="59.984791" lon="15.8277923">
        <ele>143.6</ele>
        <time>2013-11-20T20:44:11Z</time>
        <extensions><gpxtpx:TrackPointExtension><gpxtpx:hr>151</gpxtpx:hr></gpxtpx:TrackPointExtension></extensions>
      </trkpt>
      <trkpt lat="59.9847975" lon="15.8277889">
        <ele>143.6</ele>
        <time>2013-11-20T20:44:13Z</time>
        <extensions><gpxtpx:TrackPointExtension><gpxtpx:hr>151</gpxtpx:hr></gpxtpx:TrackPointExtension></extensions>
      </trkpt>
      <trkpt lat="59.984802" lon="15.8277865">
        <ele>143.6</ele>
        <time>2013-11-20T20:44:14Z</time>
        <extensions><gpxtpx:TrackPointExtension><gpxtpx:hr>151</gpxtpx:hr></gpxtpx:TrackPointExtension></extensions>
      </trkpt>
      <trkpt lat="59.9848124" lon="15.8277763">
        <ele>143.6</ele>
        <time>2013-11-20T20:44:16Z</time>
        <extensions><gpxtpx:TrackPointExtension><gpxtpx:hr>151</gpxtpx:hr></gpxtpx:TrackPointExtension></extensions>
      </trkpt>
      <trkpt lat="59.9848163" lon="15.8277711">
        <ele>143.6</ele>
        <time>2013-11-20T20:44:17Z</time>
        <extensions><gpxtpx:TrackPointExtension><gpxtpx:hr>150</gpxtpx:hr></gpxtpx:TrackPointExtension></extensions>
      </trkpt>
      <trkpt lat="59.9848152" lon="15.827663">
        <ele>143.6</ele>
        <time>2013-11-20T20:44:21Z</time>
        <extensions><gpxtpx:TrackPointExtension><gpxtpx:hr>151</gpxtpx:hr></gpxtpx:TrackPointExtension></extensions>
      </trkpt>
      <trkpt lat="59.9848223" lon="15.8276424">
        <ele>143.6</ele>
        <time>2013-11-20T20:44:24Z</time>
        <extensions><gpxtpx:TrackPointExtension><gpxtpx:hr>150</gpxtpx:hr></gpxtpx:TrackPointExtension></extensions>
      </trkpt>
      <trkpt lat="59.9847948" lon="15.8276655">
        <ele>143.6</ele>
        <time>2013-11-20T20:44:29Z</time>
        <extensions><gpxtpx:TrackPointExtension><gpxtpx:hr>148</gpxtpx:hr></gpxtpx:TrackPointExtension></extensions>
      </trkpt>
      <trkpt lat="59.9847875" lon="15.8276764">
        <ele>143.6</ele>
        <time>2013-11-20T20:44:30Z</time>
        <extensions><gpxtpx:TrackPointExtension><gpxtpx:hr>148</gpxtpx:hr></gpxtpx:TrackPointExtension></extensions>
      </trkpt>
      <trkpt lat="59.9847821" lon="15.8276884">
        <ele>143.6</ele>
        <time>2013-11-20T20:44:31Z</time>
        <extensions><gpxtpx:TrackPointExtension><gpxtpx:hr>149</gpxtpx:hr></gpxtpx:TrackPointExtension></extensions>
      </trkpt>
      <trkpt lat="59.9847799" lon="15.8276961">
        <ele>143.6</ele>
        <time>2013-11-20T20:44:32Z</time>
        <extensions><gpxtpx:TrackPointExtension><gpxtpx:hr>149</gpxtpx:hr></gpxtpx:TrackPointExtension></extensions>
      </trkpt>
      <trkpt lat="59.9847812" lon="15.8276968">
        <ele>143.6</ele>
        <time>2013-11-20T20:44:33Z</time>
        <extensions><gpxtpx:TrackPointExtension><gpxtpx:hr>149</gpxtpx:hr></gpxtpx:TrackPointExtension></extensions>
      </trkpt>
      <trkpt lat="59.9847871" lon="15.8276928">
        <ele>143.6</ele>
        <time>2013-11-20T20:44:34Z</time>
        <extensions><gpxtpx:TrackPointExtension><gpxtpx:hr>149</gpxtpx:hr></gpxtpx:TrackPointExtension></extensions>
      </trkpt>
      <trkpt lat="59.9847917" lon="15.8276877">
        <ele>143.6</ele>
        <time>2013-11-20T20:44:35Z</time>
        <extensions><gpxtpx:TrackPointExtension><gpxtpx:hr>149</gpxtpx:hr></gpxtpx:TrackPointExtension></extensions>
      </trkpt>
      <trkpt lat="59.984794" lon="15.8276806">
        <ele>143.6</ele>
        <time>2013-11-20T20:44:36Z</time>
        <extensions><gpxtpx:TrackPointExtension><gpxtpx:hr>149</gpxtpx:hr></gpxtpx:TrackPointExtension></extensions>
      </trkpt>
      <trkpt lat="59.9847951" lon="15.8276809">
        <ele>143.6</ele>
        <time>2013-11-20T20:44:37Z</time>
        <extensions><gpxtpx:TrackPointExtension><gpxtpx:hr>150</gpxtpx:hr></gpxtpx:TrackPointExtension></extensions>
      </trkpt>
      <trkpt lat="59.9847931" lon="15.8276804">
        <ele>143.6</ele>
        <time>2013-11-20T20:44:39Z</time>
        <extensions><gpxtpx:TrackPointExtension><gpxtpx:hr>150</gpxtpx:hr></gpxtpx:TrackPointExtension></extensions>
      </trkpt>
      <trkpt lat="59.9847935" lon="15.8276818">
        <ele>143.6</ele>
        <time>2013-11-20T20:44:40Z</time>
        <extensions><gpxtpx:TrackPointExtension><gpxtpx:hr>150</gpxtpx:hr></gpxtpx:TrackPointExtension></extensions>
      </trkpt>
      <trkpt lat="59.9847922" lon="15.8276847">
        <ele>143.6</ele>
        <time>2013-11-20T20:44:41Z</time>
        <extensions><gpxtpx:TrackPointExtension><gpxtpx:hr>150</gpxtpx:hr></gpxtpx:TrackPointExtension></extensions>
      </trkpt>
      <trkpt lat="59.9847896" lon="15.8276871">
        <ele>143.6</ele>
        <time>2013-11-20T20:44:42Z</time>
        <extensions><gpxtpx:TrackPointExtension><gpxtpx:hr>150</gpxtpx:hr></gpxtpx:TrackPointExtension></extensions>
      </trkpt>
      <trkpt lat="59.9847863" lon="15.8276942">
        <ele>143.6</ele>
        <time>2013-11-20T20:44:43Z</time>
        <extensions><gpxtpx:TrackPointExtension><gpxtpx:hr>150</gpxtpx:hr></gpxtpx:TrackPointExtension></extensions>
      </trkpt>
      <trkpt lat="59.984753" lon="15.8277348">
        <ele>143.6</ele>
        <time>2013-11-20T20:44:44Z</time>
        <extensions><gpxtpx:TrackPointExtension><gpxtpx:hr>150</gpxtpx:hr></gpxtpx:TrackPointExtension></extensions>
      </trkpt>
      <trkpt lat="59.9847464" lon="15.8277426">
        <ele>143.6</ele>
        <time>2013-11-20T20:44:48Z</time>
        <extensions><gpxtpx:TrackPointExtension><gpxtpx:hr>150</gpxtpx:hr></gpxtpx:TrackPointExtension></extensions>
      </trkpt>
      <trkpt lat="59.9847504" lon="15.8277405">
        <ele>143.6</ele>
        <time>2013-11-20T20:44:49Z</time>
        <extensions><gpxtpx:TrackPointExtension><gpxtpx:hr>151</gpxtpx:hr></gpxtpx:TrackPointExtension></extensions>
      </trkpt>
      <trkpt lat="59.9847549" lon="15.8277366">
        <ele>143.6</ele>
        <time>2013-11-20T20:44:50Z</time>
        <extensions><gpxtpx:TrackPointExtension><gpxtpx:hr>150</gpxtpx:hr></gpxtpx:TrackPointExtension></extensions>
      </trkpt>
      <trkpt lat="59.9847584" lon="15.8277324">
        <ele>143.6</ele>
        <time>2013-11-20T20:44:51Z</time>
        <extensions><gpxtpx:TrackPointExtension><gpxtpx:hr>151</gpxtpx:hr></gpxtpx:TrackPointExtension></extensions>
      </trkpt>
      <trkpt lat="59.9847611" lon="15.8277303">
        <ele>143.6</ele>
        <time>2013-11-20T20:44:52Z</time>
        <extensions><gpxtpx:TrackPointExtension><gpxtpx:hr>151</gpxtpx:hr></gpxtpx:TrackPointExtension></extensions>
      </trkpt>
      <trkpt lat="59.984772" lon="15.8277276">
        <ele>143.6</ele>
        <time>2013-11-20T20:44:53Z</time>
        <extensions><gpxtpx:TrackPointExtension><gpxtpx:hr>151</gpxtpx:hr></gpxtpx:TrackPointExtension></extensions>
      </trkpt>
      <trkpt lat="59.9847868" lon="15.8277106">
        <ele>143.6</ele>
        <time>2013-11-20T20:44:55Z</time>
        <extensions><gpxtpx:TrackPointExtension><gpxtpx:hr>151</gpxtpx:hr></gpxtpx:TrackPointExtension></extensions>
      </trkpt>
      <trkpt lat="59.9848079" lon="15.8276847">
        <ele>143.6</ele>
        <time>2013-11-20T20:44:57Z</time>
        <extensions><gpxtpx:TrackPointExtension><gpxtpx:hr>151</gpxtpx:hr></gpxtpx:TrackPointExtension></extensions>
      </trkpt>
      <trkpt lat="59.9848142" lon="15.8276769">
        <ele>143.6</ele>
        <time>2013-11-20T20:44:58Z</time>
        <extensions><gpxtpx:TrackPointExtension><gpxtpx:hr>151</gpxtpx:hr></gpxtpx:TrackPointExtension></extensions>
      </trkpt>
      <trkpt lat="59.9848154" lon="15.8276746">
        <ele>143.6</ele>
        <time>2013-11-20T20:44:59Z</time>
        <extensions><gpxtpx:TrackPointExtension><gpxtpx:hr>151</gpxtpx:hr></gpxtpx:TrackPointExtension></extensions>
      </trkpt>
      <trkpt lat="59.9848193" lon="15.8276718">
        <ele>143.6</ele>
        <time>2013-11-20T20:45:00Z</time>
        <extensions><gpxtpx:TrackPointExtension><gpxtpx:hr>151</gpxtpx:hr></gpxtpx:TrackPointExtension></extensions>
      </trkpt>
      <trkpt lat="59.9848258" lon="15.8276672">
        <ele>143.6</ele>
        <time>2013-11-20T20:45:02Z</time>
        <extensions><gpxtpx:TrackPointExtension><gpxtpx:hr>151</gpxtpx:hr></gpxtpx:TrackPointExtension></extensions>
      </trkpt>
      <trkpt lat="59.9848234" lon="15.8276689">
        <ele>143.6</ele>
        <time>2013-11-20T20:45:07Z</time>
        <extensions><gpxtpx:TrackPointExtension><gpxtpx:hr>150</gpxtpx:hr></gpxtpx:TrackPointExtension></extensions>
      </trkpt>
      <trkpt lat="59.9848185" lon="15.8276649">
        <ele>143.6</ele>
        <time>2013-11-20T20:45:08Z</time>
        <extensions><gpxtpx:TrackPointExtension><gpxtpx:hr>150</gpxtpx:hr></gpxtpx:TrackPointExtension></extensions>
      </trkpt>
      <trkpt lat="59.9848198" lon="15.8276629">
        <ele>143.6</ele>
        <time>2013-11-20T20:45:09Z</time>
        <extensions><gpxtpx:TrackPointExtension><gpxtpx:hr>150</gpxtpx:hr></gpxtpx:TrackPointExtension></extensions>
      </trkpt>
      <trkpt lat="59.9848221" lon="15.8276592">
        <ele>143.6</ele>
        <time>2013-11-20T20:45:10Z</time>
        <extensions><gpxtpx:TrackPointExtension><gpxtpx:hr>150</gpxtpx:hr></gpxtpx:TrackPointExtension></extensions>
      </trkpt>
      <trkpt lat="59.9848266" lon="15.827654">
        <ele>143.6</ele>
        <time>2013-11-20T20:45:11Z</time>
        <extensions><gpxtpx:TrackPointExtension><gpxtpx:hr>150</gpxtpx:hr></gpxtpx:TrackPointExtension></extensions>
      </trkpt>
      <trkpt lat="59.9848307" lon="15.8276506">
        <ele>143.6</ele>
        <time>2013-11-20T20:45:12Z</time>
        <extensions><gpxtpx:TrackPointExtension><gpxtpx:hr>150</gpxtpx:hr></gpxtpx:TrackPointExtension></extensions>
      </trkpt>
      <trkpt lat="59.9848296" lon="15.8276535">
        <ele>143.6</ele>
        <time>2013-11-20T20:45:13Z</time>
        <extensions><gpxtpx:TrackPointExtension><gpxtpx:hr>150</gpxtpx:hr></gpxtpx:TrackPointExtension></extensions>
      </trkpt>
      <trkpt lat="59.9848295" lon="15.8276552">
        <ele>143.6</ele>
        <time>2013-11-20T20:45:14Z</time>
        <extensions><gpxtpx:TrackPointExtension><gpxtpx:hr>151</gpxtpx:hr></gpxtpx:TrackPointExtension></extensions>
      </trkpt>
      <trkpt lat="59.9848258" lon="15.8276601">
        <ele>143.6</ele>
        <time>2013-11-20T20:45:16Z</time>
        <extensions><gpxtpx:TrackPointExtension><gpxtpx:hr>151</gpxtpx:hr></gpxtpx:TrackPointExtension></extensions>
      </trkpt>
      <trkpt lat="59.9848191" lon="15.8276816">
        <ele>143.6</ele>
        <time>2013-11-20T20:45:22Z</time>
        <extensions><gpxtpx:TrackPointExtension><gpxtpx:hr>151</gpxtpx:hr></gpxtpx:TrackPointExtension></extensions>
      </trkpt>
      <trkpt lat="59.9848248" lon="15.8276925">
        <ele>143.6</ele>
        <time>2013-11-20T20:45:28Z</time>
        <extensions><gpxtpx:TrackPointExtension><gpxtpx:hr>152</gpxtpx:hr></gpxtpx:TrackPointExtension></extensions>
      </trkpt>
      <trkpt lat="59.984825" lon="15.8276949">
        <ele>143.6</ele>
        <time>2013-11-20T20:45:29Z</time>
        <extensions><gpxtpx:TrackPointExtension><gpxtpx:hr>151</gpxtpx:hr></gpxtpx:TrackPointExtension></extensions>
      </trkpt>
      <trkpt lat="59.9848225" lon="15.8276987">
        <ele>143.6</ele>
        <time>2013-11-20T20:45:30Z</time>
        <extensions><gpxtpx:TrackPointExtension><gpxtpx:hr>151</gpxtpx:hr></gpxtpx:TrackPointExtension></extensions>
      </trkpt>
      <trkpt lat="59.9848182" lon="15.8277065">
        <ele>143.6</ele>
        <time>2013-11-20T20:45:32Z</time>
        <extensions><gpxtpx:TrackPointExtension><gpxtpx:hr>150</gpxtpx:hr></gpxtpx:TrackPointExtension></extensions>
      </trkpt>
      <trkpt lat="59.9848155" lon="15.8277124">
        <ele>143.6</ele>
        <time>2013-11-20T20:45:33Z</time>
        <extensions><gpxtpx:TrackPointExtension><gpxtpx:hr>150</gpxtpx:hr></gpxtpx:TrackPointExtension></extensions>
      </trkpt>
      <trkpt lat="59.9847725" lon="15.8277819">
        <ele>143.6</ele>
        <time>2013-11-20T20:45:35Z</time>
        <extensions><gpxtpx:TrackPointExtension><gpxtpx:hr>151</gpxtpx:hr></gpxtpx:TrackPointExtension></extensions>
      </trkpt>
      <trkpt lat="59.9847718" lon="15.8277888">
        <ele>143.6</ele>
        <time>2013-11-20T20:45:37Z</time>
        <extensions><gpxtpx:TrackPointExtension><gpxtpx:hr>151</gpxtpx:hr></gpxtpx:TrackPointExtension></extensions>
      </trkpt>
      <trkpt lat="59.9847728" lon="15.8277835">
        <ele>143.6</ele>
        <time>2013-11-20T20:45:38Z</time>
        <extensions><gpxtpx:TrackPointExtension><gpxtpx:hr>151</gpxtpx:hr></gpxtpx:TrackPointExtension></extensions>
      </trkpt>
      <trkpt lat="59.9847747" lon="15.8277813">
        <ele>143.6</ele>
        <time>2013-11-20T20:45:39Z</time>
        <extensions><gpxtpx:TrackPointExtension><gpxtpx:hr>151</gpxtpx:hr></gpxtpx:TrackPointExtension></extensions>
      </trkpt>
      <trkpt lat="59.9847771" lon="15.8277829">
        <ele>143.6</ele>
        <time>2013-11-20T20:45:40Z</time>
        <extensions><gpxtpx:TrackPointExtension><gpxtpx:hr>151</gpxtpx:hr></gpxtpx:TrackPointExtension></extensions>
      </trkpt>
      <trkpt lat="59.9847858" lon="15.8277762">
        <ele>143.6</ele>
        <time>2013-11-20T20:45:41Z</time>
        <extensions><gpxtpx:TrackPointExtension><gpxtpx:hr>152</gpxtpx:hr></gpxtpx:TrackPointExtension></extensions>
      </trkpt>
      <trkpt lat="59.9848005" lon="15.8277605">
        <ele>143.6</ele>
        <time>2013-11-20T20:45:43Z</time>
        <extensions><gpxtpx:TrackPointExtension><gpxtpx:hr>152</gpxtpx:hr></gpxtpx:TrackPointExtension></extensions>
      </trkpt>
      <trkpt lat="59.9848034" lon="15.8277571">
        <ele>143.6</ele>
        <time>2013-11-20T20:45:44Z</time>
        <extensions><gpxtpx:TrackPointExtension><gpxtpx:hr>152</gpxtpx:hr></gpxtpx:TrackPointExtension></extensions>
      </trkpt>
      <trkpt lat="59.9848" lon="15.8277607">
        <ele>143.6</ele>
        <time>2013-11-20T20:45:45Z</time>
        <extensions><gpxtpx:TrackPointExtension><gpxtpx:hr>152</gpxtpx:hr></gpxtpx:TrackPointExtension></extensions>
      </trkpt>
      <trkpt lat="59.984784" lon="15.8277734">
        <ele>143.6</ele>
        <time>2013-11-20T20:45:46Z</time>
        <extensions><gpxtpx:TrackPointExtension><gpxtpx:hr>153</gpxtpx:hr></gpxtpx:TrackPointExtension></extensions>
      </trkpt>
      <trkpt lat="59.9847689" lon="15.8277888">
        <ele>143.6</ele>
        <time>2013-11-20T20:45:47Z</time>
        <extensions><gpxtpx:TrackPointExtension><gpxtpx:hr>152</gpxtpx:hr></gpxtpx:TrackPointExtension></extensions>
      </trkpt>
      <trkpt lat="59.9847549" lon="15.8278026">
        <ele>143.6</ele>
        <time>2013-11-20T20:45:48Z</time>
        <extensions><gpxtpx:TrackPointExtension><gpxtpx:hr>153</gpxtpx:hr></gpxtpx:TrackPointExtension></extensions>
      </trkpt>
      <trkpt lat="59.9847426" lon="15.8278146">
        <ele>143.6</ele>
        <time>2013-11-20T20:45:49Z</time>
        <extensions><gpxtpx:TrackPointExtension><gpxtpx:hr>153</gpxtpx:hr></gpxtpx:TrackPointExtension></extensions>
      </trkpt>
      <trkpt lat="59.9847348" lon="15.8278187">
        <ele>143.6</ele>
        <time>2013-11-20T20:45:50Z</time>
        <extensions><gpxtpx:TrackPointExtension><gpxtpx:hr>153</gpxtpx:hr></gpxtpx:TrackPointExtension></extensions>
      </trkpt>
      <trkpt lat="59.9847227" lon="15.8278306">
        <ele>143.6</ele>
        <time>2013-11-20T20:45:52Z</time>
        <extensions><gpxtpx:TrackPointExtension><gpxtpx:hr>153</gpxtpx:hr></gpxtpx:TrackPointExtension></extensions>
      </trkpt>
      <trkpt lat="59.9847104" lon="15.8278473">
        <ele>143.6</ele>
        <time>2013-11-20T20:45:55Z</time>
        <extensions><gpxtpx:TrackPointExtension><gpxtpx:hr>153</gpxtpx:hr></gpxtpx:TrackPointExtension></extensions>
      </trkpt>
      <trkpt lat="59.9847093" lon="15.8278512">
        <ele>143.6</ele>
        <time>2013-11-20T20:45:56Z</time>
        <extensions><gpxtpx:TrackPointExtension><gpxtpx:hr>152</gpxtpx:hr></gpxtpx:TrackPointExtension></extensions>
      </trkpt>
      <trkpt lat="59.9847137" lon="15.8278515">
        <ele>143.6</ele>
        <time>2013-11-20T20:45:59Z</time>
        <extensions><gpxtpx:TrackPointExtension><gpxtpx:hr>152</gpxtpx:hr></gpxtpx:TrackPointExtension></extensions>
      </trkpt>
      <trkpt lat="59.9847103" lon="15.8278553">
        <ele>143.6</ele>
        <time>2013-11-20T20:46:01Z</time>
        <extensions><gpxtpx:TrackPointExtension><gpxtpx:hr>152</gpxtpx:hr></gpxtpx:TrackPointExtension></extensions>
      </trkpt>
      <trkpt lat="59.9846943" lon="15.8278751">
        <ele>143.6</ele>
        <time>2013-11-20T20:46:02Z</time>
        <extensions><gpxtpx:TrackPointExtension><gpxtpx:hr>152</gpxtpx:hr></gpxtpx:TrackPointExtension></extensions>
      </trkpt>
      <trkpt lat="59.9846776" lon="15.8278944">
        <ele>143.6</ele>
        <time>2013-11-20T20:46:04Z</time>
        <extensions><gpxtpx:TrackPointExtension><gpxtpx:hr>153</gpxtpx:hr></gpxtpx:TrackPointExtension></extensions>
      </trkpt>
      <trkpt lat="59.9846721" lon="15.8278981">
        <ele>143.6</ele>
        <time>2013-11-20T20:46:05Z</time>
        <extensions><gpxtpx:TrackPointExtension><gpxtpx:hr>153</gpxtpx:hr></gpxtpx:TrackPointExtension></extensions>
      </trkpt>
      <trkpt lat="59.9846696" lon="15.8278965">
        <ele>143.6</ele>
        <time>2013-11-20T20:46:06Z</time>
        <extensions><gpxtpx:TrackPointExtension><gpxtpx:hr>153</gpxtpx:hr></gpxtpx:TrackPointExtension></extensions>
      </trkpt>
      <trkpt lat="59.9846694" lon="15.8278971">
        <ele>143.6</ele>
        <time>2013-11-20T20:46:07Z</time>
        <extensions><gpxtpx:TrackPointExtension><gpxtpx:hr>153</gpxtpx:hr></gpxtpx:TrackPointExtension></extensions>
      </trkpt>
      <trkpt lat="59.9846902" lon="15.8278802">
        <ele>143.6</ele>
        <time>2013-11-20T20:46:08Z</time>
        <extensions><gpxtpx:TrackPointExtension><gpxtpx:hr>153</gpxtpx:hr></gpxtpx:TrackPointExtension></extensions>
      </trkpt>
      <trkpt lat="59.984705" lon="15.8278691">
        <ele>143.6</ele>
        <time>2013-11-20T20:46:09Z</time>
        <extensions><gpxtpx:TrackPointExtension><gpxtpx:hr>153</gpxtpx:hr></gpxtpx:TrackPointExtension></extensions>
      </trkpt>
      <trkpt lat="59.9847096" lon="15.8278677">
        <ele>143.6</ele>
        <time>2013-11-20T20:46:10Z</time>
        <extensions><gpxtpx:TrackPointExtension><gpxtpx:hr>152</gpxtpx:hr></gpxtpx:TrackPointExtension></extensions>
      </trkpt>
      <trkpt lat="59.9847142" lon="15.8278794">
        <ele>143.6</ele>
        <time>2013-11-20T20:46:14Z</time>
        <extensions><gpxtpx:TrackPointExtension><gpxtpx:hr>153</gpxtpx:hr></gpxtpx:TrackPointExtension></extensions>
      </trkpt>
      <trkpt lat="59.9847326" lon="15.8279436">
        <ele>143.6</ele>
        <time>2013-11-20T20:46:16Z</time>
        <extensions><gpxtpx:TrackPointExtension><gpxtpx:hr>154</gpxtpx:hr></gpxtpx:TrackPointExtension></extensions>
      </trkpt>
      <trkpt lat="59.9847343" lon="15.8279726">
        <ele>143.6</ele>
        <time>2013-11-20T20:46:17Z</time>
        <extensions><gpxtpx:TrackPointExtension><gpxtpx:hr>154</gpxtpx:hr></gpxtpx:TrackPointExtension></extensions>
      </trkpt>
      <trkpt lat="59.9847161" lon="15.8279667">
        <ele>143.6</ele>
        <time>2013-11-20T20:46:20Z</time>
        <extensions><gpxtpx:TrackPointExtension><gpxtpx:hr>155</gpxtpx:hr></gpxtpx:TrackPointExtension></extensions>
      </trkpt>
      <trkpt lat="59.9847128" lon="15.8279636">
        <ele>143.6</ele>
        <time>2013-11-20T20:46:21Z</time>
        <extensions><gpxtpx:TrackPointExtension><gpxtpx:hr>155</gpxtpx:hr></gpxtpx:TrackPointExtension></extensions>
      </trkpt>
      <trkpt lat="59.9847115" lon="15.8279568">
        <ele>143.6</ele>
        <time>2013-11-20T20:46:22Z</time>
        <extensions><gpxtpx:TrackPointExtension><gpxtpx:hr>155</gpxtpx:hr></gpxtpx:TrackPointExtension></extensions>
      </trkpt>
      <trkpt lat="59.9847112" lon="15.8279502">
        <ele>143.6</ele>
        <time>2013-11-20T20:46:23Z</time>
        <extensions><gpxtpx:TrackPointExtension><gpxtpx:hr>155</gpxtpx:hr></gpxtpx:TrackPointExtension></extensions>
      </trkpt>
      <trkpt lat="59.9847105" lon="15.8279474">
        <ele>143.6</ele>
        <time>2013-11-20T20:46:25Z</time>
        <extensions><gpxtpx:TrackPointExtension><gpxtpx:hr>155</gpxtpx:hr></gpxtpx:TrackPointExtension></extensions>
      </trkpt>
      <trkpt lat="59.9847128" lon="15.8279454">
        <ele>143.6</ele>
        <time>2013-11-20T20:46:28Z</time>
        <extensions><gpxtpx:TrackPointExtension><gpxtpx:hr>155</gpxtpx:hr></gpxtpx:TrackPointExtension></extensions>
      </trkpt>
      <trkpt lat="59.9847164" lon="15.8279447">
        <ele>143.6</ele>
        <time>2013-11-20T20:46:29Z</time>
        <extensions><gpxtpx:TrackPointExtension><gpxtpx:hr>156</gpxtpx:hr></gpxtpx:TrackPointExtension></extensions>
      </trkpt>
      <trkpt lat="59.9847309" lon="15.8278924">
        <ele>143.6</ele>
        <time>2013-11-20T20:46:30Z</time>
        <extensions><gpxtpx:TrackPointExtension><gpxtpx:hr>156</gpxtpx:hr></gpxtpx:TrackPointExtension></extensions>
      </trkpt>
      <trkpt lat="59.9847366" lon="15.8278847">
        <ele>143.6</ele>
        <time>2013-11-20T20:46:31Z</time>
        <extensions><gpxtpx:TrackPointExtension><gpxtpx:hr>155</gpxtpx:hr></gpxtpx:TrackPointExtension></extensions>
      </trkpt>
      <trkpt lat="59.9847435" lon="15.8278731">
        <ele>143.6</ele>
        <time>2013-11-20T20:46:32Z</time>
        <extensions><gpxtpx:TrackPointExtension><gpxtpx:hr>156</gpxtpx:hr></gpxtpx:TrackPointExtension></extensions>
      </trkpt>
      <trkpt lat="59.9847488" lon="15.8278655">
        <ele>143.6</ele>
        <time>2013-11-20T20:46:33Z</time>
        <extensions><gpxtpx:TrackPointExtension><gpxtpx:hr>155</gpxtpx:hr></gpxtpx:TrackPointExtension></extensions>
      </trkpt>
      <trkpt lat="59.9847505" lon="15.8278643">
        <ele>143.6</ele>
        <time>2013-11-20T20:46:34Z</time>
        <extensions><gpxtpx:TrackPointExtension><gpxtpx:hr>155</gpxtpx:hr></gpxtpx:TrackPointExtension></extensions>
      </trkpt>
      <trkpt lat="59.984753" lon="15.8278635">
        <ele>143.6</ele>
        <time>2013-11-20T20:46:35Z</time>
        <extensions><gpxtpx:TrackPointExtension><gpxtpx:hr>155</gpxtpx:hr></gpxtpx:TrackPointExtension></extensions>
      </trkpt>
      <trkpt lat="59.9847532" lon="15.8278652">
        <ele>143.6</ele>
        <time>2013-11-20T20:46:36Z</time>
        <extensions><gpxtpx:TrackPointExtension><gpxtpx:hr>155</gpxtpx:hr></gpxtpx:TrackPointExtension></extensions>
      </trkpt>
      <trkpt lat="59.9847555" lon="15.8278648">
        <ele>143.6</ele>
        <time>2013-11-20T20:46:37Z</time>
        <extensions><gpxtpx:TrackPointExtension><gpxtpx:hr>155</gpxtpx:hr></gpxtpx:TrackPointExtension></extensions>
      </trkpt>
      <trkpt lat="59.9847741" lon="15.8278374">
        <ele>143.6</ele>
        <time>2013-11-20T20:46:38Z</time>
        <extensions><gpxtpx:TrackPointExtension><gpxtpx:hr>155</gpxtpx:hr></gpxtpx:TrackPointExtension></extensions>
      </trkpt>
      <trkpt lat="59.984788" lon="15.8278336">
        <ele>143.6</ele>
        <time>2013-11-20T20:46:43Z</time>
        <extensions><gpxtpx:TrackPointExtension><gpxtpx:hr>155</gpxtpx:hr></gpxtpx:TrackPointExtension></extensions>
      </trkpt>
      <trkpt lat="59.9847859" lon="15.827834">
        <ele>143.6</ele>
        <time>2013-11-20T20:46:44Z</time>
        <extensions><gpxtpx:TrackPointExtension><gpxtpx:hr>155</gpxtpx:hr></gpxtpx:TrackPointExtension></extensions>
      </trkpt>
      <trkpt lat="59.984785" lon="15.8278349">
        <ele>143.6</ele>
        <time>2013-11-20T20:46:45Z</time>
        <extensions><gpxtpx:TrackPointExtension><gpxtpx:hr>155</gpxtpx:hr></gpxtpx:TrackPointExtension></extensions>
      </trkpt>
      <trkpt lat="59.9847822" lon="15.8278389">
        <ele>143.6</ele>
        <time>2013-11-20T20:46:46Z</time>
        <extensions><gpxtpx:TrackPointExtension><gpxtpx:hr>155</gpxtpx:hr></gpxtpx:TrackPointExtension></extensions>
      </trkpt>
      <trkpt lat="59.984773" lon="15.8278483">
        <ele>143.6</ele>
        <time>2013-11-20T20:46:48Z</time>
        <extensions><gpxtpx:TrackPointExtension><gpxtpx:hr>155</gpxtpx:hr></gpxtpx:TrackPointExtension></extensions>
      </trkpt>
      <trkpt lat="59.9847694" lon="15.8278524">
        <ele>143.6</ele>
        <time>2013-11-20T20:46:49Z</time>
        <extensions><gpxtpx:TrackPointExtension><gpxtpx:hr>155</gpxtpx:hr></gpxtpx:TrackPointExtension></extensions>
      </trkpt>
      <trkpt lat="59.9847633" lon="15.8278583">
        <ele>143.6</ele>
        <time>2013-11-20T20:46:50Z</time>
        <extensions><gpxtpx:TrackPointExtension><gpxtpx:hr>155</gpxtpx:hr></gpxtpx:TrackPointExtension></extensions>
      </trkpt>
      <trkpt lat="59.9847612" lon="15.8278607">
        <ele>143.6</ele>
        <time>2013-11-20T20:46:51Z</time>
        <extensions><gpxtpx:TrackPointExtension><gpxtpx:hr>155</gpxtpx:hr></gpxtpx:TrackPointExtension></extensions>
      </trkpt>
      <trkpt lat="59.9847602" lon="15.8278627">
        <ele>143.6</ele>
        <time>2013-11-20T20:46:52Z</time>
        <extensions><gpxtpx:TrackPointExtension><gpxtpx:hr>155</gpxtpx:hr></gpxtpx:TrackPointExtension></extensions>
      </trkpt>
      <trkpt lat="59.9847271" lon="15.8278527">
        <ele>143.6</ele>
        <time>2013-11-20T20:46:55Z</time>
        <extensions><gpxtpx:TrackPointExtension><gpxtpx:hr>155</gpxtpx:hr></gpxtpx:TrackPointExtension></extensions>
      </trkpt>
      <trkpt lat="59.9847125" lon="15.8278661">
        <ele>143.6</ele>
        <time>2013-11-20T20:46:56Z</time>
        <extensions><gpxtpx:TrackPointExtension><gpxtpx:hr>156</gpxtpx:hr></gpxtpx:TrackPointExtension></extensions>
      </trkpt>
      <trkpt lat="59.9846834" lon="15.827891">
        <ele>143.6</ele>
        <time>2013-11-20T20:46:58Z</time>
        <extensions><gpxtpx:TrackPointExtension><gpxtpx:hr>156</gpxtpx:hr></gpxtpx:TrackPointExtension></extensions>
      </trkpt>
      <trkpt lat="59.9846725" lon="15.8279011">
        <ele>143.6</ele>
        <time>2013-11-20T20:46:59Z</time>
        <extensions><gpxtpx:TrackPointExtension><gpxtpx:hr>156</gpxtpx:hr></gpxtpx:TrackPointExtension></extensions>
      </trkpt>
      <trkpt lat="59.98467" lon="15.8279009">
        <ele>143.6</ele>
        <time>2013-11-20T20:47:00Z</time>
        <extensions><gpxtpx:TrackPointExtension><gpxtpx:hr>156</gpxtpx:hr></gpxtpx:TrackPointExtension></extensions>
      </trkpt>
      <trkpt lat="59.9846694" lon="15.827901">
        <ele>143.6</ele>
        <time>2013-11-20T20:47:01Z</time>
        <extensions><gpxtpx:TrackPointExtension><gpxtpx:hr>156</gpxtpx:hr></gpxtpx:TrackPointExtension></extensions>
      </trkpt>
      <trkpt lat="59.9846803" lon="15.82789">
        <ele>143.6</ele>
        <time>2013-11-20T20:47:03Z</time>
        <extensions><gpxtpx:TrackPointExtension><gpxtpx:hr>156</gpxtpx:hr></gpxtpx:TrackPointExtension></extensions>
      </trkpt>
      <trkpt lat="59.9846865" lon="15.8278899">
        <ele>143.6</ele>
        <time>2013-11-20T20:47:05Z</time>
        <extensions><gpxtpx:TrackPointExtension><gpxtpx:hr>156</gpxtpx:hr></gpxtpx:TrackPointExtension></extensions>
      </trkpt>
      <trkpt lat="59.9846861" lon="15.8278892">
        <ele>143.6</ele>
        <time>2013-11-20T20:47:06Z</time>
        <extensions><gpxtpx:TrackPointExtension><gpxtpx:hr>156</gpxtpx:hr></gpxtpx:TrackPointExtension></extensions>
      </trkpt>
      <trkpt lat="59.9846786" lon="15.8279025">
        <ele>143.6</ele>
        <time>2013-11-20T20:47:09Z</time>
        <extensions><gpxtpx:TrackPointExtension><gpxtpx:hr>156</gpxtpx:hr></gpxtpx:TrackPointExtension></extensions>
      </trkpt>
      <trkpt lat="59.9846881" lon="15.8278923">
        <ele>143.6</ele>
        <time>2013-11-20T20:47:10Z</time>
        <extensions><gpxtpx:TrackPointExtension><gpxtpx:hr>156</gpxtpx:hr></gpxtpx:TrackPointExtension></extensions>
      </trkpt>
      <trkpt lat="59.9846795" lon="15.8279067">
        <ele>143.6</ele>
        <time>2013-11-20T20:47:13Z</time>
        <extensions><gpxtpx:TrackPointExtension><gpxtpx:hr>156</gpxtpx:hr></gpxtpx:TrackPointExtension></extensions>
      </trkpt>
      <trkpt lat="59.9846725" lon="15.8279053">
        <ele>143.6</ele>
        <time>2013-11-20T20:47:14Z</time>
        <extensions><gpxtpx:TrackPointExtension><gpxtpx:hr>156</gpxtpx:hr></gpxtpx:TrackPointExtension></extensions>
      </trkpt>
      <trkpt lat="59.9846627" lon="15.8278953">
        <ele>143.6</ele>
        <time>2013-11-20T20:47:15Z</time>
        <extensions><gpxtpx:TrackPointExtension><gpxtpx:hr>157</gpxtpx:hr></gpxtpx:TrackPointExtension></extensions>
      </trkpt>
      <trkpt lat="59.9846582" lon="15.8278462">
        <ele>143.6</ele>
        <time>2013-11-20T20:47:20Z</time>
        <extensions><gpxtpx:TrackPointExtension><gpxtpx:hr>156</gpxtpx:hr></gpxtpx:TrackPointExtension></extensions>
      </trkpt>
      <trkpt lat="59.9846585" lon="15.8278403">
        <ele>143.6</ele>
        <time>2013-11-20T20:47:21Z</time>
        <extensions><gpxtpx:TrackPointExtension><gpxtpx:hr>156</gpxtpx:hr></gpxtpx:TrackPointExtension></extensions>
      </trkpt>
      <trkpt lat="59.984657" lon="15.8278343">
        <ele>143.6</ele>
        <time>2013-11-20T20:47:22Z</time>
        <extensions><gpxtpx:TrackPointExtension><gpxtpx:hr>156</gpxtpx:hr></gpxtpx:TrackPointExtension></extensions>
      </trkpt>
      <trkpt lat="59.9846583" lon="15.8278286">
        <ele>143.6</ele>
        <time>2013-11-20T20:47:23Z</time>
        <extensions><gpxtpx:TrackPointExtension><gpxtpx:hr>156</gpxtpx:hr></gpxtpx:TrackPointExtension></extensions>
      </trkpt>
      <trkpt lat="59.9846575" lon="15.8278165">
        <ele>143.6</ele>
        <time>2013-11-20T20:47:24Z</time>
        <extensions><gpxtpx:TrackPointExtension><gpxtpx:hr>156</gpxtpx:hr></gpxtpx:TrackPointExtension></extensions>
      </trkpt>
      <trkpt lat="59.98466" lon="15.8278037">
        <ele>143.6</ele>
        <time>2013-11-20T20:47:25Z</time>
        <extensions><gpxtpx:TrackPointExtension><gpxtpx:hr>156</gpxtpx:hr></gpxtpx:TrackPointExtension></extensions>
      </trkpt>
      <trkpt lat="59.9847109" lon="15.827764">
        <ele>143.6</ele>
        <time>2013-11-20T20:47:26Z</time>
        <extensions><gpxtpx:TrackPointExtension><gpxtpx:hr>156</gpxtpx:hr></gpxtpx:TrackPointExtension></extensions>
      </trkpt>
      <trkpt lat="59.9847553" lon="15.8277329">
        <ele>143.6</ele>
        <time>2013-11-20T20:47:32Z</time>
        <extensions><gpxtpx:TrackPointExtension><gpxtpx:hr>157</gpxtpx:hr></gpxtpx:TrackPointExtension></extensions>
      </trkpt>
      <trkpt lat="59.9847803" lon="15.8277439">
        <ele>143.4</ele>
        <time>2013-11-20T20:47:37Z</time>
        <extensions><gpxtpx:TrackPointExtension><gpxtpx:hr>158</gpxtpx:hr></gpxtpx:TrackPointExtension></extensions>
      </trkpt>
      <trkpt lat="59.9847786" lon="15.8277439">
        <ele>143.6</ele>
        <time>2013-11-20T20:47:38Z</time>
        <extensions><gpxtpx:TrackPointExtension><gpxtpx:hr>157</gpxtpx:hr></gpxtpx:TrackPointExtension></extensions>
      </trkpt>
      <trkpt lat="59.9847755" lon="15.8277464">
        <ele>143.6</ele>
        <time>2013-11-20T20:47:39Z</time>
        <extensions><gpxtpx:TrackPointExtension><gpxtpx:hr>157</gpxtpx:hr></gpxtpx:TrackPointExtension></extensions>
      </trkpt>
      <trkpt lat="59.9847717" lon="15.8277527">
        <ele>143.6</ele>
        <time>2013-11-20T20:47:40Z</time>
        <extensions><gpxtpx:TrackPointExtension><gpxtpx:hr>157</gpxtpx:hr></gpxtpx:TrackPointExtension></extensions>
      </trkpt>
      <trkpt lat="59.9847574" lon="15.8277719">
        <ele>143.6</ele>
        <time>2013-11-20T20:47:41Z</time>
        <extensions><gpxtpx:TrackPointExtension><gpxtpx:hr>157</gpxtpx:hr></gpxtpx:TrackPointExtension></extensions>
      </trkpt>
      <trkpt lat="59.9847481" lon="15.8277891">
        <ele>143.6</ele>
        <time>2013-11-20T20:47:42Z</time>
        <extensions><gpxtpx:TrackPointExtension><gpxtpx:hr>157</gpxtpx:hr></gpxtpx:TrackPointExtension></extensions>
      </trkpt>
      <trkpt lat="59.9847454" lon="15.8278031">
        <ele>143.6</ele>
        <time>2013-11-20T20:47:43Z</time>
        <extensions><gpxtpx:TrackPointExtension><gpxtpx:hr>156</gpxtpx:hr></gpxtpx:TrackPointExtension></extensions>
      </trkpt>
      <trkpt lat="59.9847345" lon="15.827822">
        <ele>143.6</ele>
        <time>2013-11-20T20:47:44Z</time>
        <extensions><gpxtpx:TrackPointExtension><gpxtpx:hr>156</gpxtpx:hr></gpxtpx:TrackPointExtension></extensions>
      </trkpt>
      <trkpt lat="59.9847202" lon="15.8278359">
        <ele>143.6</ele>
        <time>2013-11-20T20:47:45Z</time>
        <extensions><gpxtpx:TrackPointExtension><gpxtpx:hr>156</gpxtpx:hr></gpxtpx:TrackPointExtension></extensions>
      </trkpt>
      <trkpt lat="59.9847061" lon="15.8278548">
        <ele>143.6</ele>
        <time>2013-11-20T20:47:46Z</time>
        <extensions><gpxtpx:TrackPointExtension><gpxtpx:hr>156</gpxtpx:hr></gpxtpx:TrackPointExtension></extensions>
      </trkpt>
      <trkpt lat="59.9846907" lon="15.8278739">
        <ele>143.6</ele>
        <time>2013-11-20T20:47:47Z</time>
        <extensions><gpxtpx:TrackPointExtension><gpxtpx:hr>157</gpxtpx:hr></gpxtpx:TrackPointExtension></extensions>
      </trkpt>
      <trkpt lat="59.9846714" lon="15.8278947">
        <ele>143.6</ele>
        <time>2013-11-20T20:47:48Z</time>
        <extensions><gpxtpx:TrackPointExtension><gpxtpx:hr>156</gpxtpx:hr></gpxtpx:TrackPointExtension></extensions>
      </trkpt>
      <trkpt lat="59.9846513" lon="15.8278995">
        <ele>143.6</ele>
        <time>2013-11-20T20:47:49Z</time>
        <extensions><gpxtpx:TrackPointExtension><gpxtpx:hr>157</gpxtpx:hr></gpxtpx:TrackPointExtension></extensions>
      </trkpt>
      <trkpt lat="59.9846393" lon="15.827899">
        <ele>143.6</ele>
        <time>2013-11-20T20:47:50Z</time>
        <extensions><gpxtpx:TrackPointExtension><gpxtpx:hr>157</gpxtpx:hr></gpxtpx:TrackPointExtension></extensions>
      </trkpt>
      <trkpt lat="59.9846427" lon="15.827898">
        <ele>143.6</ele>
        <time>2013-11-20T20:47:51Z</time>
        <extensions><gpxtpx:TrackPointExtension><gpxtpx:hr>157</gpxtpx:hr></gpxtpx:TrackPointExtension></extensions>
      </trkpt>
      <trkpt lat="59.9846369" lon="15.8278999">
        <ele>143.6</ele>
        <time>2013-11-20T20:47:52Z</time>
        <extensions><gpxtpx:TrackPointExtension><gpxtpx:hr>157</gpxtpx:hr></gpxtpx:TrackPointExtension></extensions>
      </trkpt>
      <trkpt lat="59.9846351" lon="15.8278964">
        <ele>144.6</ele>
        <time>2013-11-20T20:47:53Z</time>
        <extensions><gpxtpx:TrackPointExtension><gpxtpx:hr>157</gpxtpx:hr></gpxtpx:TrackPointExtension></extensions>
      </trkpt>
      <trkpt lat="59.9846332" lon="15.8278851">
        <ele>144.6</ele>
        <time>2013-11-20T20:47:54Z</time>
        <extensions><gpxtpx:TrackPointExtension><gpxtpx:hr>157</gpxtpx:hr></gpxtpx:TrackPointExtension></extensions>
      </trkpt>
      <trkpt lat="59.9846285" lon="15.8278578">
        <ele>144.6</ele>
        <time>2013-11-20T20:47:57Z</time>
        <extensions><gpxtpx:TrackPointExtension><gpxtpx:hr>157</gpxtpx:hr></gpxtpx:TrackPointExtension></extensions>
      </trkpt>
      <trkpt lat="59.9846231" lon="15.8278533">
        <ele>144.6</ele>
        <time>2013-11-20T20:47:58Z</time>
        <extensions><gpxtpx:TrackPointExtension><gpxtpx:hr>158</gpxtpx:hr></gpxtpx:TrackPointExtension></extensions>
      </trkpt>
      <trkpt lat="59.9846679" lon="15.8278064">
        <ele>144.6</ele>
        <time>2013-11-20T20:47:59Z</time>
        <extensions><gpxtpx:TrackPointExtension><gpxtpx:hr>158</gpxtpx:hr></gpxtpx:TrackPointExtension></extensions>
      </trkpt>
      <trkpt lat="59.9846478" lon="15.8278174">
        <ele>144.6</ele>
        <time>2013-11-20T20:48:00Z</time>
        <extensions><gpxtpx:TrackPointExtension><gpxtpx:hr>158</gpxtpx:hr></gpxtpx:TrackPointExtension></extensions>
      </trkpt>
      <trkpt lat="59.9846213" lon="15.8278345">
        <ele>144.6</ele>
        <time>2013-11-20T20:48:01Z</time>
        <extensions><gpxtpx:TrackPointExtension><gpxtpx:hr>158</gpxtpx:hr></gpxtpx:TrackPointExtension></extensions>
      </trkpt>
      <trkpt lat="59.9845985" lon="15.827856">
        <ele>144.6</ele>
        <time>2013-11-20T20:48:02Z</time>
        <extensions><gpxtpx:TrackPointExtension><gpxtpx:hr>158</gpxtpx:hr></gpxtpx:TrackPointExtension></extensions>
      </trkpt>
      <trkpt lat="59.9845632" lon="15.8278909">
        <ele>144.6</ele>
        <time>2013-11-20T20:48:04Z</time>
        <extensions><gpxtpx:TrackPointExtension><gpxtpx:hr>158</gpxtpx:hr></gpxtpx:TrackPointExtension></extensions>
      </trkpt>
      <trkpt lat="59.9845517" lon="15.8279063">
        <ele>144.6</ele>
        <time>2013-11-20T20:48:05Z</time>
        <extensions><gpxtpx:TrackPointExtension><gpxtpx:hr>158</gpxtpx:hr></gpxtpx:TrackPointExtension></extensions>
      </trkpt>
      <trkpt lat="59.9845428" lon="15.8279221">
        <ele>144.6</ele>
        <time>2013-11-20T20:48:06Z</time>
        <extensions><gpxtpx:TrackPointExtension><gpxtpx:hr>158</gpxtpx:hr></gpxtpx:TrackPointExtension></extensions>
      </trkpt>
      <trkpt lat="59.9845329" lon="15.8279263">
        <ele>144.6</ele>
        <time>2013-11-20T20:48:07Z</time>
        <extensions><gpxtpx:TrackPointExtension><gpxtpx:hr>158</gpxtpx:hr></gpxtpx:TrackPointExtension></extensions>
      </trkpt>
      <trkpt lat="59.9845294" lon="15.8279353">
        <ele>144.6</ele>
        <time>2013-11-20T20:48:08Z</time>
        <extensions><gpxtpx:TrackPointExtension><gpxtpx:hr>158</gpxtpx:hr></gpxtpx:TrackPointExtension></extensions>
      </trkpt>
      <trkpt lat="59.9845238" lon="15.8279407">
        <ele>144.6</ele>
        <time>2013-11-20T20:48:09Z</time>
        <extensions><gpxtpx:TrackPointExtension><gpxtpx:hr>158</gpxtpx:hr></gpxtpx:TrackPointExtension></extensions>
      </trkpt>
      <trkpt lat="59.9845187" lon="15.827943">
        <ele>144.6</ele>
        <time>2013-11-20T20:48:10Z</time>
        <extensions><gpxtpx:TrackPointExtension><gpxtpx:hr>158</gpxtpx:hr></gpxtpx:TrackPointExtension></extensions>
      </trkpt>
      <trkpt lat="59.98451" lon="15.8279432">
        <ele>144.6</ele>
        <time>2013-11-20T20:48:12Z</time>
        <extensions><gpxtpx:TrackPointExtension><gpxtpx:hr>158</gpxtpx:hr></gpxtpx:TrackPointExtension></extensions>
      </trkpt>
      <trkpt lat="59.9845082" lon="15.8279594">
        <ele>144.6</ele>
        <time>2013-11-20T20:48:14Z</time>
        <extensions><gpxtpx:TrackPointExtension><gpxtpx:hr>158</gpxtpx:hr></gpxtpx:TrackPointExtension></extensions>
      </trkpt>
      <trkpt lat="59.9845057" lon="15.827966">
        <ele>144.6</ele>
        <time>2013-11-20T20:48:15Z</time>
        <extensions><gpxtpx:TrackPointExtension><gpxtpx:hr>159</gpxtpx:hr></gpxtpx:TrackPointExtension></extensions>
      </trkpt>
      <trkpt lat="59.984504" lon="15.827969">
        <ele>144.6</ele>
        <time>2013-11-20T20:48:16Z</time>
        <extensions><gpxtpx:TrackPointExtension><gpxtpx:hr>158</gpxtpx:hr></gpxtpx:TrackPointExtension></extensions>
      </trkpt>
      <trkpt lat="59.9845051" lon="15.8279629">
        <ele>144.6</ele>
        <time>2013-11-20T20:48:17Z</time>
        <extensions><gpxtpx:TrackPointExtension><gpxtpx:hr>159</gpxtpx:hr></gpxtpx:TrackPointExtension></extensions>
      </trkpt>
      <trkpt lat="59.9845078" lon="15.8279762">
        <ele>144.6</ele>
        <time>2013-11-20T20:48:23Z</time>
        <extensions><gpxtpx:TrackPointExtension><gpxtpx:hr>157</gpxtpx:hr></gpxtpx:TrackPointExtension></extensions>
      </trkpt>
      <trkpt lat="59.9846586" lon="15.8278377">
        <ele>144.6</ele>
        <time>2013-11-20T20:48:26Z</time>
        <extensions><gpxtpx:TrackPointExtension><gpxtpx:hr>157</gpxtpx:hr></gpxtpx:TrackPointExtension></extensions>
      </trkpt>
      <trkpt lat="59.984659" lon="15.8278348">
        <ele>144.6</ele>
        <time>2013-11-20T20:48:27Z</time>
        <extensions><gpxtpx:TrackPointExtension><gpxtpx:hr>157</gpxtpx:hr></gpxtpx:TrackPointExtension></extensions>
      </trkpt>
      <trkpt lat="59.9846622" lon="15.8278363">
        <ele>144.6</ele>
        <time>2013-11-20T20:48:29Z</time>
        <extensions><gpxtpx:TrackPointExtension><gpxtpx:hr>157</gpxtpx:hr></gpxtpx:TrackPointExtension></extensions>
      </trkpt>
      <trkpt lat="59.9846643" lon="15.8278327">
        <ele>144.6</ele>
        <time>2013-11-20T20:48:30Z</time>
        <extensions><gpxtpx:TrackPointExtension><gpxtpx:hr>157</gpxtpx:hr></gpxtpx:TrackPointExtension></extensions>
      </trkpt>
      <trkpt lat="59.9846989" lon="15.8277939">
        <ele>144.6</ele>
        <time>2013-11-20T20:48:31Z</time>
        <extensions><gpxtpx:TrackPointExtension><gpxtpx:hr>157</gpxtpx:hr></gpxtpx:TrackPointExtension></extensions>
      </trkpt>
      <trkpt lat="59.9847095" lon="15.8277812">
        <ele>144.6</ele>
        <time>2013-11-20T20:48:33Z</time>
        <extensions><gpxtpx:TrackPointExtension><gpxtpx:hr>157</gpxtpx:hr></gpxtpx:TrackPointExtension></extensions>
      </trkpt>
      <trkpt lat="59.9847139" lon="15.8277767">
        <ele>144.6</ele>
        <time>2013-11-20T20:48:34Z</time>
        <extensions><gpxtpx:TrackPointExtension><gpxtpx:hr>158</gpxtpx:hr></gpxtpx:TrackPointExtension></extensions>
      </trkpt>
      <trkpt lat="59.9847159" lon="15.8277752">
        <ele>144.6</ele>
        <time>2013-11-20T20:48:35Z</time>
        <extensions><gpxtpx:TrackPointExtension><gpxtpx:hr>157</gpxtpx:hr></gpxtpx:TrackPointExtension></extensions>
      </trkpt>
      <trkpt lat="59.9847128" lon="15.8277803">
        <ele>144.6</ele>
        <time>2013-11-20T20:48:36Z</time>
        <extensions><gpxtpx:TrackPointExtension><gpxtpx:hr>157</gpxtpx:hr></gpxtpx:TrackPointExtension></extensions>
      </trkpt>
      <trkpt lat="59.9847082" lon="15.8277887">
        <ele>144.6</ele>
        <time>2013-11-20T20:48:37Z</time>
        <extensions><gpxtpx:TrackPointExtension><gpxtpx:hr>157</gpxtpx:hr></gpxtpx:TrackPointExtension></extensions>
      </trkpt>
      <trkpt lat="59.984701" lon="15.8278061">
        <ele>144.6</ele>
        <time>2013-11-20T20:48:38Z</time>
        <extensions><gpxtpx:TrackPointExtension><gpxtpx:hr>157</gpxtpx:hr></gpxtpx:TrackPointExtension></extensions>
      </trkpt>
      <trkpt lat="59.9846913" lon="15.8278079">
        <ele>144.6</ele>
        <time>2013-11-20T20:48:39Z</time>
        <extensions><gpxtpx:TrackPointExtension><gpxtpx:hr>157</gpxtpx:hr></gpxtpx:TrackPointExtension></extensions>
      </trkpt>
      <trkpt lat="59.9846865" lon="15.827813">
        <ele>144.6</ele>
        <time>2013-11-20T20:48:40Z</time>
        <extensions><gpxtpx:TrackPointExtension><gpxtpx:hr>157</gpxtpx:hr></gpxtpx:TrackPointExtension></extensions>
      </trkpt>
      <trkpt lat="59.9846864" lon="15.8278178">
        <ele>144.6</ele>
        <time>2013-11-20T20:48:41Z</time>
        <extensions><gpxtpx:TrackPointExtension><gpxtpx:hr>157</gpxtpx:hr></gpxtpx:TrackPointExtension></extensions>
      </trkpt>
      <trkpt lat="59.9846851" lon="15.8278125">
        <ele>144.6</ele>
        <time>2013-11-20T20:48:42Z</time>
        <extensions><gpxtpx:TrackPointExtension><gpxtpx:hr>157</gpxtpx:hr></gpxtpx:TrackPointExtension></extensions>
      </trkpt>
      <trkpt lat="59.9846992" lon="15.8277902">
        <ele>144.6</ele>
        <time>2013-11-20T20:48:43Z</time>
        <extensions><gpxtpx:TrackPointExtension><gpxtpx:hr>157</gpxtpx:hr></gpxtpx:TrackPointExtension></extensions>
      </trkpt>
      <trkpt lat="59.9847077" lon="15.8277845">
        <ele>144.6</ele>
        <time>2013-11-20T20:48:44Z</time>
        <extensions><gpxtpx:TrackPointExtension><gpxtpx:hr>157</gpxtpx:hr></gpxtpx:TrackPointExtension></extensions>
      </trkpt>
      <trkpt lat="59.9847393" lon="15.8277633">
        <ele>144.6</ele>
        <time>2013-11-20T20:48:48Z</time>
        <extensions><gpxtpx:TrackPointExtension><gpxtpx:hr>157</gpxtpx:hr></gpxtpx:TrackPointExtension></extensions>
      </trkpt>
      <trkpt lat="59.9847476" lon="15.8277608">
        <ele>144.6</ele>
        <time>2013-11-20T20:48:51Z</time>
        <extensions><gpxtpx:TrackPointExtension><gpxtpx:hr>158</gpxtpx:hr></gpxtpx:TrackPointExtension></extensions>
      </trkpt>
      <trkpt lat="59.9847481" lon="15.827757">
        <ele>144.6</ele>
        <time>2013-11-20T20:48:53Z</time>
        <extensions><gpxtpx:TrackPointExtension><gpxtpx:hr>158</gpxtpx:hr></gpxtpx:TrackPointExtension></extensions>
      </trkpt>
      <trkpt lat="59.98475" lon="15.8277535">
        <ele>144.6</ele>
        <time>2013-11-20T20:48:54Z</time>
        <extensions><gpxtpx:TrackPointExtension><gpxtpx:hr>158</gpxtpx:hr></gpxtpx:TrackPointExtension></extensions>
      </trkpt>
      <trkpt lat="59.9847528" lon="15.8277503">
        <ele>144.6</ele>
        <time>2013-11-20T20:48:55Z</time>
        <extensions><gpxtpx:TrackPointExtension><gpxtpx:hr>157</gpxtpx:hr></gpxtpx:TrackPointExtension></extensions>
      </trkpt>
      <trkpt lat="59.9847554" lon="15.8277499">
        <ele>144.6</ele>
        <time>2013-11-20T20:48:56Z</time>
        <extensions><gpxtpx:TrackPointExtension><gpxtpx:hr>157</gpxtpx:hr></gpxtpx:TrackPointExtension></extensions>
      </trkpt>
      <trkpt lat="59.9847568" lon="15.8277507">
        <ele>144.6</ele>
        <time>2013-11-20T20:48:57Z</time>
        <extensions><gpxtpx:TrackPointExtension><gpxtpx:hr>157</gpxtpx:hr></gpxtpx:TrackPointExtension></extensions>
      </trkpt>
      <trkpt lat="59.9847536" lon="15.827763">
        <ele>144.6</ele>
        <time>2013-11-20T20:48:59Z</time>
        <extensions><gpxtpx:TrackPointExtension><gpxtpx:hr>157</gpxtpx:hr></gpxtpx:TrackPointExtension></extensions>
      </trkpt>
      <trkpt lat="59.9847523" lon="15.8277649">
        <ele>144.6</ele>
        <time>2013-11-20T20:49:00Z</time>
        <extensions><gpxtpx:TrackPointExtension><gpxtpx:hr>157</gpxtpx:hr></gpxtpx:TrackPointExtension></extensions>
      </trkpt>
      <trkpt lat="59.9847503" lon="15.8277668">
        <ele>144.6</ele>
        <time>2013-11-20T20:49:01Z</time>
        <extensions><gpxtpx:TrackPointExtension><gpxtpx:hr>157</gpxtpx:hr></gpxtpx:TrackPointExtension></extensions>
      </trkpt>
      <trkpt lat="59.9847474" lon="15.827771">
        <ele>144.6</ele>
        <time>2013-11-20T20:49:02Z</time>
        <extensions><gpxtpx:TrackPointExtension><gpxtpx:hr>157</gpxtpx:hr></gpxtpx:TrackPointExtension></extensions>
      </trkpt>
      <trkpt lat="59.9847456" lon="15.8277722">
        <ele>144.6</ele>
        <time>2013-11-20T20:49:03Z</time>
        <extensions><gpxtpx:TrackPointExtension><gpxtpx:hr>157</gpxtpx:hr></gpxtpx:TrackPointExtension></extensions>
      </trkpt>
      <trkpt lat="59.9847449" lon="15.8277705">
        <ele>144.6</ele>
        <time>2013-11-20T20:49:04Z</time>
        <extensions><gpxtpx:TrackPointExtension><gpxtpx:hr>157</gpxtpx:hr></gpxtpx:TrackPointExtension></extensions>
      </trkpt>
      <trkpt lat="59.9847483" lon="15.8277701">
        <ele>144.6</ele>
        <time>2013-11-20T20:49:05Z</time>
        <extensions><gpxtpx:TrackPointExtension><gpxtpx:hr>157</gpxtpx:hr></gpxtpx:TrackPointExtension></extensions>
      </trkpt>
      <trkpt lat="59.9847552" lon="15.8277637">
        <ele>144.6</ele>
        <time>2013-11-20T20:49:07Z</time>
        <extensions><gpxtpx:TrackPointExtension><gpxtpx:hr>157</gpxtpx:hr></gpxtpx:TrackPointExtension></extensions>
      </trkpt>
      <trkpt lat="59.9847569" lon="15.8277605">
        <ele>144.6</ele>
        <time>2013-11-20T20:49:08Z</time>
        <extensions><gpxtpx:TrackPointExtension><gpxtpx:hr>157</gpxtpx:hr></gpxtpx:TrackPointExtension></extensions>
      </trkpt>
      <trkpt lat="59.9847601" lon="15.8277571">
        <ele>144.6</ele>
        <time>2013-11-20T20:49:09Z</time>
        <extensions><gpxtpx:TrackPointExtension><gpxtpx:hr>157</gpxtpx:hr></gpxtpx:TrackPointExtension></extensions>
      </trkpt>
      <trkpt lat="59.984759" lon="15.8277587">
        <ele>144.6</ele>
        <time>2013-11-20T20:49:12Z</time>
        <extensions><gpxtpx:TrackPointExtension><gpxtpx:hr>157</gpxtpx:hr></gpxtpx:TrackPointExtension></extensions>
      </trkpt>
      <trkpt lat="59.9847594" lon="15.8277586">
        <ele>144.6</ele>
        <time>2013-11-20T20:49:13Z</time>
        <extensions><gpxtpx:TrackPointExtension><gpxtpx:hr>157</gpxtpx:hr></gpxtpx:TrackPointExtension></extensions>
      </trkpt>
      <trkpt lat="59.9847544" lon="15.8277652">
        <ele>144.6</ele>
        <time>2013-11-20T20:49:14Z</time>
        <extensions><gpxtpx:TrackPointExtension><gpxtpx:hr>157</gpxtpx:hr></gpxtpx:TrackPointExtension></extensions>
      </trkpt>
      <trkpt lat="59.9847379" lon="15.8278044">
        <ele>144.6</ele>
        <time>2013-11-20T20:49:15Z</time>
        <extensions><gpxtpx:TrackPointExtension><gpxtpx:hr>157</gpxtpx:hr></gpxtpx:TrackPointExtension></extensions>
      </trkpt>
      <trkpt lat="59.9847269" lon="15.8278205">
        <ele>144.6</ele>
        <time>2013-11-20T20:49:16Z</time>
        <extensions><gpxtpx:TrackPointExtension><gpxtpx:hr>157</gpxtpx:hr></gpxtpx:TrackPointExtension></extensions>
      </trkpt>
      <trkpt lat="59.9847235" lon="15.8278253">
        <ele>144.6</ele>
        <time>2013-11-20T20:49:17Z</time>
        <extensions><gpxtpx:TrackPointExtension><gpxtpx:hr>157</gpxtpx:hr></gpxtpx:TrackPointExtension></extensions>
      </trkpt>
      <trkpt lat="59.9847212" lon="15.8278293">
        <ele>144.6</ele>
        <time>2013-11-20T20:49:18Z</time>
        <extensions><gpxtpx:TrackPointExtension><gpxtpx:hr>157</gpxtpx:hr></gpxtpx:TrackPointExtension></extensions>
      </trkpt>
      <trkpt lat="59.9847279" lon="15.8278238">
        <ele>144.6</ele>
        <time>2013-11-20T20:49:20Z</time>
        <extensions><gpxtpx:TrackPointExtension><gpxtpx:hr>157</gpxtpx:hr></gpxtpx:TrackPointExtension></extensions>
      </trkpt>
      <trkpt lat="59.9847331" lon="15.8278205">
        <ele>144.6</ele>
        <time>2013-11-20T20:49:21Z</time>
        <extensions><gpxtpx:TrackPointExtension><gpxtpx:hr>157</gpxtpx:hr></gpxtpx:TrackPointExtension></extensions>
      </trkpt>
      <trkpt lat="59.9847349" lon="15.8278203">
        <ele>144.6</ele>
        <time>2013-11-20T20:49:22Z</time>
        <extensions><gpxtpx:TrackPointExtension><gpxtpx:hr>157</gpxtpx:hr></gpxtpx:TrackPointExtension></extensions>
      </trkpt>
      <trkpt lat="59.9847357" lon="15.8278204">
        <ele>144.6</ele>
        <time>2013-11-20T20:49:23Z</time>
        <extensions><gpxtpx:TrackPointExtension><gpxtpx:hr>158</gpxtpx:hr></gpxtpx:TrackPointExtension></extensions>
      </trkpt>
      <trkpt lat="59.9847352" lon="15.8278227">
        <ele>144.6</ele>
        <time>2013-11-20T20:49:24Z</time>
        <extensions><gpxtpx:TrackPointExtension><gpxtpx:hr>158</gpxtpx:hr></gpxtpx:TrackPointExtension></extensions>
      </trkpt>
      <trkpt lat="59.9847316" lon="15.8278284">
        <ele>144.6</ele>
        <time>2013-11-20T20:49:25Z</time>
        <extensions><gpxtpx:TrackPointExtension><gpxtpx:hr>158</gpxtpx:hr></gpxtpx:TrackPointExtension></extensions>
      </trkpt>
      <trkpt lat="59.9847269" lon="15.8278325">
        <ele>144.6</ele>
        <time>2013-11-20T20:49:26Z</time>
        <extensions><gpxtpx:TrackPointExtension><gpxtpx:hr>158</gpxtpx:hr></gpxtpx:TrackPointExtension></extensions>
      </trkpt>
      <trkpt lat="59.9847218" lon="15.8278375">
        <ele>144.6</ele>
        <time>2013-11-20T20:49:27Z</time>
        <extensions><gpxtpx:TrackPointExtension><gpxtpx:hr>157</gpxtpx:hr></gpxtpx:TrackPointExtension></extensions>
      </trkpt>
      <trkpt lat="59.9847126" lon="15.8278485">
        <ele>144.6</ele>
        <time>2013-11-20T20:49:32Z</time>
        <extensions><gpxtpx:TrackPointExtension><gpxtpx:hr>158</gpxtpx:hr></gpxtpx:TrackPointExtension></extensions>
      </trkpt>
      <trkpt lat="59.9847142" lon="15.8278479">
        <ele>144.6</ele>
        <time>2013-11-20T20:49:33Z</time>
        <extensions><gpxtpx:TrackPointExtension><gpxtpx:hr>158</gpxtpx:hr></gpxtpx:TrackPointExtension></extensions>
      </trkpt>
      <trkpt lat="59.9847182" lon="15.8278453">
        <ele>144.6</ele>
        <time>2013-11-20T20:49:34Z</time>
        <extensions><gpxtpx:TrackPointExtension><gpxtpx:hr>158</gpxtpx:hr></gpxtpx:TrackPointExtension></extensions>
      </trkpt>
      <trkpt lat="59.9847232" lon="15.8278416">
        <ele>144.6</ele>
        <time>2013-11-20T20:49:35Z</time>
        <extensions><gpxtpx:TrackPointExtension><gpxtpx:hr>158</gpxtpx:hr></gpxtpx:TrackPointExtension></extensions>
      </trkpt>
      <trkpt lat="59.9847189" lon="15.8278475">
        <ele>144.6</ele>
        <time>2013-11-20T20:49:40Z</time>
        <extensions><gpxtpx:TrackPointExtension><gpxtpx:hr>159</gpxtpx:hr></gpxtpx:TrackPointExtension></extensions>
      </trkpt>
      <trkpt lat="59.9847294" lon="15.8278433">
        <ele>144.6</ele>
        <time>2013-11-20T20:49:48Z</time>
        <extensions><gpxtpx:TrackPointExtension><gpxtpx:hr>160</gpxtpx:hr></gpxtpx:TrackPointExtension></extensions>
      </trkpt>
      <trkpt lat="59.9847204" lon="15.8278527">
        <ele>144.6</ele>
        <time>2013-11-20T20:49:51Z</time>
        <extensions><gpxtpx:TrackPointExtension><gpxtpx:hr>160</gpxtpx:hr></gpxtpx:TrackPointExtension></extensions>
      </trkpt>
      <trkpt lat="59.9847215" lon="15.8278508">
        <ele>144.6</ele>
        <time>2013-11-20T20:49:52Z</time>
        <extensions><gpxtpx:TrackPointExtension><gpxtpx:hr>160</gpxtpx:hr></gpxtpx:TrackPointExtension></extensions>
      </trkpt>
      <trkpt lat="59.9847259" lon="15.8278474">
        <ele>144.6</ele>
        <time>2013-11-20T20:49:53Z</time>
        <extensions><gpxtpx:TrackPointExtension><gpxtpx:hr>160</gpxtpx:hr></gpxtpx:TrackPointExtension></extensions>
      </trkpt>
      <trkpt lat="59.9847253" lon="15.8278488">
        <ele>144.6</ele>
        <time>2013-11-20T20:49:54Z</time>
        <extensions><gpxtpx:TrackPointExtension><gpxtpx:hr>160</gpxtpx:hr></gpxtpx:TrackPointExtension></extensions>
      </trkpt>
      <trkpt lat="59.9847254" lon="15.8278499">
        <ele>144.6</ele>
        <time>2013-11-20T20:49:55Z</time>
        <extensions><gpxtpx:TrackPointExtension><gpxtpx:hr>160</gpxtpx:hr></gpxtpx:TrackPointExtension></extensions>
      </trkpt>
      <trkpt lat="59.9847287" lon="15.8278496">
        <ele>144.6</ele>
        <time>2013-11-20T20:49:57Z</time>
        <extensions><gpxtpx:TrackPointExtension><gpxtpx:hr>160</gpxtpx:hr></gpxtpx:TrackPointExtension></extensions>
      </trkpt>
      <trkpt lat="59.9847305" lon="15.8278483">
        <ele>144.6</ele>
        <time>2013-11-20T20:49:58Z</time>
        <extensions><gpxtpx:TrackPointExtension><gpxtpx:hr>161</gpxtpx:hr></gpxtpx:TrackPointExtension></extensions>
      </trkpt>
      <trkpt lat="59.9847283" lon="15.8278462">
        <ele>144.6</ele>
        <time>2013-11-20T20:50:00Z</time>
        <extensions><gpxtpx:TrackPointExtension><gpxtpx:hr>160</gpxtpx:hr></gpxtpx:TrackPointExtension></extensions>
      </trkpt>
      <trkpt lat="59.9847202" lon="15.8278552">
        <ele>144.6</ele>
        <time>2013-11-20T20:50:05Z</time>
        <extensions><gpxtpx:TrackPointExtension><gpxtpx:hr>160</gpxtpx:hr></gpxtpx:TrackPointExtension></extensions>
      </trkpt>
      <trkpt lat="59.9847167" lon="15.8278597">
        <ele>144.6</ele>
        <time>2013-11-20T20:50:06Z</time>
        <extensions><gpxtpx:TrackPointExtension><gpxtpx:hr>160</gpxtpx:hr></gpxtpx:TrackPointExtension></extensions>
      </trkpt>
      <trkpt lat="59.9847206" lon="15.8278593">
        <ele>144.6</ele>
        <time>2013-11-20T20:50:09Z</time>
        <extensions><gpxtpx:TrackPointExtension><gpxtpx:hr>159</gpxtpx:hr></gpxtpx:TrackPointExtension></extensions>
      </trkpt>
      <trkpt lat="59.9847228" lon="15.8278577">
        <ele>144.6</ele>
        <time>2013-11-20T20:50:10Z</time>
        <extensions><gpxtpx:TrackPointExtension><gpxtpx:hr>159</gpxtpx:hr></gpxtpx:TrackPointExtension></extensions>
      </trkpt>
      <trkpt lat="59.9847224" lon="15.82786">
        <ele>144.6</ele>
        <time>2013-11-20T20:50:11Z</time>
        <extensions><gpxtpx:TrackPointExtension><gpxtpx:hr>159</gpxtpx:hr></gpxtpx:TrackPointExtension></extensions>
      </trkpt>
      <trkpt lat="59.984723" lon="15.827865">
        <ele>144.6</ele>
        <time>2013-11-20T20:50:12Z</time>
        <extensions><gpxtpx:TrackPointExtension><gpxtpx:hr>159</gpxtpx:hr></gpxtpx:TrackPointExtension></extensions>
      </trkpt>
      <trkpt lat="59.9847288" lon="15.8278627">
        <ele>144.6</ele>
        <time>2013-11-20T20:50:13Z</time>
        <extensions><gpxtpx:TrackPointExtension><gpxtpx:hr>158</gpxtpx:hr></gpxtpx:TrackPointExtension></extensions>
      </trkpt>
      <trkpt lat="59.984787" lon="15.8278029">
        <ele>144.6</ele>
        <time>2013-11-20T20:50:14Z</time>
        <extensions><gpxtpx:TrackPointExtension><gpxtpx:hr>159</gpxtpx:hr></gpxtpx:TrackPointExtension></extensions>
      </trkpt>
      <trkpt lat="59.9847909" lon="15.8277949">
        <ele>144.6</ele>
        <time>2013-11-20T20:50:15Z</time>
        <extensions><gpxtpx:TrackPointExtension><gpxtpx:hr>158</gpxtpx:hr></gpxtpx:TrackPointExtension></extensions>
      </trkpt>
      <trkpt lat="59.9847919" lon="15.8277881">
        <ele>144.6</ele>
        <time>2013-11-20T20:50:16Z</time>
        <extensions><gpxtpx:TrackPointExtension><gpxtpx:hr>158</gpxtpx:hr></gpxtpx:TrackPointExtension></extensions>
      </trkpt>
      <trkpt lat="59.9847922" lon="15.8277772">
        <ele>144.6</ele>
        <time>2013-11-20T20:50:17Z</time>
        <extensions><gpxtpx:TrackPointExtension><gpxtpx:hr>159</gpxtpx:hr></gpxtpx:TrackPointExtension></extensions>
      </trkpt>
      <trkpt lat="59.9847891" lon="15.8277871">
        <ele>144.6</ele>
        <time>2013-11-20T20:50:18Z</time>
        <extensions><gpxtpx:TrackPointExtension><gpxtpx:hr>159</gpxtpx:hr></gpxtpx:TrackPointExtension></extensions>
      </trkpt>
      <trkpt lat="59.9847864" lon="15.827797">
        <ele>144.6</ele>
        <time>2013-11-20T20:50:19Z</time>
        <extensions><gpxtpx:TrackPointExtension><gpxtpx:hr>159</gpxtpx:hr></gpxtpx:TrackPointExtension></extensions>
      </trkpt>
      <trkpt lat="59.984784" lon="15.827798">
        <ele>144.6</ele>
        <time>2013-11-20T20:50:20Z</time>
        <extensions><gpxtpx:TrackPointExtension><gpxtpx:hr>159</gpxtpx:hr></gpxtpx:TrackPointExtension></extensions>
      </trkpt>
      <trkpt lat="59.9847794" lon="15.8277897">
        <ele>144.6</ele>
        <time>2013-11-20T20:50:21Z</time>
        <extensions><gpxtpx:TrackPointExtension><gpxtpx:hr>159</gpxtpx:hr></gpxtpx:TrackPointExtension></extensions>
      </trkpt>
      <trkpt lat="59.9847767" lon="15.8277794">
        <ele>144.6</ele>
        <time>2013-11-20T20:50:22Z</time>
        <extensions><gpxtpx:TrackPointExtension><gpxtpx:hr>159</gpxtpx:hr></gpxtpx:TrackPointExtension></extensions>
      </trkpt>
      <trkpt lat="59.9847758" lon="15.8277691">
        <ele>144.6</ele>
        <time>2013-11-20T20:50:23Z</time>
        <extensions><gpxtpx:TrackPointExtension><gpxtpx:hr>159</gpxtpx:hr></gpxtpx:TrackPointExtension></extensions>
      </trkpt>
      <trkpt lat="59.9847731" lon="15.8277732">
        <ele>144.6</ele>
        <time>2013-11-20T20:50:26Z</time>
        <extensions><gpxtpx:TrackPointExtension><gpxtpx:hr>159</gpxtpx:hr></gpxtpx:TrackPointExtension></extensions>
      </trkpt>
      <trkpt lat="59.9847739" lon="15.8277802">
        <ele>144.6</ele>
        <time>2013-11-20T20:50:27Z</time>
        <extensions><gpxtpx:TrackPointExtension><gpxtpx:hr>160</gpxtpx:hr></gpxtpx:TrackPointExtension></extensions>
      </trkpt>
      <trkpt lat="59.9847737" lon="15.8277917">
        <ele>144.6</ele>
        <time>2013-11-20T20:50:28Z</time>
        <extensions><gpxtpx:TrackPointExtension><gpxtpx:hr>159</gpxtpx:hr></gpxtpx:TrackPointExtension></extensions>
      </trkpt>
      <trkpt lat="59.9847733" lon="15.8277876">
        <ele>144.6</ele>
        <time>2013-11-20T20:50:32Z</time>
        <extensions><gpxtpx:TrackPointExtension><gpxtpx:hr>159</gpxtpx:hr></gpxtpx:TrackPointExtension></extensions>
      </trkpt>
      <trkpt lat="59.9847734" lon="15.8277883">
        <ele>144.6</ele>
        <time>2013-11-20T20:50:33Z</time>
        <extensions><gpxtpx:TrackPointExtension><gpxtpx:hr>159</gpxtpx:hr></gpxtpx:TrackPointExtension></extensions>
      </trkpt>
      <trkpt lat="59.9847823" lon="15.8277884">
        <ele>144.6</ele>
        <time>2013-11-20T20:50:35Z</time>
        <extensions><gpxtpx:TrackPointExtension><gpxtpx:hr>159</gpxtpx:hr></gpxtpx:TrackPointExtension></extensions>
      </trkpt>
      <trkpt lat="59.9847808" lon="15.8278004">
        <ele>144.6</ele>
        <time>2013-11-20T20:50:36Z</time>
        <extensions><gpxtpx:TrackPointExtension><gpxtpx:hr>159</gpxtpx:hr></gpxtpx:TrackPointExtension></extensions>
      </trkpt>
      <trkpt lat="59.9847793" lon="15.827808">
        <ele>144.6</ele>
        <time>2013-11-20T20:50:38Z</time>
        <extensions><gpxtpx:TrackPointExtension><gpxtpx:hr>158</gpxtpx:hr></gpxtpx:TrackPointExtension></extensions>
      </trkpt>
      <trkpt lat="59.9847765" lon="15.8278049">
        <ele>144.6</ele>
        <time>2013-11-20T20:50:39Z</time>
        <extensions><gpxtpx:TrackPointExtension><gpxtpx:hr>159</gpxtpx:hr></gpxtpx:TrackPointExtension></extensions>
      </trkpt>
      <trkpt lat="59.9847733" lon="15.8278036">
        <ele>144.6</ele>
        <time>2013-11-20T20:50:40Z</time>
        <extensions><gpxtpx:TrackPointExtension><gpxtpx:hr>158</gpxtpx:hr></gpxtpx:TrackPointExtension></extensions>
      </trkpt>
      <trkpt lat="59.9847715" lon="15.8278118">
        <ele>144.6</ele>
        <time>2013-11-20T20:50:41Z</time>
        <extensions><gpxtpx:TrackPointExtension><gpxtpx:hr>159</gpxtpx:hr></gpxtpx:TrackPointExtension></extensions>
      </trkpt>
      <trkpt lat="59.9847717" lon="15.8278161">
        <ele>144.6</ele>
        <time>2013-11-20T20:50:42Z</time>
        <extensions><gpxtpx:TrackPointExtension><gpxtpx:hr>159</gpxtpx:hr></gpxtpx:TrackPointExtension></extensions>
      </trkpt>
      <trkpt lat="59.9847695" lon="15.827828">
        <ele>144.6</ele>
        <time>2013-11-20T20:50:44Z</time>
        <extensions><gpxtpx:TrackPointExtension><gpxtpx:hr>159</gpxtpx:hr></gpxtpx:TrackPointExtension></extensions>
      </trkpt>
      <trkpt lat="59.9847631" lon="15.8278322">
        <ele>144.6</ele>
        <time>2013-11-20T20:50:47Z</time>
        <extensions><gpxtpx:TrackPointExtension><gpxtpx:hr>159</gpxtpx:hr></gpxtpx:TrackPointExtension></extensions>
      </trkpt>
      <trkpt lat="59.9847644" lon="15.827835">
        <ele>144.6</ele>
        <time>2013-11-20T20:50:48Z</time>
        <extensions><gpxtpx:TrackPointExtension><gpxtpx:hr>158</gpxtpx:hr></gpxtpx:TrackPointExtension></extensions>
      </trkpt>
      <trkpt lat="59.984767" lon="15.8278411">
        <ele>144.6</ele>
        <time>2013-11-20T20:50:49Z</time>
        <extensions><gpxtpx:TrackPointExtension><gpxtpx:hr>158</gpxtpx:hr></gpxtpx:TrackPointExtension></extensions>
      </trkpt>
      <trkpt lat="59.9847654" lon="15.8278431">
        <ele>144.6</ele>
        <time>2013-11-20T20:50:50Z</time>
        <extensions><gpxtpx:TrackPointExtension><gpxtpx:hr>158</gpxtpx:hr></gpxtpx:TrackPointExtension></extensions>
      </trkpt>
      <trkpt lat="59.9847631" lon="15.8278415">
        <ele>144.6</ele>
        <time>2013-11-20T20:50:51Z</time>
        <extensions><gpxtpx:TrackPointExtension><gpxtpx:hr>158</gpxtpx:hr></gpxtpx:TrackPointExtension></extensions>
      </trkpt>
      <trkpt lat="59.9847635" lon="15.827836">
        <ele>144.6</ele>
        <time>2013-11-20T20:50:52Z</time>
        <extensions><gpxtpx:TrackPointExtension><gpxtpx:hr>158</gpxtpx:hr></gpxtpx:TrackPointExtension></extensions>
      </trkpt>
      <trkpt lat="59.984773" lon="15.827837">
        <ele>144.6</ele>
        <time>2013-11-20T20:50:56Z</time>
        <extensions><gpxtpx:TrackPointExtension><gpxtpx:hr>158</gpxtpx:hr></gpxtpx:TrackPointExtension></extensions>
      </trkpt>
      <trkpt lat="59.9847832" lon="15.8278439">
        <ele>144.6</ele>
        <time>2013-11-20T20:51:01Z</time>
        <extensions><gpxtpx:TrackPointExtension><gpxtpx:hr>159</gpxtpx:hr></gpxtpx:TrackPointExtension></extensions>
      </trkpt>
      <trkpt lat="59.9847763" lon="15.8278666">
        <ele>144.6</ele>
        <time>2013-11-20T20:51:07Z</time>
        <extensions><gpxtpx:TrackPointExtension><gpxtpx:hr>159</gpxtpx:hr></gpxtpx:TrackPointExtension></extensions>
      </trkpt>
      <trkpt lat="59.9847807" lon="15.8278576">
        <ele>144.6</ele>
        <time>2013-11-20T20:51:08Z</time>
        <extensions><gpxtpx:TrackPointExtension><gpxtpx:hr>158</gpxtpx:hr></gpxtpx:TrackPointExtension></extensions>
      </trkpt>
      <trkpt lat="59.9847553" lon="15.8277958">
        <ele>144.6</ele>
        <time>2013-11-20T20:51:09Z</time>
        <extensions><gpxtpx:TrackPointExtension><gpxtpx:hr>159</gpxtpx:hr></gpxtpx:TrackPointExtension></extensions>
      </trkpt>
      <trkpt lat="59.9847558" lon="15.8277862">
        <ele>144.6</ele>
        <time>2013-11-20T20:51:10Z</time>
        <extensions><gpxtpx:TrackPointExtension><gpxtpx:hr>158</gpxtpx:hr></gpxtpx:TrackPointExtension></extensions>
      </trkpt>
      <trkpt lat="59.9847535" lon="15.8277904">
        <ele>144.6</ele>
        <time>2013-11-20T20:51:11Z</time>
        <extensions><gpxtpx:TrackPointExtension><gpxtpx:hr>158</gpxtpx:hr></gpxtpx:TrackPointExtension></extensions>
      </trkpt>
      <trkpt lat="59.9847518" lon="15.8277944">
        <ele>144.6</ele>
        <time>2013-11-20T20:51:12Z</time>
        <extensions><gpxtpx:TrackPointExtension><gpxtpx:hr>158</gpxtpx:hr></gpxtpx:TrackPointExtension></extensions>
      </trkpt>
      <trkpt lat="59.9847502" lon="15.8277949">
        <ele>144.6</ele>
        <time>2013-11-20T20:51:13Z</time>
        <extensions><gpxtpx:TrackPointExtension><gpxtpx:hr>158</gpxtpx:hr></gpxtpx:TrackPointExtension></extensions>
      </trkpt>
      <trkpt lat="59.9847502" lon="15.8277918">
        <ele>144.6</ele>
        <time>2013-11-20T20:51:14Z</time>
        <extensions><gpxtpx:TrackPointExtension><gpxtpx:hr>158</gpxtpx:hr></gpxtpx:TrackPointExtension></extensions>
      </trkpt>
      <trkpt lat="59.9847553" lon="15.8277898">
        <ele>144.6</ele>
        <time>2013-11-20T20:51:15Z</time>
        <extensions><gpxtpx:TrackPointExtension><gpxtpx:hr>158</gpxtpx:hr></gpxtpx:TrackPointExtension></extensions>
      </trkpt>
      <trkpt lat="59.9847577" lon="15.82778">
        <ele>144.6</ele>
        <time>2013-11-20T20:51:18Z</time>
        <extensions><gpxtpx:TrackPointExtension><gpxtpx:hr>159</gpxtpx:hr></gpxtpx:TrackPointExtension></extensions>
      </trkpt>
      <trkpt lat="59.984756" lon="15.827781">
        <ele>144.6</ele>
        <time>2013-11-20T20:51:23Z</time>
        <extensions><gpxtpx:TrackPointExtension><gpxtpx:hr>158</gpxtpx:hr></gpxtpx:TrackPointExtension></extensions>
      </trkpt>
      <trkpt lat="59.9847486" lon="15.8277858">
        <ele>144.6</ele>
        <time>2013-11-20T20:51:27Z</time>
        <extensions><gpxtpx:TrackPointExtension><gpxtpx:hr>159</gpxtpx:hr></gpxtpx:TrackPointExtension></extensions>
      </trkpt>
      <trkpt lat="59.9847481" lon="15.827789">
        <ele>144.6</ele>
        <time>2013-11-20T20:51:28Z</time>
        <extensions><gpxtpx:TrackPointExtension><gpxtpx:hr>158</gpxtpx:hr></gpxtpx:TrackPointExtension></extensions>
      </trkpt>
      <trkpt lat="59.9847463" lon="15.8277933">
        <ele>144.6</ele>
        <time>2013-11-20T20:51:29Z</time>
        <extensions><gpxtpx:TrackPointExtension><gpxtpx:hr>159</gpxtpx:hr></gpxtpx:TrackPointExtension></extensions>
      </trkpt>
      <trkpt lat="59.9847445" lon="15.8277964">
        <ele>144.6</ele>
        <time>2013-11-20T20:51:30Z</time>
        <extensions><gpxtpx:TrackPointExtension><gpxtpx:hr>158</gpxtpx:hr></gpxtpx:TrackPointExtension></extensions>
      </trkpt>
      <trkpt lat="59.9847425" lon="15.8277999">
        <ele>144.6</ele>
        <time>2013-11-20T20:51:31Z</time>
        <extensions><gpxtpx:TrackPointExtension><gpxtpx:hr>158</gpxtpx:hr></gpxtpx:TrackPointExtension></extensions>
      </trkpt>
      <trkpt lat="59.9847419" lon="15.8278011">
        <ele>144.6</ele>
        <time>2013-11-20T20:51:32Z</time>
        <extensions><gpxtpx:TrackPointExtension><gpxtpx:hr>158</gpxtpx:hr></gpxtpx:TrackPointExtension></extensions>
      </trkpt>
      <trkpt lat="59.9847402" lon="15.8278042">
        <ele>144.6</ele>
        <time>2013-11-20T20:51:35Z</time>
        <extensions><gpxtpx:TrackPointExtension><gpxtpx:hr>159</gpxtpx:hr></gpxtpx:TrackPointExtension></extensions>
      </trkpt>
      <trkpt lat="59.9847412" lon="15.8278035">
        <ele>144.6</ele>
        <time>2013-11-20T20:51:36Z</time>
        <extensions><gpxtpx:TrackPointExtension><gpxtpx:hr>159</gpxtpx:hr></gpxtpx:TrackPointExtension></extensions>
      </trkpt>
      <trkpt lat="59.9847383" lon="15.8278104">
        <ele>144.6</ele>
        <time>2013-11-20T20:51:37Z</time>
        <extensions><gpxtpx:TrackPointExtension><gpxtpx:hr>159</gpxtpx:hr></gpxtpx:TrackPointExtension></extensions>
      </trkpt>
      <trkpt lat="59.9847259" lon="15.8278177">
        <ele>144.6</ele>
        <time>2013-11-20T20:51:38Z</time>
        <extensions><gpxtpx:TrackPointExtension><gpxtpx:hr>159</gpxtpx:hr></gpxtpx:TrackPointExtension></extensions>
      </trkpt>
      <trkpt lat="59.9847202" lon="15.827821">
        <ele>144.6</ele>
        <time>2013-11-20T20:51:39Z</time>
        <extensions><gpxtpx:TrackPointExtension><gpxtpx:hr>159</gpxtpx:hr></gpxtpx:TrackPointExtension></extensions>
      </trkpt>
      <trkpt lat="59.9847147" lon="15.8278268">
        <ele>144.6</ele>
        <time>2013-11-20T20:51:40Z</time>
        <extensions><gpxtpx:TrackPointExtension><gpxtpx:hr>159</gpxtpx:hr></gpxtpx:TrackPointExtension></extensions>
      </trkpt>
      <trkpt lat="59.9847143" lon="15.8278275">
        <ele>144.6</ele>
        <time>2013-11-20T20:51:41Z</time>
        <extensions><gpxtpx:TrackPointExtension><gpxtpx:hr>159</gpxtpx:hr></gpxtpx:TrackPointExtension></extensions>
      </trkpt>
      <trkpt lat="59.984718" lon="15.8278223">
        <ele>144.6</ele>
        <time>2013-11-20T20:51:43Z</time>
        <extensions><gpxtpx:TrackPointExtension><gpxtpx:hr>159</gpxtpx:hr></gpxtpx:TrackPointExtension></extensions>
      </trkpt>
      <trkpt lat="59.9847203" lon="15.8278164">
        <ele>145.6</ele>
        <time>2013-11-20T20:51:47Z</time>
        <extensions><gpxtpx:TrackPointExtension><gpxtpx:hr>159</gpxtpx:hr></gpxtpx:TrackPointExtension></extensions>
      </trkpt>
      <trkpt lat="59.9847211" lon="15.8278156">
        <ele>145.6</ele>
        <time>2013-11-20T20:51:49Z</time>
        <extensions><gpxtpx:TrackPointExtension><gpxtpx:hr>159</gpxtpx:hr></gpxtpx:TrackPointExtension></extensions>
      </trkpt>
      <trkpt lat="59.9847161" lon="15.8278222">
        <ele>145.6</ele>
        <time>2013-11-20T20:51:50Z</time>
        <extensions><gpxtpx:TrackPointExtension><gpxtpx:hr>159</gpxtpx:hr></gpxtpx:TrackPointExtension></extensions>
      </trkpt>
      <trkpt lat="59.984712" lon="15.8278298">
        <ele>145.6</ele>
        <time>2013-11-20T20:51:51Z</time>
        <extensions><gpxtpx:TrackPointExtension><gpxtpx:hr>159</gpxtpx:hr></gpxtpx:TrackPointExtension></extensions>
      </trkpt>
      <trkpt lat="59.9847087" lon="15.8278369">
        <ele>145.6</ele>
        <time>2013-11-20T20:51:52Z</time>
        <extensions><gpxtpx:TrackPointExtension><gpxtpx:hr>158</gpxtpx:hr></gpxtpx:TrackPointExtension></extensions>
      </trkpt>
      <trkpt lat="59.9847021" lon="15.8278332">
        <ele>145.6</ele>
        <time>2013-11-20T20:51:57Z</time>
        <extensions><gpxtpx:TrackPointExtension><gpxtpx:hr>158</gpxtpx:hr></gpxtpx:TrackPointExtension></extensions>
      </trkpt>
      <trkpt lat="59.9846996" lon="15.8278284">
        <ele>145.6</ele>
        <time>2013-11-20T20:51:58Z</time>
        <extensions><gpxtpx:TrackPointExtension><gpxtpx:hr>158</gpxtpx:hr></gpxtpx:TrackPointExtension></extensions>
      </trkpt>
      <trkpt lat="59.984701" lon="15.8278288">
        <ele>145.6</ele>
        <time>2013-11-20T20:51:59Z</time>
        <extensions><gpxtpx:TrackPointExtension><gpxtpx:hr>158</gpxtpx:hr></gpxtpx:TrackPointExtension></extensions>
      </trkpt>
    </trkseg>
  </trk>
</gpx>